GFSCGP_sfc_wetblb_000.txt.gz
Wetbulb
46.85 42.24 38.01 39.98 41.84 42.73 42.82 39.80 38.32 38.87 43.37 42.12 41.32 41.03 42.43 46.47 48.79 48.12 48.84 50.39 50.53 49.98 51.36 52.95 53.23 53.28 52.98 52.86 52.69 53.24 53.94 54.84 51.87 50.44 50.22 51.32 49.10 49.77 49.46 49.42 50.67 51.03 51.29 51.01
42.79 38.85 43.48 45.60 45.93 44.17 43.26 41.36 39.66 42.09 44.96 42.06 41.04 39.72 43.44 46.66 46.82 48.20 48.78 49.14 49.24 49.61 50.15 51.11 51.08 51.38 50.80 50.63 51.63 51.85 51.04 50.57 50.87 51.67 50.98 50.75 48.90 48.65 49.14 51.84 51.49 50.53 50.07 49.49
40.35 43.14 46.88 46.08 43.82 43.07 41.94 40.45 39.55 40.26 41.78 41.53 42.72 38.89 42.07 44.70 46.01 46.84 46.89 48.26 49.59 49.71 49.12 50.01 50.25 48.63 47.87 47.94 48.94 49.26 48.73 48.90 49.89 50.70 49.02 48.97 49.07 49.21 48.88 48.09 47.51 48.47 47.71 47.24
43.05 46.61 46.16 44.31 43.06 42.76 39.44 44.42 43.42 41.59 38.25 33.56 39.02 30.82 38.53 41.80 43.51 45.67 46.81 46.97 48.51 49.08 50.08 49.84 48.71 47.94 48.08 47.25 47.51 48.14 48.81 48.64 48.84 48.70 47.65 47.89 46.72 45.67 46.66 46.09 45.01 44.19 45.30 45.66
42.13 43.63 43.63 42.66 42.90 44.48 42.60 45.05 42.60 41.59 37.61 36.06 37.32 33.89 36.94 42.37 40.77 42.16 43.30 45.95 46.49 47.69 48.18 48.19 48.38 48.78 48.14 47.75 47.56 47.51 48.51 48.54 48.24 48.06 47.22 46.78 45.05 44.23 44.40 44.08 42.36 42.47 43.34 44.30
43.95 46.53 44.65 43.50 46.01 45.48 45.80 43.84 42.72 41.19 38.18 29.88 37.88 35.86 35.06 38.03 41.35 43.86 44.51 45.32 46.44 46.57 47.23 48.18 48.95 49.20 48.25 47.46 46.89 46.39 47.08 47.91 47.86 46.89 46.58 46.60 43.85 42.98 42.24 40.89 40.27 40.89 42.00 42.43
43.02 43.36 45.43 46.61 43.44 45.40 43.22 39.43 32.31 30.36 27.61 27.60 40.56 36.60 37.05 42.81 45.01 45.40 44.80 44.99 45.69 46.24 46.85 47.55 47.87 47.56 47.36 47.23 47.32 47.24 47.72 48.10 47.73 46.54 44.93 43.75 42.53 41.64 40.32 40.21 41.25 41.13 41.99 41.89
37.24 34.52 42.14 45.67 42.60 40.02 40.59 38.81 30.64 26.60 24.24 31.58 38.19 32.65 35.90 43.52 46.96 47.61 47.57 46.29 46.81 46.95 46.84 46.78 46.74 46.42 46.48 47.15 47.03 46.61 45.53 43.68 44.54 43.80 42.85 42.83 43.29 44.06 43.75 43.18 40.02 41.82 41.13 40.34
37.16 37.62 44.05 44.08 44.47 43.94 41.19 34.56 39.84 33.10 30.50 28.07 32.34 36.83 41.24 44.54 44.44 45.95 46.53 47.32 44.83 44.44 44.61 45.69 45.63 46.20 46.33 46.29 45.55 46.32 45.53 43.73 43.09 43.38 43.27 44.44 45.36 44.99 44.51 44.44 41.74 42.19 40.16 41.49
41.15 35.47 41.79 44.11 46.41 45.46 40.94 42.24 34.74 31.22 24.67 22.74 29.64 32.72 34.59 39.27 41.10 42.34 41.87 42.06 43.64 44.38 44.60 44.95 45.09 45.01 45.11 45.54 46.71 47.15 45.82 43.35 42.39 42.81 44.38 45.73 45.39 44.52 42.84 40.85 39.73 39.01 38.94 39.63
42.54 38.48 37.82 43.48 40.20 38.44 40.10 38.37 38.13 36.42 30.21 24.33 21.60 28.61 39.25 41.24 41.67 41.02 41.92 42.90 42.93 43.19 43.16 43.80 43.85 44.16 43.51 43.54 43.33 43.25 42.98 43.71 42.68 42.45 42.72 42.04 41.79 41.35 40.58 39.48 39.42 38.63 38.62 39.58
41.94 36.82 28.76 37.29 42.69 43.67 41.05 39.48 37.62 27.16 30.68 27.50 24.99 28.90 41.19 40.99 42.53 43.88 43.66 43.81 44.38 43.78 43.96 43.52 42.82 42.57 41.81 40.97 40.83 40.02 41.26 41.80 41.71 42.03 42.36 41.92 41.61 40.71 39.34 38.45 37.55 37.86 37.58 37.67
41.39 34.44 27.66 34.16 40.34 41.69 39.55 40.37 41.30 36.33 29.46 28.28 22.12 26.47 42.66 42.78 42.44 43.16 41.80 42.85 42.71 42.76 42.22 41.71 41.34 40.82 40.23 39.32 38.72 37.54 37.45 36.93 37.76 38.84 40.12 40.87 41.39 41.22 37.95 36.90 37.41 36.94 35.76 36.11
44.72 38.80 32.60 29.24 33.61 36.04 33.09 37.22 39.35 36.71 26.51 28.73 28.48 33.59 38.03 39.59 40.38 41.39 41.58 41.39 40.65 40.95 41.14 40.63 40.11 39.16 37.83 36.99 36.48 36.41 36.59 36.46 36.38 36.17 36.18 36.00 37.21 39.18 36.43 35.60 35.91 37.60 37.93 38.12
41.71 33.67 35.17 36.17 38.03 37.67 36.58 35.96 35.90 35.30 34.76 29.96 33.43 34.29 38.68 39.48 40.00 41.07 41.83 41.39 41.06 40.28 40.52 40.71 39.48 37.29 35.32 35.53 35.43 35.70 35.68 36.08 36.34 35.53 34.94 36.59 38.14 37.28 37.17 38.24 37.44 37.94 37.79 37.97
41.05 31.91 30.54 30.72 38.33 37.36 33.42 36.06 36.25 36.39 36.90 36.10 36.90 35.81 40.71 41.26 41.36 40.41 40.11 39.59 39.65 40.22 39.67 39.33 38.44 36.06 36.03 35.67 34.34 35.18 34.95 35.37 35.78 34.66 35.98 38.35 38.38 38.00 37.28 36.62 37.27 36.46 36.78 32.67
35.20 29.82 27.83 27.11 32.37 31.49 26.44 33.57 37.30 37.50 38.55 37.15 31.06 37.27 39.86 39.20 39.68 38.35 38.24 38.90 38.69 38.72 38.81 38.16 36.37 35.62 35.01 34.03 34.65 33.61 34.20 35.07 34.82 34.39 36.84 36.96 37.63 37.00 36.76 37.25 36.77 36.23 32.33 32.16
33.33 32.27 26.68 22.40 23.80 17.61 36.12 41.02 40.51 39.31 40.10 39.75 38.89 38.85 39.30 39.60 39.32 38.66 38.97 38.06 38.11 38.65 38.68 36.95 34.76 34.49 34.21 33.72 33.63 34.16 34.09 33.72 33.90 35.20 35.65 36.19 35.84 35.57 35.72 36.38 35.11 34.33 32.84 30.79
38.42 27.90 26.03 20.76 22.21 27.87 34.60 39.08 38.00 35.44 36.50 41.01 39.40 39.42 39.84 39.68 38.02 36.70 39.73 39.47 38.59 37.97 36.75 35.71 34.77 34.54 33.41 33.33 33.56 33.23 33.16 32.96 33.22 35.03 34.82 35.27 34.98 34.66 34.46 35.24 34.85 34.88 30.76 26.81
38.03 30.41 27.07 27.00 16.93 15.68 30.54 40.37 42.97 41.29 30.58 41.39 40.63 39.12 38.93 37.89 28.21 33.73 39.96 39.93 38.75 36.61 36.51 35.49 34.47 33.74 32.41 33.54 33.49 32.75 32.36 32.26 32.42 34.72 35.07 35.45 35.25 34.81 34.31 33.99 32.76 31.21 27.70 28.69
26.75 23.98 23.91 23.04 16.08 26.10 35.70 40.91 42.48 29.08 30.61 41.39 40.80 39.51 38.71 35.37 34.70 38.11 40.19 39.77 36.81 36.48 35.37 35.64 33.91 32.72 33.42 33.30 33.37 32.47 32.12 31.82 33.39 34.90 34.72 34.96 34.82 34.16 33.84 33.09 30.00 27.86 27.50 27.10
29.10 25.74 22.85 22.90 18.79 22.44 40.07 40.93 33.41 36.90 39.80 41.25 40.81 40.32 39.27 39.05 39.71 40.36 40.19 36.08 35.87 33.91 33.82 34.06 33.15 32.70 33.07 33.58 33.54 32.23 31.15 32.92 33.28 33.11 32.83 32.45 32.12 32.22 32.06 29.25 28.04 27.40 25.99 24.17
30.86 32.67 29.89 32.21 31.51 38.25 41.13 41.01 42.09 43.29 41.38 41.43 40.50 41.18 41.15 39.92 39.77 38.19 35.68 34.13 33.20 32.13 31.89 33.10 31.67 32.29 33.19 33.62 33.31 31.56 32.12 33.01 32.73 31.59 30.85 30.49 30.35 30.41 29.80 27.09 25.25 24.33 23.26 20.31
38.45 41.55 33.22 34.50 40.10 40.64 42.28 44.21 44.98 44.42 42.64 42.44 42.38 42.00 42.23 39.97 37.74 33.92 32.99 32.22 31.63 31.04 30.91 31.62 31.58 31.31 31.41 32.79 33.21 32.49 32.95 32.82 31.27 30.24 29.95 29.35 28.69 28.89 28.10 26.62 26.40 24.14 19.26 18.00
36.00 40.99 37.26 35.44 39.32 41.13 43.01 43.58 44.02 43.50 43.48 43.21 44.00 43.38 42.50 37.22 33.10 32.50 31.57 31.49 31.33 30.74 31.51 31.66 31.10 31.17 31.50 32.55 32.70 33.08 32.96 32.12 29.64 30.28 29.91 28.60 26.86 26.97 26.80 25.20 25.44 24.52 24.26 23.21
40.53 38.32 33.48 34.59 40.49 40.53 40.80 43.67 43.96 42.77 42.76 43.79 43.27 37.15 35.86 33.84 32.12 32.33 30.91 31.36 31.09 30.46 31.15 30.68 31.15 31.26 31.75 32.05 31.55 32.21 32.24 31.16 30.76 29.41 28.65 27.03 25.30 23.57 26.46 27.91 28.09 29.05 29.02 27.53

GFSCGP_sfc_wetblb_006.txt.gz
Wetbulb
43.80 40.17 36.08 36.80 38.53 38.33 37.71 35.75 34.09 34.73 39.65 39.69 38.42 38.61 40.60 44.00 44.00 43.24 43.72 44.44 45.02 46.05 48.71 49.81 50.72 52.13 52.41 53.06 53.28 54.43 54.41 54.94 53.53 51.21 50.53 49.68 49.48 50.86 52.15 48.12 47.48 47.01 47.58 45.47
40.69 36.89 40.08 42.97 42.19 40.95 39.16 36.54 34.79 37.61 41.25 40.44 39.10 37.10 39.68 41.91 42.35 43.50 43.80 44.00 45.12 45.90 46.95 48.59 48.12 48.52 49.98 51.51 52.78 52.96 51.91 50.69 51.16 50.28 49.30 51.58 51.34 49.49 46.69 45.91 44.32 44.58 44.50 44.07
37.90 39.65 43.65 42.44 41.29 40.55 38.72 36.58 35.87 36.46 40.96 40.42 38.97 36.96 38.17 42.34 44.30 45.42 45.35 44.68 45.62 45.78 46.15 46.61 45.83 44.80 45.92 47.37 47.45 47.61 47.83 48.12 48.77 50.18 49.60 46.65 46.43 46.20 43.88 43.39 41.33 42.48 43.29 43.03
40.86 43.48 42.25 40.65 40.26 39.80 36.25 40.42 39.57 38.60 36.56 33.00 36.98 30.00 35.16 38.79 40.81 42.89 43.65 43.66 44.44 45.56 45.39 45.06 44.39 44.27 44.00 43.26 44.32 45.52 46.54 46.34 46.72 46.33 45.82 45.12 43.95 42.84 42.38 40.68 39.71 40.79 42.19 42.33
39.20 40.21 40.55 40.05 39.31 41.77 39.23 41.96 39.60 37.38 34.49 33.61 34.23 31.94 32.86 39.30 38.83 41.22 42.67 44.23 44.17 44.15 44.41 45.81 45.13 45.26 44.48 45.20 44.36 44.08 45.59 45.70 45.49 45.12 45.23 43.93 41.20 41.42 40.72 39.31 39.63 39.77 41.08 41.65
40.52 42.95 41.87 40.34 42.73 41.95 43.30 41.27 39.59 37.24 34.83 27.94 33.14 32.16 31.08 35.31 39.06 41.02 42.50 44.55 44.88 44.43 43.53 44.93 45.78 46.44 45.43 43.79 43.44 43.71 44.54 43.32 43.78 42.99 42.74 41.99 40.83 39.62 38.72 39.40 39.65 40.16 39.94 40.25
39.90 39.93 41.56 42.65 40.07 41.35 40.74 36.89 29.58 28.70 25.53 26.32 35.35 32.62 33.93 39.79 41.06 43.38 43.12 43.64 44.01 43.82 43.64 44.59 45.12 44.26 41.95 41.50 41.81 43.01 41.82 41.06 41.74 41.50 41.38 41.15 40.68 39.23 39.82 39.68 39.09 39.30 40.10 39.71
34.18 31.39 38.81 42.25 39.25 37.45 36.19 36.48 29.45 24.97 22.48 27.95 34.63 30.17 34.91 40.74 42.85 44.58 44.38 43.82 43.46 43.88 43.74 42.83 41.81 41.73 42.11 41.99 40.49 40.08 40.14 39.87 40.55 40.71 40.29 40.39 40.31 39.85 40.55 40.60 39.88 40.23 38.33 37.88
33.96 34.02 40.18 40.92 41.36 40.90 36.75 32.29 36.55 30.41 28.57 26.86 29.39 34.07 38.23 40.51 40.92 42.34 42.82 42.72 42.20 40.83 40.84 41.32 41.46 41.30 41.23 41.29 40.62 39.68 39.82 39.65 39.77 39.72 39.93 39.80 39.69 39.28 38.87 39.18 38.80 38.25 38.25 39.16
39.07 32.77 38.25 40.71 42.46 41.99 38.36 39.76 31.24 28.83 22.87 21.33 26.77 29.44 31.28 36.61 39.37 41.14 40.20 39.98 40.09 40.34 40.72 40.58 39.82 39.64 39.64 39.37 40.13 40.18 38.61 36.38 36.50 36.24 37.12 36.97 36.48 36.77 36.76 36.62 36.49 37.18 37.38 38.31
38.59 35.85 35.16 38.99 37.13 35.12 37.25 34.89 33.58 32.67 27.57 21.84 19.18 27.05 35.86 38.24 40.85 39.07 39.13 39.83 39.67 39.52 39.08 38.95 38.67 38.28 37.62 38.89 38.57 37.80 35.40 35.35 35.21 35.15 35.40 35.33 35.48 35.66 35.50 35.16 35.79 36.03 36.19 37.59
38.72 34.96 28.34 34.06 39.22 40.24 37.49 35.18 33.13 24.60 26.35 24.93 21.80 26.22 37.02 37.59 39.82 39.76 39.35 39.55 39.03 39.39 38.82 38.73 38.47 38.69 37.65 36.16 36.52 34.64 34.62 34.97 34.48 34.22 34.58 34.32 34.70 34.81 34.16 34.14 34.19 34.77 34.98 34.78
39.31 32.74 27.86 32.05 35.98 37.78 35.36 36.83 34.75 31.97 28.76 27.48 21.10 25.74 38.41 38.67 38.52 39.38 38.32 38.48 38.81 38.83 38.25 38.10 37.61 37.24 36.40 35.49 34.68 35.67 35.71 33.97 32.93 32.54 32.19 33.20 33.82 33.77 33.44 32.87 32.93 33.47 33.10 33.89
42.03 34.70 31.16 27.75 30.84 32.93 31.96 35.25 34.67 32.91 24.61 26.37 26.02 28.88 35.22 36.13 36.74 37.40 38.04 37.83 37.68 37.71 38.43 37.26 36.78 35.99 34.32 35.43 36.30 35.28 33.59 33.40 33.04 32.10 32.06 32.96 33.22 33.56 33.22 33.55 32.97 33.01 34.00 34.71
37.98 31.91 31.94 32.78 34.18 33.84 32.62 32.86 34.58 32.92 31.80 28.88 30.39 30.53 34.19 36.93 36.72 37.87 38.30 37.84 37.67 37.47 37.39 37.21 35.88 33.31 35.60 35.47 33.74 33.32 32.86 33.18 33.21 32.40 32.12 32.98 33.87 33.79 33.90 33.92 34.09 34.05 34.24 36.43
36.39 30.02 29.39 30.65 33.97 33.10 31.40 33.22 33.20 33.22 33.14 32.93 32.14 32.47 37.91 37.87 38.16 37.81 38.07 37.63 37.02 36.93 38.01 38.81 37.08 36.03 34.90 33.70 32.71 32.39 32.36 32.75 32.93 32.24 31.90 33.86 34.21 34.33 33.86 33.87 33.90 34.18 36.84 34.58
30.79 28.79 26.07 23.17 28.99 27.64 24.48 31.07 32.81 32.69 33.81 33.99 30.24 34.75 37.43 36.79 37.82 38.00 37.40 37.43 37.12 36.90 38.49 38.07 37.28 35.65 34.42 32.77 32.53 31.50 31.75 32.09 32.03 31.82 32.59 33.52 33.77 33.46 32.93 33.21 32.90 33.02 32.17 30.41
29.09 26.92 23.18 21.45 22.02 16.97 31.55 34.79 35.62 35.03 36.04 36.99 35.67 36.74 38.12 38.00 37.88 38.87 38.44 38.01 37.08 37.16 37.91 37.15 36.20 33.36 32.13 31.47 31.39 31.36 30.93 30.95 30.89 31.11 31.67 32.84 32.84 32.16 32.19 32.15 32.10 31.81 32.01 31.34
33.87 26.76 23.49 20.82 19.96 26.67 31.15 36.23 35.47 34.47 33.84 38.05 36.89 36.85 37.59 37.34 37.20 37.17 38.90 38.05 37.90 36.97 36.43 36.69 35.20 31.85 30.58 30.69 30.87 30.15 29.97 30.22 30.38 30.71 30.72 31.77 32.19 31.56 31.54 31.51 31.07 30.89 30.65 28.55
33.34 27.95 25.13 17.34 16.34 16.03 29.73 34.94 39.03 37.93 29.50 38.68 38.31 36.74 36.53 36.32 29.67 37.51 38.15 38.26 37.40 37.26 35.62 33.79 31.74 31.09 30.03 30.07 30.31 30.27 30.22 30.07 29.76 30.84 30.83 31.58 31.55 30.93 30.76 30.08 29.56 29.27 26.15 26.92
26.97 24.91 19.08 15.60 14.66 24.34 32.45 37.97 39.22 29.26 31.05 38.97 39.01 38.09 36.31 35.13 37.30 37.60 37.41 37.39 36.78 34.23 32.48 32.47 31.78 30.62 30.34 30.94 31.20 29.73 29.26 29.24 30.71 30.92 30.89 30.86 30.73 29.92 29.45 28.26 27.53 25.78 25.01 24.57
29.78 25.22 23.33 21.62 15.75 21.61 36.23 37.66 33.20 37.08 35.83 38.97 39.11 38.51 38.45 37.73 36.80 37.63 38.03 34.02 32.03 31.75 32.02 31.62 30.73 30.55 30.87 30.59 29.80 28.99 28.36 30.21 30.45 30.36 29.96 29.87 29.58 29.72 29.33 26.73 24.78 25.33 23.76 22.36
29.22 30.92 27.22 28.41 28.28 35.32 37.76 37.62 39.40 39.28 38.60 39.32 39.62 39.90 40.65 37.79 38.06 38.86 33.04 32.67 31.35 31.66 31.56 31.05 30.88 30.52 30.56 30.12 29.55 28.63 29.64 30.14 29.86 29.33 29.49 29.53 29.10 28.84 28.28 25.71 23.77 23.14 21.77 18.63
35.08 36.29 30.22 32.05 36.14 36.87 38.59 40.01 41.25 41.62 40.55 40.94 41.21 40.75 40.46 39.03 39.19 34.76 31.32 31.38 31.17 30.64 30.71 30.38 29.68 28.48 28.59 29.97 30.03 29.82 29.77 29.43 28.99 29.43 29.02 28.51 27.82 28.61 28.17 26.22 25.84 23.85 18.83 17.59
34.61 37.26 34.05 32.80 37.36 37.70 40.03 41.26 41.83 42.18 42.29 41.90 41.94 41.43 40.97 39.09 33.85 33.08 32.04 31.52 31.25 31.04 30.55 29.94 29.05 28.20 28.88 29.68 29.86 29.77 29.07 28.82 28.87 29.92 29.60 28.67 27.08 27.61 27.41 25.46 25.32 24.82 23.65 22.66
37.15 35.80 31.81 31.34 38.66 38.09 38.35 40.53 42.13 42.02 42.18 42.14 40.97 39.33 35.94 35.50 33.03 32.98 31.53 31.87 31.30 30.05 29.73 29.37 29.05 28.73 29.03 29.09 28.57 28.56 28.80 28.87 28.27 29.85 29.90 29.06 29.47 31.02 27.99 26.18 26.43 29.03 28.63 28.24

GFSCGP_sfc_wetblb_009.txt.gz
Wetbulb
46.70 44.12 41.87 43.20 42.84 41.43 40.86 40.12 39.60 40.57 43.93 44.33 41.98 42.88 44.78 47.40 48.37 48.51 49.64 50.59 51.38 51.89 52.47 54.59 56.30 58.44 58.82 60.15 59.85 59.46 59.03 58.72 58.43 55.94 55.43 55.51 55.26 54.53 51.75 51.97 51.76 51.56 51.63 51.47
45.20 41.96 44.34 45.61 45.07 43.23 42.42 40.36 39.65 42.19 44.09 44.34 43.27 42.75 45.40 46.49 46.49 47.70 49.02 49.84 50.84 50.88 51.64 52.48 55.03 57.59 58.66 58.56 58.48 58.33 57.62 56.72 56.64 56.81 56.73 57.45 56.53 53.54 51.04 50.42 50.10 50.16 50.31 50.10
42.67 43.73 46.08 45.34 43.62 43.06 42.03 40.85 39.10 40.91 43.54 44.65 44.32 41.91 43.62 46.46 47.83 48.40 49.06 49.72 50.57 50.86 50.65 51.34 52.80 54.79 56.17 55.13 55.41 55.59 55.44 55.62 55.25 55.61 55.21 53.66 53.46 52.61 50.99 49.34 49.18 49.41 49.82 49.92
44.88 45.93 44.57 43.80 43.05 43.66 41.02 42.91 42.65 41.81 41.32 38.50 41.96 36.80 41.39 44.62 45.61 47.16 48.26 49.12 49.76 49.65 49.89 49.41 49.11 49.57 50.52 50.46 52.10 52.68 52.66 52.61 52.00 52.38 52.61 52.33 51.93 50.95 49.52 48.45 49.28 49.96 49.67 49.58
43.11 44.22 43.62 43.02 43.06 45.15 42.36 44.39 43.48 41.32 39.74 39.72 39.59 39.78 39.34 44.12 43.81 46.05 47.72 48.51 48.88 48.76 49.11 48.68 49.27 50.07 50.06 50.58 50.85 50.91 50.85 50.34 50.50 51.34 51.52 50.62 49.45 49.04 48.42 49.06 47.90 48.18 48.74 48.41
43.96 46.79 45.51 44.93 44.86 45.01 45.34 44.18 43.24 41.61 40.16 35.63 37.88 38.28 38.44 40.98 44.59 46.24 47.61 48.22 48.58 49.04 49.19 49.41 49.76 50.20 49.32 49.84 50.33 49.69 48.72 48.09 49.09 49.60 49.69 49.90 49.02 47.55 47.53 47.42 47.20 47.65 48.20 48.60
42.74 43.02 44.92 46.42 44.31 45.22 44.64 42.36 36.57 35.30 35.06 33.45 38.28 37.01 41.00 43.83 45.60 47.97 47.32 48.45 48.93 49.60 48.90 48.74 48.91 48.17 48.11 48.25 48.12 47.48 47.43 46.40 47.66 47.65 47.30 47.07 46.62 46.93 46.77 46.37 45.97 45.76 45.95 46.24
37.87 37.08 42.69 45.29 44.25 42.58 41.36 42.16 37.01 29.26 30.51 34.61 38.04 35.80 41.33 43.97 46.82 48.99 49.45 49.63 48.96 48.65 49.00 48.50 47.26 46.95 46.48 46.05 46.32 46.77 46.62 45.82 46.32 46.59 46.07 45.99 44.83 43.75 43.17 42.89 42.84 42.58 42.85 43.56
38.43 37.83 43.82 44.30 45.43 45.21 40.50 38.57 41.23 34.62 31.98 32.93 36.10 38.84 43.60 43.35 44.21 46.39 46.55 47.40 47.67 48.18 47.72 47.14 46.54 46.19 46.07 45.85 45.92 45.53 43.73 43.02 43.14 43.34 43.12 42.60 42.54 42.16 41.66 41.93 42.29 41.79 42.96 43.63
42.26 37.04 41.91 43.77 45.53 44.70 43.46 42.44 37.07 36.00 29.10 26.89 32.50 34.14 38.06 40.50 42.52 44.94 45.08 46.54 47.00 46.49 45.96 45.52 44.76 45.06 45.76 45.73 43.95 43.22 42.98 41.93 41.39 42.06 42.16 41.52 41.44 41.80 42.06 41.91 41.12 41.40 42.50 43.62
42.02 41.02 39.89 42.53 41.06 40.82 41.02 38.90 36.81 37.04 33.59 29.67 27.75 34.16 41.77 42.90 44.83 44.53 46.43 45.98 46.02 45.38 44.97 43.51 43.51 43.60 44.56 43.24 42.36 41.52 41.01 41.71 41.04 41.23 41.19 41.35 41.36 41.57 41.57 41.03 40.89 41.03 41.88 42.87
42.51 39.78 36.40 38.34 42.82 44.07 42.60 39.81 38.52 33.93 30.55 30.27 30.99 34.71 41.36 42.44 43.99 45.86 44.72 44.31 45.33 45.25 43.61 43.22 42.48 41.68 41.40 41.28 40.87 39.83 41.46 41.18 40.48 40.54 40.78 40.57 40.80 40.95 40.50 40.22 40.33 40.84 40.46 41.40
42.86 38.47 34.14 36.77 40.00 42.22 40.88 39.96 37.39 35.77 34.46 31.20 33.54 34.76 41.47 41.71 42.00 44.07 44.50 43.27 43.13 43.23 42.49 42.36 41.18 40.39 40.25 40.13 40.11 40.88 40.24 39.56 39.68 39.46 39.73 39.88 39.82 39.78 39.96 39.92 40.09 40.30 39.98 39.61
43.81 37.45 36.57 33.97 35.73 38.09 36.89 38.51 37.68 37.85 33.75 32.27 34.32 36.74 39.36 41.48 40.97 41.50 42.20 42.92 42.92 42.21 42.13 42.53 41.45 40.09 40.21 40.01 40.55 39.59 40.11 39.92 39.46 38.85 38.80 38.81 39.59 39.79 39.72 39.76 39.81 39.89 40.05 40.02
42.10 36.95 36.50 35.89 36.33 37.31 36.98 37.45 37.02 36.54 36.66 35.47 36.29 35.14 39.32 42.25 42.65 42.00 42.02 41.82 41.26 41.26 41.27 41.15 40.69 39.64 39.69 38.70 39.92 40.40 39.86 39.52 39.51 38.60 38.39 38.57 39.50 39.97 39.73 39.42 39.17 39.42 39.92 40.46
39.11 34.93 34.59 34.71 35.71 35.36 35.42 36.96 37.05 37.08 36.78 36.35 36.35 37.00 42.05 41.94 42.44 40.98 41.07 40.92 40.84 40.89 41.62 41.62 41.12 40.04 38.72 39.73 40.74 39.33 38.87 38.75 38.57 38.17 38.07 38.63 38.56 39.19 39.16 38.69 38.51 38.82 39.29 39.11
35.86 33.30 32.35 29.67 31.27 31.61 30.82 34.83 36.52 36.72 37.77 39.43 35.37 41.18 41.24 40.26 40.35 41.63 41.47 41.44 41.26 41.99 42.06 41.59 41.28 40.99 40.46 40.25 39.60 38.99 38.49 38.03 37.08 36.86 37.32 37.61 37.67 38.06 38.21 37.70 37.37 37.67 38.21 38.73
32.88 31.15 29.02 30.88 27.50 27.42 36.92 39.36 38.81 37.99 38.24 39.54 39.22 40.35 41.52 41.78 41.65 42.74 43.71 42.36 42.17 42.15 42.08 41.71 41.99 41.64 40.93 39.50 38.35 37.79 36.97 36.24 35.85 36.27 36.47 37.02 37.33 36.91 37.33 36.74 36.60 37.36 37.63 37.13
36.42 32.43 27.73 30.90 28.36 31.13 35.79 36.11 38.04 37.51 38.61 41.66 40.64 41.04 40.51 40.49 41.83 42.36 43.53 43.85 44.33 43.61 43.06 42.61 42.56 41.09 37.66 37.37 36.94 36.14 35.87 35.72 35.72 35.92 35.97 36.55 36.53 36.12 36.19 35.94 36.32 36.18 36.00 36.10
35.13 32.38 33.96 27.09 28.40 26.13 35.18 37.55 42.71 42.21 35.40 42.08 42.48 40.59 39.39 41.28 39.38 43.39 44.07 43.88 42.98 42.95 41.45 40.17 37.91 36.14 36.21 35.62 36.25 35.80 35.14 34.78 34.70 35.28 35.67 36.13 36.30 35.85 35.46 35.71 35.40 35.35 35.17 32.47
32.35 30.02 30.12 23.07 30.06 31.28 36.62 40.60 42.18 34.22 37.12 41.34 42.40 41.72 40.40 40.79 44.66 43.60 42.87 41.48 42.52 40.56 36.24 35.26 36.09 35.89 35.89 35.96 35.88 34.27 33.99 34.13 35.11 35.33 35.32 35.60 36.31 35.70 35.69 35.27 34.73 33.89 32.95 31.67
33.43 30.87 29.27 24.97 26.47 28.51 38.49 41.22 38.07 42.76 42.10 42.21 42.66 42.75 42.27 44.07 40.89 41.14 40.39 38.36 36.87 35.34 35.37 35.72 35.37 35.22 35.17 35.38 34.74 33.78 33.68 34.77 34.84 34.51 34.56 35.32 35.12 34.78 34.16 33.84 33.94 32.11 31.61 30.24
32.92 35.66 34.13 33.13 34.39 40.03 40.58 42.10 43.64 42.70 42.51 43.35 43.03 43.75 43.68 41.45 40.59 40.48 37.74 35.30 34.86 34.39 34.60 35.30 35.21 34.53 34.15 34.21 34.39 33.33 34.10 34.11 33.39 33.78 34.15 34.21 34.59 34.09 33.86 33.25 32.92 31.06 30.42 29.39
37.22 37.59 35.74 35.91 39.25 38.05 40.17 42.61 43.16 44.23 44.55 44.46 44.58 45.01 43.23 42.55 41.27 38.35 34.32 34.08 34.16 34.04 34.54 34.48 33.71 32.27 32.38 33.66 33.43 33.76 33.83 33.25 32.84 32.82 33.42 34.29 33.10 32.94 33.89 33.29 32.18 30.60 29.74 29.40
38.22 38.24 36.48 36.24 39.23 40.56 42.11 43.31 45.49 45.15 44.51 44.52 44.89 44.58 43.88 43.23 40.41 36.07 34.52 32.80 32.38 32.74 33.77 33.51 32.22 31.89 32.17 33.07 33.06 33.42 33.05 32.42 32.01 32.28 32.52 31.57 31.62 31.85 32.51 33.13 31.81 30.30 30.89 30.94
38.88 38.41 37.08 37.19 42.42 42.76 42.83 43.84 44.92 44.68 44.94 45.62 44.65 42.51 41.08 40.59 37.04 34.80 32.99 34.02 35.26 34.68 32.98 32.06 31.99 32.12 31.95 32.19 32.41 32.40 32.48 32.39 31.79 31.60 32.23 31.69 31.62 31.34 32.14 32.40 31.66 30.09 30.12 28.34

GFSCGP_sfc_wetblb_012.txt.gz
Wetbulb
50.26 46.69 44.39 46.19 46.56 46.07 45.51 44.56 43.62 46.02 48.80 48.85 47.62 48.03 49.46 53.09 55.63 55.90 56.75 57.44 58.07 58.41 59.21 61.26 62.22 63.95 64.53 65.02 64.92 65.21 64.17 64.33 64.02 62.57 60.46 58.47 58.33 59.22 58.00 57.31 56.01 55.61 55.43 54.86
47.26 44.77 47.42 49.10 47.40 46.48 45.66 44.13 44.80 46.00 48.05 49.19 48.66 48.13 49.86 51.09 52.95 55.37 56.48 57.26 57.78 57.64 58.89 60.04 62.35 63.55 64.21 64.37 64.52 64.22 63.78 63.84 63.58 62.15 60.89 61.18 60.42 59.23 56.67 56.22 55.20 54.58 54.13 53.76
46.32 47.40 48.96 48.57 47.33 46.02 45.87 45.16 45.73 44.97 47.25 48.88 48.85 46.75 48.51 50.20 51.77 52.88 54.93 56.60 57.26 57.75 58.16 59.94 60.91 61.79 62.55 62.26 62.62 62.06 61.40 60.79 60.58 60.48 59.90 59.16 58.42 56.79 56.05 55.33 55.11 53.92 53.75 53.59
48.18 48.93 48.19 48.19 46.57 47.28 44.32 47.00 47.19 46.22 45.25 41.85 48.19 40.67 47.25 49.39 49.95 52.11 53.54 55.44 56.44 57.66 58.51 57.88 57.77 58.90 58.83 58.87 60.09 59.70 59.14 58.21 57.25 56.91 57.34 56.98 56.46 55.76 54.44 55.08 54.52 54.08 53.34 53.27
46.17 47.25 47.41 46.72 46.70 48.27 46.04 48.70 48.44 47.15 46.23 44.90 44.56 42.83 46.28 49.55 48.21 50.71 53.19 54.78 55.73 56.05 55.94 55.17 55.74 56.00 56.08 56.83 56.83 56.76 56.17 55.83 56.43 56.61 56.80 55.71 54.09 53.64 53.56 54.00 52.31 53.05 53.45 53.46
48.27 50.38 49.78 48.63 48.86 48.85 49.43 48.16 47.43 47.18 46.13 39.81 43.71 43.31 44.16 47.17 49.31 51.27 53.29 53.49 54.40 54.63 54.22 54.07 54.61 54.65 54.85 55.76 55.86 55.88 54.87 54.44 54.81 54.73 54.48 53.84 52.35 51.53 51.36 50.73 49.88 49.26 48.73 48.47
47.21 47.26 49.30 50.34 47.83 49.39 49.08 46.53 40.21 38.16 38.68 37.72 43.35 42.12 44.76 49.10 50.65 53.26 52.96 52.85 53.69 53.96 53.59 53.34 53.23 53.69 54.03 54.35 54.23 54.01 53.49 52.29 53.08 52.97 52.19 51.65 50.63 48.88 47.14 46.09 45.30 44.78 44.60 44.96
42.60 40.62 46.38 48.76 48.30 46.48 47.41 46.66 40.95 31.99 34.68 38.58 42.84 39.49 45.64 49.36 51.67 54.40 54.78 53.73 53.78 53.62 53.92 53.79 53.76 53.64 53.50 52.85 52.92 53.21 52.42 51.22 50.88 49.71 48.27 47.97 46.23 46.15 45.61 45.26 45.08 44.55 44.21 44.51
42.76 41.44 47.50 47.95 49.10 48.54 45.02 43.39 46.99 40.73 39.33 38.81 41.77 44.85 48.59 48.67 49.47 51.84 53.14 52.89 52.61 53.42 53.70 53.40 52.84 52.50 52.24 52.38 52.53 51.72 50.02 48.52 47.98 47.76 45.74 45.14 46.45 45.60 45.21 45.52 45.64 44.77 44.79 44.25
46.88 40.97 45.81 46.83 49.00 48.70 47.22 47.99 41.64 43.18 33.25 31.63 39.07 40.09 42.22 45.78 47.26 50.08 51.34 51.75 52.58 53.65 53.47 52.79 52.13 51.72 52.11 51.97 50.34 49.95 48.92 47.64 46.90 45.12 46.13 45.88 45.58 45.62 45.73 45.65 44.44 44.13 44.50 44.69
48.22 45.90 43.70 46.33 45.63 45.21 44.55 43.90 42.55 43.51 40.90 34.69 33.17 39.20 47.48 47.19 49.40 49.48 51.34 52.14 53.14 53.30 52.93 51.97 51.33 51.45 51.31 50.16 49.10 48.00 47.49 46.18 43.69 45.72 45.83 45.90 45.83 45.43 45.36 44.66 44.17 43.77 44.13 43.82
47.75 46.96 42.28 43.60 46.69 48.00 47.21 45.03 44.11 38.88 36.08 38.89 38.34 38.94 46.99 48.59 49.67 51.36 51.85 52.46 53.82 53.67 53.05 51.57 50.34 50.18 49.39 48.22 47.55 46.86 46.48 45.85 45.72 45.34 44.90 45.36 45.67 45.18 44.23 44.20 43.69 43.80 43.31 43.61
48.23 45.24 39.64 40.59 44.25 46.29 44.94 45.48 44.33 43.22 42.36 37.12 37.28 39.47 46.99 48.50 48.68 50.37 51.58 52.67 52.43 52.21 51.34 49.96 49.00 48.25 47.65 46.86 46.21 45.72 45.23 44.00 44.97 44.32 44.60 45.21 44.64 44.02 43.65 43.52 43.52 43.16 42.96 42.94
47.57 45.53 43.38 39.98 41.52 44.90 42.23 43.93 44.37 43.56 38.76 38.74 39.67 41.10 44.43 46.37 47.84 49.34 50.28 52.11 51.59 50.69 49.25 48.87 47.61 47.16 46.77 46.02 45.91 45.30 44.71 46.67 44.95 44.05 43.71 43.47 43.56 43.69 43.78 43.54 43.09 42.65 42.57 42.39
48.34 43.09 42.60 41.82 41.94 42.01 42.44 43.40 43.20 42.01 42.96 39.14 41.10 41.46 43.93 46.33 47.96 49.81 50.53 50.41 49.83 48.87 47.82 47.95 47.69 47.15 46.38 45.80 46.34 45.63 47.16 45.81 45.04 43.47 43.25 43.22 43.65 43.79 43.60 43.06 42.38 42.35 42.25 42.15
45.41 42.93 40.99 39.16 40.89 40.91 40.00 42.97 44.04 43.96 43.99 42.97 43.28 42.67 48.24 49.11 49.14 49.14 48.59 48.35 47.79 47.43 47.71 48.07 48.06 47.52 46.08 45.80 45.05 46.16 45.70 44.50 44.02 43.18 42.79 43.12 42.97 42.21 42.48 42.10 41.88 41.57 41.38 41.69
44.46 41.12 38.86 36.84 37.94 38.41 36.28 40.77 42.95 43.52 45.16 44.46 41.03 45.63 47.90 46.63 47.22 48.43 48.70 48.07 47.56 47.88 47.93 48.13 48.15 47.72 46.37 45.63 45.67 45.58 44.74 44.13 42.74 42.06 41.76 41.52 41.33 41.07 41.32 41.34 41.11 40.66 40.51 41.23
40.13 40.01 38.43 37.88 34.03 32.29 41.38 43.99 43.63 44.15 44.93 46.17 45.63 45.96 46.88 47.48 48.98 49.16 50.65 49.41 48.35 48.83 48.61 49.34 49.05 47.66 46.80 45.67 45.75 45.67 43.37 42.05 41.07 40.60 40.57 40.82 40.33 39.99 40.55 40.78 40.59 40.61 40.71 40.13
43.57 41.48 35.85 37.22 35.66 38.95 40.47 40.81 40.92 41.33 42.08 46.66 45.87 46.75 46.84 46.99 47.28 48.80 49.63 50.73 50.80 50.17 50.51 50.44 49.69 47.88 45.91 45.53 44.65 42.37 41.26 40.70 40.17 39.17 38.88 39.17 39.53 39.40 39.74 39.51 39.98 40.38 39.80 39.28
41.08 40.97 41.70 35.32 36.01 33.98 40.62 42.12 46.54 46.04 39.08 46.49 47.08 47.17 46.63 46.49 44.27 46.78 50.96 50.58 50.27 51.04 50.85 49.44 48.07 46.05 44.55 42.82 40.76 40.70 40.71 39.09 37.70 38.10 38.56 39.23 39.32 39.02 38.84 39.12 39.65 40.02 39.52 38.33
39.07 38.82 37.63 36.31 37.08 39.05 42.93 43.89 46.56 36.63 40.02 47.31 47.79 48.49 47.57 46.63 49.53 49.77 50.15 50.67 50.47 50.51 49.14 47.31 44.07 43.20 41.96 41.37 41.26 39.52 38.25 36.95 38.11 38.46 38.60 38.56 39.11 39.02 39.11 39.12 39.54 39.22 38.57 37.34
39.25 38.24 37.24 34.70 35.03 33.45 43.49 44.67 41.41 46.78 48.72 47.61 48.19 49.53 49.08 50.25 48.98 47.61 47.23 48.12 48.94 47.64 44.70 43.46 41.13 39.87 38.37 39.85 39.61 37.76 36.73 38.42 38.15 38.13 38.11 38.14 38.60 38.03 38.09 38.56 38.87 38.58 37.62 35.83
38.63 42.90 42.33 40.91 42.35 44.88 46.43 48.55 49.46 48.34 48.36 48.87 49.00 49.71 49.37 49.26 49.03 47.41 45.86 45.43 45.16 44.04 41.70 38.85 37.41 36.83 38.91 38.59 37.75 36.73 37.70 37.89 37.51 37.31 37.18 37.67 37.91 37.95 37.88 37.44 37.65 37.37 36.72 35.04
43.07 43.37 42.24 40.72 44.62 45.33 46.68 48.13 48.72 48.94 48.81 49.75 50.35 49.74 49.84 48.91 49.66 47.83 45.64 43.44 42.28 40.53 37.52 39.17 35.53 36.54 35.61 36.61 36.90 37.45 37.57 37.46 36.65 36.01 36.47 37.04 35.59 34.42 36.29 37.39 37.53 36.48 35.85 34.84
45.19 43.69 42.75 42.49 45.45 46.48 47.33 48.23 48.82 49.60 50.46 50.05 50.80 50.38 49.85 49.51 48.97 47.71 43.55 41.50 39.65 35.44 35.61 36.02 35.84 35.49 35.30 36.17 36.56 37.02 36.57 36.44 34.95 35.27 35.16 35.44 35.05 33.80 33.27 33.46 34.80 35.49 36.54 35.16
44.61 44.60 42.79 42.66 47.01 46.82 47.26 48.32 49.26 49.15 49.34 49.86 49.26 49.29 46.90 47.04 46.54 44.66 40.87 37.39 38.29 36.31 34.55 33.74 34.44 34.50 34.98 35.35 35.14 35.76 36.08 35.44 35.15 33.97 34.84 35.79 35.70 34.92 33.67 32.94 33.39 32.96 31.06 30.57

GFSCGP_sfc_wetblb_015.txt.gz
Wetbulb
51.53 47.62 44.94 46.75 48.13 47.56 46.79 45.02 43.98 46.48 48.59 46.99 46.43 48.51 49.91 54.69 55.21 55.48 56.76 58.35 59.33 60.18 62.07 63.12 64.12 65.25 65.34 66.52 66.80 64.62 64.06 64.19 64.32 64.23 63.22 61.08 59.99 60.53 60.29 59.32 58.18 57.74 57.20 56.54
48.85 44.87 49.06 49.48 48.18 46.54 45.93 44.45 45.06 47.34 48.76 49.19 47.52 47.93 51.05 53.47 54.46 56.12 56.43 57.10 58.32 59.90 60.77 62.28 63.85 65.12 65.38 65.60 65.83 63.94 64.62 64.40 64.97 63.92 62.19 61.49 61.32 60.76 58.82 57.96 57.35 56.68 56.38 56.01
45.99 47.75 49.91 48.35 46.49 45.58 46.22 44.66 45.80 45.40 48.73 50.07 48.59 47.71 49.87 52.46 54.64 56.43 57.73 58.57 59.00 59.65 60.21 61.53 63.02 64.12 64.52 64.23 64.63 64.65 64.48 64.34 63.17 62.21 61.91 61.63 60.41 58.27 57.06 56.67 56.23 55.86 55.70 55.15
47.15 51.00 47.90 46.62 46.12 47.29 44.32 48.94 47.93 46.41 46.40 42.39 49.04 40.11 48.00 51.11 51.62 53.25 55.50 57.52 58.53 59.47 60.87 61.95 62.40 62.73 63.22 63.41 63.86 62.89 62.07 61.16 61.14 60.79 59.28 58.49 58.41 56.19 56.09 55.98 55.79 55.55 55.35 54.78
47.48 48.77 48.41 46.86 47.79 49.90 47.33 50.14 48.88 48.18 46.68 46.14 45.82 43.09 42.68 51.12 49.53 51.68 54.21 56.05 57.88 59.68 60.77 59.87 59.99 60.12 60.53 60.82 60.64 60.48 59.30 58.11 58.49 58.89 58.84 57.77 56.06 55.52 55.05 55.52 53.27 53.62 52.67 51.00
47.95 52.61 50.85 50.18 50.53 50.61 51.01 49.08 48.83 48.80 46.79 40.72 44.06 43.84 44.15 48.55 50.39 52.53 54.78 56.60 57.84 58.74 58.53 58.07 58.35 58.11 57.85 58.69 58.48 58.14 57.42 57.09 57.54 57.30 56.80 55.65 53.96 52.63 51.51 49.52 48.03 47.48 47.26 47.45
47.99 48.41 51.09 51.78 48.56 50.88 49.98 47.14 40.14 38.83 39.66 38.14 45.80 43.81 45.51 49.29 52.45 53.90 54.68 56.06 57.26 57.76 56.55 55.77 55.45 55.71 56.36 56.74 57.12 56.87 56.28 55.12 55.66 54.82 53.53 52.44 50.36 48.89 47.20 46.67 45.97 45.71 45.51 45.70
43.24 41.91 48.77 51.48 49.75 47.23 47.97 46.98 40.48 33.24 35.69 39.13 45.90 40.64 45.10 52.08 52.95 54.31 56.63 56.58 56.94 56.13 55.51 55.10 55.54 56.01 56.01 56.10 56.11 55.75 55.23 54.08 53.10 51.37 50.00 49.02 47.63 46.04 46.90 46.62 46.39 45.79 45.23 45.47
43.48 42.71 49.86 50.16 51.13 50.07 47.21 44.25 48.89 43.47 43.56 39.79 42.05 45.11 49.76 51.45 51.38 53.22 55.48 55.68 55.34 55.28 55.11 55.25 55.78 56.33 56.15 55.60 55.24 55.44 54.35 52.11 50.54 49.67 48.73 47.62 47.61 46.82 47.00 46.59 46.72 45.53 45.64 44.88
47.58 42.30 47.55 49.07 51.02 50.75 48.86 50.14 42.52 43.31 34.28 33.29 39.83 41.27 42.41 47.85 49.06 51.72 54.01 54.47 54.94 55.41 55.14 55.38 55.70 55.48 55.66 55.41 55.35 54.56 52.77 50.52 50.21 48.19 47.58 46.99 46.84 47.43 47.59 47.31 45.51 45.00 45.20 45.15
49.19 46.42 45.86 48.15 46.77 46.10 46.93 45.04 45.37 45.57 43.85 36.44 34.46 40.31 48.06 46.72 49.97 51.12 53.48 55.10 55.34 55.31 55.18 55.46 55.14 55.00 54.95 55.15 53.54 52.16 50.93 50.32 48.17 47.79 47.11 47.37 46.93 47.07 47.21 46.38 45.60 45.07 44.90 44.61
49.66 47.73 43.87 45.50 49.54 50.53 49.89 47.58 47.02 40.48 38.70 40.99 40.29 39.85 48.93 49.90 50.96 52.41 53.15 54.76 55.87 56.17 55.98 56.05 55.13 54.53 54.02 53.01 51.87 50.61 50.82 49.11 48.43 47.71 47.06 47.19 47.32 46.67 45.99 45.53 45.21 45.20 44.20 44.25
50.84 46.15 41.11 42.71 46.73 48.64 45.75 47.33 47.34 45.68 44.60 39.62 37.79 40.51 49.66 49.94 49.75 51.33 52.71 54.36 55.16 55.95 56.23 56.00 54.71 53.57 52.91 51.92 50.91 50.05 49.49 48.94 47.70 46.57 46.74 46.93 46.36 46.05 45.67 45.10 45.24 44.73 43.93 43.47
49.29 47.29 44.24 40.27 43.72 47.11 44.67 45.54 46.73 45.36 40.53 40.53 41.76 42.76 45.97 47.79 48.34 49.84 51.48 53.55 55.03 55.35 55.71 55.64 54.18 52.79 52.64 51.71 50.41 49.30 49.20 48.95 48.39 46.39 46.12 45.74 45.78 45.73 45.35 45.16 44.81 44.24 43.45 42.81
50.52 44.56 46.23 46.67 46.27 45.54 45.29 45.11 45.63 43.95 44.32 41.61 43.19 42.52 45.01 46.94 48.24 49.77 51.35 52.25 53.13 54.12 54.40 54.41 53.07 52.12 52.04 51.02 49.62 49.08 49.48 49.20 47.43 45.97 45.30 45.53 45.85 45.53 45.03 44.39 44.21 43.61 43.05 42.71
50.62 45.13 44.92 42.79 46.04 44.97 43.34 45.14 45.01 45.33 45.33 44.62 44.61 44.03 48.70 50.23 50.21 50.00 50.49 51.41 51.65 52.79 53.50 53.48 52.54 51.97 51.04 50.08 49.04 49.03 48.77 47.68 46.89 45.52 44.76 45.26 44.81 44.44 43.43 43.17 43.16 42.90 42.70 42.40
48.22 45.87 41.86 38.41 42.04 42.37 37.78 42.90 44.89 45.36 46.64 45.95 42.67 46.65 49.53 48.76 48.43 49.36 50.12 51.16 51.16 52.12 52.70 52.51 52.04 51.90 51.44 50.66 49.21 48.31 47.57 47.26 45.70 44.95 44.40 44.01 43.72 42.49 42.25 42.12 41.70 41.79 41.90 42.11
45.62 44.94 43.10 39.15 36.31 30.89 43.18 47.06 46.13 45.63 46.68 47.87 47.36 48.08 48.78 48.91 50.63 51.29 52.32 51.86 51.69 51.94 52.43 52.79 52.73 52.28 52.59 51.52 48.89 48.02 47.82 46.07 44.62 43.54 42.84 43.00 42.03 40.65 40.93 41.16 41.10 41.59 42.07 41.34
48.18 45.49 39.62 38.53 37.23 40.97 42.48 43.91 43.19 42.76 43.11 47.27 47.25 47.79 48.30 49.86 50.16 50.44 52.60 52.91 52.79 53.02 53.41 53.67 53.63 53.28 52.68 50.22 49.09 46.55 45.26 43.54 42.37 41.86 41.83 40.71 40.59 40.25 40.40 40.10 40.44 41.19 41.11 40.82
44.83 45.56 42.88 38.12 35.97 33.07 42.96 45.26 48.36 47.83 39.91 47.50 47.72 47.35 47.42 48.89 45.03 47.36 52.11 52.27 52.76 53.54 53.88 53.59 53.97 53.23 51.48 49.47 47.66 44.79 43.39 43.46 41.76 41.02 39.83 40.17 40.42 40.02 39.58 40.22 40.41 40.81 40.87 40.10
40.84 41.92 39.17 39.00 38.08 41.20 45.96 46.12 48.45 37.86 41.70 48.72 49.23 48.83 48.54 47.24 49.19 52.06 52.71 52.54 53.25 53.49 53.44 53.88 53.36 51.40 49.67 46.74 43.99 43.93 41.63 40.68 39.87 39.92 39.81 39.79 40.14 40.08 40.28 39.77 39.93 40.08 39.66 39.49
41.11 40.22 38.87 40.66 36.09 33.71 46.74 46.99 42.65 48.66 50.00 49.95 50.12 50.25 50.39 51.06 51.68 52.26 51.80 51.12 52.20 52.31 52.29 51.19 48.80 46.27 44.29 44.07 42.84 39.56 37.93 39.32 39.57 39.49 38.99 39.31 39.74 39.35 39.17 38.84 39.14 39.52 39.12 38.23
41.40 45.32 44.67 43.38 43.66 48.44 49.14 48.34 50.65 50.95 49.94 50.29 50.25 51.10 51.26 50.73 50.67 51.35 51.36 50.54 50.18 50.90 48.65 46.77 43.03 41.01 41.40 39.27 37.38 36.50 38.52 39.21 38.95 38.59 38.25 38.46 38.76 38.49 38.44 37.75 37.64 37.81 38.48 37.26
46.62 47.27 44.37 43.26 46.14 47.25 48.64 50.12 50.53 50.77 50.38 51.24 51.83 51.51 51.50 50.74 51.51 51.31 51.50 49.20 47.99 46.72 43.00 42.43 41.04 38.14 35.94 37.76 37.84 38.55 37.90 38.18 37.68 36.73 36.18 36.92 36.68 35.93 35.74 36.26 37.55 37.90 37.39 36.14
48.11 47.16 45.05 45.04 47.26 48.04 48.86 49.87 50.65 51.01 51.89 51.79 52.72 52.47 51.50 50.36 50.70 51.12 49.58 46.23 44.67 41.61 40.60 39.34 36.46 35.59 35.89 37.29 37.43 38.07 37.72 37.20 35.50 35.17 35.67 35.94 36.28 36.12 36.30 36.57 36.14 35.56 37.21 35.86
48.42 45.60 44.64 43.21 48.47 48.38 48.61 50.64 51.36 50.42 50.41 50.29 50.01 49.93 48.07 48.58 48.45 48.17 42.90 42.11 40.38 37.78 37.02 36.07 35.79 36.37 36.32 36.56 36.68 37.07 37.64 36.51 34.91 34.59 35.00 35.87 36.14 36.40 36.77 35.69 34.84 34.14 33.71 33.53

GFSCGP_sfc_wetblb_018.txt.gz
Wetbulb
51.61 47.28 44.55 46.87 48.39 47.40 46.34 44.61 43.65 46.06 49.00 47.29 46.06 47.03 49.73 52.67 54.05 55.00 56.17 57.24 57.77 58.62 60.96 62.57 63.87 64.50 65.50 65.83 65.45 64.71 63.04 63.19 63.26 62.36 61.77 61.37 59.14 58.99 58.73 56.90 56.91 56.32 55.34 55.13
47.48 44.64 48.69 49.84 48.91 47.59 46.07 44.39 43.68 46.25 47.37 46.61 45.66 46.18 48.58 51.82 52.81 54.74 55.51 56.83 57.82 58.88 60.24 61.55 63.04 64.28 65.15 65.16 65.08 64.16 63.14 62.63 63.60 63.67 61.71 60.02 59.22 58.96 56.88 56.14 55.37 55.24 54.95 54.08
45.21 47.26 50.23 48.17 47.33 45.28 45.42 44.64 44.84 44.28 46.26 46.25 47.17 44.54 46.86 50.34 53.25 54.34 55.61 56.67 57.73 58.69 59.19 60.87 62.13 63.39 64.61 62.74 63.83 62.97 63.23 63.49 64.12 61.62 60.70 60.02 57.84 56.30 54.68 54.61 53.84 53.71 54.01 53.39
47.78 50.41 48.63 47.25 45.19 46.00 43.36 48.68 47.33 45.92 44.91 40.27 47.47 38.55 45.95 48.56 49.78 52.25 54.41 55.68 56.79 58.37 59.89 61.02 61.95 62.07 62.23 62.08 63.94 63.93 63.74 62.89 60.82 60.73 59.23 57.81 55.26 53.28 54.15 53.94 53.52 53.07 53.64 52.27
46.52 46.57 46.73 45.54 47.11 49.25 45.71 48.97 47.88 47.07 44.49 44.13 42.45 40.86 43.83 47.95 46.79 50.52 53.77 55.93 57.39 59.18 59.78 60.40 61.82 62.31 62.94 63.21 62.68 61.24 60.06 59.39 59.07 58.41 58.22 56.40 54.23 53.75 53.20 51.85 50.42 49.30 47.75 47.88
47.30 51.73 50.46 49.25 50.29 50.20 51.02 48.56 48.46 46.68 45.09 37.07 41.51 40.09 42.29 43.81 46.18 50.76 53.16 55.22 57.00 58.24 59.70 60.67 61.13 60.82 59.85 60.08 59.30 58.41 56.71 56.61 57.47 56.56 55.09 53.60 51.01 49.50 47.16 46.13 44.95 45.71 45.71 45.13
46.04 46.83 50.06 51.66 46.94 49.83 48.09 45.02 38.55 35.68 36.57 36.76 45.24 41.62 43.40 48.32 50.60 51.07 52.17 54.66 57.01 58.85 58.71 58.13 57.11 56.73 57.44 56.89 56.63 56.55 55.82 54.90 55.18 53.94 52.29 50.18 48.27 47.42 45.43 44.47 45.13 44.64 44.08 43.15
41.51 40.75 47.33 49.94 47.53 45.25 47.01 44.38 39.81 29.18 30.44 37.76 44.11 39.29 44.05 51.91 53.41 52.50 55.66 56.40 57.38 57.49 57.28 56.25 55.71 55.55 55.48 55.60 55.67 55.50 54.56 53.68 53.11 50.80 48.77 48.35 47.69 45.76 45.77 45.67 44.46 43.84 43.27 42.62
40.42 41.42 49.90 50.41 50.65 48.94 44.89 43.59 47.86 41.84 39.02 39.21 40.81 43.50 49.07 51.04 50.97 51.40 54.88 55.81 55.88 56.26 55.55 54.88 54.88 55.44 55.28 55.29 55.15 54.77 54.04 52.75 50.59 49.24 48.30 47.13 46.55 46.28 46.00 45.84 44.61 43.36 43.23 43.17
44.60 38.17 48.08 49.20 50.37 50.13 47.69 48.99 42.55 43.48 33.91 32.01 38.24 40.25 42.14 47.31 48.64 50.54 53.15 54.47 55.36 56.15 55.06 54.60 54.67 55.31 55.54 55.43 55.03 55.24 54.26 50.80 49.11 48.35 47.34 46.93 46.68 47.13 46.61 45.10 43.80 42.76 42.86 42.93
48.65 46.16 45.21 48.21 45.93 43.70 45.98 43.73 44.86 43.94 44.05 36.94 34.40 38.40 47.28 47.09 49.34 50.55 52.29 55.24 55.20 55.17 54.76 54.59 54.78 55.54 55.58 55.18 54.46 54.36 52.24 49.42 48.48 47.39 46.97 46.38 46.69 46.93 46.17 44.65 43.95 42.88 42.81 42.60
49.43 46.50 43.36 44.33 49.12 50.25 48.58 46.87 45.30 41.52 38.42 42.29 40.15 38.84 49.33 49.42 49.77 52.00 52.35 54.47 55.92 55.76 55.49 55.00 55.17 54.88 54.17 53.99 53.89 52.21 50.49 49.25 48.16 47.47 46.90 46.44 47.19 46.72 44.94 44.33 43.66 43.28 42.35 42.69
49.93 45.43 39.85 41.92 46.59 49.02 45.94 46.08 46.61 46.78 45.56 40.02 37.34 39.61 49.59 49.16 48.88 50.73 51.79 53.31 55.15 55.71 55.55 55.27 54.86 53.94 53.55 53.42 52.46 50.78 49.98 49.46 48.16 47.59 46.44 46.00 46.08 44.94 44.41 43.81 43.69 43.46 42.57 41.76
51.62 46.72 43.06 39.16 42.51 46.51 44.48 45.28 45.72 44.90 40.47 40.14 39.55 41.63 45.70 47.60 48.16 49.55 50.75 52.20 53.71 54.85 55.25 55.32 54.66 53.96 53.52 53.15 51.45 50.61 49.69 49.39 48.16 47.01 45.81 45.20 45.34 44.94 44.12 43.64 43.32 43.21 42.58 40.87
50.02 43.48 45.07 45.40 46.31 46.47 45.67 45.11 45.48 43.43 44.43 39.64 42.79 42.54 45.62 47.08 48.43 50.36 51.28 51.87 51.67 52.20 54.32 54.82 55.11 54.13 53.11 52.46 51.40 50.68 49.42 49.06 48.84 47.40 44.99 45.58 45.58 44.64 44.07 43.63 43.34 42.82 41.80 41.10
50.75 44.93 46.21 43.94 46.18 45.96 43.38 45.15 45.58 44.88 44.63 44.36 44.33 43.79 48.69 50.24 50.21 49.67 49.86 50.41 51.22 50.72 52.53 54.42 55.02 54.62 52.94 52.40 51.61 50.37 48.84 48.58 48.83 46.01 44.80 45.49 44.49 43.89 42.86 42.16 42.55 42.05 41.65 41.14
49.00 47.07 43.02 38.99 42.46 41.73 36.03 42.73 44.29 45.28 46.09 45.37 41.43 46.41 49.05 48.40 48.88 49.73 50.21 50.23 51.21 51.21 51.86 53.17 53.96 54.14 53.18 52.24 51.51 49.26 48.67 49.12 47.25 45.35 45.18 44.73 44.13 42.34 41.75 41.92 41.30 40.14 39.96 40.02
47.04 45.81 43.60 39.71 36.46 31.53 42.38 47.52 46.72 45.12 45.92 47.22 46.51 47.54 48.43 49.05 50.14 50.23 51.16 50.74 51.11 52.40 52.16 53.12 53.48 53.56 53.16 52.72 51.45 49.56 49.06 47.75 45.41 44.22 43.69 42.93 42.79 41.10 40.46 40.20 39.85 39.90 39.79 39.46
50.03 46.54 41.33 37.53 36.76 40.14 42.39 44.95 43.47 42.72 42.80 47.29 46.37 47.01 48.28 49.07 49.38 49.60 52.15 52.57 52.07 52.01 52.24 52.62 53.54 53.64 53.11 52.41 51.37 48.25 47.09 45.64 44.33 42.12 42.06 41.66 40.42 39.59 39.51 38.90 38.73 39.27 38.99 38.46
46.09 47.78 44.45 38.76 36.27 32.94 43.77 46.02 48.18 47.46 38.60 47.12 47.49 47.35 47.34 48.11 44.38 46.98 51.69 52.48 52.37 52.32 52.74 52.58 53.29 53.28 52.56 51.75 49.48 46.85 44.09 42.05 41.08 40.86 39.91 39.74 39.52 38.67 38.24 38.45 38.51 38.59 38.07 38.20
40.99 42.60 37.59 39.05 37.63 40.78 46.60 47.24 48.21 38.21 41.22 48.67 49.01 48.64 48.66 47.10 49.03 51.69 53.07 51.91 51.99 52.54 52.76 53.64 52.35 47.51 47.64 44.72 44.08 42.38 40.96 39.62 39.13 39.58 39.52 39.25 39.32 38.97 38.64 38.09 37.63 37.13 36.63 36.83
40.35 40.30 37.79 41.84 35.33 32.76 47.65 46.51 42.55 48.97 51.84 50.40 50.22 50.48 50.27 50.99 51.17 51.33 51.56 51.89 51.07 50.56 51.81 48.82 41.27 40.54 41.73 42.51 41.39 38.75 37.66 38.87 39.25 39.40 38.78 38.57 38.49 38.46 38.34 37.29 36.94 36.82 35.98 34.41
42.09 46.10 44.83 42.88 42.47 49.85 49.75 48.86 51.16 51.91 50.56 50.17 50.13 50.27 50.78 50.15 50.10 50.92 51.06 51.18 49.22 48.87 44.53 42.63 40.67 39.28 38.46 38.25 38.46 37.03 37.69 38.73 39.18 37.90 36.99 36.99 37.66 37.66 37.33 34.93 33.73 33.82 34.68 33.51
47.64 48.82 46.18 45.60 46.20 47.29 48.99 50.06 50.85 50.41 50.76 51.08 51.53 51.55 51.63 50.37 50.57 50.41 50.85 48.58 44.92 43.38 41.42 40.46 38.52 36.62 36.25 37.20 37.22 37.57 37.71 37.94 37.29 35.96 35.82 36.04 35.66 35.54 35.11 35.02 35.07 33.16 32.10 33.02
48.45 47.61 44.94 44.98 47.39 48.43 48.91 50.27 50.92 50.88 51.55 51.65 51.95 50.92 48.45 48.62 48.93 49.23 43.12 41.48 40.15 39.58 38.45 37.57 36.67 36.05 35.99 37.05 37.20 37.75 37.47 37.07 35.35 34.97 35.04 35.19 33.71 34.19 34.50 35.36 34.27 32.03 32.56 32.15
48.85 46.69 45.75 44.44 48.29 48.23 48.48 50.44 50.85 49.96 48.18 48.15 47.92 45.36 44.91 44.85 42.29 40.94 39.68 38.89 37.54 36.52 36.78 36.20 36.40 36.17 36.29 36.89 37.07 37.70 37.88 37.08 35.29 33.88 33.78 33.94 33.81 33.82 34.04 34.29 33.66 34.16 33.24 33.23

GFSCGP_sfc_wetblb_021.txt.gz
Wetbulb
47.13 41.40 38.62 42.42 45.15 45.56 44.28 41.41 40.43 42.23 45.98 44.64 43.53 43.48 46.61 49.93 50.01 50.45 52.03 52.35 52.95 54.69 56.63 57.55 58.07 57.80 61.80 61.82 61.84 62.30 60.92 60.63 60.34 58.62 58.33 57.95 55.46 55.01 52.23 51.82 52.07 51.65 51.55 51.67
43.66 40.26 46.39 48.40 47.49 45.51 44.02 42.90 41.00 43.97 45.26 42.50 41.84 42.15 45.72 49.56 49.10 50.89 52.12 51.82 53.77 54.38 56.27 58.07 58.81 59.18 62.38 61.81 61.39 61.36 61.45 60.80 60.29 60.01 60.27 57.32 54.81 53.35 51.50 51.48 50.88 51.07 50.65 50.21
41.14 45.53 49.51 48.07 46.12 44.43 44.79 42.19 41.78 41.45 42.20 40.36 41.76 39.23 42.17 47.34 49.48 52.74 52.61 51.32 52.94 54.91 56.17 57.56 58.95 58.66 61.17 61.02 60.91 60.78 60.58 60.79 60.72 60.59 56.06 54.15 52.16 50.82 49.82 49.04 48.79 49.94 50.87 50.12
45.02 48.86 47.94 46.46 45.29 45.49 40.71 46.64 45.44 44.50 40.84 34.90 42.67 32.74 42.24 44.67 46.21 48.86 51.59 52.97 54.70 56.27 57.30 58.36 58.72 58.77 60.13 60.16 59.87 61.00 61.11 61.05 61.54 58.06 54.86 52.68 50.34 48.52 49.00 49.54 49.04 46.73 45.57 44.63
43.26 46.25 45.40 44.66 45.31 46.07 43.54 46.52 45.19 45.29 41.10 41.16 41.02 37.59 38.73 45.05 43.81 46.59 47.26 49.79 50.86 55.97 56.68 57.36 58.17 59.43 60.10 60.79 60.74 60.30 60.08 57.74 55.51 54.85 54.13 51.53 49.48 48.26 46.15 44.50 42.63 42.33 43.14 43.46
44.79 49.01 47.80 46.24 48.52 47.11 49.01 46.12 45.00 43.46 39.61 30.94 39.58 38.48 37.01 41.47 45.59 47.68 49.52 51.83 53.11 54.14 55.51 56.90 59.28 60.10 59.98 58.50 57.33 55.86 53.24 52.35 51.49 50.74 49.38 48.09 46.47 42.43 41.63 40.69 40.31 40.64 41.34 41.58
44.82 45.76 47.75 50.07 44.91 47.20 46.35 40.27 32.89 30.47 30.11 28.69 42.34 39.49 39.51 45.89 47.97 49.10 50.35 50.67 51.04 54.91 55.43 56.03 55.26 54.05 53.36 52.88 52.98 51.20 51.43 50.48 49.62 47.11 44.63 43.47 42.93 41.72 40.37 39.62 40.03 39.93 39.50 39.27
39.69 35.83 44.47 48.46 44.86 44.11 43.27 41.22 32.88 27.51 28.05 33.43 41.46 37.31 41.31 48.44 50.74 51.03 52.06 50.97 52.37 53.55 54.47 53.62 53.01 52.43 51.70 51.15 50.69 50.25 50.38 49.12 48.27 45.59 44.00 42.79 42.13 41.15 41.20 40.89 40.49 40.10 39.30 38.73
38.34 39.99 48.06 49.49 49.53 46.59 42.94 39.16 44.45 37.35 38.20 33.40 37.93 41.61 46.51 47.72 47.62 49.84 48.89 49.30 51.39 51.82 51.17 51.72 51.32 51.67 50.90 50.59 50.74 49.37 49.21 47.84 45.32 43.51 42.47 42.35 42.28 42.00 41.64 41.51 41.07 39.58 39.36 40.74
44.02 38.35 45.53 47.49 49.27 47.95 44.74 45.52 37.00 36.36 28.11 26.38 32.96 35.01 37.65 44.01 45.73 47.73 47.57 49.11 51.03 51.59 50.62 51.21 51.12 51.26 51.80 51.56 50.99 49.48 48.53 46.52 44.67 43.28 42.83 42.60 41.90 42.46 42.07 41.54 40.82 40.05 39.47 39.41
45.34 42.40 42.03 46.17 43.65 41.06 41.92 39.60 40.54 39.88 35.07 28.43 25.68 31.59 41.39 43.37 45.32 45.77 48.87 51.49 52.00 51.75 50.60 50.52 50.34 51.82 52.06 51.56 50.22 49.56 46.86 44.48 43.03 42.79 42.65 42.15 41.96 43.64 42.91 43.36 40.00 40.98 39.30 39.83
45.75 41.89 34.20 41.96 46.83 47.34 44.48 43.22 42.60 30.14 31.92 31.45 28.86 31.73 43.73 43.80 45.23 46.71 47.03 51.84 52.22 52.44 51.21 50.49 50.57 51.18 51.14 50.69 50.19 49.34 45.00 44.43 43.66 43.05 43.17 42.33 43.14 44.42 43.12 41.64 41.61 39.45 39.11 39.53
46.26 39.18 29.57 35.28 41.48 45.65 42.03 43.40 43.16 42.99 35.95 31.48 25.53 31.16 44.37 44.97 44.11 45.45 45.75 48.00 51.31 51.61 50.44 50.58 50.07 50.86 50.91 50.11 50.11 48.46 45.85 44.71 43.75 43.37 42.62 42.70 44.58 44.32 43.14 42.15 40.98 40.07 39.33 38.76
47.75 42.72 36.57 30.17 36.92 42.22 39.65 42.62 43.03 40.27 29.90 30.57 31.57 37.23 41.28 42.43 43.65 44.82 45.49 45.21 48.42 51.17 51.70 50.62 50.08 50.46 50.51 50.47 49.49 47.98 45.69 45.18 44.35 43.31 42.04 43.12 43.94 43.67 42.38 41.36 41.31 41.15 39.81 38.87
45.35 37.93 39.91 42.15 44.28 44.42 42.90 43.38 43.45 40.13 39.63 33.40 37.04 39.18 42.22 42.14 42.60 43.52 45.79 46.43 46.83 47.73 49.30 49.95 49.97 49.43 50.02 49.90 48.41 48.35 46.69 45.27 44.05 42.88 42.80 43.30 44.22 43.20 42.09 41.36 40.71 40.57 40.24 39.44
45.77 37.97 38.31 36.81 43.48 42.10 39.29 41.61 41.79 41.73 41.93 39.85 39.85 39.21 43.25 44.79 44.71 44.43 44.90 46.53 46.37 46.74 47.39 49.57 50.68 50.03 49.84 49.24 48.14 48.00 46.18 44.78 44.78 43.71 43.52 43.87 43.10 42.12 40.81 40.12 39.33 39.50 39.78 39.62
42.32 36.66 33.28 31.28 37.13 36.29 29.19 36.69 40.43 41.52 42.48 40.84 35.37 40.42 43.99 43.33 44.54 44.00 44.40 46.00 46.13 46.75 47.66 49.00 50.06 50.28 49.18 48.88 48.63 45.97 45.43 45.50 44.46 43.41 43.40 43.32 41.31 40.41 39.72 39.82 39.00 38.56 37.81 37.59
39.74 37.85 32.70 29.13 29.34 21.05 37.61 44.15 43.13 41.98 42.14 42.03 42.03 43.15 43.42 43.21 44.23 46.05 45.55 45.53 46.07 47.19 47.89 47.99 48.55 49.41 48.82 48.03 47.35 45.11 45.58 44.84 43.36 42.50 40.43 39.94 38.90 38.36 38.94 38.53 37.89 37.51 37.92 37.22
46.44 36.18 32.07 27.11 27.40 33.81 38.33 41.68 41.08 38.71 37.95 42.60 41.66 42.62 43.72 44.91 44.15 44.50 47.48 47.29 46.25 46.40 46.55 47.37 48.18 48.83 48.09 46.87 45.53 44.41 43.10 42.09 41.05 38.90 38.09 38.44 38.98 37.99 37.96 37.26 36.77 37.24 36.75 36.30
43.12 39.07 31.67 28.83 25.30 21.13 35.78 42.57 45.48 43.94 31.66 43.89 43.67 43.03 43.14 42.78 32.99 40.73 46.69 47.78 47.37 47.74 44.32 41.90 42.02 40.64 41.65 42.33 43.07 40.14 38.30 38.05 37.46 37.99 37.83 38.07 38.66 38.25 37.13 36.97 36.69 36.62 35.94 35.39
31.06 30.98 27.97 25.42 23.60 31.47 43.65 44.61 45.12 30.35 32.73 44.20 44.59 43.94 43.76 41.46 42.75 45.94 47.39 47.41 46.34 42.53 40.02 39.66 38.86 38.30 37.80 39.50 39.05 37.14 36.66 36.65 38.18 38.31 38.17 38.48 38.65 37.99 37.58 36.81 36.14 35.41 34.58 34.31
33.05 30.65 27.73 30.01 29.05 27.68 45.30 43.24 35.69 41.42 43.83 44.44 44.02 43.86 43.98 44.95 46.08 47.10 47.31 45.18 41.33 38.38 38.48 37.56 35.70 35.75 37.84 38.38 37.97 36.61 36.11 37.84 38.80 38.97 38.67 38.02 37.86 37.36 37.33 35.34 34.61 33.82 32.62 30.96
33.88 38.53 33.80 35.68 33.72 42.93 43.79 43.63 46.79 45.62 44.28 43.92 44.53 45.97 46.77 46.39 46.38 47.02 43.56 39.16 38.69 37.13 35.35 36.62 36.09 36.73 37.67 38.00 38.13 36.35 37.03 38.35 37.95 37.32 36.67 36.16 36.11 35.97 35.74 33.79 31.84 30.74 30.67 27.98
42.08 45.04 37.17 37.76 41.82 43.61 44.35 45.30 46.43 47.10 46.46 47.49 47.21 46.09 46.09 45.05 43.09 39.89 38.35 37.52 37.09 36.23 35.62 37.43 36.53 35.29 35.01 36.46 36.72 37.01 36.73 36.46 35.44 34.10 33.79 34.11 33.55 33.69 33.11 32.69 32.55 30.99 27.24 25.85
41.63 42.76 40.63 39.50 42.19 44.68 46.05 46.60 47.39 46.88 47.04 43.90 43.07 41.66 42.18 40.03 38.74 38.00 37.07 36.26 36.12 36.37 36.59 36.68 35.79 35.02 35.34 36.19 35.04 35.20 35.14 34.63 33.02 32.85 32.99 32.43 30.35 31.11 31.35 31.94 31.27 29.94 29.84 29.40
43.41 41.10 34.92 32.01 44.34 43.57 43.22 44.80 45.52 43.38 42.45 42.91 40.87 38.88 39.42 39.13 37.46 37.26 36.18 36.29 35.37 34.73 35.35 35.17 34.18 33.85 34.82 35.03 34.25 34.77 34.85 33.91 32.24 31.36 29.85 29.27 29.05 29.19 30.79 30.59 30.26 32.94 32.46 32.28

GFSCGP_sfc_wetblb_024.txt.gz
Wetbulb
45.60 40.14 37.05 40.28 42.65 44.90 43.89 41.34 38.04 39.37 44.73 43.02 42.43 44.38 47.90 50.09 50.88 51.04 50.82 52.22 51.73 53.97 56.36 58.20 60.85 60.80 60.05 60.04 60.07 60.72 59.48 59.27 58.60 58.04 57.65 55.81 54.35 54.06 52.62 50.34 50.68 50.23 50.05 49.64
42.02 38.66 44.07 47.23 47.36 44.67 43.17 41.00 39.86 42.27 43.86 41.74 40.49 42.00 47.55 48.60 49.98 50.86 50.16 51.57 52.56 52.82 54.23 55.31 57.13 59.45 59.62 59.64 59.81 60.32 59.97 59.39 58.71 58.14 58.03 56.76 54.23 51.47 49.90 49.39 49.13 49.34 49.28 49.09
39.25 43.19 47.97 47.43 45.78 43.15 42.31 40.67 40.49 39.97 40.14 41.11 40.39 37.05 43.54 47.76 49.11 49.79 51.59 52.92 54.30 54.18 54.08 55.81 56.88 58.66 59.23 59.08 59.97 60.05 59.65 59.65 58.84 58.25 57.18 52.89 50.99 49.28 47.94 47.05 47.37 48.24 49.04 46.84
42.79 46.39 46.25 45.12 43.76 44.07 38.32 44.61 43.83 42.51 38.70 33.42 38.54 30.75 40.16 43.91 46.57 48.79 50.89 51.01 51.78 52.92 55.28 56.56 57.48 58.87 59.13 59.38 59.41 60.05 60.26 59.77 59.32 57.83 55.14 53.81 51.91 49.15 47.38 47.11 47.07 45.12 43.83 43.31
41.98 43.47 43.03 43.66 43.83 44.84 41.85 44.83 43.27 43.05 38.75 36.87 38.02 34.81 37.39 42.44 41.98 46.60 49.98 51.83 49.93 52.34 55.35 56.31 58.46 59.64 60.00 59.67 59.76 59.96 59.44 59.25 59.48 55.04 53.95 51.94 48.27 47.27 47.20 45.21 41.49 41.15 41.34 42.12
43.42 46.24 46.12 45.06 47.67 46.28 46.87 44.39 43.00 40.94 38.05 29.66 38.04 34.76 34.34 40.11 43.18 46.07 48.99 52.05 51.97 52.50 54.34 56.18 59.05 60.21 59.43 59.76 59.41 57.76 57.40 54.21 54.22 53.45 50.82 49.13 45.85 43.62 42.45 39.82 39.15 39.68 40.59 40.40
42.00 43.05 45.90 47.97 43.35 45.41 44.89 38.46 31.16 29.72 27.74 27.17 40.12 36.46 38.08 43.19 45.92 45.92 46.62 47.58 50.53 53.42 54.64 56.58 57.15 58.16 58.58 57.87 57.02 56.04 52.42 48.08 47.45 46.63 45.83 45.07 43.25 42.92 41.03 39.50 39.43 39.42 40.15 39.84
36.59 34.42 43.78 47.66 44.57 40.98 41.28 38.91 30.38 26.40 25.91 31.32 39.56 34.48 39.32 45.96 47.51 48.56 48.32 48.49 51.22 52.72 55.57 56.50 55.53 54.08 53.81 53.11 52.10 51.56 50.59 46.51 44.23 43.83 42.90 42.93 41.87 40.97 40.60 41.26 41.12 40.23 39.77 39.34
36.83 38.00 45.95 47.00 47.81 46.24 41.65 36.90 41.79 35.07 35.43 31.68 34.79 39.76 43.29 45.98 45.74 46.22 47.11 48.93 50.56 51.37 53.32 53.50 52.56 52.35 51.52 49.31 49.56 49.74 48.98 47.06 44.94 42.54 41.97 41.75 41.24 41.74 41.63 41.53 41.01 40.77 41.00 41.28
42.35 36.34 43.94 46.74 48.37 46.58 43.68 43.94 36.01 34.78 28.41 26.93 31.57 33.00 36.60 41.72 44.07 45.81 45.94 46.31 49.81 50.73 51.47 52.26 52.40 51.26 50.85 50.18 49.31 48.45 47.78 45.70 43.61 42.43 42.08 42.96 42.79 42.33 41.86 41.73 41.21 41.14 40.79 40.98
43.99 39.45 39.74 44.93 43.06 41.84 40.68 38.19 38.48 38.32 32.40 27.54 25.70 30.74 39.27 42.96 44.55 45.00 45.90 47.10 49.65 50.79 51.38 51.81 52.05 51.63 51.11 50.49 49.27 48.50 46.61 43.65 42.19 41.85 41.44 41.35 42.32 42.81 42.72 41.95 41.66 41.31 40.53 40.52
44.56 40.83 32.69 40.20 46.03 45.96 43.02 40.80 39.40 29.09 30.75 29.33 27.44 31.47 42.19 42.91 44.38 45.25 46.85 48.43 50.59 51.88 51.32 51.75 51.51 51.17 50.30 50.12 49.08 48.05 46.22 44.31 43.04 42.62 41.76 41.51 42.06 43.01 42.97 42.07 41.28 40.53 40.67 39.72
44.42 37.49 29.08 34.34 39.47 43.03 41.11 41.80 42.04 39.52 33.09 30.29 25.43 30.63 42.85 41.70 42.47 44.93 44.94 48.52 51.06 51.44 49.89 50.29 49.53 50.10 50.18 50.30 49.88 48.30 46.17 44.23 42.97 42.67 41.83 41.10 41.48 41.78 41.78 40.69 39.79 39.32 39.51 37.93
46.20 39.28 34.63 29.42 34.70 39.06 37.13 40.82 41.16 39.07 29.03 30.50 30.29 35.50 40.61 41.39 41.44 42.65 44.30 46.47 48.93 50.92 49.56 48.62 48.64 49.73 50.43 50.77 50.16 47.76 44.89 44.14 43.41 42.66 41.68 41.11 41.86 41.96 40.64 39.60 39.13 38.62 38.11 37.39
43.60 36.86 38.05 39.05 41.60 41.47 39.90 39.98 40.72 38.59 37.37 32.13 35.95 36.58 40.49 41.52 42.08 42.26 43.68 44.12 47.13 48.04 48.32 47.53 47.14 48.61 49.23 48.71 48.19 46.22 45.05 44.70 43.80 42.24 41.53 41.24 42.00 41.33 39.56 38.64 38.31 38.67 38.85 38.52
43.85 36.40 36.65 35.05 39.54 39.64 37.22 39.68 39.24 39.71 39.64 38.76 38.16 37.54 41.78 42.06 42.14 42.22 43.03 44.55 43.61 44.53 46.09 48.42 48.03 47.92 47.91 48.14 47.62 48.00 45.47 44.05 43.73 42.09 41.66 42.31 41.59 40.15 39.91 38.87 37.63 37.69 38.42 39.34
40.06 35.26 31.81 31.03 34.45 34.43 29.49 35.43 38.34 39.58 40.12 39.99 34.42 38.16 41.27 40.89 42.15 41.79 42.55 44.06 43.96 44.67 45.90 47.74 47.65 48.18 48.21 47.80 48.28 47.52 45.97 44.04 42.67 42.78 43.45 41.46 40.77 39.70 38.94 37.48 36.76 37.01 37.22 37.15
37.48 34.79 30.43 27.82 28.06 22.02 37.52 41.86 41.41 39.03 38.88 40.19 40.34 39.98 42.12 42.55 42.73 43.24 43.11 43.12 43.68 44.61 45.37 46.06 47.50 47.85 47.29 46.94 47.60 45.22 43.74 42.68 42.61 41.82 40.04 39.69 38.93 37.56 37.72 37.26 37.46 37.42 37.48 36.52
45.53 35.68 31.13 26.42 26.37 32.57 37.09 39.57 38.60 36.82 35.93 40.69 39.70 40.95 42.35 43.42 43.32 43.06 45.35 44.96 43.73 42.18 40.77 39.63 39.29 41.67 43.32 44.75 43.10 42.60 41.09 39.17 37.41 36.81 37.83 38.08 37.52 37.34 36.95 37.37 36.74 37.17 36.17 35.39
41.14 36.62 32.35 27.92 24.39 21.14 33.82 40.91 43.17 41.42 31.04 42.17 41.75 41.14 41.37 40.35 32.64 39.52 44.56 43.15 39.32 38.70 38.29 37.88 37.94 38.04 37.41 37.74 38.73 37.42 36.83 36.64 35.90 36.92 36.78 37.41 38.04 37.94 37.11 37.40 37.04 36.22 35.64 34.41
29.54 29.30 26.30 22.00 21.84 28.73 39.01 43.34 42.39 30.03 31.33 42.74 42.83 42.46 41.73 39.98 40.64 43.37 40.19 38.40 38.31 37.53 36.90 37.59 36.83 35.89 36.04 37.69 38.31 36.56 36.19 35.44 37.12 38.16 38.72 39.05 38.74 38.23 38.22 36.52 36.00 34.76 33.22 31.96
32.02 28.86 25.14 30.50 24.84 25.68 43.54 41.23 35.28 37.48 41.72 42.93 42.57 42.58 42.55 43.42 43.84 41.04 39.00 37.67 36.89 35.29 36.15 36.71 35.94 35.83 37.16 37.74 37.70 36.41 36.19 38.37 39.20 39.34 39.02 38.81 38.45 37.48 36.80 34.13 33.07 32.29 30.62 28.93
32.22 35.21 31.65 33.29 32.23 40.98 42.49 42.50 44.68 43.78 42.62 42.37 43.61 44.36 45.25 43.59 40.11 37.81 36.51 35.26 34.74 35.13 35.17 36.33 35.90 35.37 37.64 38.33 37.86 36.30 37.12 38.52 38.61 38.07 36.03 34.88 34.79 34.38 33.76 31.99 31.18 29.53 28.70 25.35
39.58 43.25 36.23 36.72 40.39 41.25 42.13 44.44 44.95 45.34 44.89 44.18 44.47 44.81 43.40 38.33 37.27 36.15 35.83 35.15 35.07 35.48 35.19 35.30 35.79 34.90 34.55 36.00 35.96 35.29 35.29 34.58 33.91 32.74 32.59 32.54 31.70 31.80 31.76 31.37 30.26 29.14 26.07 25.41
39.45 41.31 39.18 37.23 40.79 43.59 44.13 44.44 43.87 41.79 41.07 40.23 39.94 39.53 38.45 37.54 36.31 35.89 35.22 35.10 34.70 34.44 34.66 34.35 33.56 34.12 34.33 33.71 33.67 34.20 34.15 33.50 31.71 31.36 31.25 31.04 28.32 29.49 29.86 30.01 29.79 29.57 29.32 29.04
41.03 39.13 34.07 32.93 42.02 41.03 40.98 42.31 42.69 41.02 39.81 39.50 38.40 37.48 37.84 37.15 35.55 35.54 34.56 34.84 33.84 32.77 32.77 32.33 32.60 32.55 33.00 33.16 32.92 33.41 33.81 32.74 31.27 30.70 29.52 28.39 27.56 27.40 28.93 29.48 29.89 32.16 32.58 32.63

GFSCGP_sfc_wetblb_027.txt.gz
Wetbulb
44.35 39.34 35.98 38.76 40.52 41.67 40.95 39.07 37.66 39.13 43.08 44.15 42.93 41.74 45.86 48.26 50.12 48.68 49.24 50.27 51.10 56.71 58.46 59.56 60.44 60.88 60.19 59.48 59.40 59.79 58.08 57.42 57.55 56.96 55.87 53.78 52.84 52.98 51.64 50.64 49.77 49.71 49.26 48.53
41.01 37.65 42.41 44.68 44.35 43.77 43.44 39.83 39.08 41.67 42.27 42.38 39.24 39.92 44.48 47.63 49.80 49.47 49.73 49.75 50.95 55.28 56.03 58.74 59.48 59.26 58.07 59.00 59.22 59.32 58.57 57.60 57.58 57.95 56.49 55.37 53.54 51.43 49.05 48.86 48.49 48.55 48.18 47.57
38.21 41.38 45.71 45.05 43.80 41.94 40.84 39.17 38.93 39.69 39.05 39.89 39.25 37.55 43.84 47.86 47.61 48.67 49.64 50.62 51.71 52.75 53.27 55.35 58.14 58.16 57.34 57.76 58.50 59.38 58.96 58.37 57.82 57.86 56.65 52.28 49.64 48.26 47.05 46.19 46.17 46.84 47.62 45.46
40.93 44.77 44.42 43.18 42.13 42.37 37.79 42.85 41.77 40.75 36.51 32.50 37.01 29.91 37.23 44.63 46.83 47.23 48.12 49.44 50.69 51.98 53.86 54.47 56.53 57.31 57.47 57.54 58.84 59.46 59.49 58.87 58.34 57.43 56.57 54.01 51.99 48.81 46.36 45.99 45.98 42.01 42.82 42.16
41.00 42.74 41.67 41.47 42.21 43.42 40.39 43.27 41.35 40.86 37.37 35.22 36.17 32.81 35.26 42.04 42.94 46.53 48.40 48.82 50.21 51.26 53.32 53.73 54.78 57.59 58.26 58.39 58.75 59.20 59.23 59.09 58.78 57.27 56.11 53.18 50.42 47.30 46.71 44.67 40.38 39.87 40.87 41.72
41.42 44.68 43.82 43.61 45.52 45.14 44.73 42.25 40.65 38.79 36.12 28.95 35.30 33.51 33.03 37.28 43.47 47.25 50.03 49.92 50.61 48.68 51.16 54.29 55.87 57.67 58.14 58.57 58.27 58.61 58.54 58.38 58.04 57.12 54.78 51.86 47.46 45.70 43.82 39.57 39.00 39.49 39.46 39.32
40.07 41.33 44.04 46.12 42.29 43.57 42.33 36.81 29.46 28.59 27.24 26.91 37.94 34.51 36.36 41.66 43.83 44.46 45.68 48.81 51.04 50.26 51.57 55.11 57.17 57.77 57.69 57.59 58.45 58.27 57.19 54.00 55.25 53.95 51.02 48.51 46.84 46.52 44.10 40.17 39.37 38.60 38.20 38.42
34.86 33.19 42.11 45.44 42.63 40.07 39.47 37.35 29.35 25.35 24.65 29.75 37.63 32.56 37.86 44.12 46.45 46.13 46.19 47.06 47.59 49.37 52.92 55.69 57.57 58.10 57.92 58.14 57.73 57.58 54.17 50.19 48.95 47.87 46.14 43.36 43.51 44.56 43.10 41.61 39.71 40.09 40.32 40.25
35.03 36.19 44.21 46.53 47.16 44.97 41.29 35.95 39.47 33.28 32.28 29.69 32.19 37.66 41.16 44.16 43.80 44.59 45.21 48.03 47.63 49.73 52.96 55.56 57.22 58.04 57.05 56.05 53.53 51.64 49.29 46.11 46.02 44.96 43.48 42.39 42.52 43.44 42.35 41.88 41.71 41.10 40.99 41.04
40.44 34.62 42.26 45.21 45.56 45.26 42.47 43.53 34.30 33.15 27.53 26.40 30.02 31.30 33.31 41.49 43.09 44.66 44.30 47.08 49.03 50.32 52.61 53.31 54.17 53.63 53.60 52.63 50.83 47.63 46.82 45.76 45.09 44.39 44.60 44.24 43.56 43.11 41.89 40.96 40.79 40.91 41.26 41.62
42.08 37.74 36.91 42.77 40.71 39.30 39.72 37.19 37.02 36.72 31.44 26.38 24.29 30.15 37.87 41.16 43.34 43.94 43.02 45.79 48.38 49.98 51.72 52.96 53.45 52.77 52.02 50.93 49.38 47.87 45.63 43.41 42.60 43.44 42.23 41.42 41.08 41.55 41.04 41.33 41.35 41.20 41.22 40.40
43.10 37.92 30.92 38.03 43.02 44.02 41.07 39.46 37.89 29.04 29.97 28.24 26.93 30.36 40.64 41.50 42.97 43.07 44.87 45.89 46.86 50.12 51.62 52.80 52.90 51.10 49.40 49.14 49.07 47.94 46.69 44.49 43.70 43.35 42.94 41.59 41.07 41.42 40.65 40.29 41.28 41.04 40.35 39.86
43.08 36.18 28.94 33.87 38.69 40.90 38.84 39.87 40.17 36.91 31.59 29.33 24.93 29.77 41.11 40.52 40.72 42.34 43.96 45.33 47.02 49.84 49.76 50.40 50.03 50.01 49.32 49.16 48.86 48.32 46.59 43.72 41.40 42.69 42.00 40.84 40.92 40.88 40.75 39.58 39.04 38.34 37.85 37.34
44.60 37.48 34.72 30.61 35.02 37.85 35.23 38.88 39.33 37.44 28.66 29.26 28.96 34.18 39.31 40.82 40.85 42.06 41.91 43.29 46.03 48.96 49.10 48.64 48.09 49.25 49.99 50.09 48.81 48.18 45.69 43.92 44.13 44.37 42.25 41.53 41.34 41.92 41.59 41.02 38.13 37.94 37.46 36.41
43.09 36.28 36.29 36.71 37.74 39.85 39.19 39.14 38.76 36.96 36.04 31.82 35.39 34.76 39.61 39.67 40.64 40.95 41.20 42.43 45.38 47.46 47.15 46.83 46.58 47.76 48.79 48.65 47.76 47.13 45.20 45.30 44.34 42.84 41.77 41.38 43.44 42.71 41.96 40.31 38.56 37.25 37.00 37.00
41.84 34.12 35.80 34.32 37.81 37.57 36.08 38.62 38.35 37.94 37.77 37.03 36.74 35.91 39.62 39.91 39.40 40.28 41.37 42.63 42.71 44.67 46.64 46.79 46.63 47.35 47.38 47.97 47.09 45.30 45.50 44.49 43.01 41.95 41.80 43.24 43.47 41.68 39.43 38.74 38.06 37.18 37.86 38.40
38.71 34.22 31.50 30.09 32.67 32.83 29.06 34.26 37.00 38.06 38.97 38.67 33.69 38.35 39.49 39.08 40.52 39.47 40.44 42.20 42.91 44.23 45.76 46.41 45.71 46.24 46.74 46.69 47.18 45.82 45.16 44.08 42.29 41.66 42.85 42.63 40.57 38.68 37.74 37.55 37.55 37.45 37.11 37.54
35.18 33.18 29.92 27.19 28.16 21.62 36.65 39.90 39.60 37.64 37.05 37.85 38.12 38.95 39.99 39.95 40.17 41.07 41.46 41.30 41.48 41.87 41.52 40.59 40.06 44.23 45.61 45.58 45.77 43.88 42.02 40.93 40.40 39.17 38.82 38.95 38.26 37.70 38.08 37.89 37.43 37.42 38.05 37.42
41.60 33.01 29.05 27.22 26.81 31.73 36.05 37.55 37.50 36.02 34.80 38.73 38.42 39.89 40.99 41.63 41.21 41.41 42.84 40.39 38.69 37.88 37.37 36.76 36.59 36.93 37.99 39.99 40.71 38.65 36.94 37.06 37.01 36.43 37.38 38.32 37.99 37.27 37.61 37.19 37.35 38.02 37.56 35.91
37.82 36.21 33.12 26.24 24.62 22.92 34.17 38.65 41.47 40.12 30.30 40.45 39.96 39.94 40.58 38.69 31.33 38.13 40.77 38.79 36.84 36.41 35.99 35.79 35.87 36.74 36.83 36.69 37.27 36.06 35.46 35.33 34.94 35.73 36.97 38.36 38.69 38.28 37.68 37.74 37.71 37.69 36.05 34.38
29.85 28.76 27.91 22.83 22.89 28.33 36.59 41.16 40.75 30.17 32.04 41.01 41.17 40.70 39.65 38.26 38.52 39.89 37.70 35.85 35.62 35.83 35.85 36.43 36.08 35.41 35.69 36.56 36.80 35.33 35.47 35.75 37.73 39.19 40.18 40.68 40.39 39.63 38.69 37.96 37.35 36.08 33.51 31.37
32.74 29.25 24.85 25.16 21.86 25.33 40.62 40.18 34.40 36.87 39.58 41.74 41.34 41.78 41.17 40.43 38.14 37.01 36.40 34.80 35.35 34.75 35.28 35.88 35.18 35.06 35.46 36.41 36.78 35.90 36.97 39.47 40.56 40.44 39.97 39.87 39.26 38.49 38.07 35.82 33.04 31.69 30.31 28.26
31.88 34.35 31.55 32.95 31.96 39.19 40.78 39.24 41.37 42.33 41.75 41.07 41.55 42.78 43.50 38.34 36.59 36.07 34.14 34.56 34.60 34.37 34.02 34.47 34.17 33.79 35.08 36.36 37.20 35.95 36.78 39.08 38.64 37.57 36.26 35.04 34.16 33.57 32.90 31.20 30.37 29.30 28.37 25.66
37.58 40.65 35.02 34.87 38.67 40.01 40.50 42.52 43.09 42.07 42.35 43.38 43.61 43.54 41.01 36.29 35.80 34.22 34.35 34.44 34.30 33.56 33.14 33.62 33.56 33.05 32.94 34.98 34.83 34.90 34.76 33.51 32.90 31.94 31.49 31.43 30.98 30.94 30.52 30.51 30.37 28.96 26.37 25.81
38.14 40.43 37.40 35.71 39.47 41.40 42.10 41.58 40.16 39.70 39.79 38.69 38.44 38.32 37.22 36.07 34.85 34.85 34.19 34.17 33.80 33.11 33.30 33.09 32.36 31.74 31.48 32.24 32.25 32.54 32.54 32.19 30.87 30.81 30.84 30.57 28.43 28.89 29.13 29.44 29.39 29.28 29.43 29.62
39.81 38.40 34.52 32.98 41.39 40.06 41.01 40.53 40.78 39.33 38.00 38.04 37.18 35.85 36.54 36.29 34.75 34.58 33.52 33.57 32.79 32.43 32.16 31.33 31.14 31.21 30.95 30.60 30.89 31.74 32.27 31.07 29.96 29.83 29.10 28.19 27.81 27.52 28.61 28.69 29.39 32.17 32.42 32.44

GFSCGP_sfc_wetblb_030.txt.gz
Wetbulb
42.73 38.56 35.15 37.63 40.10 40.10 39.76 37.45 35.67 38.04 42.39 44.20 43.14 41.18 44.87 47.52 49.51 50.47 51.68 53.27 54.89 55.95 57.52 57.09 56.99 58.26 59.70 59.21 59.00 59.07 57.38 56.60 56.73 55.70 54.12 52.49 52.30 52.50 50.64 49.87 49.83 50.54 48.86 47.84
40.13 36.52 41.39 42.56 42.13 41.76 40.68 38.10 37.65 40.22 41.05 42.43 38.53 39.34 43.15 46.60 48.91 51.14 50.28 51.30 52.90 54.32 56.10 56.84 56.63 58.12 59.50 59.68 59.64 58.81 58.11 57.00 57.29 57.10 54.71 53.90 52.89 51.41 49.41 48.56 48.30 48.30 47.51 46.67
37.39 39.73 44.07 43.68 41.91 40.72 39.13 37.77 37.91 38.53 38.05 37.61 37.20 36.19 41.72 46.13 47.25 49.06 50.07 51.18 52.19 51.96 54.89 56.46 57.63 58.12 58.67 59.04 59.01 58.96 58.09 57.33 57.46 57.10 54.93 50.62 50.95 47.99 46.67 45.71 45.77 46.35 46.70 45.48
39.76 43.23 43.04 41.60 40.38 41.34 36.13 41.38 39.75 39.22 35.20 31.08 35.62 29.55 34.92 42.68 45.64 46.64 47.62 47.88 49.69 51.05 54.12 55.55 57.14 57.46 57.58 58.35 58.86 59.30 58.45 57.44 57.37 57.42 55.45 52.76 51.89 49.12 47.47 45.38 44.89 42.12 42.27 41.24
39.56 40.39 40.48 39.64 40.62 42.52 39.99 41.97 39.75 39.44 35.94 34.29 35.07 32.19 34.20 40.48 42.93 46.47 48.65 47.47 48.95 50.31 51.68 53.38 55.03 57.67 57.92 56.73 57.63 58.53 58.19 57.93 57.35 57.46 56.43 53.60 51.61 50.61 47.94 44.55 40.01 40.16 39.80 40.38
40.32 43.12 42.05 41.69 43.61 43.48 43.63 40.35 38.56 37.34 34.87 28.65 33.91 32.16 32.11 35.66 43.14 47.91 50.01 49.84 49.29 49.10 50.24 51.55 52.80 55.41 56.16 55.92 56.62 57.80 58.82 58.07 57.55 56.77 54.66 52.95 49.72 48.99 46.33 42.58 39.26 40.47 38.25 39.27
38.21 40.15 42.25 44.32 40.01 42.04 40.05 35.42 28.59 28.01 27.37 27.12 36.13 33.24 35.54 40.51 41.15 44.14 46.67 48.11 49.02 49.85 49.39 51.30 52.78 54.22 55.92 55.76 56.94 57.96 59.14 57.64 57.62 56.30 54.70 52.28 51.50 49.30 46.64 41.87 39.74 37.88 38.01 38.86
33.85 31.58 41.01 43.86 41.29 38.69 37.33 36.57 28.61 24.57 23.68 28.19 35.52 30.80 36.62 42.35 44.30 44.93 44.71 44.47 46.23 47.90 49.96 52.51 54.71 55.29 56.07 56.44 56.84 58.13 58.17 57.63 55.88 55.80 53.87 52.45 50.43 48.91 47.38 41.50 40.46 40.16 39.92 39.88
32.86 34.05 42.27 44.08 44.27 41.84 38.19 34.31 37.86 31.63 30.76 28.50 30.94 35.78 39.81 41.04 43.17 44.43 44.64 44.90 43.71 46.58 48.56 52.17 55.19 56.23 56.30 56.46 56.82 57.83 56.82 56.62 53.98 52.93 50.87 49.06 47.91 46.71 43.34 43.52 41.26 40.36 41.23 40.73
39.70 33.00 40.69 43.07 43.93 43.08 39.98 41.67 33.52 31.68 27.31 25.62 28.57 29.67 31.88 38.32 41.49 43.54 44.08 45.55 45.86 46.88 49.68 52.04 54.85 56.10 56.64 57.15 57.79 56.38 54.78 52.65 51.49 49.64 47.55 46.16 45.73 45.68 44.46 41.91 40.72 41.27 41.81 40.96
39.55 36.34 35.06 41.10 39.15 37.61 37.64 35.78 35.30 35.33 30.53 26.28 23.23 29.02 37.27 38.74 40.95 41.24 43.04 44.74 45.61 48.30 49.89 51.96 53.89 55.12 54.90 54.56 51.78 52.03 49.28 47.16 45.53 45.72 44.43 43.21 43.30 43.18 43.84 42.97 42.70 41.04 41.15 41.46
41.43 36.28 29.00 36.57 40.88 41.91 39.30 37.94 36.38 29.07 29.23 27.57 26.15 28.58 40.00 39.32 40.02 41.05 41.71 43.81 44.52 47.99 49.86 51.02 51.85 51.58 51.15 51.49 50.33 50.11 46.57 44.36 43.68 42.86 43.08 43.21 43.16 43.62 42.00 41.15 41.14 41.35 40.94 40.61
41.61 34.38 28.00 32.28 36.42 38.70 37.69 38.44 37.98 34.85 30.71 28.40 24.00 29.55 39.93 39.66 40.25 41.51 41.75 42.80 44.83 46.80 49.05 50.14 50.24 49.81 50.33 50.08 49.32 48.89 46.17 44.11 44.05 43.12 43.97 42.60 41.27 39.82 39.66 41.22 41.14 40.89 40.09 39.35
44.20 36.41 33.38 30.71 33.11 36.37 34.63 37.45 37.63 36.12 28.15 29.28 28.74 33.44 38.10 39.91 39.56 40.57 41.08 39.99 41.55 46.14 48.74 48.67 48.87 48.88 48.14 47.94 48.79 47.61 45.81 43.26 43.83 42.81 42.29 41.25 39.72 39.95 40.36 41.22 40.11 39.95 39.37 38.46
41.08 34.48 34.34 35.44 37.07 37.82 37.55 37.80 36.63 35.50 34.78 31.49 34.28 33.16 38.29 39.58 39.76 40.50 40.19 40.05 41.95 45.21 46.91 47.18 47.31 47.24 47.85 48.37 48.04 47.12 44.63 44.18 44.16 43.48 41.89 40.09 39.82 40.46 40.64 41.39 39.72 39.10 38.78 38.52
39.71 34.74 34.02 33.47 36.36 36.68 35.14 37.02 36.56 36.25 35.77 35.02 35.21 34.77 39.82 38.76 38.19 39.23 39.03 41.68 42.49 44.41 45.47 45.66 45.43 46.06 47.44 48.11 47.37 47.02 44.96 43.99 43.80 42.62 40.92 42.51 42.21 41.75 39.79 39.27 39.16 38.68 38.24 38.03
37.24 33.34 31.14 30.39 32.22 33.04 29.40 33.69 36.31 35.93 36.99 37.29 32.81 37.52 38.68 37.14 38.64 37.82 38.78 41.58 41.55 40.91 40.97 41.81 43.42 44.73 45.17 45.90 46.80 44.90 44.19 43.58 42.11 40.74 41.61 41.93 41.99 40.30 38.54 38.63 37.97 37.45 37.12 37.59
33.32 32.73 30.63 26.88 27.95 21.78 35.86 38.34 38.09 37.09 37.15 37.17 36.89 37.01 38.15 38.88 38.57 39.44 39.96 39.50 39.19 38.58 37.87 36.88 37.10 38.72 39.81 43.30 42.80 41.43 40.82 39.79 39.31 39.23 39.51 40.27 38.89 38.18 38.98 38.16 37.61 37.84 38.35 38.43
39.17 32.36 28.77 27.49 26.64 30.80 34.58 36.70 36.31 35.54 35.21 38.16 36.62 38.03 39.00 39.80 39.81 39.10 37.97 37.14 36.13 35.75 35.10 34.40 35.48 36.05 35.94 36.07 36.47 36.37 35.76 36.18 36.53 36.28 37.03 37.92 38.98 38.57 38.63 37.77 38.12 38.48 38.27 37.69
36.83 34.31 32.32 25.08 24.12 23.31 33.78 38.97 39.62 39.05 30.28 38.62 39.57 38.84 39.13 38.65 29.58 36.26 36.93 36.24 34.89 34.71 34.76 34.95 35.60 35.50 35.21 34.92 35.75 34.92 34.34 34.74 34.76 36.26 37.49 38.89 39.37 38.68 38.26 38.48 38.15 38.41 37.49 36.08
30.10 28.57 27.50 21.47 22.84 29.50 36.98 39.05 39.54 30.27 32.58 39.31 40.56 39.80 38.73 36.72 36.33 36.82 35.20 34.34 34.81 34.91 34.87 35.40 34.91 34.01 33.95 34.94 35.77 35.37 36.32 36.47 37.92 38.77 39.11 40.14 40.67 39.88 39.02 38.26 38.00 37.48 36.43 33.36
34.00 30.14 25.66 25.32 21.99 26.99 38.91 38.48 34.39 37.20 37.59 39.48 39.83 40.35 39.19 37.67 35.89 34.88 34.58 34.19 34.11 33.62 34.34 34.95 34.43 34.20 35.09 35.62 37.00 36.10 36.40 37.84 38.73 39.75 40.23 39.76 39.38 38.90 38.35 35.98 33.89 31.54 30.34 29.24
33.03 35.32 32.33 33.61 32.87 38.80 39.37 38.27 40.55 40.26 40.07 40.29 40.69 41.08 40.59 36.49 35.09 34.27 33.67 33.31 33.26 32.73 32.47 33.12 33.68 33.96 34.96 35.47 35.89 35.09 36.13 36.80 35.25 33.99 32.76 32.28 32.66 32.20 31.68 30.70 30.17 29.47 28.40 25.51
35.81 37.77 34.00 34.75 37.66 38.12 40.11 40.62 40.44 40.45 40.03 41.14 41.65 41.93 39.48 35.64 34.51 33.31 33.29 33.11 32.57 31.89 31.67 32.32 32.54 31.71 31.31 32.59 32.75 32.23 32.19 31.41 31.01 30.19 29.88 29.92 29.69 29.93 29.54 29.36 29.44 28.19 26.06 26.01
36.57 38.77 36.14 34.36 38.17 39.59 41.22 41.25 40.28 39.06 39.66 39.00 38.02 37.54 36.15 34.86 33.48 33.67 33.09 32.79 32.46 31.82 32.08 31.94 31.51 31.15 30.05 31.14 31.06 31.26 30.69 30.39 29.96 30.03 29.78 29.16 27.85 27.92 28.22 28.62 28.35 28.40 28.61 29.03
38.75 37.48 35.17 34.75 40.14 40.07 39.53 40.29 39.79 38.82 37.29 37.43 36.28 34.85 35.28 35.26 33.96 33.89 32.68 32.76 31.98 31.31 31.75 31.97 30.97 30.44 30.11 30.23 29.84 30.09 29.85 29.35 28.62 28.48 27.98 26.72 26.24 25.36 27.26 27.55 27.07 30.48 31.62 32.04

GFSCGP_sfc_wetblb_033.txt.gz
Wetbulb
46.67 44.27 41.21 42.69 43.40 43.85 43.39 41.62 40.78 43.41 45.14 47.16 46.59 45.56 47.60 52.73 53.73 53.90 54.56 55.41 56.01 56.46 58.26 59.56 59.87 59.96 60.48 61.13 61.22 62.35 62.66 62.92 61.70 60.21 59.84 59.65 58.18 58.35 57.80 58.09 57.55 56.34 55.38 54.62
44.36 41.76 44.67 44.24 44.36 43.77 43.38 41.66 41.25 43.17 43.63 45.48 43.41 44.10 47.17 50.26 52.36 53.25 54.26 55.04 55.99 57.75 58.53 59.03 59.54 59.27 59.99 60.69 61.77 62.38 62.75 62.29 61.85 61.53 60.93 60.21 58.35 58.09 56.97 55.73 56.37 55.23 54.56 53.71
42.10 43.89 45.34 44.44 43.52 42.59 42.94 41.93 41.23 41.31 41.71 42.90 42.75 41.83 44.96 48.65 51.26 52.80 53.89 55.68 56.39 57.13 57.98 59.07 58.41 59.01 59.93 60.58 61.80 62.55 62.82 62.05 61.98 61.65 60.13 57.33 56.01 55.08 53.91 53.28 53.94 53.53 53.35 53.09
43.88 45.91 44.33 44.20 43.04 43.89 40.82 44.31 42.60 41.30 39.90 36.89 41.80 36.86 40.09 46.35 48.38 50.07 52.73 53.65 55.03 56.15 57.45 59.43 59.72 59.30 59.68 61.14 62.59 63.01 62.63 61.86 61.75 61.03 59.79 57.48 57.37 55.44 55.00 53.37 53.27 52.58 52.21 51.01
43.25 43.39 43.50 43.09 43.75 44.95 43.16 45.06 43.60 42.65 39.91 40.15 39.97 38.16 41.36 44.40 45.66 49.26 51.84 53.07 54.63 55.85 56.45 57.78 59.61 60.55 61.20 61.58 62.14 62.78 62.54 61.61 61.31 59.81 60.03 58.82 58.01 56.91 53.86 51.91 50.54 49.16 48.94 48.75
44.32 46.54 46.00 45.73 45.91 45.60 45.84 43.89 41.35 40.92 40.03 35.35 38.34 38.64 40.33 42.16 46.16 49.20 52.67 54.11 54.37 54.88 55.46 56.74 59.12 60.68 61.41 61.79 61.83 62.36 61.03 60.86 60.22 59.68 59.84 58.42 57.31 53.71 51.57 48.14 46.88 46.84 47.09 46.39
42.04 43.43 45.82 47.42 44.45 45.65 44.22 41.13 36.09 33.71 34.11 33.34 39.57 37.61 41.82 44.99 45.96 47.89 50.29 53.12 54.84 55.74 55.27 55.94 56.07 57.40 60.01 59.89 60.50 61.31 60.23 59.60 58.65 58.80 58.90 58.05 55.46 53.51 51.91 47.07 45.85 45.33 45.40 45.36
37.70 35.92 43.63 46.46 45.24 43.38 42.48 41.66 36.24 28.66 29.63 33.79 38.48 35.77 41.50 46.85 48.15 48.21 48.74 49.14 50.91 54.07 55.44 56.01 56.63 57.65 58.76 59.31 60.21 60.88 60.68 59.70 58.58 58.78 58.69 57.63 55.74 55.17 51.95 48.31 47.50 46.67 46.63 45.79
36.48 37.05 44.92 46.39 47.09 45.74 41.89 39.53 41.73 35.87 34.46 34.15 36.53 40.01 44.60 44.94 46.56 48.52 48.84 49.10 49.86 50.40 52.68 54.32 56.16 57.29 57.90 59.28 59.52 60.92 60.86 60.61 60.11 58.73 58.79 57.20 56.77 55.20 52.01 49.77 49.92 48.31 47.16 45.40
42.45 37.10 43.18 45.37 47.28 46.14 44.16 44.77 38.30 37.49 30.71 28.89 34.08 35.22 38.99 42.95 44.61 46.94 48.87 49.99 51.02 51.55 51.66 53.12 55.30 57.46 58.43 59.38 60.04 60.86 61.28 60.53 60.85 59.49 58.88 58.39 57.26 55.16 54.06 51.26 48.93 46.65 46.27 45.68
43.09 41.34 38.98 44.13 42.85 41.89 41.41 40.75 39.29 39.98 36.88 32.82 30.39 35.18 43.37 44.33 45.28 47.20 47.62 48.35 50.41 51.79 53.60 53.98 55.51 57.96 59.04 59.80 59.92 60.21 60.37 60.31 59.11 58.86 58.29 57.01 55.81 54.73 52.33 49.58 48.07 47.25 46.76 45.93
44.62 41.19 35.72 39.57 43.45 44.88 43.45 42.43 41.43 36.99 33.72 33.55 32.97 35.60 45.19 45.56 44.66 45.44 47.59 47.05 49.14 51.00 53.78 55.20 56.55 57.61 58.13 58.64 58.79 58.75 58.63 58.12 57.43 55.65 54.19 54.38 53.26 51.45 49.93 49.00 48.45 48.09 45.90 45.11
43.87 38.70 34.27 36.55 40.15 42.92 42.20 42.03 40.62 38.64 37.04 33.43 34.50 37.06 43.85 44.35 45.35 46.00 45.72 46.93 47.99 50.42 52.94 54.46 55.46 56.09 56.59 56.45 55.60 55.26 54.70 54.53 52.01 51.08 52.34 51.88 50.35 49.99 49.26 48.93 48.63 46.18 44.94 43.45
45.66 39.59 37.97 34.28 37.83 40.63 38.70 39.88 40.59 40.87 35.42 36.51 35.85 39.83 43.84 45.70 45.08 47.02 47.01 46.81 46.69 47.68 51.32 53.66 54.00 54.30 54.09 54.05 54.89 55.47 52.58 51.41 50.26 50.16 50.24 49.78 49.02 49.02 48.85 47.85 44.84 44.13 44.28 40.65
45.21 38.51 38.22 38.84 39.36 40.41 40.54 40.43 39.58 39.19 40.06 38.11 40.19 37.67 42.80 45.39 46.01 46.23 45.04 45.24 46.28 48.07 50.25 51.31 52.44 53.32 53.18 53.08 52.95 52.75 51.84 49.36 49.27 47.96 47.91 48.06 46.78 46.27 45.71 44.27 42.88 42.19 42.47 41.54
42.85 38.76 37.79 37.00 39.05 39.01 38.34 40.31 40.37 39.93 39.14 39.24 39.26 39.08 45.02 45.31 44.65 44.23 43.79 46.02 46.58 46.53 47.95 48.76 49.86 50.70 51.20 52.04 52.50 51.00 50.02 48.22 48.44 48.19 47.25 45.79 45.59 44.86 43.59 42.82 41.27 40.69 39.84 39.57
40.67 37.50 35.94 34.00 35.87 37.97 33.85 37.69 39.59 40.39 41.02 41.79 38.10 44.04 44.05 43.17 43.23 43.16 44.70 45.04 43.64 42.99 43.65 44.70 45.87 46.62 47.99 49.34 50.20 50.01 49.02 48.19 47.12 46.20 45.68 45.18 44.59 42.50 41.78 40.94 39.74 38.54 38.74 40.15
37.78 37.69 35.83 32.78 32.72 29.63 40.97 41.96 42.37 41.74 41.78 42.04 41.52 42.52 43.21 43.35 42.47 42.91 44.51 44.07 41.56 40.96 40.76 41.10 42.48 43.11 43.94 45.32 44.92 45.04 45.35 44.69 44.55 44.16 43.67 43.49 42.59 40.41 39.35 39.18 39.14 39.75 41.35 40.74
41.55 37.15 32.88 33.03 32.71 35.66 38.26 40.07 40.45 39.91 41.50 42.97 42.27 42.10 42.40 42.64 43.39 40.61 39.62 40.78 39.89 39.15 39.48 39.64 40.30 40.59 41.08 41.23 41.73 41.76 41.25 41.34 41.12 40.46 40.64 41.00 41.16 40.57 40.34 39.54 39.45 39.75 40.06 40.90
37.79 38.38 38.95 30.51 31.17 29.77 39.47 42.57 42.99 43.54 36.51 43.37 42.91 42.23 42.15 42.55 41.31 42.72 39.44 39.02 38.06 38.78 39.52 39.11 39.31 39.66 39.63 39.37 40.67 40.04 39.65 39.82 39.24 40.19 40.76 41.63 41.91 41.70 41.20 41.66 41.61 40.76 40.64 39.97
34.83 34.31 34.19 29.82 33.76 35.85 41.21 42.11 43.52 36.00 40.03 43.53 43.91 44.09 43.89 41.82 43.39 42.33 38.94 37.67 38.45 38.50 37.87 38.56 38.97 38.05 38.81 40.42 40.99 39.73 40.09 39.60 41.01 41.80 42.16 42.31 42.47 41.55 41.28 40.39 39.66 38.85 38.19 37.95
36.79 34.67 33.54 31.74 32.84 32.64 42.19 40.39 39.39 44.75 43.24 44.08 44.62 45.17 44.12 40.40 38.17 38.32 37.82 36.93 37.26 37.16 37.64 38.52 38.01 38.11 39.44 40.91 40.39 39.06 38.73 41.27 41.69 40.35 38.55 37.90 37.40 37.37 37.63 37.93 37.53 36.83 36.43 35.54
37.31 39.59 37.58 39.23 39.82 45.20 42.98 45.51 45.06 44.10 44.62 43.75 45.09 44.64 42.45 38.87 37.71 37.31 36.35 36.35 36.61 37.05 37.15 38.42 37.95 37.75 38.56 39.07 39.10 36.07 35.74 36.60 36.52 35.97 35.09 35.10 35.31 35.38 35.47 35.69 35.41 35.28 35.28 34.31
38.83 40.10 39.99 40.23 42.58 42.21 43.31 44.18 45.33 44.77 45.43 44.80 46.09 45.44 42.78 39.72 37.58 36.29 35.88 35.42 35.50 36.46 36.61 36.82 35.71 34.27 33.68 34.60 34.50 34.91 35.06 35.55 35.01 34.14 33.65 33.62 33.45 33.29 33.62 33.75 33.75 33.06 32.68 31.80
40.76 41.18 38.54 39.01 40.81 43.05 44.45 44.68 45.77 43.67 44.10 43.50 43.36 43.18 41.10 38.42 36.76 36.30 35.33 35.19 35.38 35.20 34.75 35.02 33.81 33.17 32.49 32.81 32.18 33.06 33.76 34.13 32.40 31.89 30.92 30.50 30.28 29.88 29.81 30.14 29.92 29.54 30.78 30.46
41.31 40.54 37.90 38.41 44.07 44.41 44.64 46.20 43.57 42.70 42.47 42.17 40.07 38.20 38.89 38.51 36.48 36.38 35.11 35.33 34.66 33.57 33.87 33.19 32.79 31.46 30.53 29.47 28.80 29.99 31.10 31.00 30.13 28.63 28.27 27.33 27.95 27.91 27.77 27.36 27.36 28.14 27.57 28.01

GFSCGP_sfc_wetblb_039.txt.gz
Wetbulb
52.57 48.69 46.04 47.66 48.87 48.20 48.14 45.95 45.29 47.96 51.95 50.33 49.33 49.71 51.60 56.75 56.17 55.32 54.90 54.95 55.74 56.86 59.00 60.40 59.83 60.32 60.13 60.77 59.97 60.61 61.25 62.84 63.44 62.45 61.50 60.85 59.87 62.23 64.34 66.10 65.53 65.88 65.32 64.12
49.95 46.65 49.68 50.42 48.73 47.45 47.80 45.96 45.67 47.64 49.26 49.00 48.41 48.17 51.17 56.11 56.19 56.64 56.24 56.67 56.75 57.59 58.40 59.59 60.47 60.09 60.37 60.64 60.93 60.81 61.28 62.30 63.66 64.09 62.58 61.67 62.22 62.92 64.12 65.47 65.67 65.74 65.35 63.90
47.56 49.08 50.78 48.60 47.09 46.27 46.80 45.78 45.93 45.46 48.68 49.62 48.32 46.27 48.39 53.27 56.60 57.66 57.63 58.24 58.09 57.84 57.80 59.12 59.92 60.94 60.90 61.25 61.94 62.35 63.16 63.08 64.52 64.87 63.79 62.54 63.48 64.08 63.56 63.71 63.79 64.63 64.57 63.26
49.09 51.41 48.34 47.18 46.38 47.62 43.98 48.57 47.57 46.46 45.70 42.23 48.82 40.02 46.21 50.23 52.14 55.45 57.28 57.91 58.17 58.82 59.67 59.58 60.67 61.07 61.46 62.06 63.87 63.64 64.18 64.27 64.74 65.53 63.65 62.24 61.38 61.15 62.81 63.37 63.40 63.29 62.71 61.82
47.52 48.59 48.03 46.35 47.30 49.24 46.35 49.91 47.98 47.82 46.25 45.40 45.21 42.05 44.94 48.74 48.42 51.46 55.30 57.40 58.07 59.01 59.77 59.98 60.91 61.95 63.15 63.42 64.03 64.75 64.23 64.40 65.62 65.58 65.93 64.02 62.43 63.11 64.13 63.17 62.60 62.37 60.24 59.99
49.48 52.26 50.61 49.34 50.27 50.04 50.61 48.72 48.32 48.29 46.41 40.11 43.89 43.56 42.39 46.49 47.99 49.89 53.46 56.22 57.99 58.54 59.42 60.19 61.73 62.83 62.81 64.19 64.95 65.62 64.18 63.88 64.97 66.33 65.51 64.70 63.39 62.88 62.99 62.37 60.97 60.13 59.73 59.10
47.24 48.39 50.33 51.18 48.06 50.38 49.19 46.18 39.29 38.33 38.46 37.81 45.30 43.19 44.85 47.82 50.43 50.75 51.61 54.72 57.70 59.11 59.31 59.71 60.09 61.04 62.86 63.71 64.68 65.16 64.19 63.94 64.98 65.42 65.42 63.37 62.04 62.78 62.52 61.99 60.26 59.27 59.42 58.64
42.29 40.82 47.76 50.62 48.53 46.96 47.18 46.48 40.81 30.68 35.72 38.69 45.07 39.75 44.39 50.70 52.01 52.39 53.00 54.66 55.85 58.62 59.56 59.74 59.93 61.80 62.95 64.16 65.14 64.81 64.39 64.15 64.89 64.56 63.95 62.42 61.24 60.78 61.91 63.13 61.16 60.15 59.76 57.45
42.85 43.15 49.89 50.18 50.52 49.86 46.69 43.90 48.83 42.55 44.04 40.10 42.82 45.34 48.62 49.72 49.79 51.07 52.09 54.63 55.93 56.56 58.90 59.76 60.31 60.86 62.73 63.93 65.45 66.66 65.14 64.76 64.79 64.49 62.26 61.81 62.08 61.82 62.52 61.94 61.69 60.35 55.73 51.38
47.07 42.32 47.49 48.92 50.53 50.51 48.65 50.61 43.10 44.04 34.96 33.55 39.93 42.02 43.14 46.73 48.13 49.67 50.38 52.03 55.01 56.90 57.44 58.63 60.32 61.35 62.32 63.80 64.96 67.43 66.73 65.36 64.82 62.94 63.68 61.76 62.10 62.91 63.00 62.48 60.61 58.22 54.41 52.98
47.99 45.62 45.07 48.60 46.56 45.58 46.47 45.91 46.58 45.93 43.63 36.54 35.58 40.44 49.17 48.32 49.62 49.30 51.17 52.09 53.51 54.87 57.51 58.48 59.40 60.69 62.00 63.59 64.48 65.33 66.23 65.96 64.53 64.07 63.95 61.37 61.58 61.76 61.80 61.27 59.86 56.67 54.56 53.75
48.35 46.40 42.30 44.63 49.08 50.25 48.68 47.00 47.11 41.95 40.05 42.89 41.52 41.38 50.89 50.95 51.47 51.67 51.84 52.73 54.01 55.36 56.49 59.24 60.49 61.14 61.44 62.20 63.24 64.27 65.24 65.65 65.81 64.98 63.30 61.91 62.88 62.04 60.98 60.42 59.24 57.60 55.97 55.31
49.20 45.21 40.10 41.58 46.04 48.90 46.72 48.53 48.20 47.78 46.62 41.21 38.71 41.37 50.31 50.87 50.81 51.66 51.80 53.24 54.16 54.52 55.86 59.03 60.85 61.51 62.20 62.61 63.05 63.82 64.48 64.88 65.51 65.47 62.79 62.37 61.51 60.89 60.16 59.16 58.01 56.59 55.58 54.20
49.95 45.99 42.48 39.19 42.49 46.11 43.48 45.31 46.84 45.86 42.45 41.92 42.14 43.56 48.14 49.51 50.32 51.69 52.53 53.92 54.26 54.60 54.81 57.34 60.07 61.54 62.59 63.11 63.43 63.64 64.12 64.93 64.90 64.60 64.11 62.23 58.94 58.08 57.39 56.01 55.09 53.69 53.07 52.22
49.25 43.46 44.64 45.16 45.68 45.74 45.27 45.14 45.58 44.25 45.05 41.96 44.13 44.44 48.08 50.40 50.81 51.65 53.51 53.17 52.46 53.24 54.01 55.84 59.12 60.83 61.59 61.91 62.25 62.72 62.43 62.45 61.80 60.57 60.45 59.36 58.05 57.15 55.37 53.75 52.99 52.85 52.30 51.00
49.57 43.20 44.96 42.50 45.20 44.88 43.26 45.03 45.06 45.18 45.43 45.22 45.38 45.07 50.93 51.77 51.76 51.22 51.79 52.22 52.61 53.60 54.96 56.48 58.59 60.23 60.32 60.59 61.00 60.31 59.63 59.36 59.59 58.68 57.98 57.15 56.84 55.99 55.15 54.48 52.78 51.68 47.04 45.70
46.39 44.97 42.61 38.66 44.10 43.92 39.77 43.76 44.68 45.60 46.74 46.41 43.24 47.61 50.81 50.52 50.64 51.52 52.26 52.58 53.30 54.40 55.31 56.54 57.77 58.62 58.87 58.84 58.83 57.42 56.78 57.12 56.41 54.96 54.12 53.46 52.76 51.39 50.20 48.56 46.70 44.79 43.81 44.40
45.48 44.71 44.60 39.82 41.25 33.52 43.99 48.85 48.46 46.33 47.30 48.76 48.36 49.53 50.74 51.54 51.99 53.05 53.93 53.66 53.72 54.23 54.52 55.12 55.53 55.61 56.21 56.43 55.81 55.51 55.09 54.27 53.33 52.35 51.58 51.47 50.43 48.76 47.57 46.64 45.27 44.32 44.19 43.48
47.76 45.56 41.76 38.45 38.67 41.78 44.01 46.73 47.00 46.04 45.58 49.62 49.27 50.66 51.53 52.14 52.21 50.97 53.13 54.71 54.04 53.93 54.16 54.19 54.44 53.97 53.94 53.68 53.73 52.92 51.88 51.39 50.49 49.49 49.15 48.95 48.55 47.49 46.73 45.68 45.24 45.09 44.68 44.35
45.94 48.31 44.50 40.93 36.11 33.24 43.61 48.69 51.57 50.71 42.72 50.43 50.79 50.75 50.92 51.21 46.73 49.97 52.29 53.25 52.58 52.50 52.42 52.17 52.41 52.39 51.96 51.79 52.01 50.60 49.61 48.97 47.95 48.08 48.06 48.41 48.25 47.47 46.28 44.87 44.20 44.47 44.29 43.26
39.64 40.95 40.25 40.21 38.81 42.33 48.01 50.18 51.96 41.81 43.51 51.84 51.82 52.04 51.52 49.93 51.80 53.24 51.87 50.90 51.42 51.34 51.21 51.53 51.40 50.74 50.74 51.28 50.81 48.91 48.27 47.06 47.71 48.08 48.07 47.61 47.20 45.85 45.23 44.92 44.68 44.43 43.65 43.41
37.83 38.85 39.71 41.68 38.97 36.73 50.57 50.05 45.68 50.56 54.19 53.58 54.03 53.68 52.73 53.03 52.84 51.11 50.23 49.94 49.88 49.44 49.33 50.45 49.67 49.36 50.28 50.52 49.50 47.78 46.82 47.82 47.63 46.81 45.42 44.35 43.83 43.09 43.85 43.11 42.22 41.42 41.53 40.68
37.90 42.96 42.59 44.65 44.61 51.50 52.42 52.22 53.82 54.30 53.35 54.40 54.48 54.07 53.63 53.33 51.07 50.18 49.35 49.33 49.02 48.85 49.35 49.80 49.01 48.14 48.79 49.18 48.75 46.62 45.71 45.45 44.42 44.00 42.62 41.74 41.65 41.53 41.97 41.30 40.75 40.55 39.92 38.55
46.04 47.87 44.72 45.92 49.11 50.54 52.27 53.40 54.15 54.87 54.99 55.36 55.16 54.42 54.15 52.95 51.34 49.99 49.37 48.83 48.47 49.26 48.80 48.97 47.59 46.56 46.25 47.19 46.50 45.41 45.05 44.47 43.07 41.39 40.89 40.67 39.98 39.15 39.27 38.97 37.65 36.89 36.05 34.73
46.40 46.85 45.93 46.12 48.11 50.20 52.06 53.47 54.62 54.61 54.79 54.00 53.81 54.03 53.88 53.01 50.80 49.88 48.88 48.61 48.92 48.75 48.29 47.55 46.24 44.71 43.51 44.04 43.31 43.45 42.99 42.51 40.31 39.41 38.50 37.74 36.92 36.81 36.03 35.41 34.40 33.52 30.96 29.72
48.31 46.15 43.00 44.17 49.33 50.42 51.32 53.89 54.40 54.60 53.96 53.34 52.85 52.75 53.84 52.53 50.65 50.30 49.16 48.97 48.59 47.63 46.64 45.53 44.43 43.04 42.20 41.75 41.33 41.53 41.60 40.75 38.52 36.39 35.88 35.51 35.21 34.96 34.80 34.16 31.65 27.51 28.14 26.52

GFSCGP_sfc_wetblb_042.txt.gz
Wetbulb
50.13 45.71 43.04 46.26 48.29 47.46 46.31 45.71 45.13 48.95 51.53 49.81 49.05 49.47 50.01 54.19 53.99 52.88 52.22 50.02 52.28 54.40 57.30 59.22 57.74 57.21 56.81 57.38 55.38 55.86 54.74 55.69 57.40 58.16 58.72 59.25 57.66 59.20 60.30 62.55 63.14 64.07 63.58 63.09
47.26 44.36 49.01 50.20 49.62 47.55 46.47 44.45 44.93 47.46 50.38 48.56 47.40 47.33 52.60 54.40 54.43 54.49 52.91 52.65 53.00 54.92 56.77 57.21 57.45 57.65 58.23 57.09 56.85 58.04 57.50 59.02 60.35 60.63 59.39 59.69 59.09 59.29 60.93 63.06 63.92 63.89 63.41 62.71
44.80 47.73 51.45 49.30 47.43 45.62 45.20 44.10 44.86 45.26 48.16 49.42 47.25 45.23 47.66 53.83 55.02 55.91 56.28 56.37 55.99 55.64 56.48 57.05 57.44 57.97 58.33 56.77 57.20 58.09 59.45 60.29 61.27 61.81 61.49 60.51 60.39 59.48 60.03 61.27 62.75 63.25 63.35 62.66
47.43 50.47 49.26 48.27 46.49 46.50 42.21 47.36 47.13 46.40 44.98 40.30 48.06 38.93 45.86 50.87 51.65 54.00 55.24 55.63 55.94 56.46 57.36 58.21 58.07 57.44 58.06 58.88 59.25 59.40 59.88 60.28 61.54 62.63 62.33 59.44 58.19 57.61 60.17 61.34 61.74 62.33 63.06 62.44
46.22 47.63 47.28 46.58 45.81 47.24 44.74 49.48 47.94 47.08 44.31 44.74 44.41 41.36 44.09 48.68 47.94 52.14 54.86 56.23 56.95 57.55 57.61 57.81 58.52 59.06 59.09 60.20 60.33 60.69 60.77 61.44 62.07 62.49 62.95 61.42 59.24 60.64 62.37 61.47 61.55 61.23 61.22 60.47
48.15 51.70 49.96 49.31 49.05 49.09 50.14 48.37 48.10 47.12 44.63 38.39 43.48 42.22 42.57 45.44 47.67 50.29 53.90 56.49 57.38 57.49 58.19 58.77 59.91 60.55 60.42 60.64 61.08 61.70 61.59 62.07 62.75 63.08 62.99 62.11 59.67 60.75 60.86 60.34 59.39 59.61 58.42 57.88
46.10 46.98 50.25 50.63 46.75 49.28 48.21 45.16 38.13 36.68 36.97 36.46 45.04 42.30 44.56 48.61 50.66 51.51 52.14 53.53 57.36 58.05 57.90 58.47 58.67 59.46 60.48 60.59 60.69 61.60 62.01 61.65 62.75 63.06 63.15 62.87 62.22 61.57 60.39 59.69 59.81 58.80 57.00 56.90
41.02 39.62 46.80 49.86 47.70 46.07 46.05 44.99 39.17 31.13 31.62 37.05 44.50 39.84 43.77 50.77 51.88 52.36 52.67 54.05 56.24 57.84 58.25 58.55 58.83 59.88 60.40 61.32 61.64 61.65 61.52 61.26 62.12 63.00 63.11 63.13 63.01 61.65 61.45 61.01 60.21 58.68 57.85 57.81
41.34 41.91 48.86 49.70 49.62 49.07 46.02 42.75 47.45 40.14 40.09 36.15 39.66 44.73 47.93 50.16 49.64 50.28 51.13 53.29 54.56 55.65 58.06 58.74 59.29 59.68 61.20 61.73 62.23 62.46 62.47 62.15 62.48 62.62 63.63 62.80 62.60 61.90 61.23 60.54 61.05 59.02 58.57 57.08
46.09 40.71 47.42 48.63 49.95 49.53 47.13 49.45 42.44 43.20 34.07 32.49 39.23 40.76 41.85 46.29 47.46 49.84 50.06 52.03 55.30 57.20 56.66 58.44 58.44 59.51 60.76 62.59 63.56 63.79 63.37 61.91 63.29 63.44 64.05 62.96 62.55 60.82 60.10 60.80 60.36 59.44 57.48 53.14
47.72 44.85 44.03 48.02 45.44 43.92 45.03 43.72 45.82 45.77 43.21 35.91 34.58 39.43 47.56 46.48 47.90 49.95 51.25 52.60 53.98 55.60 57.83 58.01 58.70 59.71 60.54 61.41 62.51 63.71 63.88 63.79 63.27 63.50 63.42 62.58 62.03 61.10 61.43 61.27 60.75 59.86 53.89 53.30
48.11 45.96 40.39 43.20 48.37 49.27 47.51 45.72 45.73 40.43 39.07 42.57 41.59 39.96 50.87 51.38 50.91 52.36 52.88 53.20 54.28 55.89 56.74 58.47 59.45 59.86 59.66 60.19 61.93 64.11 64.72 64.28 63.58 63.50 63.33 62.57 61.28 60.30 59.85 59.76 59.69 56.10 54.15 53.17
48.39 43.31 37.51 40.43 45.43 48.11 44.98 46.16 47.28 46.80 46.05 41.18 36.10 39.53 50.59 50.88 50.52 51.96 51.28 52.44 53.55 54.23 55.17 57.47 59.33 59.94 60.54 60.77 61.38 62.94 63.99 64.31 63.30 63.38 62.61 61.94 59.58 60.19 59.59 59.24 57.60 55.15 53.98 53.11
49.43 45.45 41.66 37.02 41.22 45.76 43.22 44.95 47.07 46.23 40.24 40.45 39.90 43.63 47.81 49.60 49.49 50.34 52.20 52.37 53.14 54.45 54.44 55.72 58.43 60.00 61.12 61.58 61.78 62.16 63.14 63.93 63.29 63.27 62.02 60.34 58.79 58.04 56.24 55.19 54.42 53.96 53.59 51.82
49.49 42.14 43.91 44.99 45.56 45.46 45.23 44.44 44.65 44.23 45.29 41.38 44.02 43.77 46.57 49.19 50.07 49.77 52.71 53.61 53.44 53.42 53.99 54.84 57.20 59.69 61.14 61.90 62.22 62.65 62.87 61.85 62.31 62.02 59.62 57.70 57.27 56.29 54.87 53.91 53.28 52.33 51.54 50.79
49.36 42.15 44.45 42.29 45.36 44.65 42.65 45.03 45.70 45.18 45.00 44.67 45.18 44.79 50.31 50.99 50.38 50.90 51.60 51.88 52.12 52.72 53.09 54.28 56.17 59.95 60.53 61.06 61.21 61.28 59.65 60.05 60.20 59.12 56.64 57.22 56.68 55.30 54.77 53.34 52.23 50.08 47.53 44.68
45.40 43.95 41.83 38.01 43.99 42.88 37.09 42.93 44.26 45.65 46.79 45.64 42.00 46.92 49.93 49.34 50.49 51.15 51.88 51.81 51.91 52.85 54.63 56.18 57.02 59.52 60.07 60.41 59.94 58.66 58.42 58.82 57.87 55.48 55.04 55.49 54.72 53.01 50.50 48.58 46.63 44.20 43.01 42.62
44.81 43.88 42.87 37.88 39.33 30.95 42.89 48.22 47.39 45.49 46.13 47.29 47.44 48.36 49.41 49.95 51.38 52.83 53.92 53.86 53.44 54.36 55.18 56.60 57.98 58.40 58.66 58.72 57.92 56.81 56.75 55.23 53.74 52.81 52.03 51.69 50.24 48.15 46.62 45.65 43.92 43.09 42.54 41.40
46.61 43.86 39.47 36.50 35.89 40.42 42.60 45.77 45.40 44.43 44.02 48.76 47.82 48.64 50.08 50.95 51.80 52.33 54.19 55.47 55.21 55.28 55.64 56.09 56.57 56.78 56.21 55.02 54.84 53.89 52.85 52.19 51.23 50.11 49.88 49.32 48.23 46.35 45.43 43.79 42.99 42.66 42.31 41.64
42.76 43.63 39.28 39.49 34.04 31.41 42.43 47.62 49.86 49.22 39.90 50.12 49.97 49.63 50.02 51.40 45.84 49.85 52.93 54.83 54.44 55.09 55.24 54.46 54.42 54.00 53.25 52.96 52.52 51.03 49.77 49.16 48.10 48.20 47.99 48.11 47.49 46.51 45.05 44.64 44.27 44.10 44.06 43.15
37.17 38.30 35.84 37.86 36.26 41.01 47.38 48.82 49.72 38.73 41.95 52.25 52.01 51.60 51.28 50.93 52.28 53.66 53.63 53.47 54.04 53.79 53.14 53.13 52.45 51.19 51.18 51.40 50.63 48.57 47.91 46.82 47.83 48.08 47.85 47.48 46.73 44.73 44.16 43.59 43.67 43.21 42.52 41.70
37.23 35.44 36.44 38.89 36.45 33.59 49.97 48.94 43.43 49.31 51.37 54.24 52.82 53.41 54.30 54.44 53.33 52.50 52.36 51.92 51.70 51.18 51.29 51.51 50.29 49.74 50.32 50.51 49.34 47.40 46.17 47.41 47.55 46.90 45.97 45.06 44.25 44.09 44.39 43.17 41.79 41.41 39.93 37.53
37.56 40.80 38.63 40.77 41.29 45.14 47.65 49.52 52.76 54.33 53.45 54.50 53.69 55.11 54.94 53.65 52.21 51.72 50.68 50.61 50.49 50.52 49.91 50.78 49.51 48.71 49.28 49.61 48.70 46.30 46.18 46.62 45.24 43.99 43.10 42.87 42.37 42.01 41.47 39.57 38.68 37.98 37.36 34.18
43.78 46.50 41.59 40.78 43.54 44.65 47.13 51.79 53.61 53.94 54.27 54.67 54.91 55.27 55.19 53.16 52.26 50.70 50.24 49.89 49.29 49.59 49.34 49.72 48.63 47.61 47.24 48.25 48.08 46.24 45.29 44.83 43.82 41.42 40.03 39.67 38.55 38.24 38.09 36.95 36.17 34.72 31.71 30.59
44.18 44.61 43.41 43.42 45.61 47.14 48.70 50.29 51.67 53.73 55.09 54.90 54.82 54.23 53.14 53.95 52.20 50.99 49.91 49.21 49.03 48.67 48.89 48.84 47.39 46.59 46.30 46.36 45.09 44.97 44.63 43.32 40.84 39.48 38.40 36.63 35.87 35.15 33.41 29.87 30.87 28.42 26.76 27.56
46.58 44.70 42.67 41.46 47.35 48.55 49.55 52.13 53.28 52.65 52.16 52.93 54.09 53.03 53.59 53.94 52.74 51.59 49.86 49.50 48.87 48.31 48.19 47.33 46.86 45.27 44.41 43.91 42.82 42.74 42.55 41.29 38.64 36.43 34.78 33.05 32.92 32.21 33.01 29.87 27.36 29.25 27.45 26.87

GFSCGP_sfc_wetblb_045.txt.gz
Wetbulb
46.29 40.16 37.71 39.66 42.46 44.56 43.69 41.81 40.56 43.61 48.25 46.87 46.78 45.31 45.86 47.90 48.27 49.00 50.06 50.43 53.57 53.71 54.06 52.84 52.89 52.78 52.45 52.61 53.19 52.92 52.51 53.20 52.72 52.86 51.66 51.88 52.61 54.69 57.28 57.94 61.30 58.98 58.83 61.50
43.17 39.51 43.99 46.23 45.70 44.97 44.67 41.44 39.71 45.12 49.70 46.17 43.84 45.53 46.56 47.41 48.99 49.05 47.74 50.53 50.67 53.20 53.86 53.00 52.24 52.55 52.04 52.27 52.75 52.53 52.09 52.38 52.87 54.02 54.29 54.69 55.33 57.62 58.13 60.29 60.30 60.35 60.37 60.99
40.75 43.71 47.67 46.32 45.44 44.39 43.44 40.55 40.52 41.87 45.35 46.46 42.70 39.81 45.10 49.63 51.87 51.89 49.01 49.97 51.60 52.74 53.59 53.84 52.35 52.04 52.95 51.79 52.32 52.50 52.81 53.06 53.34 54.72 56.90 57.34 56.41 54.80 56.03 58.07 59.53 60.40 61.93 61.54
43.46 47.37 46.16 45.35 44.90 44.77 39.20 44.49 45.10 44.41 41.17 36.08 41.94 34.94 45.32 48.84 49.63 51.06 50.45 49.07 50.13 52.69 54.74 54.59 53.65 53.93 54.23 53.82 53.63 54.14 54.03 54.30 55.05 57.79 58.12 56.39 55.82 54.71 55.57 57.07 60.05 60.91 61.50 60.98
42.23 44.06 44.30 43.94 45.41 46.88 42.91 46.95 45.32 44.93 40.80 37.72 39.47 38.53 41.44 49.69 46.96 49.22 51.00 51.56 51.57 52.81 54.54 54.25 54.23 55.32 55.50 55.15 54.75 55.60 56.44 56.28 57.97 58.74 58.95 58.17 55.86 55.96 56.41 57.26 58.96 59.60 59.80 59.71
44.29 48.42 46.94 45.94 48.53 47.88 47.08 46.34 45.05 43.57 39.83 31.20 38.57 36.85 37.12 44.53 46.71 50.00 52.02 52.93 52.81 53.39 54.99 54.89 56.10 56.44 55.86 55.36 55.13 55.50 56.19 57.34 58.71 59.16 59.38 59.21 56.97 55.98 57.12 57.47 58.38 57.61 58.72 57.36
43.22 44.08 47.55 48.60 44.83 46.65 44.52 40.75 33.04 30.49 29.34 28.85 42.68 39.21 39.89 45.01 47.85 51.27 51.09 52.91 53.73 53.91 54.90 55.02 54.66 54.94 55.51 55.92 55.39 55.72 56.11 56.41 57.86 58.20 59.31 59.34 58.86 58.01 58.19 58.46 57.75 57.40 56.72 56.40
36.66 35.11 44.16 47.73 45.26 42.51 42.16 40.54 32.22 26.14 27.05 33.22 41.86 37.15 40.14 48.67 48.60 49.35 50.26 54.56 54.66 54.25 54.84 55.35 55.99 55.89 55.57 56.18 57.08 57.08 56.94 56.85 58.06 59.12 58.96 60.01 60.17 59.72 58.61 58.87 58.50 58.48 57.96 57.58
36.73 37.77 46.57 47.41 47.87 46.04 43.37 38.96 43.29 37.84 38.59 32.68 37.58 41.56 45.35 48.74 46.80 46.53 47.06 48.19 51.03 53.91 54.12 55.03 56.62 57.02 57.08 56.78 57.09 57.97 58.38 58.68 59.49 59.54 60.38 60.36 60.71 59.67 58.89 58.21 57.81 58.09 56.94 55.79
41.97 36.89 45.21 47.41 47.40 46.63 44.71 46.73 38.32 39.23 29.96 28.32 36.74 37.51 39.80 44.14 46.65 46.27 45.77 46.19 47.23 50.26 54.39 54.91 55.48 57.35 58.22 58.74 58.79 58.46 59.29 59.19 59.75 60.11 60.68 60.69 61.06 59.22 58.74 58.19 57.14 56.16 55.43 53.80
44.25 40.55 40.33 46.03 42.81 41.33 42.05 40.57 41.54 42.72 39.83 30.62 27.71 34.59 43.60 45.12 46.40 46.51 46.05 48.34 49.30 50.07 51.21 52.76 54.89 56.81 57.01 59.72 60.08 59.51 59.44 59.77 60.00 60.01 60.61 61.01 60.42 59.44 58.11 57.94 57.14 56.92 53.20 52.10
45.19 41.11 35.77 40.13 46.45 47.66 45.32 42.17 41.74 34.56 35.00 36.14 31.88 33.81 46.24 46.23 46.69 47.65 48.49 48.26 48.24 49.74 51.53 52.56 54.09 54.83 54.95 57.76 59.33 59.91 60.52 60.38 60.38 60.44 60.82 61.32 60.14 59.09 58.47 58.29 58.12 57.28 54.17 52.71
44.60 40.05 33.13 37.68 42.17 44.77 42.46 43.25 43.62 42.79 40.34 35.94 29.71 34.24 48.38 49.09 48.20 48.67 46.33 46.46 48.65 49.14 49.95 52.96 53.79 54.55 55.02 55.05 58.55 59.94 60.68 60.73 60.97 60.71 61.23 60.07 59.30 59.15 59.00 58.47 56.46 53.52 52.55 52.38
46.67 41.66 37.82 32.97 37.59 42.07 39.83 42.72 43.67 41.80 33.66 35.04 35.45 39.74 43.95 46.90 46.44 47.39 47.21 48.11 49.04 48.42 49.96 52.15 53.30 54.79 55.80 56.53 57.14 59.91 60.58 61.17 60.98 61.12 60.78 58.94 57.75 57.87 56.36 54.96 54.07 53.09 53.25 51.63
45.50 38.64 40.29 41.47 43.24 43.50 43.57 43.11 42.64 40.89 41.58 38.32 39.52 40.71 43.53 45.78 46.34 46.82 49.04 50.29 51.18 50.25 49.26 50.67 53.12 54.48 55.82 56.34 57.36 58.82 58.70 60.16 60.58 60.45 58.13 55.70 54.24 54.44 53.66 53.67 53.15 52.92 52.12 50.57
44.97 37.70 40.22 37.74 42.01 43.17 40.76 42.88 43.11 43.06 42.53 43.12 43.82 42.30 48.19 48.88 47.23 47.54 49.75 50.00 49.69 49.84 48.99 50.07 54.93 56.69 57.76 57.92 57.58 57.32 57.18 56.95 58.77 56.96 55.90 55.11 54.20 53.53 53.27 52.64 51.44 50.46 48.11 46.48
40.36 38.66 36.53 33.64 39.51 39.65 34.09 40.08 41.94 42.64 44.61 43.67 38.89 43.09 45.73 45.90 48.55 47.46 48.17 49.23 49.03 49.35 49.35 50.28 53.31 57.08 57.68 57.20 56.73 55.43 55.85 56.21 55.16 55.05 55.27 54.71 54.36 53.28 51.33 48.39 46.05 44.27 43.10 42.31
39.44 38.48 37.30 30.31 35.26 28.81 39.88 45.75 44.83 42.82 44.18 44.84 44.01 44.63 45.11 45.70 47.18 47.45 49.33 48.32 48.59 49.57 51.24 52.10 55.13 55.36 56.05 56.05 55.57 55.49 54.35 52.31 52.44 52.05 51.75 50.86 48.34 46.07 44.86 44.34 43.04 41.90 41.19 39.94
42.05 38.14 34.17 31.63 32.46 36.76 40.30 42.74 42.03 40.93 40.63 45.35 44.01 44.88 45.39 46.28 45.13 45.50 49.23 49.03 49.28 50.35 51.45 52.37 53.20 54.18 53.34 53.44 53.05 52.13 50.96 50.00 49.32 48.23 47.49 46.31 45.06 43.07 41.82 40.49 39.68 39.41 39.36 38.89
41.09 38.87 33.89 31.65 29.67 28.33 38.00 44.55 47.40 46.07 36.01 45.81 46.13 45.73 45.67 45.20 38.62 43.03 48.38 51.10 50.51 50.74 51.39 51.20 50.98 50.88 50.71 49.14 50.03 48.79 47.40 47.11 46.45 46.24 45.51 45.13 44.27 42.67 41.30 40.32 39.83 39.60 39.14 39.13
32.88 31.93 31.57 30.70 31.61 33.78 43.61 46.48 47.92 35.68 36.32 46.99 48.27 47.38 46.80 44.14 45.18 47.42 49.55 49.55 50.31 50.47 50.11 49.76 49.67 48.63 47.22 47.79 47.75 45.40 44.41 43.89 45.08 45.67 45.50 44.84 43.99 42.68 42.33 41.66 41.40 40.88 40.46 40.87
34.00 32.30 31.87 33.98 31.06 29.19 45.04 46.08 40.06 42.57 47.15 48.81 48.88 47.70 47.16 48.54 48.03 48.62 48.94 48.83 48.94 48.31 48.52 48.17 47.01 46.46 45.99 46.42 46.00 43.63 43.18 44.84 44.88 44.36 43.14 42.39 41.94 42.50 42.24 41.17 40.26 40.02 38.11 35.67
33.09 37.03 35.31 37.06 35.95 44.08 45.12 46.47 47.31 47.27 46.20 49.83 49.25 50.59 49.57 48.19 48.17 47.97 47.72 47.25 47.31 47.26 46.56 46.92 46.09 44.87 45.27 45.47 45.40 43.05 42.43 43.62 42.79 42.19 41.54 41.46 41.82 41.87 41.09 37.79 35.60 35.33 34.68 31.28
39.66 42.80 38.16 38.96 42.01 43.35 45.08 46.33 49.16 49.95 49.47 49.38 51.18 50.37 49.30 48.69 47.68 46.56 46.71 46.19 45.88 45.31 44.72 44.90 44.88 44.15 43.02 44.57 44.44 43.35 43.00 42.77 41.83 40.58 39.56 38.00 35.72 34.88 32.99 34.01 32.54 30.04 27.75 27.22
38.41 42.36 40.57 39.12 42.70 44.48 45.40 46.37 49.98 49.65 50.65 49.87 50.71 50.21 49.79 49.44 47.70 47.04 45.81 45.13 44.64 44.83 44.64 44.88 43.40 42.67 41.77 42.97 42.35 42.50 42.42 41.89 38.67 36.86 35.24 33.78 31.22 28.93 28.37 29.00 27.18 25.22 25.84 27.26
41.77 39.74 36.36 34.49 44.55 44.95 46.19 47.59 49.33 49.76 50.01 50.65 49.32 49.25 50.34 48.09 47.94 47.00 45.31 44.88 44.23 43.74 44.07 43.78 42.60 41.62 41.17 41.07 40.70 40.47 39.83 38.40 35.31 33.01 31.70 29.76 29.20 27.75 27.46 26.88 25.34 27.78 27.46 27.53

GFSCGP_sfc_wetblb_048.txt.gz
Wetbulb
44.95 39.63 36.88 38.37 40.02 41.49 41.03 39.20 38.00 40.72 46.22 46.01 44.22 43.43 44.82 47.24 48.40 47.08 47.56 50.21 51.71 51.67 51.16 51.69 52.18 52.22 51.57 52.98 53.87 54.23 54.33 53.74 54.19 53.76 52.85 52.70 52.77 54.15 54.47 54.03 55.39 57.05 58.72 60.52
40.78 38.07 42.98 43.99 43.29 41.86 41.03 39.23 39.34 41.49 46.34 45.89 43.08 44.03 44.12 45.69 47.32 47.57 48.28 50.39 51.96 51.87 50.26 51.00 51.15 50.88 51.62 51.86 52.87 52.54 52.72 52.39 53.29 53.47 53.40 53.70 53.14 53.51 53.74 54.24 55.51 58.05 57.68 58.46
38.99 41.97 46.02 43.99 42.31 41.06 41.08 39.48 39.68 39.38 43.44 42.88 41.12 39.13 43.50 46.96 48.33 49.71 50.03 51.07 53.12 52.00 50.27 50.23 50.64 50.62 50.69 51.23 51.77 52.08 52.24 51.74 51.94 52.60 51.92 51.88 51.59 52.38 52.61 54.00 55.54 57.92 58.00 57.92
41.21 45.19 44.02 42.93 41.75 42.40 38.05 44.62 42.83 42.47 39.18 34.05 39.86 31.28 41.04 44.84 46.17 49.23 48.45 49.73 50.83 53.14 52.34 51.04 50.82 50.48 50.25 51.29 52.39 52.25 52.09 51.96 52.42 53.17 52.00 51.61 51.55 51.02 53.45 54.30 56.48 57.88 58.88 59.50
40.70 42.10 42.29 41.43 42.46 44.49 41.70 45.49 43.63 42.78 38.67 35.93 37.49 33.76 37.71 44.83 45.05 47.60 47.59 48.12 50.01 53.10 53.13 51.32 50.70 51.18 51.65 51.54 51.38 52.15 52.32 52.21 52.81 53.12 53.56 53.62 54.42 55.90 54.52 54.27 55.55 58.09 58.45 59.16
42.70 45.73 43.74 43.07 45.86 45.86 46.87 44.13 43.06 41.43 38.13 30.66 36.47 35.08 34.17 42.06 46.16 49.08 50.73 48.51 48.83 51.08 53.80 53.75 52.22 52.41 52.11 52.09 51.42 51.47 51.70 52.15 52.85 53.03 53.88 55.30 55.75 55.11 53.49 54.17 55.51 56.76 58.78 59.14
40.64 42.13 45.32 46.00 42.39 44.94 43.11 38.85 31.76 30.17 29.19 28.53 40.03 37.11 38.18 42.94 49.50 50.63 50.92 51.43 50.38 50.35 52.58 54.11 52.39 52.50 52.73 52.58 51.59 52.00 52.24 52.16 53.39 53.82 54.67 56.10 56.97 55.90 54.22 54.92 55.62 56.32 57.31 56.83
34.42 32.28 42.08 45.44 43.18 41.03 40.45 38.94 31.20 25.39 26.63 31.07 39.25 33.83 38.94 46.22 47.66 49.18 52.67 53.35 53.20 51.65 52.42 53.50 53.82 53.70 54.46 53.74 53.43 52.55 53.06 53.92 54.21 54.97 55.92 56.95 57.26 58.28 57.00 56.46 57.00 57.35 57.56 57.26
34.32 35.26 44.35 45.06 45.56 44.26 40.45 36.39 41.52 35.75 36.41 30.92 34.36 39.15 43.80 45.96 45.49 45.37 48.05 49.84 51.66 52.35 52.57 53.84 54.33 54.61 54.88 54.52 53.74 53.20 53.37 54.60 55.14 55.65 56.76 57.28 58.30 58.45 58.43 57.99 57.33 57.87 57.56 56.11
39.98 34.14 42.74 44.59 45.08 44.75 43.11 44.36 36.47 36.37 28.85 26.32 33.28 35.42 36.44 43.16 43.38 45.55 44.70 47.52 50.82 52.63 52.55 54.38 54.81 54.67 55.53 55.82 55.73 54.69 54.49 54.35 55.42 56.41 57.06 57.37 57.58 58.35 58.73 57.70 57.38 57.60 57.01 55.66
41.54 38.06 38.70 42.81 40.55 40.04 39.91 38.86 40.25 40.14 35.97 28.69 27.30 31.96 41.64 44.18 45.90 45.03 45.37 45.87 47.55 51.00 52.72 53.53 55.03 55.93 55.93 56.05 56.31 56.21 56.13 56.31 56.35 57.40 57.88 58.19 58.92 58.98 59.08 58.56 58.20 57.82 56.31 55.12
42.36 38.82 34.03 37.62 43.79 45.25 42.98 40.76 40.51 34.42 33.35 34.03 30.40 34.04 44.97 45.09 45.34 46.06 46.55 46.84 46.51 48.86 50.75 53.67 53.82 55.86 56.03 56.07 56.25 56.32 57.12 57.15 57.69 58.27 58.92 58.97 59.66 58.26 58.29 58.18 58.36 57.52 56.35 54.76
43.66 37.14 29.75 33.76 39.35 42.68 40.39 41.69 41.81 40.62 37.71 33.10 29.77 34.48 45.62 45.75 45.92 46.76 45.71 45.69 47.43 46.49 49.15 50.97 52.28 54.25 55.83 56.28 57.05 57.15 57.28 57.60 58.52 59.08 59.04 59.05 58.80 58.40 58.67 59.13 59.95 60.21 55.43 53.74
45.99 40.06 35.60 31.73 35.69 40.05 38.35 41.42 41.93 40.23 30.72 32.33 33.33 38.41 42.63 45.04 44.70 46.82 46.47 46.45 47.69 47.81 47.66 50.41 51.26 54.06 54.98 54.80 56.41 57.78 58.10 58.48 58.67 59.11 59.07 58.82 59.33 58.87 59.07 59.50 59.29 57.52 54.58 52.77
45.17 36.88 38.40 39.32 41.05 42.06 41.07 41.57 41.65 39.22 38.56 34.47 37.29 38.61 43.58 44.71 45.17 46.48 47.14 48.25 48.61 48.84 47.68 49.15 51.00 52.75 53.21 53.88 55.41 56.18 57.65 57.90 59.21 59.13 59.02 59.05 59.35 59.48 58.12 56.83 54.15 53.04 52.36 52.03
44.08 37.10 38.03 35.60 40.40 40.52 39.35 41.43 42.22 42.29 41.10 39.66 40.76 39.99 46.30 48.18 45.90 44.85 47.59 48.33 47.96 48.24 48.37 48.41 52.28 53.04 54.59 56.39 57.04 57.03 57.33 58.49 59.41 59.01 59.06 59.32 57.39 56.89 54.95 54.27 53.45 51.87 50.40 49.77
40.96 38.23 35.32 30.22 37.42 38.07 32.54 39.09 40.90 40.55 41.66 42.35 37.56 42.26 46.10 45.04 45.80 45.84 46.92 47.89 48.17 48.10 47.26 47.29 51.83 54.76 55.94 56.90 56.67 55.87 56.59 58.21 58.93 59.12 57.70 55.67 55.41 54.83 53.61 52.08 50.32 48.45 47.63 46.68
38.47 36.35 36.54 30.43 32.42 28.45 39.07 43.67 43.36 41.67 42.67 42.69 42.55 43.90 44.65 45.00 45.98 46.71 48.03 48.95 47.99 47.50 47.29 47.22 52.68 54.87 55.48 55.02 54.65 54.05 55.02 54.91 55.37 55.31 54.74 54.15 52.44 50.52 49.65 48.76 46.15 45.04 45.16 44.55
42.07 36.92 31.94 30.11 30.69 35.52 38.53 41.77 40.68 39.98 40.45 44.19 43.32 43.98 44.34 45.18 43.43 43.27 47.23 47.77 48.06 47.88 48.11 49.72 53.41 54.14 54.03 54.49 54.02 52.07 52.08 52.40 51.84 50.87 50.39 49.40 48.44 46.39 45.76 44.24 44.04 42.59 41.11 40.25
39.50 39.13 34.10 31.50 27.82 26.75 36.30 42.76 46.41 44.23 33.40 43.68 44.00 44.69 44.62 44.04 36.50 41.09 46.80 47.85 48.17 49.25 51.14 51.93 51.88 52.41 52.79 51.34 50.88 49.40 48.00 47.87 46.50 46.16 46.76 46.38 45.03 43.57 40.95 39.58 38.88 39.20 39.56 38.54
32.06 31.94 30.28 30.31 29.59 34.03 41.37 44.09 45.75 35.30 35.17 44.62 47.22 46.09 43.75 41.94 43.03 45.44 46.84 48.78 49.45 50.09 51.04 50.54 51.77 51.62 49.56 49.29 49.09 46.71 46.31 45.01 45.15 44.36 43.43 42.54 41.94 40.56 39.86 38.95 38.60 38.32 38.41 38.40
31.26 30.58 29.69 31.83 30.63 28.10 44.97 43.64 38.52 41.78 44.16 45.63 47.19 45.65 45.56 46.39 46.97 45.94 47.92 48.43 48.45 48.42 48.05 48.81 48.04 46.94 45.88 47.46 46.84 44.58 43.42 44.06 44.41 43.39 42.42 41.49 40.84 40.96 40.60 39.53 39.09 39.42 38.99 35.03
31.68 35.22 32.77 35.64 34.02 43.77 45.82 44.22 47.21 46.51 44.77 46.31 45.56 46.75 47.60 47.10 45.75 46.83 46.77 47.85 48.30 48.23 46.36 46.53 45.81 43.53 43.25 44.15 45.23 42.74 41.68 42.80 42.17 41.61 40.81 40.63 40.93 40.61 40.28 38.99 37.36 37.02 35.30 32.84
36.04 41.32 37.68 37.92 40.45 42.69 43.85 46.46 48.17 48.55 47.41 48.33 48.41 48.59 48.52 46.94 47.32 46.97 46.08 45.69 45.07 44.74 44.40 44.43 43.96 42.49 41.08 42.38 42.63 42.12 42.20 42.20 41.23 39.83 39.45 38.48 36.25 32.86 32.47 32.27 32.81 32.04 29.12 29.07
36.39 40.10 39.10 38.34 41.18 42.57 43.59 45.04 47.54 47.82 48.61 47.72 47.78 47.81 48.49 49.18 47.85 47.42 46.29 45.03 44.61 43.84 43.95 44.13 43.15 41.86 40.48 41.32 41.12 41.60 41.38 40.98 38.19 36.03 32.51 29.73 29.62 28.78 26.03 25.48 26.18 26.61 27.53 27.98
38.81 38.21 35.52 34.37 41.72 41.06 42.34 45.35 47.44 46.67 47.84 47.88 46.98 47.09 47.51 48.04 47.37 47.42 45.87 44.75 44.39 43.36 43.25 42.24 41.00 40.14 39.67 40.27 39.61 38.77 38.38 37.17 33.93 30.77 28.71 27.32 27.06 26.29 25.09 24.66 24.61 28.46 28.96 29.36

GFSCGP_sfc_wetblb_051.txt.gz
Wetbulb
42.64 38.24 35.65 38.54 39.41 39.55 38.44 36.77 35.50 37.71 42.15 42.16 42.62 41.67 42.43 45.11 46.00 46.84 46.08 48.48 49.18 50.13 51.02 50.99 52.19 53.29 53.18 54.09 54.15 55.59 54.99 55.08 55.63 55.01 54.47 53.97 53.97 53.92 53.95 54.20 55.78 56.45 57.28 59.36
39.41 37.00 41.71 42.58 41.43 39.95 38.70 36.41 36.29 39.69 42.87 43.24 41.46 41.93 42.73 45.34 46.40 47.52 46.40 47.37 49.33 50.14 49.21 50.32 50.21 51.80 51.88 53.11 53.47 54.43 54.60 54.70 55.13 55.64 56.10 55.45 54.78 54.16 54.28 54.23 54.63 55.80 57.17 57.21
37.95 40.50 44.65 42.46 40.33 38.79 38.14 36.25 37.10 37.70 41.21 41.88 39.59 38.34 40.11 44.76 46.79 47.57 48.27 49.25 51.00 50.96 49.24 49.54 49.95 50.54 50.26 51.47 51.25 53.14 53.20 53.35 53.61 54.32 54.98 53.35 53.23 52.70 51.26 52.74 52.70 54.39 56.61 56.42
39.28 44.07 41.95 40.74 39.97 40.01 35.37 41.48 41.36 39.94 36.96 33.34 39.03 30.14 36.95 41.39 43.82 46.68 47.39 47.94 50.65 51.88 51.74 49.88 49.53 49.07 49.34 50.38 51.84 51.88 52.03 51.79 51.69 52.72 51.79 50.80 51.45 50.76 51.89 51.72 51.95 52.97 55.39 56.59
39.72 40.33 39.60 39.41 40.77 42.03 38.66 42.94 41.30 40.72 37.11 34.74 35.25 31.57 35.89 42.30 42.55 44.89 46.83 48.30 49.46 52.38 52.09 50.04 49.64 49.88 50.01 50.76 51.12 51.50 51.86 51.94 51.63 51.48 50.95 49.28 49.43 49.78 50.66 51.24 51.66 52.96 55.38 56.89
42.34 44.23 42.72 41.66 43.81 43.63 44.73 41.65 40.09 38.79 36.08 29.86 35.12 33.51 32.83 38.12 42.98 45.70 48.32 48.38 49.64 51.71 52.58 51.69 51.12 50.80 50.14 49.82 50.41 50.96 51.08 51.29 51.65 51.64 51.56 50.73 50.38 51.26 51.49 52.22 52.77 53.87 55.23 56.64
38.73 40.58 42.36 43.97 39.79 42.43 40.98 36.29 29.33 27.99 27.64 28.06 37.45 35.37 36.69 41.83 45.15 47.58 48.52 49.11 49.22 50.77 52.63 52.04 50.15 49.73 50.30 49.62 50.02 50.42 50.75 50.68 51.54 51.29 51.56 51.85 51.62 52.50 53.35 53.39 53.37 53.99 54.65 55.76
32.98 30.57 39.53 43.16 41.33 38.78 38.23 37.65 29.70 24.18 25.13 29.47 37.45 32.53 37.41 44.54 46.30 47.85 49.71 51.61 49.22 49.37 52.52 52.70 51.87 50.57 50.51 50.71 49.83 50.08 50.62 50.72 51.31 51.25 51.31 52.15 53.30 54.56 55.42 55.26 54.67 54.07 54.70 55.69
32.07 33.17 42.07 43.21 44.00 42.84 38.25 34.67 39.60 33.21 33.62 30.14 32.66 36.96 41.80 44.34 44.05 45.63 45.88 49.02 49.16 48.19 49.67 52.76 53.63 51.75 51.38 51.56 51.36 50.15 50.55 51.01 51.47 51.59 51.81 51.95 52.80 54.01 55.26 56.52 55.71 55.38 55.44 55.79
37.84 32.76 40.93 42.40 42.91 42.69 41.20 42.41 34.32 33.58 27.37 26.39 30.92 33.10 34.43 41.11 42.90 42.99 42.24 46.39 49.06 50.62 49.52 51.06 53.71 53.26 53.11 53.17 53.18 51.97 51.68 51.56 51.92 52.26 52.54 52.84 53.74 55.25 55.95 56.83 56.91 56.06 56.87 55.83
39.58 36.20 35.99 40.49 37.97 37.71 37.69 36.33 37.81 37.75 33.24 27.51 26.67 30.65 40.44 42.42 43.46 43.10 42.75 43.98 46.29 49.51 51.06 51.10 52.75 54.35 54.28 54.71 54.18 53.46 52.06 52.46 53.35 54.07 54.03 53.60 54.38 55.73 56.48 56.91 57.31 57.33 56.74 56.75
40.26 36.43 32.77 36.45 41.42 42.68 40.13 38.63 38.85 32.47 31.82 32.38 30.02 33.45 43.13 43.24 43.71 44.62 44.56 44.72 44.85 47.23 51.10 51.82 53.06 54.15 54.05 54.22 54.90 53.89 53.75 52.82 53.13 54.20 55.05 55.01 55.44 56.36 56.48 56.78 57.72 57.90 57.64 56.75
42.57 35.37 28.43 33.73 36.75 39.46 36.95 39.48 39.93 39.10 36.49 32.85 30.19 32.89 44.26 43.95 44.46 45.58 43.83 45.70 45.36 46.37 47.24 49.73 51.69 53.62 53.69 54.31 54.74 54.84 54.61 53.95 54.18 54.28 54.43 55.12 55.77 56.53 56.93 57.85 58.46 58.59 58.26 57.68
45.09 39.26 33.73 28.61 32.84 37.37 35.15 38.82 39.82 39.25 31.53 32.27 34.85 36.85 40.65 43.36 43.72 44.95 44.80 45.27 45.36 45.79 47.06 48.04 49.65 51.78 53.93 54.43 54.61 54.87 55.25 55.70 55.59 55.57 55.19 55.16 55.87 57.17 58.39 58.62 58.37 58.41 58.39 57.66
43.48 35.99 38.06 38.40 39.84 39.69 38.60 38.69 39.36 37.71 37.40 34.10 36.17 36.76 41.29 42.99 43.99 44.66 46.35 46.11 46.39 47.33 45.61 47.55 49.18 50.81 52.38 53.93 54.60 55.49 55.53 55.73 56.42 56.24 56.22 56.19 56.77 57.76 58.07 57.84 58.23 58.63 57.66 55.93
43.35 36.16 37.46 35.31 39.29 39.05 36.73 39.03 39.89 39.93 39.25 38.35 38.81 37.41 43.81 45.34 45.49 44.10 45.50 46.30 46.33 47.05 47.37 46.91 50.62 51.07 51.98 53.08 53.88 54.92 55.87 56.20 56.65 56.03 56.28 57.31 57.49 57.52 57.36 57.56 58.35 56.11 53.82 53.49
39.30 35.47 32.43 29.84 35.83 35.57 31.17 36.43 38.73 39.61 41.78 41.16 36.56 40.31 44.21 44.11 44.66 44.93 45.90 45.63 46.49 47.53 48.51 47.39 47.70 51.54 52.27 53.05 53.55 53.84 54.77 55.42 56.19 56.58 56.79 57.15 57.56 57.61 57.42 56.27 53.43 52.87 51.45 49.76
37.24 35.72 34.04 29.95 30.68 27.09 35.88 40.25 42.06 40.61 42.02 42.56 42.92 43.50 44.57 44.42 45.45 45.84 45.94 45.79 46.55 47.56 48.05 46.93 46.21 51.00 53.71 54.01 54.29 53.48 55.09 55.75 56.11 56.30 56.29 57.08 57.44 56.75 53.78 52.29 50.65 48.19 47.38 46.12
39.84 34.44 29.99 25.11 28.31 32.38 34.94 40.46 38.33 37.72 37.81 42.97 42.74 43.52 44.33 44.46 41.46 42.06 44.85 45.57 46.94 47.83 48.86 47.87 46.16 50.62 52.92 53.61 52.75 53.08 55.26 55.21 55.29 55.28 54.46 53.94 53.34 51.01 50.31 47.98 46.53 45.22 44.13 43.52
38.07 36.94 29.47 30.75 26.39 22.95 32.18 40.74 44.37 44.55 34.71 43.34 44.30 42.91 43.61 43.17 35.36 40.79 45.49 45.26 46.04 46.42 45.87 48.18 50.84 52.10 53.17 51.37 52.65 52.44 53.25 53.58 52.71 51.74 50.62 50.19 49.53 48.92 46.70 45.44 43.59 43.46 42.80 41.46
30.94 32.51 30.59 28.94 28.31 30.84 37.86 42.22 44.89 33.30 33.89 44.33 44.95 44.31 43.21 40.17 41.68 45.22 44.95 45.34 46.53 46.68 48.44 50.09 51.72 52.38 51.92 50.40 50.97 48.92 48.24 48.99 48.41 48.90 47.24 46.24 45.76 44.37 43.03 40.59 40.46 39.70 39.51 38.64
30.03 29.91 29.79 31.67 28.56 24.58 43.80 42.24 36.32 40.13 43.03 44.47 45.63 45.39 43.93 44.63 45.11 45.31 45.53 45.65 47.10 48.03 48.93 49.97 49.19 47.23 47.57 48.37 48.55 45.66 44.16 43.94 43.90 42.50 42.08 41.48 40.89 40.65 40.22 39.75 39.36 38.84 37.09 34.17
29.24 32.50 29.98 32.73 32.07 40.26 44.33 42.88 44.97 44.84 45.11 45.68 46.05 47.09 46.32 44.90 45.32 45.38 45.44 45.24 45.30 46.26 46.17 46.91 46.44 44.00 44.26 45.50 46.26 43.51 42.15 42.49 41.38 40.73 39.84 40.21 40.22 39.12 38.43 37.32 36.80 34.62 33.33 32.80
33.04 37.88 34.11 35.60 38.62 41.04 43.10 45.43 46.08 46.03 47.00 48.14 48.83 46.85 46.97 45.65 46.53 46.52 45.49 45.06 44.55 44.35 44.13 43.53 43.53 42.42 41.03 42.39 42.54 41.78 41.93 41.73 40.77 39.21 38.35 36.32 33.75 31.74 31.41 32.13 33.60 32.22 31.27 31.60
33.30 36.86 35.81 35.17 38.92 41.25 43.13 43.45 45.01 46.78 48.57 48.08 48.04 47.09 46.67 46.47 46.86 46.06 46.32 44.92 44.21 44.20 43.11 43.17 42.11 40.44 40.22 40.73 40.64 41.10 40.99 40.62 36.90 33.55 32.29 30.42 28.86 27.65 27.06 27.96 29.27 28.82 29.68 31.86
38.18 36.46 34.25 32.58 40.01 39.31 41.01 43.23 43.77 45.03 45.10 45.13 44.87 45.41 45.99 46.08 45.80 46.64 45.98 44.91 43.16 42.76 41.98 41.29 40.21 39.63 39.30 38.80 37.51 38.17 38.83 36.56 33.14 30.22 29.36 27.77 26.36 26.10 26.12 25.58 25.47 29.52 30.08 30.23

GFSCGP_sfc_wetblb_054.txt.gz
Wetbulb
42.28 37.33 35.58 37.78 39.39 38.25 37.00 35.18 33.63 35.82 39.60 38.44 38.02 38.31 41.61 43.86 46.79 47.58 48.30 47.53 47.56 48.57 50.66 50.62 51.74 52.41 53.15 54.03 55.31 55.01 56.22 56.64 56.28 55.70 55.70 55.68 54.70 53.78 53.72 55.56 57.87 58.57 59.31 59.61
38.02 36.57 40.65 42.73 40.53 39.10 37.61 34.79 33.90 37.70 40.77 39.47 38.12 39.55 41.24 42.64 44.92 47.28 48.13 46.76 47.77 48.37 48.36 50.00 50.57 52.53 52.47 53.30 54.54 55.21 55.23 56.02 56.64 56.02 56.51 56.92 56.02 55.11 54.91 54.31 55.31 56.74 57.42 58.59
37.57 39.08 43.07 42.11 38.68 37.57 36.08 34.52 34.56 35.83 38.15 39.17 38.17 37.55 38.39 43.29 45.07 46.44 47.19 47.63 48.07 48.98 48.19 48.96 49.38 51.12 51.80 52.73 52.81 54.64 54.54 55.48 55.98 56.63 55.80 55.01 55.37 54.38 53.73 53.55 52.61 54.65 56.52 56.81
38.79 43.06 40.65 38.73 38.15 38.90 33.83 39.16 39.11 37.64 34.87 31.00 37.35 29.58 36.14 38.54 42.24 45.03 46.11 46.42 47.66 49.59 50.13 49.17 48.88 49.91 50.93 51.99 52.26 53.23 54.02 53.83 54.40 55.85 54.72 54.74 54.13 52.76 53.98 53.18 53.03 53.32 55.76 56.42
37.61 39.45 39.36 37.53 38.60 40.30 37.62 41.06 39.13 38.01 34.68 32.14 33.72 30.17 34.48 40.01 41.00 43.03 44.92 46.88 47.83 49.63 50.88 49.13 49.09 49.27 50.73 50.35 50.96 50.28 52.94 53.18 53.09 53.52 53.90 54.53 54.73 54.49 54.16 51.96 51.87 52.62 53.34 55.83
40.15 42.99 41.39 41.64 42.23 41.93 42.74 39.59 38.14 36.84 34.01 27.63 33.51 32.04 31.02 35.46 40.78 42.80 45.62 47.04 48.02 49.18 51.30 50.87 50.05 49.68 49.19 49.80 50.63 50.32 50.72 51.41 51.40 50.80 51.00 51.19 51.77 50.72 50.92 50.71 50.63 50.63 51.83 52.92
37.21 39.54 42.07 42.82 39.02 40.36 39.37 34.79 28.15 26.89 26.92 27.01 34.96 31.94 34.94 40.83 42.86 44.42 45.30 46.43 47.95 49.09 51.00 50.90 48.68 48.68 48.61 48.70 49.64 50.65 50.61 50.73 51.41 50.39 50.32 49.72 50.25 50.56 50.22 50.57 50.82 50.67 51.40 52.29
31.68 29.80 39.44 42.14 40.31 37.56 36.47 35.73 28.46 23.85 24.67 27.78 35.70 31.37 36.82 43.43 45.51 45.28 45.98 47.34 47.80 48.78 51.04 51.63 50.35 49.46 49.20 49.31 49.50 50.23 50.62 50.54 51.09 50.81 50.60 50.82 50.32 50.76 51.45 51.75 51.97 52.36 52.81 52.92
32.32 32.89 41.02 41.92 43.11 42.58 36.94 33.29 38.17 31.51 31.35 28.89 31.36 35.26 40.74 43.14 43.61 44.00 43.70 47.32 46.01 47.79 49.60 51.69 52.05 50.53 50.04 49.71 49.67 49.68 50.31 50.72 51.12 50.97 51.06 50.88 51.31 51.33 51.26 52.38 53.40 53.70 53.54 53.99
38.07 32.33 40.00 41.39 42.01 40.90 39.60 40.80 33.01 31.43 26.60 25.40 29.03 30.88 32.94 39.14 41.97 43.24 42.07 44.32 47.31 46.84 47.92 51.04 52.49 51.69 51.16 51.14 50.66 50.58 50.69 50.32 50.94 50.81 51.04 51.08 51.19 51.69 52.25 52.52 53.56 54.11 54.54 53.27
37.03 34.54 35.00 39.38 36.84 35.88 36.39 34.77 35.91 35.78 31.39 26.33 25.05 28.82 38.85 40.79 42.39 42.73 43.14 43.36 45.33 47.69 46.64 48.30 51.94 53.15 52.09 51.68 51.31 51.10 50.60 50.69 50.58 51.56 51.48 51.25 51.21 51.42 51.92 52.94 53.70 54.68 54.91 54.54
40.85 35.59 30.44 34.73 39.93 41.13 38.91 36.88 37.31 30.27 29.91 30.39 27.67 30.46 41.49 42.83 43.20 43.63 44.52 44.41 43.71 47.28 49.14 48.61 49.24 51.77 52.14 51.37 51.83 51.79 51.09 50.37 51.13 52.07 52.03 51.54 52.29 52.42 52.27 53.00 54.66 55.25 55.72 56.40
41.45 35.34 27.75 31.79 35.91 37.87 35.09 36.88 37.96 37.03 33.92 29.70 27.49 30.74 44.01 42.88 43.75 44.75 44.34 44.19 44.96 44.10 45.78 48.27 48.63 50.42 52.46 52.40 52.63 52.73 52.45 51.36 51.86 52.43 52.21 52.76 52.64 52.81 52.86 54.14 55.25 56.10 56.20 56.55
43.78 38.01 34.49 29.18 33.01 37.41 34.32 37.01 37.03 36.55 29.57 29.92 30.73 34.04 40.67 43.10 43.28 44.89 44.48 44.56 44.69 45.05 45.01 46.62 48.89 50.83 52.18 52.95 53.23 53.74 53.57 53.64 52.93 51.92 51.97 52.12 52.82 53.62 53.80 54.70 55.22 55.86 56.96 56.58
41.60 33.23 37.78 38.37 38.70 38.61 36.58 36.50 37.03 35.01 34.94 32.44 34.26 34.99 40.08 43.50 43.22 44.13 45.24 44.91 44.94 45.69 45.44 45.56 47.54 49.39 52.02 52.38 52.91 53.76 54.18 54.09 54.13 52.96 52.22 51.82 52.67 53.59 54.21 54.97 55.78 56.21 56.91 57.01
41.00 33.68 35.01 33.63 38.29 35.70 34.05 36.89 36.70 37.03 36.61 36.47 37.00 35.99 41.85 44.64 44.29 43.15 44.61 44.77 44.56 45.33 46.17 46.25 46.81 48.58 48.83 51.94 52.74 53.21 53.86 54.41 54.57 53.60 53.12 53.49 53.11 53.33 53.64 54.72 55.51 56.56 57.09 57.31
37.43 34.46 30.88 28.20 33.65 33.88 29.19 32.81 33.73 36.30 38.53 38.69 34.21 38.80 43.00 42.23 43.64 43.74 45.20 44.95 45.07 45.44 46.12 46.47 46.54 47.92 50.68 51.02 52.66 52.78 53.64 54.18 53.84 54.11 54.31 54.40 54.57 54.30 54.61 55.39 56.63 56.82 56.90 56.84
36.47 34.53 31.24 28.48 28.99 22.72 33.81 39.37 39.76 36.40 37.80 38.34 38.94 41.94 43.00 43.54 45.69 46.07 45.55 45.05 45.17 45.40 46.23 46.59 47.08 46.86 48.94 51.10 51.85 53.02 52.51 53.30 53.84 53.78 53.86 54.21 54.50 55.07 55.27 56.66 56.50 55.87 53.13 51.47
39.71 35.20 27.32 23.92 25.14 30.29 33.07 38.15 37.82 36.07 34.96 39.33 39.74 43.20 43.90 44.20 42.10 41.47 43.74 43.86 44.94 45.16 45.94 46.46 46.30 45.43 47.03 49.82 51.04 51.99 52.40 52.49 53.07 53.83 53.93 53.85 54.10 54.63 53.35 52.28 50.48 49.41 47.06 46.32
36.46 35.84 30.86 29.44 21.81 19.90 29.10 37.28 42.40 42.09 30.44 42.19 42.31 42.25 42.68 42.92 34.40 41.17 45.48 44.73 44.76 44.83 45.12 45.67 44.38 47.55 49.11 50.59 52.51 52.91 53.46 53.32 53.47 53.39 52.52 52.32 51.90 50.60 49.17 46.82 45.36 44.51 44.50 42.30
30.54 32.32 30.61 29.13 27.55 28.23 35.81 40.85 43.97 30.59 29.36 41.18 43.15 42.98 42.67 40.10 40.93 45.29 46.80 46.01 45.64 44.99 45.84 46.43 48.34 49.06 50.40 50.26 51.76 52.19 53.48 51.74 49.11 48.81 48.38 48.98 48.37 45.96 43.98 41.93 42.27 41.70 39.89 37.23
29.20 27.86 26.01 30.24 28.57 22.23 40.48 40.66 35.44 38.36 40.68 42.08 42.74 42.58 42.74 44.30 45.24 44.88 45.54 44.97 45.68 46.16 46.98 48.66 47.83 47.26 46.64 48.57 48.53 48.14 46.41 46.31 46.38 46.08 44.60 42.66 41.71 41.56 41.22 40.24 39.42 37.92 35.75 33.15
28.09 31.07 28.55 30.54 29.78 37.09 41.85 40.32 43.16 44.02 42.57 43.74 43.36 44.85 44.61 44.04 44.57 45.69 45.40 45.28 45.38 44.91 44.93 45.08 44.23 43.57 44.13 45.94 46.68 43.01 41.36 43.20 43.58 41.71 40.46 40.16 39.47 39.14 39.60 38.08 36.39 34.99 34.12 32.59
32.39 36.31 32.62 32.40 35.08 37.06 40.25 41.94 42.22 42.49 43.77 45.50 46.29 45.62 46.68 44.81 44.96 43.76 44.51 45.23 44.11 43.62 44.35 44.48 43.31 41.57 40.15 41.60 42.30 42.29 42.10 42.23 41.89 38.62 37.17 36.32 34.76 33.57 33.60 33.79 34.03 33.87 32.86 30.92
31.39 35.22 33.75 33.01 36.65 38.96 40.85 42.05 39.68 41.81 43.89 44.64 46.23 46.05 42.05 40.57 40.69 42.54 43.73 43.73 43.47 43.61 42.98 42.26 40.65 39.58 38.88 40.47 40.52 41.38 41.82 39.21 35.08 33.63 32.28 31.59 31.07 30.51 29.33 28.77 29.44 30.08 31.39 32.19
36.74 33.89 30.76 28.56 38.71 38.30 39.25 40.80 38.11 39.72 38.50 37.97 37.03 36.07 35.26 35.27 38.20 42.02 38.81 38.38 39.17 38.76 38.40 37.11 35.80 34.51 33.67 33.62 33.74 35.81 36.72 35.86 33.81 31.32 30.08 29.18 29.17 28.44 28.21 27.71 26.94 30.59 30.77 30.05

GFSCGP_sfc_wetblb_060.txt.gz
Wetbulb
48.25 44.72 41.33 43.52 46.40 45.87 45.19 43.65 42.94 45.35 47.12 46.08 46.45 47.17 49.46 51.87 52.85 54.66 56.39 57.19 58.08 58.51 59.55 59.04 59.07 60.26 60.50 59.97 59.76 57.92 58.26 58.19 58.46 56.99 57.09 57.83 57.75 57.81 58.67 59.17 60.71 61.87 61.94 62.45
45.76 41.68 45.54 46.80 47.05 45.20 44.07 42.51 42.84 45.34 46.79 45.47 45.26 45.58 49.34 51.48 51.86 53.69 55.78 57.09 57.91 58.84 58.48 58.03 58.58 59.42 59.18 59.72 59.68 57.96 57.55 58.00 57.77 58.81 57.51 58.38 59.49 59.48 58.92 58.82 59.24 61.37 62.65 62.16
42.60 43.37 46.66 45.95 44.48 42.92 43.43 42.09 42.80 42.66 44.87 46.13 44.95 44.01 47.28 50.54 52.41 53.42 55.14 57.26 58.41 58.95 58.25 57.98 57.88 58.49 59.11 58.13 57.22 59.78 59.45 57.89 57.81 58.18 59.04 58.42 58.57 57.13 57.94 58.23 57.75 59.41 62.64 63.04
41.98 45.25 43.93 44.98 43.41 44.35 40.58 45.32 44.29 43.65 42.69 38.57 45.28 38.06 45.80 48.53 49.61 51.16 52.62 55.84 57.23 58.88 59.36 58.90 58.40 58.34 58.53 59.25 59.34 59.78 59.58 59.52 58.97 59.20 57.88 58.09 55.45 55.73 56.30 58.63 59.16 60.55 61.83 62.14
41.55 41.80 41.58 42.04 43.67 45.70 42.59 46.03 44.51 44.42 42.95 42.16 41.40 39.96 43.91 47.74 46.91 49.39 51.57 53.57 56.97 58.52 59.27 58.73 58.72 58.84 59.05 59.61 58.91 58.39 59.36 59.18 58.30 58.60 58.61 57.23 56.24 55.96 56.68 57.64 59.24 60.60 60.37 61.39
43.92 47.09 45.31 44.45 45.38 46.21 46.67 44.29 44.17 44.29 42.87 36.31 40.88 41.23 42.07 45.20 47.43 48.37 50.52 52.56 55.39 57.52 58.89 59.46 59.61 59.41 58.83 59.58 59.62 58.08 57.56 58.12 57.98 58.01 58.45 57.82 57.13 55.96 55.65 56.52 56.47 56.96 58.83 60.25
41.56 42.57 46.18 47.11 42.79 45.98 45.12 42.28 36.47 34.31 35.30 34.53 43.02 41.23 43.34 48.13 50.31 50.80 50.94 52.68 55.60 57.71 58.45 58.96 58.72 58.30 58.80 58.32 58.76 58.37 56.52 56.59 58.26 57.89 58.19 58.78 59.39 58.21 55.46 55.65 56.53 57.41 58.86 59.10
34.53 33.66 42.26 46.37 44.23 42.18 42.50 42.56 37.87 30.56 32.94 37.64 43.08 38.40 43.96 49.60 51.74 52.89 53.50 54.38 55.35 57.08 58.42 59.11 59.21 59.05 59.13 58.42 58.53 58.19 57.96 56.70 57.09 58.03 57.91 59.13 60.30 59.43 56.02 56.81 57.01 56.76 57.06 58.63
35.19 36.37 44.47 45.56 46.70 45.78 42.44 39.51 44.74 38.83 40.19 38.06 41.31 43.91 48.13 49.87 50.17 51.53 52.01 53.12 54.26 55.65 58.12 59.03 59.81 59.76 59.62 58.84 58.29 58.00 58.25 59.06 58.75 58.06 58.47 58.55 60.16 60.03 59.74 59.14 58.04 57.92 59.50 57.45
40.72 34.97 42.37 44.47 46.97 47.06 45.48 47.07 38.29 39.97 31.81 31.00 38.03 39.61 41.86 45.83 48.18 49.65 51.28 52.53 53.45 55.87 57.71 59.04 60.03 59.91 60.20 59.91 59.07 58.68 58.89 58.86 59.96 60.01 60.27 60.25 60.70 60.53 60.82 61.26 60.43 60.12 61.19 60.90
41.38 40.32 39.93 43.62 42.14 41.88 42.68 41.62 42.96 43.06 40.34 34.51 33.57 38.97 47.69 47.81 49.89 50.56 52.11 53.57 54.60 54.58 57.76 59.18 59.93 60.36 60.69 60.80 59.92 58.93 58.55 58.68 59.40 59.93 60.10 60.07 60.01 60.47 60.86 60.43 61.21 61.20 61.82 61.36
41.67 39.57 36.71 39.83 43.92 46.08 45.65 43.17 43.26 37.59 36.65 39.70 39.29 39.98 49.07 49.80 50.74 51.87 52.93 53.72 55.49 55.53 56.01 58.70 60.03 60.52 59.86 60.18 60.08 59.39 58.99 58.75 59.09 59.86 60.03 59.80 60.20 60.08 59.76 60.01 60.18 61.99 61.26 61.82
44.36 38.50 31.86 34.65 40.11 42.82 41.52 43.00 43.23 44.04 43.12 38.59 36.32 39.64 48.82 49.51 50.00 51.69 52.35 54.18 55.19 55.33 55.35 57.83 58.68 59.66 59.98 60.07 60.05 59.82 59.56 59.18 59.39 59.13 59.18 59.39 59.44 59.76 59.76 60.07 59.97 60.22 60.17 60.72
45.95 41.48 36.98 32.81 36.68 41.68 39.21 41.50 43.01 42.34 37.86 38.26 39.11 40.88 45.02 46.68 47.63 49.90 51.68 53.41 54.22 54.90 54.98 55.52 57.65 58.34 59.58 60.16 60.25 60.03 59.95 60.09 59.92 59.06 58.73 58.95 59.48 59.83 59.93 59.88 59.95 60.32 59.87 59.07
42.70 35.86 39.28 39.84 40.44 41.08 40.43 40.53 41.59 41.11 41.90 38.10 40.79 41.08 44.57 47.11 47.56 49.36 51.33 51.94 52.53 53.45 54.39 55.33 55.55 56.80 58.59 59.19 60.29 60.33 60.44 60.27 60.35 59.25 58.51 59.09 59.60 59.47 59.35 59.25 59.38 59.45 59.46 59.18
40.93 35.84 37.74 35.46 39.13 39.50 37.17 40.02 41.10 41.26 42.60 42.72 43.28 42.65 47.93 48.24 49.02 49.71 50.85 51.88 51.26 51.56 53.62 55.05 55.68 55.99 56.11 58.22 59.55 60.30 60.19 60.19 60.25 59.30 59.04 59.24 59.24 59.02 58.80 58.81 58.83 58.91 58.86 58.42
36.60 37.98 35.32 31.23 36.94 36.55 32.97 38.21 39.98 42.20 44.05 43.76 40.41 44.54 46.40 45.59 48.16 50.04 51.27 51.37 51.11 51.79 52.26 52.93 53.78 54.61 55.80 56.92 58.01 59.52 60.76 61.22 60.10 59.38 59.22 59.12 59.12 58.79 58.82 58.81 58.54 58.30 58.42 58.81
35.55 36.90 37.76 32.19 33.92 25.43 38.06 44.36 44.16 42.93 43.83 45.45 43.52 44.35 46.67 48.36 50.66 51.93 52.02 52.17 52.20 52.28 53.09 54.11 54.06 54.80 55.39 56.39 56.79 58.68 60.11 60.90 60.51 59.88 59.37 59.42 59.15 58.72 58.93 58.72 58.23 58.65 59.16 58.95
39.45 36.93 34.56 31.05 31.28 35.05 37.55 40.46 40.70 41.42 40.36 44.29 43.82 45.34 47.12 49.06 50.75 50.91 52.34 51.98 52.18 52.91 53.78 54.08 55.62 55.61 55.29 55.41 55.62 56.13 57.20 58.97 59.87 59.70 59.89 60.05 59.40 58.90 58.63 58.01 58.42 58.77 59.02 59.05
39.10 39.46 35.75 33.30 28.31 26.00 37.08 42.66 45.69 44.45 35.40 44.88 45.29 45.18 45.98 47.54 44.11 48.68 51.52 52.01 51.72 52.92 53.93 54.15 55.37 56.52 56.79 55.84 56.37 55.26 56.39 57.52 57.87 58.93 59.78 60.54 60.16 59.04 58.99 59.28 58.83 58.99 58.88 57.11
31.71 34.38 31.28 32.08 30.89 34.22 41.59 43.49 46.36 33.56 36.99 45.74 46.38 46.65 47.00 45.63 47.98 50.60 52.32 51.34 51.91 52.07 52.28 53.32 54.48 54.12 53.47 54.94 56.24 56.32 56.80 56.53 57.94 58.86 59.18 59.27 59.76 59.45 59.54 57.68 53.50 48.63 42.62 38.98
32.62 31.56 31.21 32.95 29.70 27.57 43.89 43.42 37.90 43.34 46.48 46.61 47.52 48.35 47.90 48.75 49.99 49.64 49.64 49.91 49.59 49.63 50.32 50.98 50.85 49.73 47.64 49.15 54.22 55.06 51.82 52.55 54.24 52.80 50.29 48.50 48.30 46.56 46.51 44.81 41.71 40.64 38.42 35.17
33.44 37.28 35.08 36.42 36.29 44.53 46.45 45.27 46.16 46.56 45.10 44.52 45.12 45.85 45.65 46.55 46.07 46.56 47.20 45.17 44.85 45.36 46.02 47.40 46.22 43.19 42.71 43.16 45.20 45.04 44.34 44.87 43.96 42.45 40.90 40.06 39.80 39.90 41.24 40.69 39.47 38.56 36.85 34.43
39.85 42.18 39.03 38.18 41.35 43.18 45.02 45.86 45.93 45.62 44.24 44.12 43.89 43.28 43.21 42.90 43.16 43.77 42.50 40.39 40.49 37.84 39.97 41.36 40.26 36.00 34.86 37.22 38.36 39.86 42.57 41.54 40.59 38.15 36.21 35.45 35.22 34.15 34.65 35.63 35.56 34.18 33.25 31.94
40.37 41.55 38.79 38.98 42.06 44.06 43.40 42.99 43.77 44.70 44.35 42.95 42.37 41.22 39.61 39.99 40.63 40.85 40.14 38.57 38.03 35.18 35.30 35.46 34.56 32.38 31.87 32.93 33.54 36.27 38.42 37.88 35.48 34.43 33.42 32.61 31.70 30.49 29.34 29.31 30.82 31.06 31.86 32.63
42.45 39.23 37.88 36.56 41.87 41.44 42.08 41.49 41.48 42.21 41.06 39.85 38.70 37.98 38.36 36.48 36.06 35.27 34.14 35.06 33.51 31.97 31.83 31.99 31.27 29.94 30.49 30.77 31.38 32.49 34.47 36.15 33.58 32.44 32.10 31.77 31.45 30.66 29.11 27.53 27.04 29.89 30.12 29.93

GFSCGP_sfc_wetblb_063.txt.gz
Wetbulb
45.43 42.89 42.60 44.68 45.44 45.36 45.97 46.09 45.38 47.83 49.79 48.02 47.48 47.89 50.86 52.65 53.35 53.90 55.59 56.45 58.25 59.84 61.60 61.85 60.89 61.57 62.38 62.68 61.79 60.49 59.91 58.94 57.36 58.22 58.55 58.07 57.75 58.19 58.98 59.84 60.29 61.93 59.76 61.35
41.60 40.80 45.74 47.05 46.47 45.46 45.61 44.61 44.53 47.32 48.48 46.91 46.76 46.34 49.71 51.34 51.85 53.57 54.34 55.97 57.56 59.41 60.70 60.60 60.29 61.16 61.98 61.94 60.44 59.58 59.07 58.20 57.38 57.37 58.51 59.07 58.24 58.04 58.14 59.48 59.86 61.61 61.26 62.15
38.52 43.53 46.87 45.40 44.88 43.72 45.40 44.28 44.57 44.52 47.48 47.76 46.48 44.29 46.66 50.06 52.07 53.25 54.25 55.48 57.02 58.66 59.93 60.12 59.63 60.34 61.41 61.54 60.32 60.10 59.08 58.39 58.02 57.13 58.19 58.92 58.63 58.02 56.76 58.04 58.25 59.30 60.37 61.99
43.05 45.48 44.71 44.18 43.34 45.45 42.35 47.20 46.13 45.14 44.21 40.91 47.85 39.19 45.87 48.43 49.74 51.70 53.28 54.50 55.78 57.33 60.23 61.18 60.28 60.01 60.69 61.12 61.71 61.94 60.62 58.93 58.53 58.60 57.60 57.30 57.45 56.36 57.49 56.94 58.69 58.55 58.64 61.82
41.93 43.43 41.90 42.07 43.88 46.44 44.30 47.65 46.11 45.33 44.10 44.09 44.04 41.01 44.26 48.58 48.16 50.32 52.28 53.93 55.66 57.72 59.79 60.70 60.88 60.83 61.07 61.62 61.21 60.90 60.43 60.00 59.30 59.60 58.00 57.51 56.77 58.14 58.47 57.86 57.72 57.56 57.74 59.81
41.36 45.87 45.95 44.80 45.12 46.47 47.72 45.98 45.77 45.61 44.37 38.43 43.04 42.05 42.90 46.61 48.33 50.58 50.99 53.16 54.44 57.43 58.89 60.98 61.99 61.99 60.95 61.53 61.58 61.35 59.26 59.07 59.86 59.04 58.36 57.69 56.35 57.77 56.65 57.81 57.27 57.10 58.09 59.18
39.33 40.05 44.99 47.56 42.62 45.51 45.18 43.20 36.99 36.02 36.88 35.58 44.64 42.93 44.16 48.77 50.32 51.39 51.82 52.34 54.94 56.85 58.61 60.18 60.88 60.92 60.50 60.27 60.98 60.55 59.85 58.44 59.09 58.80 58.74 58.50 58.28 57.90 57.32 57.52 56.90 56.34 56.62 58.79
34.51 31.90 41.46 46.44 44.26 41.79 43.35 42.79 37.86 31.58 34.30 38.53 44.73 39.90 45.21 51.17 52.14 52.40 52.80 53.64 54.97 57.27 58.77 60.00 60.99 61.30 60.87 60.23 60.72 60.73 59.50 59.48 58.67 58.60 58.31 58.78 59.03 59.40 58.50 57.30 57.33 57.18 58.02 59.72
36.11 36.20 43.88 45.03 46.52 45.33 43.02 40.64 44.93 39.62 41.98 39.12 42.26 45.12 49.39 51.03 50.79 51.82 52.58 53.32 53.98 55.41 57.93 59.56 60.94 61.71 61.41 60.75 60.48 60.70 59.76 59.83 59.74 58.92 58.43 58.46 59.11 58.96 58.72 59.61 58.98 57.03 59.64 60.61
41.34 35.20 42.36 44.23 46.43 46.53 44.06 47.12 39.23 41.02 32.30 31.62 39.26 41.60 43.52 46.65 48.45 50.70 51.34 53.04 54.40 55.95 56.54 59.53 60.69 61.65 62.03 61.88 61.26 61.18 60.75 60.37 60.48 60.38 59.77 59.07 59.48 60.81 59.73 60.02 59.55 59.21 59.43 61.59
42.86 40.70 38.99 43.65 42.03 41.51 41.78 41.52 43.39 42.92 40.64 34.53 33.93 39.76 49.36 47.70 50.32 50.95 52.85 53.82 55.00 55.80 57.56 59.24 60.73 61.82 62.55 62.76 61.76 60.98 60.45 60.31 60.79 60.86 60.11 59.61 59.37 61.18 60.62 60.59 61.66 61.22 61.45 61.40
43.10 40.09 35.29 38.68 44.87 47.18 45.61 43.13 43.99 38.40 36.28 40.72 39.91 39.91 49.93 49.77 50.08 52.00 52.25 53.85 55.62 56.14 56.76 59.78 61.02 61.80 62.02 62.19 62.10 61.22 60.75 60.07 60.63 61.71 61.31 61.15 61.52 61.64 61.07 61.83 62.24 63.27 62.07 62.10
43.74 38.15 32.66 35.50 41.23 44.49 42.71 44.95 45.01 44.60 43.69 38.04 37.08 39.88 50.01 50.32 49.16 50.64 52.16 53.78 55.15 55.82 56.82 58.61 60.43 61.02 61.47 61.99 62.34 61.90 61.42 60.74 60.81 60.99 61.34 62.25 62.60 62.76 62.75 62.93 62.73 63.08 63.02 62.45
43.19 41.63 37.19 32.50 37.60 41.77 39.27 42.45 43.91 42.61 38.19 39.63 40.22 42.91 46.41 48.51 47.61 49.07 51.41 53.28 53.97 55.07 55.63 56.33 58.49 60.08 61.53 61.99 62.20 62.29 62.25 62.26 61.45 60.65 60.86 61.29 61.93 62.13 62.61 62.89 62.90 62.73 63.00 62.33
41.40 36.53 39.65 41.08 42.25 43.02 41.65 41.19 41.81 40.72 41.47 38.06 41.30 41.97 45.77 47.71 48.70 48.94 50.95 52.62 53.29 53.90 54.43 55.78 56.42 57.61 59.14 60.77 61.93 62.29 62.51 62.57 62.43 61.28 60.27 60.94 62.32 62.50 62.06 62.40 62.43 62.44 62.27 62.28
42.33 34.51 37.40 37.19 40.81 41.41 39.87 42.29 43.39 43.20 43.51 43.41 43.63 43.28 49.25 50.20 49.25 49.00 51.15 51.86 52.29 53.26 54.30 55.23 55.72 56.24 56.77 57.57 59.62 61.28 61.95 62.28 62.54 61.57 61.66 61.43 61.88 61.70 61.74 61.81 61.89 62.12 62.02 61.80
38.50 36.63 34.77 30.93 37.56 36.93 34.17 39.67 41.13 42.17 44.48 44.36 40.39 45.42 48.51 46.99 47.72 49.16 50.14 51.93 52.01 52.65 53.47 54.24 55.21 56.03 56.92 57.45 57.87 58.49 60.81 62.83 62.16 61.96 61.66 61.72 62.03 61.37 61.38 61.69 61.09 61.19 61.20 61.68
37.18 37.07 36.25 32.86 34.27 25.18 39.22 44.42 44.99 43.24 45.30 46.37 46.04 45.93 47.24 48.19 49.81 50.71 53.17 51.86 51.85 52.04 52.86 54.23 55.44 56.36 57.85 58.35 58.18 58.16 58.68 60.09 61.61 61.21 61.31 61.63 61.76 61.38 61.50 60.92 60.35 60.70 60.94 60.70
41.21 37.78 34.63 31.13 31.93 36.25 38.30 41.03 42.33 42.22 41.68 45.77 44.81 45.81 46.93 48.34 49.36 50.42 53.30 52.94 51.85 52.30 53.31 54.16 55.16 56.56 57.35 57.46 58.41 58.32 57.06 57.54 59.19 60.90 61.21 61.45 61.84 60.85 61.00 60.86 60.78 60.99 60.88 60.56
40.73 39.93 36.25 34.43 28.63 26.86 38.31 44.11 46.42 46.66 37.78 46.08 46.29 45.85 46.31 47.77 43.19 47.73 51.94 52.88 52.51 53.07 53.28 52.98 54.39 54.69 50.93 50.21 52.93 56.34 57.33 57.16 56.96 58.20 60.30 62.02 61.96 61.21 60.65 61.05 61.14 61.46 61.32 60.42
34.02 34.94 31.50 32.29 31.71 35.94 42.85 44.60 46.40 35.24 37.88 46.72 47.33 47.90 47.70 46.12 48.70 51.39 52.52 52.07 52.46 52.08 51.13 51.58 52.46 48.83 43.06 42.27 45.07 55.01 56.32 55.64 57.46 59.09 59.37 60.08 61.34 61.43 61.26 61.54 60.62 59.35 53.86 44.28
33.19 31.87 31.63 33.64 30.43 28.14 45.37 43.87 39.49 44.26 47.60 47.10 48.01 47.74 47.46 49.04 50.19 50.10 50.64 49.09 48.50 47.99 47.87 48.26 48.15 44.70 39.40 38.21 38.92 42.06 43.53 46.17 48.19 49.43 47.28 46.52 46.74 47.93 49.43 49.03 45.60 42.41 39.75 36.42
32.50 37.36 35.64 36.15 35.95 45.50 47.87 46.44 48.00 48.19 46.66 46.38 46.60 46.85 46.70 46.85 46.43 47.93 47.46 46.51 46.12 45.38 45.42 44.27 43.50 40.50 37.23 35.32 35.63 34.58 38.48 41.12 40.53 39.38 38.28 37.82 37.70 37.83 38.15 38.54 38.30 37.65 37.38 35.26
39.78 43.50 39.60 39.60 42.45 44.43 46.37 47.83 47.67 47.88 46.69 46.62 46.63 46.18 45.56 44.16 45.74 45.12 45.43 44.59 43.84 43.21 42.38 40.79 39.62 35.59 34.37 34.15 33.28 33.61 35.65 37.80 36.84 34.70 33.84 32.87 31.83 31.50 32.51 33.12 33.97 33.93 32.61 31.78
40.29 42.98 40.65 40.47 42.79 45.40 45.18 45.89 45.75 46.52 46.52 45.17 45.20 44.04 42.46 42.06 42.63 41.31 41.25 39.01 38.03 38.03 37.56 37.54 35.96 33.58 31.07 31.87 31.79 32.40 33.52 35.06 33.98 33.06 32.35 31.47 30.33 29.49 28.64 28.76 29.59 29.29 29.91 31.17
43.28 40.70 38.84 38.40 44.00 44.23 42.13 45.02 44.68 44.48 43.08 42.00 41.59 41.30 41.37 39.74 38.70 37.35 34.77 32.48 31.05 30.18 30.70 30.27 31.13 30.48 28.22 29.12 28.89 30.46 31.46 31.83 31.32 29.95 30.09 29.78 29.36 29.89 27.78 27.46 26.87 29.96 30.15 30.13

GFSCGP_sfc_wetblb_066.txt.gz
Wetbulb
45.62 39.84 36.46 42.38 44.57 45.30 44.00 42.28 41.87 45.49 49.04 48.03 47.23 46.95 48.61 51.46 51.96 53.31 53.87 54.83 55.52 58.08 60.77 61.76 60.60 61.02 61.63 61.94 61.29 60.72 60.00 59.24 58.91 58.71 58.20 57.58 56.96 57.64 58.51 58.33 58.12 58.56 59.91 60.16
41.95 36.82 42.20 44.94 45.65 44.14 43.14 40.99 41.49 46.14 48.89 47.30 46.69 46.16 48.76 50.07 51.41 52.48 53.20 54.55 55.49 57.41 59.82 60.71 59.75 60.09 61.06 61.15 60.71 59.99 59.50 57.84 58.62 58.45 58.26 58.49 57.43 57.23 57.41 58.68 58.20 59.36 59.47 59.10
39.41 40.95 43.69 42.84 43.61 42.78 42.80 41.27 42.14 42.89 46.61 47.86 45.99 44.02 46.23 49.19 50.34 52.03 52.86 54.52 55.81 56.88 58.74 59.66 59.19 59.22 60.43 60.90 60.34 59.76 59.21 57.50 57.63 59.01 58.52 58.28 57.82 57.40 56.43 57.46 58.19 58.57 58.56 58.44
40.95 45.27 41.99 40.84 41.92 43.37 39.50 44.79 44.26 44.37 43.44 39.20 46.56 37.77 45.48 48.16 48.24 49.96 51.73 53.70 54.22 55.08 58.81 60.16 59.25 58.68 59.79 60.57 60.66 60.13 58.95 57.44 57.20 58.41 57.85 56.87 55.89 54.55 55.35 57.04 58.00 57.97 58.87 58.41
39.46 41.74 39.10 38.53 40.84 45.04 41.64 46.79 45.02 44.91 42.72 42.37 42.29 40.15 43.81 47.56 46.35 48.61 51.15 53.35 54.39 55.70 57.49 59.81 59.54 59.57 60.11 60.83 60.40 59.89 59.12 58.09 57.56 57.42 57.70 57.17 56.21 56.44 56.41 56.59 57.17 57.43 57.54 58.78
41.13 45.16 43.05 41.86 43.92 45.54 46.59 43.66 44.03 44.61 42.61 35.70 40.66 40.68 41.33 45.00 47.25 49.35 51.88 53.43 54.26 55.30 56.99 59.68 61.05 60.81 59.93 60.60 60.27 60.27 59.31 58.19 58.64 57.58 57.67 57.05 56.18 56.52 55.49 55.23 55.81 56.71 56.78 56.89
38.64 39.58 43.57 44.79 40.79 44.15 43.36 39.40 33.18 32.82 33.89 33.31 42.62 40.73 43.42 48.41 50.13 50.89 51.52 52.33 54.64 56.63 57.35 58.48 59.99 59.75 59.43 59.46 59.82 59.33 59.34 58.56 58.71 58.09 57.29 57.62 56.97 56.99 56.12 55.02 55.07 55.97 55.76 55.45
32.99 31.79 40.82 44.46 42.05 39.83 40.15 38.61 34.29 28.85 31.78 35.31 43.15 38.27 43.36 50.76 51.91 52.55 52.34 53.98 55.04 55.63 58.02 58.15 59.87 60.37 59.75 59.26 59.97 59.32 58.58 58.24 58.62 58.16 57.63 57.48 57.36 57.10 57.25 57.20 56.16 56.28 56.53 56.29
33.76 33.85 43.99 44.45 44.91 44.44 39.70 35.67 42.52 37.85 38.96 35.20 40.81 43.75 48.51 50.74 50.32 50.89 51.58 52.67 53.31 55.66 56.94 57.51 59.54 60.64 60.36 59.33 59.53 59.32 58.81 58.51 58.92 58.65 58.13 57.69 57.67 57.10 57.06 57.44 57.59 57.29 57.32 57.04
38.93 32.14 41.17 43.34 44.94 44.61 43.16 44.76 35.70 38.21 29.51 29.35 38.83 40.76 41.55 47.20 48.63 50.32 50.86 52.76 54.76 55.80 56.42 57.77 58.78 60.69 61.08 60.28 60.18 60.49 59.49 58.91 58.88 58.65 58.11 57.94 58.05 58.63 58.16 57.50 57.17 57.02 57.31 57.34
41.77 38.18 37.46 42.80 40.07 39.41 40.57 39.26 40.21 40.24 38.16 33.22 32.59 38.04 49.80 48.66 50.43 50.94 52.13 53.49 55.36 56.06 57.11 58.03 58.80 60.96 61.47 61.19 60.09 60.00 59.82 58.91 59.11 58.67 58.32 57.69 57.89 58.38 58.73 57.90 57.65 57.63 57.55 57.63
42.65 39.62 34.08 36.87 44.15 44.74 43.49 40.64 41.04 35.06 34.75 38.27 37.37 38.67 50.57 49.97 49.68 50.90 52.09 53.76 55.03 56.35 56.42 58.36 59.61 60.51 61.12 61.13 60.54 59.82 59.67 59.21 59.70 59.69 59.09 58.13 57.99 58.34 58.63 58.60 58.78 58.92 58.18 57.80
38.77 37.19 31.35 33.64 39.43 42.97 40.61 42.34 42.55 42.24 40.34 35.98 35.05 37.44 50.10 49.64 49.27 50.19 50.66 52.69 53.43 54.61 55.93 57.90 59.73 60.02 60.69 61.02 61.28 60.60 60.20 59.42 59.81 60.47 59.53 58.98 58.48 58.07 58.54 59.55 59.21 59.24 59.07 58.84
41.06 37.55 35.77 30.85 34.65 39.53 38.39 40.98 42.29 41.75 35.91 36.95 37.66 41.71 44.83 47.60 48.42 49.08 49.96 51.76 52.88 54.06 54.72 55.32 56.48 59.66 60.78 61.18 61.30 61.63 61.20 60.70 60.05 59.85 60.01 59.31 58.81 58.84 58.44 59.47 59.99 59.43 60.25 59.44
39.52 34.31 37.66 38.43 40.62 41.36 39.73 39.71 41.52 38.83 40.16 36.36 39.62 40.80 45.15 47.26 48.44 49.08 51.19 51.63 52.67 53.41 54.05 54.51 54.92 55.59 56.58 59.17 61.24 61.68 62.11 61.88 61.20 59.98 59.07 59.16 60.18 60.61 60.48 59.91 59.93 60.18 60.13 60.08
40.21 34.65 36.17 35.03 40.59 40.95 39.24 40.81 41.53 42.03 42.42 41.44 42.14 41.48 47.30 49.99 50.42 49.66 50.42 51.38 51.00 51.54 52.66 53.95 55.02 55.73 56.05 56.71 57.14 57.38 61.02 61.84 62.13 60.70 59.83 59.98 59.72 60.46 60.13 60.22 60.46 60.55 60.28 59.82
36.79 35.40 33.40 31.15 36.46 36.68 34.43 39.79 40.72 41.52 42.70 43.56 37.62 42.25 46.00 47.53 47.29 48.55 50.20 50.29 49.89 50.35 51.48 52.51 53.44 54.88 56.02 55.50 56.23 56.18 57.49 58.00 61.49 61.15 61.08 60.83 60.32 59.64 59.85 60.06 59.90 59.46 59.24 59.37
36.14 34.49 34.13 31.15 33.08 25.85 39.09 44.99 44.63 42.73 43.00 44.51 45.18 45.70 46.99 47.59 48.86 50.92 51.32 50.11 49.85 50.62 51.07 51.65 52.85 53.66 51.57 50.47 50.43 51.34 53.64 57.05 57.57 59.23 60.93 61.24 60.86 59.98 59.82 59.54 59.04 59.11 59.17 58.68
40.18 36.12 31.38 30.70 30.53 34.56 37.40 40.88 41.42 41.60 40.82 44.15 43.78 46.13 47.01 47.94 49.27 49.20 51.62 51.61 50.82 50.89 50.64 51.12 51.63 49.04 46.86 44.93 46.38 50.13 54.20 55.14 57.07 55.43 57.23 60.60 60.82 60.21 60.07 59.09 58.56 58.93 58.44 58.21
39.34 39.90 33.38 32.39 27.95 25.66 37.94 43.56 45.89 46.01 36.24 45.09 45.58 45.51 45.74 46.77 42.02 44.63 50.24 50.42 49.54 49.57 48.79 48.74 48.59 45.27 42.12 41.09 43.25 46.48 46.65 46.50 45.58 47.28 51.26 51.92 52.22 60.28 59.54 59.46 58.85 58.76 58.86 57.80
32.87 33.94 30.36 30.71 29.39 34.22 41.83 44.68 46.31 34.92 36.68 46.11 47.06 46.69 46.76 44.94 46.60 48.34 49.41 48.27 47.87 47.58 45.93 46.47 45.57 40.91 38.25 38.25 39.73 39.72 40.41 39.68 41.90 43.30 45.16 45.61 45.18 48.32 50.25 54.51 52.47 55.04 44.33 39.04
32.08 30.64 30.67 31.58 29.24 27.23 44.94 43.75 38.73 43.46 46.22 46.45 46.05 46.20 46.31 46.99 47.19 47.63 46.99 45.97 45.27 44.51 43.32 42.95 41.84 39.63 37.60 36.48 36.09 36.46 36.03 38.03 38.39 37.17 36.89 37.15 37.64 39.13 43.78 43.55 41.99 41.13 39.09 36.37
31.84 36.45 34.06 34.70 34.13 44.98 47.18 45.82 47.40 47.54 45.41 45.78 45.68 45.82 45.87 45.54 44.87 45.52 44.47 43.47 42.35 40.87 39.97 40.00 38.89 36.16 35.14 34.28 34.16 32.96 35.22 36.39 35.05 33.61 32.37 32.26 32.28 32.86 34.31 36.23 37.26 35.97 34.76 32.92
39.76 42.90 37.75 38.36 40.69 43.88 45.26 46.39 46.87 46.83 45.25 45.44 45.16 44.09 43.35 43.03 42.39 41.99 39.67 37.23 35.87 34.55 34.64 34.66 34.05 31.21 30.64 31.18 31.40 31.74 34.16 34.65 33.51 31.57 31.02 30.66 29.56 28.87 29.93 30.35 30.09 31.02 31.68 30.44
38.08 41.16 38.71 39.25 42.01 43.73 43.46 44.23 45.47 44.27 43.98 43.72 43.64 42.16 40.43 41.12 38.93 38.30 34.16 32.38 31.46 30.28 30.68 30.50 29.12 27.86 27.77 28.69 28.95 30.79 31.89 33.60 31.46 30.53 29.64 28.91 29.06 28.60 27.68 28.29 28.41 27.95 28.76 29.21
41.40 39.52 37.94 36.79 41.57 40.98 40.12 42.49 44.19 41.30 40.00 40.45 39.47 39.72 38.74 38.20 36.10 34.45 30.23 29.02 27.77 26.78 27.22 26.70 26.70 26.70 27.25 28.21 28.56 29.47 31.09 31.67 30.68 29.59 29.02 28.37 27.71 27.65 27.48 26.43 25.94 29.95 30.25 30.06

GFSCGP_sfc_wetblb_069.txt.gz
Wetbulb
42.50 36.46 33.19 37.03 40.95 42.57 41.75 40.54 38.87 40.88 45.19 43.72 43.68 44.20 43.98 48.05 46.36 47.16 48.17 48.92 49.19 55.10 58.16 57.16 57.04 58.51 57.81 59.39 59.11 59.54 59.58 59.42 59.15 58.60 57.96 57.60 57.16 59.37 59.12 59.90 60.29 59.95 59.84 60.07
39.51 34.49 40.63 43.56 42.73 40.10 41.38 39.38 38.50 42.70 45.87 44.76 43.91 43.74 44.05 46.32 45.68 46.75 48.75 48.39 49.45 53.55 56.64 56.03 56.05 56.78 58.11 58.52 58.85 59.29 58.83 58.64 58.56 58.44 58.35 57.90 57.61 58.98 59.27 59.43 59.40 59.46 59.73 59.12
38.43 40.19 43.96 42.01 39.35 37.84 39.17 39.30 39.34 40.13 43.92 44.76 43.33 41.16 41.78 46.85 47.43 47.56 49.00 51.19 52.01 53.91 55.22 54.99 55.72 55.81 57.49 57.61 58.46 58.32 58.04 58.14 58.30 58.54 58.39 57.83 57.20 57.06 56.92 57.24 57.79 57.93 59.13 58.76
40.77 44.08 42.09 39.15 37.79 39.70 35.93 43.94 43.49 41.94 39.99 33.81 43.59 33.66 40.19 44.53 46.09 47.34 46.63 46.73 51.07 52.21 56.21 55.30 55.40 55.35 57.07 57.73 58.27 58.51 57.64 57.50 57.90 58.58 57.65 56.60 55.35 54.41 55.83 56.14 57.00 57.36 57.68 57.45
38.16 40.84 40.48 38.87 39.22 41.72 38.92 44.73 42.15 41.45 38.46 37.80 39.14 34.33 37.97 44.16 43.47 45.42 46.58 46.32 48.35 50.36 55.88 54.93 54.91 56.03 57.06 58.03 57.58 57.50 57.07 57.22 57.41 57.95 57.31 56.28 54.98 55.61 55.62 56.22 55.79 56.75 56.83 56.79
41.03 44.39 42.56 41.48 42.78 43.28 44.14 42.13 42.05 41.33 38.37 30.48 37.98 35.77 35.01 40.38 44.35 46.63 47.81 48.40 49.72 49.02 56.16 56.01 56.02 56.96 56.85 58.00 57.29 57.06 56.71 56.68 57.05 57.63 57.45 56.43 55.09 54.72 53.60 54.50 55.69 56.28 56.23 56.55
38.05 39.15 41.97 43.52 38.87 42.59 41.70 37.73 32.01 30.28 28.92 28.00 40.33 37.34 38.94 44.62 48.11 48.88 47.99 47.47 48.55 50.22 55.95 55.59 55.03 55.60 56.21 56.67 56.70 56.46 55.90 55.62 56.79 56.73 57.01 56.32 55.56 54.92 53.65 53.83 54.91 55.38 55.53 55.88
31.31 29.54 38.48 42.43 39.34 37.49 38.14 37.29 32.14 26.98 27.91 31.85 41.11 33.88 39.46 47.21 49.48 50.86 48.86 48.59 50.02 50.75 56.01 55.95 55.80 55.78 56.19 56.73 56.55 56.94 56.00 55.60 56.87 56.69 56.24 57.11 56.96 55.97 55.41 54.62 55.24 56.12 56.09 56.18
31.33 33.00 41.73 43.44 43.96 42.77 37.97 34.26 40.16 33.16 34.91 31.27 35.88 40.80 45.13 47.42 48.07 48.40 48.61 49.03 47.58 49.52 52.01 56.11 56.51 56.45 56.31 56.52 56.33 56.20 56.85 56.37 56.86 56.81 57.07 56.79 56.87 56.55 55.94 55.65 55.18 56.10 56.61 56.63
36.58 30.45 39.94 42.76 43.92 44.07 40.91 42.51 33.05 33.56 28.13 26.91 34.29 37.49 37.69 43.72 46.08 47.91 47.58 47.32 48.58 49.84 50.30 54.86 56.88 56.58 56.76 57.56 57.27 56.67 57.19 56.90 57.23 56.96 57.63 57.14 57.03 56.92 56.98 57.11 55.97 55.41 55.75 56.79
38.14 35.86 35.09 40.57 38.64 37.27 38.39 36.68 37.48 37.38 35.42 30.13 29.85 35.02 45.48 44.27 46.49 47.91 49.03 49.60 49.52 50.20 51.17 52.00 56.94 57.27 56.86 57.33 57.25 56.62 56.23 56.27 56.83 57.29 57.46 57.28 57.29 56.98 57.06 56.88 57.29 56.98 55.98 56.17
38.55 35.75 31.67 34.97 41.76 43.42 41.80 39.08 38.34 33.04 33.05 35.51 31.67 33.83 47.45 45.84 46.87 47.89 48.22 49.69 50.73 51.71 52.58 52.85 56.86 56.98 56.20 56.53 57.14 56.87 56.64 56.26 56.81 57.17 56.94 56.50 57.54 57.79 57.36 57.03 57.07 57.36 57.09 57.19
37.89 33.96 29.23 31.47 37.49 41.34 38.13 40.18 40.87 39.60 38.61 34.97 32.26 34.27 47.91 48.25 47.47 48.19 47.62 48.84 51.20 51.81 52.23 52.82 54.56 55.28 56.45 56.40 56.88 57.27 57.01 56.72 57.06 57.27 56.54 56.15 56.44 57.19 57.23 57.65 58.06 57.68 57.22 56.94
40.67 35.12 32.60 28.78 33.33 38.31 34.90 38.67 40.69 38.94 34.38 35.22 36.37 39.36 43.75 45.93 46.26 46.78 47.82 49.71 50.61 51.09 52.25 52.68 52.72 53.44 54.94 55.76 56.41 56.98 57.19 57.45 57.41 57.57 56.94 56.03 55.71 56.16 56.84 57.67 57.87 57.95 58.00 57.34
38.69 31.91 35.30 35.82 36.71 38.52 38.83 36.47 39.20 37.29 38.01 36.28 39.05 39.46 43.75 45.73 46.30 47.51 48.51 49.18 49.79 50.63 51.35 51.54 52.47 52.51 52.25 52.88 53.41 54.62 55.64 57.38 57.45 57.35 57.44 57.04 57.07 56.81 56.69 56.73 57.42 58.50 58.09 57.76
38.75 32.22 34.31 32.32 37.54 37.78 36.84 39.50 40.01 40.72 40.63 40.19 40.65 40.16 45.82 48.74 48.80 48.23 47.95 48.29 47.93 48.83 50.06 51.39 51.09 49.98 48.99 48.51 49.49 50.93 52.12 54.47 56.73 57.26 56.75 57.95 57.83 57.59 57.02 56.82 56.84 57.35 58.30 58.03
35.88 33.28 31.54 27.98 34.97 34.28 31.20 37.33 39.36 40.88 42.13 41.10 37.11 42.53 47.01 45.93 46.65 46.55 46.18 47.41 47.19 47.77 48.87 49.02 47.45 45.74 44.83 43.97 45.54 46.05 51.44 51.90 53.41 52.65 53.26 56.88 57.64 58.07 57.89 57.88 57.31 56.98 57.35 58.28
34.13 33.63 32.72 28.13 31.57 24.58 37.27 42.28 43.75 41.42 42.87 42.91 43.57 44.99 45.97 46.88 47.98 47.81 47.35 46.21 45.54 45.92 47.24 45.84 43.90 42.16 41.32 40.91 41.83 46.02 46.83 46.63 47.26 46.95 48.13 49.64 49.09 50.55 55.63 58.32 58.17 58.33 58.46 57.83
36.55 32.96 27.30 25.18 28.13 33.06 36.59 39.98 39.15 39.47 37.81 43.56 42.89 44.40 46.74 47.93 46.99 44.63 46.12 45.92 44.09 43.76 45.09 43.25 41.13 39.79 38.78 38.50 40.28 41.95 41.86 42.18 42.57 42.53 44.48 45.25 44.34 45.02 48.38 52.86 57.28 58.08 57.62 57.47
36.04 34.77 28.87 27.50 24.85 25.48 36.51 42.05 45.18 44.77 34.20 43.07 45.26 44.84 45.58 45.95 38.72 40.44 43.96 44.79 42.62 42.80 42.88 40.19 38.55 37.49 36.37 36.48 38.98 39.05 38.97 38.83 38.64 39.25 39.60 40.11 39.89 40.86 41.33 44.63 45.34 56.00 57.38 56.98
28.52 28.92 27.23 25.96 25.62 31.38 40.29 43.40 45.32 32.82 35.48 44.50 45.05 44.65 43.70 41.27 42.30 43.82 43.67 41.85 40.84 40.04 39.53 39.84 37.17 33.95 34.00 34.63 36.34 35.88 36.43 35.71 36.35 36.57 35.89 35.20 35.27 36.30 36.56 40.11 41.54 43.04 45.21 41.83
29.83 26.60 26.92 28.33 25.00 23.87 43.42 43.43 37.80 40.84 43.80 43.66 43.54 44.37 42.94 43.61 42.98 40.52 39.17 36.57 35.93 34.82 35.02 35.44 33.68 32.10 31.72 32.28 32.52 32.88 33.33 35.31 34.73 33.47 31.92 31.43 31.72 32.73 32.77 32.94 35.43 36.68 36.76 33.95
30.55 31.98 29.01 31.12 29.15 41.28 44.45 43.26 45.45 45.06 42.41 41.61 40.85 41.99 41.79 40.50 37.63 36.06 34.36 32.85 31.89 31.76 31.30 32.29 30.87 29.66 29.73 30.15 30.82 30.46 32.31 33.93 32.69 31.11 29.53 29.45 29.62 30.30 30.39 29.46 30.10 31.84 32.66 31.98
36.71 39.82 34.12 35.83 36.63 41.00 43.21 43.83 43.82 43.02 41.31 40.68 40.17 40.07 39.16 37.10 35.23 32.56 31.10 30.02 29.59 29.41 28.72 29.52 28.72 27.63 27.66 29.20 29.90 30.84 32.12 32.47 31.36 29.09 28.51 28.18 27.66 28.04 29.05 29.09 28.43 27.96 28.51 28.44
36.10 37.60 36.67 37.22 40.30 40.59 41.82 41.05 40.42 40.46 41.42 39.75 38.37 37.54 37.01 34.93 31.29 29.71 27.87 27.44 27.28 27.13 27.47 27.39 26.94 26.90 27.04 28.32 28.54 29.59 31.55 31.84 30.07 29.38 28.68 27.85 27.49 26.93 26.59 27.29 27.62 27.23 28.35 28.40
36.84 36.87 34.27 33.88 38.83 37.15 37.57 39.16 40.32 38.17 36.30 36.32 35.37 32.77 33.01 31.77 28.25 26.91 25.38 25.93 25.50 24.94 25.74 25.71 25.92 25.98 27.02 27.85 28.04 28.42 30.15 30.88 30.14 28.78 28.57 28.48 27.40 26.14 25.55 24.59 24.70 29.26 29.67 30.25

GFSCGP_sfc_wetblb_072.txt.gz
Wetbulb
40.31 34.31 30.68 33.85 36.55 39.13 38.62 37.14 36.00 39.11 44.29 41.56 40.63 41.29 44.35 46.45 46.80 44.31 45.62 45.37 50.87 53.94 56.49 56.38 57.76 57.90 58.54 58.03 57.79 58.24 58.99 58.74 58.08 58.50 58.08 58.43 58.31 58.97 59.35 60.78 60.74 60.05 62.01 61.36
37.26 33.01 37.91 40.40 40.51 39.46 38.32 36.10 35.29 40.51 44.39 42.18 39.66 39.97 43.90 45.66 45.43 45.55 46.95 46.89 48.35 53.57 54.10 54.96 56.53 56.92 58.01 57.30 57.49 57.93 58.33 58.83 58.67 58.04 58.30 57.67 58.05 59.22 59.58 59.89 60.49 60.20 60.20 61.30
34.87 38.44 42.13 40.66 39.24 37.98 37.08 36.04 36.73 38.07 42.39 41.83 39.31 37.50 40.64 45.63 45.27 45.46 46.59 48.76 48.45 53.75 53.99 53.69 55.52 55.87 57.56 57.44 57.34 58.31 58.12 58.60 58.55 58.58 57.48 56.36 57.40 58.11 58.11 58.51 58.87 59.55 59.94 59.31
39.07 42.48 41.23 38.62 37.53 39.22 33.77 40.94 41.48 40.26 38.42 31.41 40.12 29.42 38.97 43.72 43.69 44.92 44.92 45.59 46.92 53.24 55.35 54.29 55.00 55.22 56.68 57.48 57.80 57.78 57.76 58.07 58.23 58.40 57.22 55.72 55.29 55.12 56.96 57.68 58.64 58.58 59.30 58.53
36.44 39.39 38.99 38.38 38.17 40.09 36.80 42.51 40.62 40.64 36.17 34.66 36.62 32.37 37.48 42.91 41.80 43.57 45.29 44.67 46.00 53.52 54.96 54.07 54.52 55.87 57.05 58.16 57.75 56.94 56.96 57.12 57.17 57.83 57.13 56.26 55.84 56.16 56.87 57.38 57.40 57.78 58.15 57.53
38.89 42.92 41.55 40.20 43.24 43.18 42.40 40.55 40.63 40.17 36.76 28.86 35.69 35.46 35.27 38.89 42.17 44.43 46.55 47.03 46.27 53.21 54.79 54.98 55.34 56.45 56.68 57.30 57.67 56.36 55.66 55.86 56.78 57.63 57.08 56.20 55.46 55.38 55.11 55.54 55.72 56.20 57.09 56.68
35.70 37.96 40.33 43.27 38.60 41.70 40.38 37.30 31.01 29.60 28.94 26.76 38.72 36.26 38.02 43.43 45.66 46.17 46.85 47.89 47.01 53.55 54.24 53.39 53.32 54.36 56.22 56.02 56.20 56.25 55.76 55.38 55.96 56.71 56.75 56.29 55.50 55.30 54.81 55.30 55.08 55.41 55.40 56.19
27.29 26.65 37.62 41.79 39.18 36.98 37.85 37.30 31.87 24.81 25.95 29.58 39.41 31.98 38.00 46.01 48.30 48.54 48.20 47.60 46.85 53.10 53.88 53.13 53.99 54.55 55.76 56.04 56.29 56.43 55.92 55.31 55.84 56.84 56.74 56.85 56.13 55.60 54.26 54.36 55.28 55.12 55.77 56.27
28.05 30.74 39.17 41.09 42.32 40.66 36.87 34.30 39.60 33.48 34.15 30.11 34.37 38.23 44.60 47.01 47.52 48.03 47.33 47.36 46.85 52.39 53.07 53.15 54.28 55.03 55.66 55.98 55.88 55.92 55.36 55.49 55.38 55.98 56.91 56.75 56.28 55.26 54.22 53.93 54.58 55.33 56.03 56.70
33.84 28.23 37.24 40.88 43.48 43.18 40.45 41.95 32.53 34.34 26.54 26.33 32.70 35.50 37.71 42.92 45.55 46.81 46.90 47.09 47.52 49.53 53.00 53.95 54.51 54.86 55.74 56.43 56.29 55.94 55.60 55.46 55.77 56.44 56.42 56.81 56.77 56.75 55.98 54.66 53.83 54.84 55.54 55.75
36.49 33.45 32.72 39.56 37.48 36.29 38.14 36.83 37.34 36.42 34.53 30.00 28.40 34.58 43.84 43.19 45.18 45.26 46.52 48.28 48.75 49.64 49.48 53.88 54.72 55.12 55.56 56.27 55.83 55.92 55.70 55.52 55.69 56.41 56.14 56.46 56.53 56.78 56.83 55.85 54.75 54.55 55.17 55.55
36.58 34.01 29.46 33.62 41.55 42.69 40.83 37.86 37.72 33.86 31.47 33.80 31.86 33.36 44.84 46.20 47.31 47.33 47.82 48.87 49.96 50.91 52.25 53.65 53.91 53.77 55.04 54.98 55.26 55.34 56.09 56.18 56.28 56.34 56.30 56.02 56.72 56.90 56.20 56.46 56.57 56.10 55.13 55.52
36.28 32.43 27.41 30.29 36.17 39.69 37.28 39.58 39.34 38.66 37.49 34.12 31.31 33.18 46.55 47.66 47.70 47.68 48.17 48.79 50.00 51.12 51.82 52.30 52.73 53.36 53.53 54.59 55.65 55.55 55.20 54.99 56.54 56.71 56.23 55.60 55.73 56.45 56.41 56.46 56.96 57.30 57.00 56.24
39.38 33.11 30.74 27.20 32.23 36.49 35.95 37.43 38.81 38.05 33.42 32.72 34.62 37.74 42.29 44.67 46.09 47.25 47.36 48.74 49.52 50.56 50.81 49.98 49.64 50.49 50.98 52.32 52.67 53.45 54.83 55.74 55.96 56.40 56.19 55.54 55.32 55.72 56.08 56.89 57.26 57.13 57.32 57.00
36.32 28.78 33.23 35.14 35.85 35.90 37.01 37.23 38.02 36.89 37.04 34.33 37.13 38.51 42.73 45.27 46.69 47.70 47.64 48.04 48.79 48.60 47.15 47.08 46.82 46.44 46.87 48.24 49.03 51.94 52.54 53.49 56.23 56.43 56.22 55.82 55.71 55.88 56.23 56.23 56.63 57.30 57.20 57.14
36.91 29.35 31.89 31.14 36.07 36.09 33.71 37.19 38.80 37.62 38.84 38.28 39.14 38.77 45.76 48.11 48.45 47.20 46.95 46.73 46.81 46.39 45.92 44.30 43.15 42.59 41.99 42.94 45.27 47.40 47.92 48.50 49.56 49.66 52.63 54.12 56.22 56.24 55.71 55.81 55.88 56.26 56.29 56.55
33.77 31.39 28.98 25.75 32.43 32.53 30.09 35.55 38.41 38.37 40.82 40.12 37.05 41.76 45.67 45.67 46.02 45.79 44.51 45.32 44.97 43.77 42.34 41.10 40.45 39.34 39.17 39.74 42.50 42.30 43.78 45.04 44.62 45.52 46.85 46.23 47.62 48.62 53.66 56.11 55.96 55.63 55.65 56.45
32.43 31.27 30.18 26.29 29.10 22.57 35.14 39.10 40.18 40.01 41.89 43.14 42.41 43.77 45.79 43.51 43.92 43.93 43.77 42.93 42.45 40.91 38.97 37.81 37.11 36.57 36.89 38.24 39.62 41.02 41.09 41.25 41.30 41.83 42.25 42.76 43.13 44.05 45.55 48.17 50.10 56.27 56.24 55.82
35.56 31.15 24.45 23.40 24.22 29.16 33.48 39.23 39.31 39.01 38.41 43.14 42.90 45.68 44.65 43.18 42.12 39.65 41.47 41.76 40.62 38.83 37.08 35.96 35.51 34.75 34.87 35.27 38.54 38.97 37.79 37.34 36.86 36.71 37.73 38.53 39.10 40.73 41.67 42.56 44.06 45.65 47.50 56.40
34.10 32.60 26.99 26.73 21.98 20.94 34.09 40.56 44.19 44.12 34.39 43.40 45.77 44.64 43.46 43.43 35.45 35.95 38.78 38.22 37.86 37.13 35.80 33.90 33.39 32.99 32.42 33.43 36.57 36.31 35.12 34.64 33.66 33.25 33.69 35.33 35.95 37.31 36.37 38.74 39.93 41.24 43.65 45.57
26.91 27.26 25.17 24.52 22.97 27.41 37.39 42.65 44.89 32.64 35.21 44.77 46.19 45.91 43.68 39.15 38.51 36.99 36.61 34.85 34.91 34.38 33.76 33.76 32.15 30.62 30.93 32.55 34.59 33.72 33.90 32.02 32.31 31.98 31.53 31.59 32.68 33.58 33.48 34.96 36.28 37.08 35.64 34.36
27.68 26.47 23.85 25.04 23.02 21.31 40.05 42.73 35.56 41.31 43.39 44.23 43.42 41.84 38.73 37.44 36.24 34.50 33.26 31.95 31.36 31.32 31.79 32.20 30.65 29.67 30.56 31.63 32.54 31.70 31.54 32.32 31.53 30.56 29.34 29.19 30.44 31.05 31.17 31.90 32.99 33.37 32.61 31.01
28.33 32.80 29.02 28.57 27.79 39.05 42.12 42.19 44.16 43.30 40.44 41.09 40.40 40.31 38.27 35.19 33.17 31.87 30.08 29.33 29.00 29.07 29.56 30.21 29.39 28.83 29.23 30.22 31.13 30.26 30.91 31.45 30.18 28.78 28.09 28.26 28.13 28.74 29.16 28.74 29.42 29.84 30.53 29.80
36.23 38.74 34.72 34.27 35.55 38.48 39.68 40.83 40.57 39.97 38.14 39.36 38.67 37.77 35.71 32.15 30.86 29.01 28.56 28.14 27.42 27.47 27.33 28.46 28.13 27.13 27.23 28.84 29.24 30.98 31.78 31.07 29.62 28.27 27.67 27.20 26.76 26.65 27.68 28.28 28.36 27.81 27.72 27.90
34.70 36.04 36.39 35.79 37.39 36.91 37.47 38.06 38.66 37.91 36.79 35.24 35.15 33.80 31.61 30.12 28.06 27.51 26.50 26.22 26.21 25.95 26.18 26.23 25.94 26.00 26.32 27.24 27.45 28.56 30.46 30.42 28.75 28.56 27.84 26.51 25.56 25.12 25.53 26.53 27.14 27.09 28.57 28.68
34.57 32.22 32.64 31.92 35.06 36.30 36.72 36.97 36.49 34.12 33.89 33.33 30.59 28.66 28.88 27.76 25.80 25.42 24.52 25.07 24.27 23.32 22.99 22.07 22.71 23.19 24.59 25.53 25.22 25.92 28.04 29.00 27.57 26.22 25.19 24.86 24.27 23.89 23.68 23.38 23.72 28.01 27.78 28.60

GFSCGP_sfc_wetblb_075.txt.gz
Wetbulb
38.73 32.60 29.61 31.84 34.47 36.92 36.55 34.98 33.25 35.29 40.81 39.55 38.84 39.05 41.02 43.01 42.62 42.23 44.61 46.11 43.60 50.57 54.83 54.43 56.97 57.83 57.72 58.18 57.98 57.84 57.36 57.10 58.38 58.97 58.73 57.48 57.99 58.71 60.00 61.40 61.83 60.86 59.48 58.59
35.02 31.57 36.41 37.62 37.10 36.55 36.49 34.18 33.66 37.96 41.53 41.65 37.30 37.43 41.51 43.52 42.86 44.69 45.41 46.05 44.54 48.97 51.81 55.09 56.16 57.26 57.40 57.78 57.90 57.78 56.96 57.30 58.57 58.36 58.32 58.52 58.33 58.93 59.63 60.35 60.49 61.78 60.22 58.75
32.21 35.86 41.13 38.45 36.78 35.69 35.72 33.83 34.56 35.21 40.46 41.82 37.65 36.82 39.38 43.21 44.15 45.31 45.26 46.33 47.25 50.83 51.41 54.39 55.29 56.18 57.10 56.64 56.48 57.20 56.66 56.94 57.70 57.88 57.72 57.34 57.94 58.35 58.01 58.57 59.37 59.94 61.30 59.76
36.18 40.14 39.76 37.31 36.44 37.39 32.66 38.70 38.44 38.46 36.82 31.12 37.67 28.13 36.59 40.19 42.10 43.82 44.41 44.05 45.97 51.34 53.32 54.57 54.93 55.30 56.56 56.60 57.35 57.48 57.93 56.92 57.30 57.81 56.75 56.32 56.01 55.82 57.15 58.46 59.15 59.43 60.26 60.45
35.40 38.02 37.68 36.60 37.53 39.53 35.78 40.59 39.24 39.06 36.32 35.10 34.85 30.65 34.91 40.38 40.49 43.50 44.58 44.42 44.93 50.16 53.50 53.11 54.79 55.53 56.88 57.31 57.53 57.95 57.36 57.78 57.38 56.62 56.56 56.26 55.46 55.78 57.02 57.73 57.92 58.35 58.55 59.03
37.47 41.46 40.41 39.04 41.02 41.22 41.77 39.89 39.19 38.50 36.68 29.94 33.60 32.45 31.21 36.16 41.37 43.92 45.62 45.79 44.94 46.77 53.07 54.03 55.19 56.02 56.76 57.57 57.20 56.66 56.01 56.13 56.97 56.00 55.66 55.38 55.38 55.44 54.39 56.46 56.76 57.36 57.52 57.08
34.52 36.72 39.08 41.93 36.64 40.33 40.50 36.36 29.33 27.99 28.39 27.18 35.85 33.19 35.32 41.11 44.62 46.07 46.78 47.41 46.71 47.08 51.90 52.77 53.13 54.68 56.21 56.30 56.43 55.99 55.78 55.01 56.21 56.04 54.98 54.32 54.69 55.40 55.33 55.84 56.30 56.20 56.76 57.00
26.76 24.27 36.38 40.61 37.43 36.02 36.89 35.76 30.10 23.71 25.12 26.90 37.28 30.85 36.53 44.79 47.27 47.49 47.97 46.58 46.73 45.72 52.09 52.68 53.20 54.71 55.66 56.45 56.17 56.04 55.47 55.13 55.93 56.58 55.86 54.78 54.77 55.90 55.68 55.77 56.13 56.33 56.60 57.27
26.46 27.87 37.65 39.98 40.58 39.85 37.28 33.37 38.64 33.56 33.81 28.12 31.35 37.65 42.83 46.38 46.03 46.61 46.60 46.48 44.82 45.95 52.10 52.48 53.33 54.82 55.31 56.22 56.10 55.96 55.53 54.93 55.96 55.77 56.39 55.09 54.81 54.54 54.88 54.59 55.58 56.13 56.66 56.97
32.29 26.91 35.18 38.63 40.98 40.68 39.16 41.32 32.38 34.46 25.65 24.23 30.36 34.22 35.57 40.37 42.65 44.79 45.67 46.27 47.00 49.54 51.01 51.87 53.17 54.56 55.69 56.02 56.54 56.50 56.33 54.62 55.42 55.54 55.99 55.68 55.15 54.77 53.78 53.03 53.10 54.60 55.11 55.82
35.51 31.24 30.97 38.32 35.85 35.47 37.54 36.40 36.68 36.15 33.77 28.65 27.01 33.63 42.64 42.80 45.17 43.97 45.54 48.10 49.18 48.49 51.24 52.32 52.71 53.72 55.25 55.46 56.10 55.72 55.48 54.95 54.87 54.82 55.81 56.12 54.99 55.27 55.70 53.99 53.05 53.73 53.91 54.24
36.87 33.46 28.83 31.73 38.21 41.14 39.84 37.38 37.43 32.29 30.30 32.05 32.41 32.71 45.08 45.57 46.65 45.62 46.43 48.98 49.39 51.13 51.95 52.60 53.61 54.14 54.09 54.04 55.43 55.19 55.33 55.16 55.02 54.99 55.82 54.87 55.05 56.21 56.21 55.84 54.42 53.69 53.73 54.40
37.35 31.44 25.50 28.32 34.25 38.32 36.39 38.51 38.75 37.91 36.38 32.74 29.37 32.91 45.84 46.08 46.98 47.70 46.88 47.74 47.31 47.23 47.81 49.04 49.86 50.51 51.69 53.45 54.56 54.90 55.16 55.50 55.84 56.34 55.79 55.41 54.09 54.47 54.95 56.04 56.35 55.82 54.39 53.85
38.77 31.89 28.91 23.87 30.08 35.84 33.28 36.44 38.66 37.63 32.91 32.92 33.67 37.57 40.85 42.59 44.06 46.06 46.02 46.26 45.31 45.02 45.21 44.69 44.77 46.10 48.23 50.60 51.88 52.10 52.53 54.85 55.78 56.16 55.71 54.95 54.21 54.59 54.79 54.87 55.43 56.09 56.74 55.77
34.40 27.78 31.55 33.34 34.30 34.51 33.95 33.93 36.46 35.13 36.44 33.86 35.14 36.48 41.42 43.46 44.33 45.73 47.20 46.23 43.46 42.12 42.86 42.94 42.24 42.74 44.14 46.31 46.93 47.89 49.15 48.92 50.65 55.50 55.30 54.68 54.94 54.77 54.57 54.61 55.33 55.61 55.55 56.17
35.74 28.52 30.44 28.88 33.41 33.57 30.61 33.48 35.02 36.03 37.89 37.40 37.50 36.33 45.00 47.41 47.90 46.86 46.22 43.90 41.29 39.73 39.38 38.94 39.60 39.70 40.02 40.67 41.92 43.34 43.66 44.71 46.72 46.35 46.35 46.74 48.25 51.60 55.48 55.11 55.19 55.45 56.08 56.10
32.73 30.44 27.48 23.19 29.00 29.11 26.29 32.64 32.99 35.67 39.82 38.56 34.28 40.01 45.26 45.76 46.05 45.58 44.27 41.89 39.27 37.97 37.04 36.44 36.21 36.38 37.45 38.80 39.87 39.28 40.02 41.60 41.87 42.17 42.76 43.10 44.26 45.09 45.70 47.73 50.38 54.34 55.41 56.15
31.99 30.68 28.40 23.96 26.75 18.34 31.59 36.31 39.90 37.59 40.00 41.38 41.81 43.52 45.21 41.82 40.79 41.73 43.27 40.19 37.68 36.37 35.46 34.72 34.69 34.67 35.03 37.50 38.32 37.83 37.29 36.48 36.87 37.20 37.77 38.91 39.97 41.44 42.06 43.47 44.19 44.48 45.90 48.76
34.59 30.27 24.73 21.00 21.95 26.18 29.74 37.47 38.16 37.78 38.57 43.46 42.77 43.20 39.82 38.94 38.47 36.44 39.39 38.48 36.33 35.02 34.40 33.73 33.51 33.76 34.29 35.92 36.39 35.43 34.22 33.79 33.33 33.07 34.21 35.40 36.47 37.30 37.57 38.51 39.05 40.54 42.83 41.56
32.96 31.84 26.44 25.14 20.10 17.18 30.66 37.01 42.87 41.45 34.03 43.01 44.69 42.13 39.77 42.15 34.63 34.37 36.60 36.20 34.42 33.69 33.25 32.44 32.35 32.25 32.45 33.96 35.53 33.20 31.76 31.25 30.32 30.51 31.16 33.34 33.92 33.79 34.15 35.84 35.89 37.01 36.78 34.55
26.42 26.84 24.80 23.06 21.65 25.21 34.22 37.51 41.16 29.13 34.95 43.84 45.78 42.97 43.10 38.80 38.30 34.99 34.78 33.28 33.45 33.19 32.39 32.49 31.38 30.33 31.04 32.96 33.66 31.61 30.16 28.73 29.45 30.34 30.33 30.72 31.24 31.54 32.01 33.06 33.87 34.05 33.03 32.12
28.03 25.34 21.77 23.99 23.25 20.12 38.87 40.17 33.53 37.69 42.61 41.45 41.48 39.49 35.29 34.71 33.77 32.67 31.73 31.21 31.06 30.01 30.35 30.65 29.58 29.19 30.35 31.55 32.08 30.11 29.17 29.14 29.35 29.01 28.58 28.53 29.09 29.93 30.71 30.83 31.37 31.78 31.43 30.19
21.16 30.12 28.91 28.02 27.12 37.01 38.13 39.03 40.40 42.05 40.10 39.44 38.74 37.56 35.47 33.58 32.04 30.62 28.81 28.45 28.40 28.48 28.53 29.05 28.68 28.61 29.06 29.84 31.08 29.43 29.41 29.01 28.37 27.12 26.74 27.24 28.15 28.56 28.82 28.54 28.25 28.14 29.05 29.02
33.77 36.83 33.03 33.63 35.54 35.60 36.64 36.46 36.53 38.70 39.16 39.26 39.18 37.04 34.75 31.20 29.85 28.15 28.02 27.28 26.81 27.48 27.38 28.01 27.40 26.43 26.61 27.90 28.40 29.81 30.58 28.92 27.70 26.03 25.43 26.51 26.46 26.39 27.22 27.56 27.88 27.13 26.79 26.32
33.27 32.37 32.66 33.38 35.98 35.65 35.00 35.66 35.10 34.33 34.41 33.15 32.59 32.00 30.54 29.14 27.54 27.20 26.26 25.76 25.17 24.41 25.03 25.42 25.45 24.90 24.74 25.70 25.77 27.34 29.08 28.52 26.42 26.12 25.46 24.76 25.08 25.36 24.90 25.63 26.03 25.88 27.17 27.52
33.18 30.51 27.97 30.46 36.83 35.61 33.60 34.15 34.41 32.23 30.84 30.33 28.84 27.29 27.90 26.81 25.56 25.60 23.90 23.82 22.66 21.95 22.77 22.73 23.11 22.99 23.99 24.30 23.67 24.06 25.66 27.90 25.50 24.27 23.78 22.91 22.61 22.24 22.23 22.29 22.70 26.17 26.29 26.94

GFSCGP_sfc_wetblb_078.txt.gz
Wetbulb
37.53 32.36 29.57 30.57 33.93 34.44 34.31 32.34 31.18 32.58 39.02 37.52 37.85 37.31 39.01 40.55 40.64 40.72 41.81 42.07 42.07 44.53 50.86 54.17 57.03 57.15 56.83 56.75 57.99 58.28 58.68 58.87 58.15 57.40 57.25 57.93 57.59 58.90 60.16 61.49 62.16 61.05 60.96 61.82
34.57 30.38 34.80 36.14 35.38 33.96 32.72 31.01 31.56 35.92 39.29 38.46 36.60 36.88 41.31 41.74 41.18 42.38 43.45 43.38 43.72 43.76 49.72 52.81 55.89 56.59 56.77 58.11 58.31 57.80 58.39 57.86 58.15 58.99 58.52 58.40 58.32 58.77 59.76 60.64 60.03 59.49 58.82 58.70
31.78 34.77 39.35 37.00 35.27 33.49 33.33 32.05 32.61 33.17 37.39 39.20 36.56 35.36 37.79 41.31 41.81 42.76 43.70 44.71 44.81 44.52 48.20 52.82 54.73 55.97 56.57 57.69 57.85 57.63 57.60 57.41 57.35 58.59 57.86 57.53 57.79 58.35 58.21 59.24 60.04 59.51 59.11 58.44
35.38 39.03 37.75 36.71 35.15 35.43 30.79 37.38 36.75 35.28 34.76 28.41 35.99 27.57 34.63 38.74 41.19 42.19 43.45 43.23 43.89 44.36 49.45 53.14 54.09 55.03 56.30 57.34 58.19 57.62 56.87 56.43 57.70 57.99 57.09 56.49 55.65 55.82 57.12 58.61 59.54 60.14 59.27 58.08
34.96 37.87 37.43 35.51 36.21 38.02 34.79 39.13 37.95 37.51 34.11 33.13 33.38 29.55 32.31 37.88 37.22 40.30 43.14 44.34 44.31 45.08 51.24 53.14 54.38 55.31 56.42 57.34 56.62 56.34 56.06 56.44 56.93 57.07 57.01 53.78 54.77 55.53 57.28 58.09 58.47 58.84 59.71 58.63
37.33 41.25 39.97 38.50 40.18 40.33 40.34 38.13 37.71 36.33 33.64 27.57 32.02 30.88 30.00 35.27 38.82 41.12 43.80 45.04 45.53 43.76 51.69 53.34 54.36 55.39 56.76 57.26 56.56 56.56 57.33 57.21 56.82 56.38 56.54 53.59 54.68 55.41 55.16 55.76 57.17 57.51 57.91 58.85
34.00 36.15 39.13 41.26 35.85 39.28 37.83 35.12 26.65 26.63 27.16 25.62 34.56 31.52 33.85 40.76 42.58 43.32 44.05 44.97 45.78 45.66 47.62 51.54 53.01 54.58 56.14 56.02 56.81 57.04 56.25 55.57 55.68 55.57 55.61 55.27 53.39 54.15 53.29 55.99 56.75 56.99 56.87 56.65
27.15 24.78 36.00 39.81 36.86 34.13 35.21 34.32 26.41 22.50 24.61 26.77 35.23 28.40 34.74 44.39 46.09 46.42 46.77 46.84 47.14 45.05 47.24 51.39 53.20 54.70 55.43 56.23 56.30 56.13 55.50 55.20 55.55 55.03 55.07 54.19 53.17 53.62 53.85 55.59 56.44 57.08 57.12 57.30
25.80 26.57 37.05 39.36 39.41 39.06 36.40 34.44 37.39 32.41 32.44 29.63 30.57 34.62 41.49 45.28 45.25 45.65 46.20 47.81 48.20 49.15 47.46 50.69 53.01 54.52 55.33 56.06 55.94 55.69 55.37 55.14 55.52 55.52 55.50 54.61 53.18 53.83 55.48 55.43 55.95 56.52 56.64 56.83
31.70 26.23 34.35 37.59 39.59 39.22 39.02 40.83 32.73 33.54 24.54 24.29 28.37 31.41 34.82 40.52 42.41 44.47 45.30 46.54 48.21 49.88 50.48 51.73 53.18 54.24 55.97 56.39 56.18 56.15 55.67 54.92 55.49 55.69 55.88 55.50 55.13 54.10 54.18 53.13 54.14 55.61 56.32 56.24
33.94 30.94 30.34 37.24 35.05 34.07 36.38 35.51 35.80 36.28 34.28 26.22 24.95 29.77 42.83 42.82 44.58 44.10 45.68 46.07 47.03 49.88 50.86 51.52 53.16 54.41 55.88 56.16 55.77 55.46 55.27 54.98 55.11 55.14 55.69 55.67 55.33 54.76 53.21 53.32 53.21 53.17 55.33 55.86
36.21 33.26 28.07 30.87 37.52 40.17 39.78 36.04 35.70 31.94 29.32 32.49 31.24 30.15 45.00 45.36 44.82 46.31 44.50 45.66 46.71 47.74 50.30 52.62 53.32 54.13 54.41 54.73 55.01 55.15 54.76 55.15 54.92 55.04 55.32 55.72 55.87 55.27 53.61 54.07 53.52 53.84 53.45 54.90
35.46 31.75 25.55 27.54 32.75 37.94 35.95 37.47 37.65 37.14 36.05 29.70 28.89 30.87 45.91 45.73 44.17 45.57 44.14 43.66 44.64 45.04 45.05 47.14 49.83 52.62 53.81 54.38 54.68 54.90 55.13 54.93 55.08 55.39 55.33 54.86 55.05 55.35 53.77 54.25 54.50 53.67 53.61 53.82
38.63 31.97 27.27 23.05 26.90 33.49 31.01 33.97 35.41 35.35 31.55 31.94 31.85 34.92 40.86 42.75 42.29 44.20 44.73 42.36 42.10 42.83 43.12 43.13 43.64 46.03 47.41 49.11 50.43 50.78 51.05 54.36 55.61 55.43 55.15 54.68 54.86 54.74 53.23 53.68 54.05 54.00 53.81 53.34
35.05 28.44 31.17 31.11 32.34 32.89 32.20 31.97 33.00 32.05 34.43 32.11 33.16 35.26 39.75 42.84 43.52 45.02 45.17 41.66 39.69 38.53 38.87 40.15 41.09 42.03 43.10 44.37 45.22 46.84 47.10 48.65 50.44 54.76 52.17 49.93 53.37 55.45 54.83 54.59 54.02 54.18 55.05 54.62
34.86 28.99 29.97 27.66 30.62 30.08 27.35 29.38 30.49 31.61 33.85 35.79 36.24 36.33 43.36 46.12 47.27 45.84 43.95 40.63 37.60 36.34 36.42 36.59 37.01 38.25 39.20 40.35 40.70 40.83 41.79 42.55 44.20 44.35 44.54 45.77 46.84 48.18 47.80 50.19 53.88 55.39 55.37 55.92
32.55 29.78 27.03 23.57 27.79 27.14 22.76 28.49 29.63 31.63 34.66 36.29 32.48 38.32 43.73 44.17 45.80 44.33 41.53 39.63 36.95 35.57 34.93 34.79 34.83 35.33 36.37 36.86 37.14 36.48 37.45 39.16 39.25 39.53 40.11 40.81 42.39 42.60 43.89 45.49 45.42 45.84 46.37 47.75
31.10 29.66 28.01 23.31 25.39 14.80 26.93 33.84 34.13 36.23 38.51 39.06 40.19 42.98 43.55 40.47 39.61 41.12 40.79 37.98 35.97 34.88 34.15 33.46 33.70 34.38 35.65 35.75 35.23 34.92 34.59 34.30 34.51 35.14 36.03 37.27 38.57 38.67 39.82 40.29 40.20 41.05 42.95 39.84
33.60 29.55 24.45 19.85 21.30 24.75 27.99 34.72 34.82 33.25 33.08 41.34 41.62 41.15 39.64 37.90 36.92 35.09 36.71 36.30 34.74 33.87 33.51 33.05 33.05 33.51 34.17 34.50 33.69 33.29 31.77 31.55 31.45 31.93 33.21 34.11 35.20 35.90 36.96 36.78 37.22 37.53 36.48 34.90
31.78 30.54 25.56 24.66 19.22 14.88 26.47 34.37 37.62 37.27 29.40 42.64 44.19 39.81 38.10 39.74 33.96 32.26 34.94 34.28 32.99 32.78 32.40 31.85 32.29 32.33 32.92 33.54 33.01 30.76 29.76 29.34 29.41 30.25 30.63 32.07 33.19 33.47 33.57 34.40 34.63 34.70 34.05 32.29
26.09 26.69 24.39 23.17 20.73 24.58 32.50 37.19 40.12 26.11 29.86 40.65 43.67 40.98 40.47 38.37 36.64 33.59 33.51 32.38 32.31 31.72 31.21 31.37 31.15 30.21 31.03 32.63 32.09 29.58 28.63 27.79 29.03 29.87 30.14 30.44 31.12 31.30 32.35 32.65 33.26 32.80 32.06 31.11
25.75 24.56 22.22 24.84 22.25 19.12 37.90 38.02 31.65 37.20 39.74 37.32 37.34 39.42 34.09 33.00 32.37 31.80 31.54 30.06 29.68 28.94 29.45 30.38 29.62 28.93 29.78 31.37 30.59 28.27 27.26 28.32 28.58 28.73 28.62 28.58 29.09 29.78 30.31 29.89 30.10 30.88 30.85 29.77
22.15 28.01 26.17 27.18 26.29 34.97 35.96 35.31 38.70 40.55 38.84 36.16 33.90 34.26 34.38 31.93 30.65 29.70 28.55 28.25 27.82 27.69 27.86 29.07 28.21 27.43 27.98 28.76 30.21 27.73 27.45 27.38 26.92 27.27 26.90 27.07 27.38 27.76 28.61 28.51 28.03 27.84 28.24 28.02
32.99 34.85 32.09 32.91 35.47 35.42 36.04 35.47 34.24 34.07 34.32 36.95 37.23 35.32 33.62 29.37 29.08 28.04 27.30 26.68 26.15 26.35 26.49 26.89 25.98 25.14 25.14 26.53 26.76 28.56 28.21 27.54 26.15 25.27 25.97 26.36 25.46 25.91 26.36 26.53 26.82 26.60 26.22 25.60
32.00 31.42 30.22 31.30 35.81 34.84 35.11 34.70 33.28 31.91 31.35 30.36 30.82 31.24 30.03 28.81 27.05 26.34 24.69 23.68 23.47 23.87 24.47 24.52 24.20 23.68 23.50 24.43 24.56 25.48 27.53 26.93 25.09 24.93 24.77 23.59 24.24 24.32 23.92 24.90 24.89 24.82 25.68 26.05
31.94 29.83 27.03 27.83 32.17 33.71 32.23 33.96 33.91 30.05 29.10 29.20 27.30 26.08 26.94 26.53 24.38 23.42 21.64 21.98 22.09 21.74 22.30 21.76 22.25 21.84 22.09 22.31 22.20 22.94 25.52 26.67 24.74 22.16 20.46 19.59 19.85 19.85 20.59 21.27 21.24 25.25 25.35 25.94

GFSCGP_sfc_wetblb_081.txt.gz
Wetbulb
40.61 36.41 33.08 35.48 36.36 37.00 35.81 34.48 33.51 36.67 40.90 39.15 38.82 39.78 42.78 45.78 46.59 47.08 47.82 48.75 49.59 50.50 52.70 52.98 57.48 60.39 61.27 61.97 61.55 60.40 60.96 60.38 59.50 58.85 59.15 59.28 59.18 60.70 61.40 61.99 62.72 61.93 61.65 62.03
37.45 33.52 38.32 38.61 37.54 35.96 35.23 33.14 33.14 37.40 40.49 39.90 39.37 38.94 42.83 44.87 45.73 47.25 47.95 49.00 49.96 50.98 51.36 52.06 56.75 59.44 60.40 60.58 60.85 59.49 60.15 60.15 59.38 59.64 59.58 59.27 59.78 60.45 61.17 62.55 62.20 62.32 60.86 61.61
35.09 37.42 39.74 37.40 36.23 34.43 35.03 33.73 34.50 34.42 38.87 40.86 39.10 37.14 40.11 43.86 46.19 47.52 48.12 49.01 49.76 50.05 50.53 51.67 55.40 58.22 60.05 60.32 59.97 59.15 59.47 60.00 59.51 60.26 60.94 59.54 59.74 59.97 59.67 59.90 59.55 58.74 60.51 60.97
37.06 40.25 38.25 37.31 36.63 37.48 33.38 39.34 38.02 36.71 35.61 31.50 40.48 29.90 38.28 41.85 43.27 45.60 47.66 49.18 50.03 50.44 50.56 50.83 54.74 57.29 59.09 60.74 61.08 59.44 59.26 59.24 59.12 61.55 60.23 58.20 57.40 57.23 58.84 59.86 60.20 58.96 59.02 58.47
35.02 38.79 37.72 35.82 36.88 39.65 36.65 40.53 38.67 38.20 36.14 35.21 35.12 32.23 36.65 41.61 41.00 44.10 47.13 48.52 50.19 51.26 50.77 50.86 54.58 57.04 59.18 60.86 60.04 58.65 58.22 58.81 59.21 60.87 60.43 58.72 57.62 58.34 59.17 59.20 59.26 59.41 58.52 58.80
37.73 43.20 41.58 40.55 41.61 41.65 41.79 38.97 38.64 38.26 35.76 28.48 34.22 33.43 34.60 39.00 42.00 44.37 46.76 48.59 49.96 50.73 50.67 53.17 56.52 57.96 58.62 60.27 58.53 57.47 57.02 57.46 58.24 59.51 59.16 58.35 59.03 57.88 57.49 58.40 58.22 58.18 58.86 58.38
36.13 38.02 41.48 42.47 38.26 41.17 39.97 35.51 28.88 26.81 27.61 27.51 36.36 33.05 36.51 42.65 46.11 46.40 47.30 49.66 51.13 52.28 50.20 54.32 55.73 56.62 57.61 58.06 56.65 56.58 56.95 56.31 57.24 57.85 57.60 57.63 59.18 58.33 57.53 57.92 58.18 57.95 58.00 57.90
29.62 26.88 37.25 41.48 38.79 35.68 37.23 36.17 29.93 22.68 26.10 29.66 36.44 31.71 37.84 46.14 47.74 49.10 49.89 50.15 51.08 52.19 53.41 52.73 55.81 56.66 57.61 57.60 56.51 57.99 59.11 57.50 56.55 56.86 56.87 56.78 59.03 58.92 58.28 59.09 58.80 58.68 58.78 59.20
29.03 28.76 38.74 40.60 41.00 40.67 36.52 33.24 38.44 31.62 33.20 29.52 33.81 37.72 43.77 46.61 46.25 47.68 47.97 48.32 48.63 51.01 52.72 53.47 54.78 57.02 57.80 57.17 57.34 58.65 57.49 56.61 56.07 56.30 56.65 56.18 58.17 58.56 57.95 58.44 59.06 58.53 58.94 58.55
34.54 28.42 36.58 39.01 41.87 41.63 39.69 41.12 33.34 33.97 24.75 24.47 31.48 33.63 35.65 41.07 43.22 45.01 45.35 45.66 46.78 49.19 52.41 52.91 54.66 56.35 57.17 57.23 57.29 56.75 57.06 55.91 56.15 56.37 56.44 56.30 57.13 58.03 58.24 57.58 57.47 57.76 58.07 59.26
36.26 33.63 33.14 38.60 36.31 35.49 37.00 36.12 36.19 35.50 34.12 27.61 26.11 32.63 43.30 42.35 43.30 44.09 43.40 44.56 45.47 46.34 50.99 54.17 55.12 56.42 56.98 56.94 56.20 56.09 56.20 55.91 55.89 56.13 56.40 56.17 56.15 56.64 57.12 56.87 58.02 57.99 57.89 57.62
38.45 34.43 29.58 33.56 39.51 41.52 40.23 36.92 36.70 31.36 29.24 33.24 30.86 32.50 45.88 45.11 44.45 44.83 42.43 42.56 44.31 45.41 46.11 50.50 54.48 54.85 55.09 55.23 55.58 55.59 55.72 55.65 56.11 56.48 56.63 56.38 56.35 56.15 55.58 56.72 56.86 57.11 57.34 58.47
37.78 33.95 28.34 29.94 35.70 39.15 36.13 37.32 38.15 37.32 35.11 29.99 29.17 33.04 45.48 45.18 43.61 45.22 41.80 41.26 41.10 42.53 43.74 45.02 45.79 51.34 53.92 54.73 54.85 55.16 55.83 55.41 56.02 56.14 56.38 56.50 56.27 56.10 55.41 56.81 57.49 56.48 56.66 58.03
38.75 33.15 29.55 26.89 29.66 33.99 31.90 34.25 35.76 34.61 29.78 31.22 31.13 34.89 40.08 43.14 43.49 44.62 41.84 40.60 39.36 39.22 39.85 40.95 42.14 43.15 44.85 46.97 48.82 50.49 52.31 55.48 55.97 56.03 55.85 55.35 55.55 56.13 56.22 56.91 58.20 57.55 57.48 56.96
35.82 29.34 32.58 32.87 33.45 33.96 33.47 32.21 32.51 31.28 33.05 29.33 32.43 33.67 38.17 41.73 44.56 45.23 41.93 39.98 38.04 37.08 36.86 37.21 38.01 38.95 40.71 41.69 43.49 45.49 46.11 48.41 52.36 49.94 49.10 48.91 49.86 54.75 55.78 56.16 57.62 57.83 57.52 56.51
37.23 30.21 31.96 28.87 32.24 30.79 28.72 30.95 30.88 31.68 32.99 33.40 34.72 34.61 42.43 44.50 47.07 45.44 41.04 38.86 36.72 35.51 35.30 35.43 35.85 35.92 36.25 37.30 39.25 40.34 41.05 42.02 43.73 43.15 43.18 44.32 44.91 45.46 47.00 48.32 48.20 50.69 50.85 50.01
33.51 31.88 28.87 24.79 29.63 29.23 25.54 29.90 30.76 32.62 36.99 36.76 32.89 38.16 43.10 43.63 45.44 44.01 40.49 37.84 35.32 34.07 34.15 34.12 34.26 34.50 34.22 34.55 35.43 35.60 36.55 38.50 38.51 38.80 39.50 40.42 41.48 41.75 42.54 43.27 43.80 43.89 42.36 42.41
32.21 31.88 30.27 25.54 27.07 17.55 29.90 35.77 35.90 33.62 37.18 37.90 39.23 42.33 43.38 40.94 39.39 39.50 39.36 37.08 35.10 33.85 33.09 32.98 33.60 34.00 33.47 34.37 33.90 33.88 34.72 34.89 35.27 35.03 35.85 37.14 38.86 39.03 39.73 39.51 39.66 38.82 37.69 36.29
35.36 32.49 27.70 23.47 23.53 27.13 30.73 33.79 32.81 31.47 31.67 42.04 41.67 41.36 39.86 37.41 35.97 33.28 35.22 35.03 33.66 33.22 32.75 32.75 33.34 33.88 34.06 33.10 33.08 33.33 33.07 33.01 32.85 32.03 33.22 34.63 36.19 36.46 37.23 36.33 35.51 35.35 34.53 33.36
33.46 33.66 29.74 26.00 19.92 17.25 28.65 35.86 40.46 39.35 29.89 39.05 39.89 41.37 38.36 38.47 34.11 30.90 34.76 33.13 31.96 31.60 31.91 31.75 32.28 32.77 32.75 32.57 32.86 31.61 30.71 30.74 30.34 30.98 31.59 33.14 33.85 34.19 34.19 34.44 33.80 33.61 32.71 31.49
28.33 29.45 26.59 25.88 23.74 27.13 35.02 38.33 40.98 26.67 30.68 38.35 37.36 41.08 42.18 37.14 34.02 31.80 32.17 30.83 31.42 31.54 31.61 31.86 31.04 30.74 31.03 31.73 31.56 29.25 29.24 28.33 29.84 30.73 31.00 31.36 32.15 31.97 32.53 33.04 33.20 32.68 32.08 31.51
27.79 26.48 26.11 26.70 23.57 20.73 36.65 37.72 32.32 36.06 39.44 36.25 34.92 34.83 31.49 30.60 29.90 29.72 29.67 29.15 29.28 29.35 29.93 30.01 28.86 28.21 30.16 30.95 29.73 27.64 26.73 28.68 29.54 29.40 29.01 29.37 29.97 30.67 31.32 31.42 31.37 32.02 31.75 30.88
27.66 30.95 29.75 29.49 29.39 35.69 35.50 34.80 35.25 38.71 37.50 36.42 34.21 32.88 31.48 29.03 27.48 27.87 27.47 27.95 27.88 27.51 27.61 28.21 27.28 26.57 27.45 28.79 29.31 26.58 27.08 28.26 28.39 27.79 27.41 27.84 28.28 28.60 29.01 29.37 29.18 29.27 29.76 29.39
33.41 34.06 33.64 32.82 35.29 35.23 35.63 34.83 33.99 33.27 31.82 33.43 34.17 33.37 30.71 27.40 27.66 26.89 26.49 25.74 25.27 25.67 25.44 26.44 25.70 24.85 24.69 26.38 27.75 27.71 28.01 28.36 27.88 27.01 26.92 27.20 27.04 27.19 27.60 27.99 28.33 27.82 27.56 27.23
31.42 32.30 29.01 30.78 33.93 33.81 33.36 33.99 33.72 31.65 31.21 29.60 29.75 29.85 29.21 27.57 25.66 24.61 23.65 23.54 23.70 23.64 24.20 24.94 24.48 23.78 23.79 25.17 25.64 27.33 28.15 27.89 26.31 25.39 25.24 25.71 25.72 25.32 25.39 26.23 26.18 25.96 27.32 27.24
31.92 29.64 27.82 27.74 30.32 31.15 29.23 30.50 30.99 29.13 28.73 29.20 27.86 25.97 26.38 25.19 23.23 23.21 22.01 22.56 22.58 22.63 23.37 23.36 23.43 23.22 22.75 23.15 23.52 24.70 25.15 25.48 24.98 24.17 23.59 23.60 23.79 23.59 23.83 23.17 22.33 24.88 25.16 25.30

GFSCGP_sfc_wetblb_084.txt.gz
Wetbulb
43.31 39.60 36.98 38.45 39.84 40.15 39.26 37.08 35.15 39.11 42.36 41.16 41.38 42.85 45.41 48.42 48.98 49.67 50.72 51.94 52.74 53.57 55.65 56.59 58.20 60.93 64.38 65.95 66.81 66.68 65.19 66.59 64.22 62.70 62.64 61.95 62.49 62.52 62.53 63.19 63.07 63.48 63.08 62.43
40.40 36.58 41.21 41.68 40.35 38.88 38.45 36.86 37.30 40.34 42.60 42.24 42.26 42.63 46.58 47.92 48.23 49.59 50.42 51.78 52.81 53.76 54.65 55.68 57.26 60.45 63.68 64.83 66.25 65.98 64.73 64.79 64.64 64.36 63.64 62.75 61.85 62.69 63.26 63.84 65.00 65.03 64.26 64.25
39.04 40.35 43.10 41.09 39.79 37.62 37.75 36.44 37.28 37.95 42.33 44.04 42.94 42.03 44.75 47.27 48.96 49.32 50.37 51.66 52.83 53.40 53.98 54.87 55.81 58.72 63.16 63.90 65.45 64.17 63.92 65.00 63.76 64.79 62.96 63.29 62.81 61.84 61.52 62.74 63.73 63.26 62.64 62.19
40.93 43.55 40.41 39.14 37.86 39.44 35.19 41.63 40.48 39.62 38.50 35.59 43.27 34.49 42.88 45.82 46.86 48.41 49.98 51.42 52.14 53.16 54.49 55.10 55.82 57.26 61.89 63.46 65.70 64.11 64.09 65.01 63.25 63.95 62.57 61.94 60.67 58.55 61.47 61.56 61.71 62.76 61.52 61.53
37.53 38.62 39.21 37.60 38.21 41.77 38.33 42.57 40.90 40.53 38.33 38.31 39.10 36.88 41.80 45.64 44.34 47.65 49.78 51.56 52.66 53.88 54.89 55.30 56.15 56.99 61.63 63.71 64.96 63.91 62.74 63.46 63.14 62.35 63.85 61.74 61.17 60.65 62.48 61.48 60.83 59.78 59.16 59.47
39.74 44.50 43.60 42.66 43.38 42.50 43.39 40.49 40.22 40.91 38.68 31.51 38.04 38.12 41.29 44.19 45.65 48.50 51.17 52.94 54.01 55.31 56.72 57.07 57.46 58.07 60.63 63.66 64.63 61.94 60.78 60.92 62.11 62.58 63.73 62.15 61.30 60.97 60.64 60.28 59.10 58.93 58.65 58.82
38.06 38.59 42.72 44.52 40.80 43.75 42.13 37.20 31.47 30.60 29.75 31.36 39.30 37.82 41.36 46.28 48.75 50.06 51.00 52.57 54.68 56.53 57.54 57.71 57.53 58.69 60.35 62.32 61.47 59.20 59.62 59.36 60.91 63.67 62.92 61.23 61.43 61.33 59.85 59.71 58.54 58.31 57.88 57.67
33.48 31.14 39.36 43.97 41.07 38.49 39.26 37.69 32.13 25.30 29.14 34.19 39.53 35.20 41.96 48.18 50.92 52.17 52.32 52.73 53.57 54.47 57.07 57.95 57.59 59.46 60.26 61.93 58.31 58.05 58.47 59.22 60.01 62.77 61.50 59.86 61.25 60.58 59.66 59.94 60.16 59.40 59.00 58.17
33.50 32.71 40.93 42.58 43.29 42.34 38.41 35.62 41.08 34.14 35.89 32.10 36.81 41.07 46.06 47.90 48.83 48.97 49.42 50.03 50.48 51.45 53.71 57.72 57.41 59.79 60.35 61.04 57.25 58.16 58.72 59.04 59.23 61.18 58.98 58.74 60.60 60.00 59.16 59.94 60.98 61.33 61.80 60.93
37.63 31.68 39.30 41.94 43.71 43.47 41.44 43.20 33.65 36.14 27.14 26.93 35.30 37.03 38.76 43.40 44.69 46.26 47.29 47.77 47.67 48.08 48.84 53.78 57.28 58.80 60.76 59.86 58.17 59.77 61.57 58.62 59.21 59.08 58.64 58.10 59.84 60.75 60.32 60.50 60.23 60.61 60.74 59.96
40.16 37.21 36.12 40.47 37.88 37.50 38.35 36.43 37.65 37.35 35.20 30.28 30.26 36.65 45.62 43.15 43.70 44.72 47.29 45.99 45.32 44.83 45.57 48.47 56.96 58.23 59.12 58.58 59.06 58.89 59.31 57.55 57.91 59.15 58.93 58.30 58.91 59.65 59.63 59.38 59.65 60.10 60.53 59.83
40.40 37.78 32.72 35.42 40.97 43.82 41.83 38.97 39.07 33.74 31.54 34.80 33.63 36.16 48.05 46.87 46.25 47.27 44.46 44.94 43.67 42.85 43.24 45.33 48.93 56.47 56.61 56.88 56.78 57.27 57.94 57.33 58.44 58.92 58.41 58.62 60.08 59.14 58.23 58.25 59.90 61.40 60.27 60.21
34.29 35.84 30.11 32.07 37.49 40.85 38.32 39.42 39.08 37.71 37.30 32.72 30.61 35.82 47.31 47.38 47.50 46.71 45.04 44.26 41.65 40.50 40.47 41.90 43.73 46.25 52.11 55.28 55.81 56.26 57.05 57.10 57.56 57.25 57.14 57.72 58.10 57.36 57.23 57.25 59.90 59.62 58.90 59.27
36.11 35.47 34.17 29.87 32.68 38.27 35.16 37.37 39.35 37.37 33.50 33.79 34.70 37.23 41.95 43.28 44.40 46.06 44.54 43.15 41.01 38.49 37.92 38.80 39.56 41.05 43.54 45.88 48.16 52.65 55.62 56.70 56.94 56.87 56.82 56.41 56.38 56.82 56.66 56.82 58.79 57.73 57.78 57.75
36.57 32.98 34.52 35.22 35.54 36.02 35.62 35.29 36.17 35.19 36.22 32.13 35.30 35.61 40.08 43.85 45.36 46.26 44.17 41.51 38.04 36.31 35.75 36.02 36.63 37.34 38.89 40.81 42.76 44.49 47.27 49.96 52.57 51.17 50.22 49.79 50.23 52.90 55.14 56.53 57.85 58.95 59.01 58.53
34.96 32.56 33.05 30.05 34.82 33.97 31.69 34.23 34.43 34.59 35.06 36.02 37.79 38.28 45.01 47.25 47.24 44.69 42.91 39.96 36.04 34.52 34.11 34.51 34.74 34.72 34.83 36.04 37.83 39.40 41.00 43.40 44.98 44.74 44.04 45.43 46.01 46.06 46.13 47.23 48.28 47.92 47.73 45.50
34.20 32.98 29.70 25.02 32.30 31.73 28.59 32.97 34.57 35.79 38.75 38.82 35.27 40.93 45.59 45.31 44.72 42.02 40.01 38.06 35.19 33.64 33.10 33.05 33.32 33.22 33.16 33.48 35.25 35.39 37.36 39.37 39.80 39.51 40.72 41.48 42.18 42.17 42.68 42.70 41.41 40.15 40.14 40.52
33.37 33.22 33.26 28.14 29.06 21.00 32.73 39.59 38.03 35.72 39.05 39.95 40.40 42.57 42.00 40.45 37.40 37.66 37.88 36.41 34.56 34.05 32.81 32.62 33.06 32.39 32.73 33.66 34.02 35.04 35.67 35.64 36.39 36.46 37.50 38.83 39.75 39.01 39.29 38.99 37.90 36.52 36.33 35.48
37.57 34.80 30.95 26.78 27.13 30.07 32.89 35.77 35.56 34.37 35.28 40.29 39.47 40.87 41.23 37.23 35.33 32.00 34.57 34.15 33.44 32.55 31.83 32.82 33.74 32.85 32.83 33.02 33.56 33.97 33.92 33.82 34.25 34.23 34.88 36.10 37.32 36.92 36.80 35.22 34.84 34.81 33.62 32.97
37.18 37.56 32.56 29.54 19.33 19.54 33.29 38.25 42.32 41.49 32.25 41.05 40.75 39.37 38.94 38.50 35.49 28.52 32.66 33.02 31.95 31.65 32.19 31.83 32.33 32.33 32.62 32.61 33.38 32.54 31.31 31.52 32.21 32.55 33.03 36.03 35.12 35.27 34.97 34.85 33.86 33.99 33.51 32.49
31.42 32.26 29.22 28.77 26.43 30.66 37.26 39.83 42.34 30.24 31.57 40.57 37.67 35.80 37.85 37.58 31.86 30.19 31.16 30.93 31.98 31.95 31.74 32.31 32.05 31.00 30.83 32.38 32.72 30.61 30.70 30.38 31.87 32.44 33.20 34.08 34.47 34.50 35.08 35.24 35.48 35.04 34.17 33.66
30.57 29.64 29.56 30.48 26.32 23.63 38.85 39.47 33.74 36.30 39.47 37.61 34.61 32.73 29.72 29.07 29.17 29.53 30.29 30.07 30.35 30.14 30.45 31.18 30.41 30.26 32.03 32.67 31.31 29.49 29.45 31.05 31.37 31.61 31.44 31.66 32.84 33.38 33.92 34.53 34.60 34.95 34.85 33.78
30.39 32.74 32.62 33.31 32.52 36.49 36.23 35.70 37.22 37.02 36.30 35.55 34.10 32.41 30.64 29.73 28.84 28.82 28.06 28.53 28.72 28.72 28.36 29.39 29.06 29.36 30.17 30.67 31.49 29.34 29.39 30.43 30.70 30.57 30.96 30.24 30.90 32.39 33.53 33.38 33.06 33.32 33.92 33.04
34.98 36.58 34.72 35.19 34.14 33.61 34.60 34.88 34.11 33.70 32.76 32.95 33.61 32.67 31.40 28.32 27.84 27.48 27.69 27.49 27.26 27.71 27.33 27.96 27.68 27.35 27.29 28.98 29.70 30.08 30.55 31.17 30.44 30.04 29.45 29.00 28.87 29.68 30.54 29.88 30.44 31.05 30.99 30.75
34.57 35.09 31.92 33.98 33.16 32.60 32.00 32.74 33.42 32.53 32.19 30.89 31.53 30.97 29.07 28.11 26.66 26.70 25.85 25.81 26.33 26.91 27.47 28.04 26.84 26.44 26.14 27.21 27.10 29.06 30.71 30.97 29.62 29.36 28.93 28.42 28.13 26.87 25.83 26.24 27.29 26.34 27.09 27.70
33.57 30.23 30.00 29.53 31.72 32.47 30.07 31.20 32.52 30.21 29.60 30.81 29.23 27.40 28.02 27.08 25.51 25.54 24.35 25.25 25.49 25.31 26.10 26.03 26.19 25.54 25.53 25.89 25.99 26.40 28.36 29.59 28.98 28.47 27.94 28.03 27.96 27.61 27.01 25.77 23.27 24.50 24.88 24.99

GFSCGP_sfc_wetblb_087.txt.gz
Wetbulb
44.79 40.46 38.80 40.31 42.27 41.91 40.78 39.60 38.98 41.33 43.70 41.97 41.99 43.03 44.67 46.74 47.89 48.66 49.72 50.79 52.70 54.02 56.14 57.39 57.79 58.46 60.48 63.76 66.31 67.84 68.58 68.37 68.94 66.46 64.33 64.36 62.61 64.22 63.98 64.43 64.84 64.81 65.09 64.58
42.71 38.71 43.35 43.68 42.95 40.68 39.51 38.64 38.47 41.44 43.74 43.31 43.06 43.56 46.61 47.43 47.89 49.51 50.11 51.07 51.98 53.92 55.21 56.17 57.49 58.28 61.34 64.20 66.47 67.71 67.99 68.15 67.53 66.06 66.12 65.46 64.78 64.16 65.25 65.19 64.26 64.13 63.39 63.47
40.84 42.74 45.18 42.37 40.98 39.37 39.25 37.68 38.78 39.14 42.06 44.64 43.74 42.41 44.06 48.19 50.26 50.75 51.62 52.30 52.58 53.56 54.65 55.89 56.76 57.55 61.17 63.62 65.88 67.09 67.77 68.00 67.29 66.84 66.50 65.47 64.71 63.77 63.17 62.49 63.31 65.70 65.39 65.39
42.57 45.54 43.25 41.43 40.30 41.35 37.32 42.29 40.85 39.41 38.97 35.66 45.15 35.71 43.26 46.37 47.26 49.61 50.77 52.13 52.73 52.93 54.39 55.89 56.73 56.85 59.75 63.44 65.98 67.07 67.71 67.52 67.11 67.14 65.55 64.04 62.21 61.04 62.51 62.83 64.03 64.58 64.79 64.38
39.87 41.68 41.00 40.19 40.74 42.39 38.94 43.59 42.09 41.70 40.15 39.53 39.34 37.84 41.27 46.59 45.52 48.78 51.47 52.98 54.54 54.66 54.99 55.27 56.23 57.24 57.68 63.28 65.02 66.91 66.94 66.55 66.59 66.31 65.65 63.97 62.95 62.82 63.15 63.25 62.64 62.78 62.82 62.09
41.79 45.78 43.81 43.13 43.96 43.40 44.10 42.02 41.74 40.97 39.99 33.09 37.67 38.02 39.00 44.12 46.92 48.23 51.48 53.19 55.37 56.94 57.65 57.33 58.20 58.66 57.62 61.49 65.38 66.76 65.48 65.91 65.06 65.85 65.27 64.55 63.26 62.37 61.61 61.94 61.70 60.85 61.26 60.08
39.93 40.55 43.83 44.49 41.35 44.58 41.78 38.36 31.39 30.77 30.82 30.07 40.44 38.60 41.12 47.57 49.15 49.85 50.28 52.21 53.98 54.92 56.50 59.28 59.41 58.69 58.50 61.41 64.57 65.40 64.26 64.22 63.99 64.96 65.08 64.34 63.37 62.51 61.58 61.73 61.24 59.49 58.99 58.53
35.47 33.57 41.15 43.41 41.75 40.08 39.86 38.95 31.90 25.24 28.06 32.31 40.20 34.82 41.33 49.90 50.11 50.85 52.35 52.89 54.32 54.49 55.09 56.43 59.85 60.21 60.21 61.25 64.13 62.98 61.77 61.42 62.16 64.36 64.81 63.97 62.98 62.17 61.28 62.49 60.61 60.27 59.29 59.18
35.27 35.37 42.57 43.74 45.12 43.39 39.39 35.83 41.71 34.99 36.55 32.79 36.81 40.55 48.03 49.46 48.63 49.85 50.66 51.54 52.00 52.97 53.08 53.37 56.18 60.07 61.19 62.54 61.39 60.40 60.10 60.56 61.56 64.77 64.38 62.94 62.64 61.58 61.05 62.10 62.30 61.09 61.26 59.77
39.09 33.64 41.75 43.27 45.42 44.79 42.01 43.07 34.44 36.32 27.10 26.95 34.57 37.43 39.96 43.49 45.14 47.98 48.85 49.64 50.67 51.72 50.85 49.05 53.02 56.23 61.40 61.45 59.83 59.35 60.10 60.37 61.70 64.33 63.25 61.60 61.47 61.27 61.68 62.13 61.70 61.75 61.93 60.96
39.37 37.46 37.51 42.44 39.64 38.15 39.12 37.58 38.71 38.42 36.43 30.44 29.87 36.04 46.71 45.10 46.76 47.11 48.10 49.50 49.34 49.22 48.02 44.56 46.17 49.27 59.11 59.61 58.91 58.43 59.73 59.73 60.57 62.63 61.10 60.89 60.46 60.71 61.10 60.36 61.17 61.26 61.84 61.39
36.00 35.34 33.38 36.60 42.91 44.51 42.03 39.34 39.79 33.45 32.94 36.54 35.38 37.14 48.28 48.29 48.34 48.97 48.39 48.94 48.34 47.61 45.67 42.51 42.85 44.87 55.28 58.00 58.41 59.07 58.71 58.98 59.76 60.79 59.61 59.80 60.19 60.45 59.83 59.55 60.22 61.15 60.68 60.74
34.39 32.47 29.57 33.97 38.23 42.11 39.11 40.80 40.86 40.17 39.09 34.07 31.94 36.02 46.88 47.40 46.71 49.22 48.69 48.53 47.45 45.44 42.68 40.34 40.35 40.43 43.14 49.45 57.01 57.36 57.58 58.05 58.77 59.26 58.79 59.09 58.77 58.46 58.45 58.96 59.28 60.42 59.90 59.78
36.20 32.31 30.88 30.07 33.73 38.26 36.66 38.93 40.65 39.41 34.33 34.80 35.96 38.63 42.63 43.81 45.61 47.95 48.57 47.80 45.99 42.93 40.04 37.46 37.07 37.39 38.95 41.93 44.91 47.23 56.32 58.36 58.17 57.66 57.49 57.26 57.68 57.77 58.38 57.94 59.35 59.50 59.26 58.83
35.83 27.89 31.53 36.77 37.94 38.24 37.40 37.26 38.64 37.16 38.23 34.39 37.38 37.21 40.76 45.11 46.18 48.78 47.95 45.21 42.52 39.52 37.66 35.14 34.75 35.13 35.75 37.79 39.87 42.11 44.52 49.40 53.26 51.71 51.08 50.87 52.13 55.85 56.08 54.87 52.62 56.51 55.18 55.75
34.41 29.85 29.61 34.09 37.35 37.13 34.84 37.38 37.35 36.85 36.63 36.32 37.32 38.61 45.47 47.57 49.34 46.42 43.51 41.02 38.55 36.72 34.51 33.86 33.35 33.47 33.51 34.70 36.29 38.24 39.84 42.37 45.25 45.28 44.95 45.72 46.48 47.18 46.58 45.52 45.33 44.81 44.31 43.90
30.67 30.61 31.43 29.20 34.04 33.88 30.01 35.13 35.63 36.91 39.53 39.95 35.76 40.73 44.16 39.13 36.08 35.94 37.47 36.00 34.37 33.80 33.32 33.02 32.06 32.32 32.94 33.74 35.29 34.91 37.06 38.77 39.83 40.89 41.41 41.67 41.84 41.34 41.01 40.49 39.19 38.93 38.63 38.72
30.54 30.07 31.32 28.53 30.20 21.57 33.69 40.34 39.47 37.23 40.27 40.83 40.34 41.83 39.91 35.34 33.09 32.71 33.36 33.24 32.29 32.17 33.29 33.62 32.74 32.14 33.17 33.53 34.78 35.04 36.21 35.85 36.24 36.90 38.37 39.11 38.44 37.82 37.74 36.78 35.40 35.09 35.26 34.77
35.17 32.84 31.06 27.83 25.66 29.95 34.62 37.41 37.33 36.48 36.46 40.50 39.57 41.03 40.42 35.82 34.61 31.54 33.24 32.39 31.13 31.67 31.31 32.35 33.11 32.76 32.81 33.23 33.18 33.15 33.26 33.75 34.61 34.20 35.33 36.63 36.79 35.49 34.92 33.84 33.70 33.64 32.87 32.67
37.29 37.05 32.80 31.45 24.51 21.83 32.54 39.77 42.41 41.91 32.72 40.03 39.84 38.25 38.73 39.49 34.46 29.68 32.22 32.45 31.49 31.47 31.66 31.27 31.61 32.31 32.91 32.97 33.60 32.16 31.57 31.77 31.74 32.22 33.33 34.72 35.28 35.21 33.94 33.27 33.86 34.01 33.20 32.37
31.54 32.77 29.92 30.28 28.39 32.51 38.69 41.35 42.96 30.72 32.40 39.09 38.46 35.12 31.77 30.09 30.38 30.19 31.61 31.30 31.67 31.85 32.19 33.20 32.20 30.97 31.26 32.88 32.90 31.41 30.86 30.88 31.93 32.76 33.71 34.06 35.05 34.88 34.35 34.74 35.63 35.22 34.79 33.87
31.45 30.16 30.14 31.86 28.25 25.21 39.68 40.44 34.91 35.54 39.27 37.32 34.94 32.44 29.04 29.08 29.36 29.83 30.95 31.66 31.88 30.95 32.16 32.46 31.34 31.15 31.85 32.02 31.59 30.41 30.54 32.49 32.14 32.12 32.71 33.35 34.40 35.28 35.10 35.73 36.09 35.75 35.15 34.29
31.21 34.12 33.19 34.65 32.30 37.08 38.08 35.82 37.22 36.76 34.09 34.62 33.21 33.31 31.91 30.15 30.00 30.21 29.83 30.61 30.51 30.25 30.01 30.72 30.07 29.77 30.47 31.33 31.87 29.63 30.53 31.76 32.33 32.05 31.92 32.27 31.59 31.92 33.34 33.69 33.79 34.12 34.58 33.76
36.48 39.34 35.85 35.76 33.43 33.86 35.67 37.36 36.09 34.30 32.69 33.88 35.05 33.57 32.13 29.37 29.76 29.40 29.72 29.91 30.17 30.30 29.97 30.17 28.85 27.55 27.45 29.97 30.80 30.62 31.78 32.07 31.23 29.76 28.47 28.39 28.58 29.01 29.93 29.04 27.77 27.30 30.66 30.53
35.08 37.70 34.24 32.17 32.96 34.44 34.85 34.39 34.17 33.09 32.74 32.49 32.30 32.31 30.89 30.34 29.18 29.45 28.94 28.85 28.96 29.00 29.22 28.96 27.89 27.62 27.11 27.73 28.01 30.40 32.62 32.64 30.41 30.08 29.59 28.62 27.20 26.11 24.64 25.21 26.15 25.93 26.41 27.13
33.85 30.74 30.15 29.34 33.08 33.49 30.79 33.15 33.60 31.06 31.29 31.48 30.44 28.58 29.86 29.06 27.12 27.41 26.55 27.60 27.83 27.20 27.45 26.75 26.72 26.46 26.44 26.78 26.64 27.50 29.88 31.16 30.71 29.47 29.12 29.37 29.03 28.49 26.94 24.61 22.67 24.70 24.98 24.93

GFSCGP_sfc_wetblb_090.txt.gz
Wetbulb
44.81 39.35 36.08 39.54 41.31 40.99 40.58 39.25 38.65 41.02 43.89 41.64 41.45 41.63 43.22 45.60 46.57 45.88 46.64 47.27 48.69 50.83 54.21 55.87 57.45 58.49 57.79 57.70 59.80 68.58 68.12 67.97 67.97 67.44 65.72 64.86 63.46 63.58 63.63 64.25 64.98 65.13 65.53 64.76
42.53 37.76 42.16 43.41 43.39 41.80 40.42 38.31 37.27 40.19 42.70 41.86 40.76 40.59 44.24 46.38 47.50 48.32 47.91 48.41 49.63 50.92 52.66 54.92 56.09 58.09 58.11 58.48 61.89 67.86 68.18 67.50 67.32 67.65 65.66 64.99 64.05 63.52 63.16 62.93 63.08 64.43 65.09 64.20
39.52 42.50 45.19 43.24 41.52 40.12 39.56 37.73 37.34 37.02 40.23 42.00 40.95 38.69 41.81 45.76 47.94 49.11 49.76 50.37 50.71 50.78 52.36 53.98 55.63 56.58 58.24 60.60 64.93 67.17 67.80 67.01 67.23 67.15 65.35 64.72 63.91 63.31 62.51 62.43 62.73 62.95 63.28 63.76
40.74 44.50 43.07 42.14 40.52 41.54 36.81 42.27 40.91 39.47 37.57 32.31 41.37 32.55 40.75 44.15 45.25 48.51 50.08 52.25 52.86 52.93 53.29 53.56 55.25 56.55 57.55 61.17 64.93 66.63 67.78 66.47 67.14 66.19 64.96 63.13 61.53 60.10 61.36 61.52 62.30 63.03 64.01 63.27
39.15 41.02 40.65 40.19 41.13 43.35 39.10 42.98 40.61 40.39 38.38 37.51 37.55 35.23 38.82 43.30 43.10 46.39 51.22 52.91 54.78 55.74 54.69 53.61 53.92 56.67 57.13 61.46 64.08 65.28 67.19 66.65 66.31 64.97 65.48 63.58 61.87 61.54 61.60 61.99 61.88 62.58 62.47 63.05
40.75 44.86 43.47 42.58 43.95 43.50 43.87 40.71 40.30 40.17 38.07 30.37 35.65 35.58 36.34 39.81 45.64 48.95 51.24 52.20 53.39 54.81 56.09 57.39 58.81 57.69 56.41 60.58 63.79 64.84 65.99 65.66 66.18 65.29 65.39 63.40 62.31 61.25 60.56 60.51 60.89 60.88 60.43 59.74
40.25 39.95 42.97 44.33 40.35 43.39 42.39 37.79 29.50 27.96 29.11 28.49 37.92 36.03 38.63 45.72 49.33 49.48 49.64 51.03 52.81 54.44 54.73 55.12 56.55 58.26 57.91 59.03 62.97 64.69 65.06 64.48 65.35 64.86 64.39 63.53 63.05 62.00 60.89 60.84 60.55 59.63 58.40 58.14
33.93 32.63 40.87 43.72 41.00 38.51 39.32 38.09 30.32 23.59 26.14 30.16 37.85 32.61 39.08 48.99 50.14 51.00 51.51 51.78 52.59 52.90 53.56 53.76 55.42 56.72 55.03 60.30 63.70 64.39 63.99 63.66 63.96 64.27 63.77 63.84 62.97 61.40 60.97 61.28 60.41 59.69 58.97 58.37
33.96 34.55 43.63 44.31 44.11 41.91 38.32 34.65 40.24 33.92 34.82 30.35 33.61 37.86 43.03 48.32 48.07 49.19 49.32 50.19 50.07 51.13 51.63 51.12 52.67 53.26 53.79 60.22 63.27 63.89 62.82 63.35 62.53 63.22 63.58 63.06 62.27 61.11 60.73 61.36 60.80 60.53 59.61 58.84
37.35 30.67 39.53 41.84 43.06 43.80 40.97 43.09 33.85 35.04 25.62 24.14 31.49 34.45 36.91 39.93 44.52 47.03 46.95 47.65 48.28 49.20 48.99 47.78 48.87 49.60 55.66 61.19 61.62 61.73 61.86 61.59 61.28 63.42 63.13 61.93 61.38 60.95 61.11 61.36 60.14 60.65 60.47 59.59
37.59 34.65 34.33 39.56 37.61 37.58 38.51 37.31 37.91 37.09 34.46 27.54 27.51 33.51 43.46 42.28 44.70 45.40 46.66 47.44 46.87 46.53 46.23 44.35 44.84 45.29 47.33 54.94 59.83 60.20 60.08 60.48 60.60 61.94 61.63 60.76 60.94 60.20 60.32 60.33 61.08 60.93 60.98 60.33
36.45 32.37 28.26 33.32 41.23 43.20 39.04 39.14 38.82 30.96 30.52 34.25 33.00 33.35 44.44 44.85 47.17 48.15 47.69 47.38 46.13 45.35 44.69 42.05 41.44 41.50 42.67 43.90 48.72 59.01 59.18 59.15 59.91 60.24 60.29 60.11 59.38 59.62 59.89 59.77 60.46 60.26 59.89 60.47
35.65 30.28 25.03 31.13 36.25 39.29 37.76 39.65 39.32 38.85 37.70 32.91 30.91 33.49 43.60 44.98 46.44 48.37 46.88 46.47 44.76 43.15 41.82 39.87 38.58 38.52 38.84 40.40 42.47 45.75 58.37 58.30 58.49 58.61 58.48 58.38 58.53 58.55 58.34 58.52 58.99 59.64 59.55 59.19
36.61 31.05 27.76 24.42 29.48 33.31 31.69 37.06 39.87 37.84 32.99 32.93 33.98 35.45 38.86 43.65 44.97 46.65 45.53 44.59 42.25 40.29 38.99 37.34 35.87 36.07 36.89 38.05 39.77 41.48 46.14 57.16 57.89 57.82 57.92 58.09 57.73 57.72 57.53 57.82 59.24 58.61 59.09 58.42
34.21 27.81 30.90 32.83 33.75 33.47 34.15 35.69 38.18 36.55 36.94 32.95 35.17 35.07 39.72 41.66 41.60 41.90 42.99 42.07 39.43 37.18 35.91 34.96 33.60 34.09 34.99 36.22 36.76 38.26 40.71 46.02 51.35 51.44 50.92 51.15 51.47 52.68 51.84 50.32 52.10 51.50 50.58 48.61
34.79 26.44 30.05 27.66 33.26 34.13 32.71 37.06 36.66 35.76 36.47 36.78 37.60 37.24 41.88 40.37 38.23 38.22 37.41 36.29 34.22 33.38 33.32 33.05 32.70 33.07 33.10 34.05 34.69 36.31 37.42 40.45 43.99 44.83 45.00 45.33 45.67 45.31 44.33 43.53 43.43 43.40 42.35 42.20
31.31 28.55 27.64 23.78 30.37 33.39 30.57 35.29 36.86 37.25 39.17 38.67 34.02 37.73 41.46 37.80 33.93 32.07 33.56 32.34 31.27 31.34 31.34 31.42 31.54 32.01 32.54 32.70 34.09 33.96 35.68 37.83 39.16 39.85 40.61 41.12 40.27 39.58 39.56 38.83 38.28 38.16 37.55 37.40
30.76 29.16 28.73 23.98 27.16 23.71 34.63 40.63 39.77 38.23 38.33 39.47 39.27 39.32 39.02 34.90 32.41 32.06 32.44 30.94 30.08 29.97 30.34 31.23 31.60 31.81 32.56 32.83 33.22 34.00 34.40 34.85 35.09 36.22 37.06 37.60 37.12 36.16 36.10 35.53 34.87 34.80 34.82 34.51
35.17 30.36 26.88 25.74 26.03 31.48 34.50 37.76 37.37 36.51 35.06 38.36 37.45 38.20 38.37 35.90 33.37 30.37 31.87 31.41 30.30 30.59 30.62 30.78 31.54 33.14 32.62 32.48 32.66 32.93 32.59 33.18 32.93 32.46 33.21 35.34 35.39 34.30 34.00 33.16 33.09 33.22 32.97 32.73
34.99 33.56 28.82 29.78 24.22 21.73 33.45 38.82 42.40 41.25 32.05 37.58 37.35 34.91 33.37 37.05 32.70 27.05 31.47 32.36 31.26 31.90 31.46 30.91 31.24 31.60 31.71 31.93 32.66 31.76 31.20 31.51 31.20 31.75 32.05 34.03 34.87 34.18 33.29 33.20 32.91 33.22 32.50 31.15
29.30 30.12 28.29 28.60 27.02 31.15 35.13 39.36 41.73 29.50 30.44 35.87 35.43 32.29 29.61 26.96 27.73 29.69 31.48 30.80 31.91 31.91 32.10 32.79 31.61 30.31 31.01 32.01 32.76 31.16 30.63 30.14 31.70 32.10 32.28 32.93 33.53 33.69 33.93 34.29 34.40 33.81 32.77 31.49
29.57 28.36 28.83 30.76 27.67 24.61 36.91 37.58 31.93 33.17 35.48 34.69 33.29 31.41 28.63 29.08 29.45 30.22 31.07 31.16 31.28 31.41 32.09 31.94 30.55 30.37 31.57 31.75 31.07 30.07 30.18 32.08 32.55 32.02 31.75 31.54 31.42 32.39 33.30 33.05 33.62 33.94 32.69 31.56
29.77 33.34 32.23 32.45 29.99 35.09 36.28 34.47 35.26 35.77 33.67 33.60 33.10 32.41 31.01 29.22 28.81 29.57 29.71 29.88 29.84 30.89 30.45 30.65 29.69 30.22 31.25 31.83 32.53 29.61 30.12 30.87 29.72 29.05 29.22 29.38 30.27 29.97 29.76 27.99 29.74 31.65 31.90 30.76
35.54 38.40 33.92 33.84 33.38 33.06 34.44 34.61 34.40 34.08 32.98 34.11 33.92 32.63 31.03 28.34 29.32 29.67 30.49 30.25 29.83 30.05 29.65 30.09 28.77 27.41 27.41 29.25 31.55 31.55 31.83 31.96 29.74 27.90 26.92 26.70 25.62 25.60 26.70 26.64 26.01 25.33 27.54 27.21
32.27 35.41 32.94 31.48 33.22 32.94 32.36 32.76 33.07 32.91 32.46 31.17 31.98 32.03 30.74 29.53 28.59 28.60 28.23 28.43 28.73 28.91 29.07 28.70 27.52 26.40 25.92 27.08 27.50 29.75 31.32 31.83 30.26 29.56 28.60 26.95 25.27 23.73 23.20 23.83 23.94 23.79 24.79 26.63
31.84 29.08 27.85 27.40 31.31 32.29 30.41 31.81 32.52 30.90 31.14 30.98 29.38 28.78 29.61 28.47 26.86 26.79 26.11 27.15 27.10 26.72 27.41 26.72 26.46 25.74 25.81 26.34 26.67 27.41 29.60 30.45 29.35 28.46 28.62 28.52 27.37 25.25 23.38 21.38 20.59 24.48 24.75 25.25

GFSCGP_sfc_wetblb_093.txt.gz
Wetbulb
39.88 32.45 29.92 32.88 35.42 36.85 36.20 34.83 33.52 36.26 39.91 37.92 37.38 37.62 39.74 41.55 42.12 42.61 43.36 44.23 45.89 45.82 48.15 49.55 50.94 52.07 53.40 54.46 53.21 66.06 66.27 66.34 66.43 65.74 64.89 63.79 62.92 63.02 62.28 62.94 64.11 63.99 63.77 62.59
37.93 32.69 38.21 39.83 39.21 38.08 36.95 34.56 33.60 36.98 40.02 37.84 36.51 36.54 39.79 41.35 42.18 44.29 45.04 45.63 45.84 46.28 48.38 50.00 50.90 51.89 52.63 53.85 55.16 65.75 66.17 66.63 66.46 66.14 65.44 64.01 62.68 60.75 61.20 62.79 63.65 63.58 62.64 62.10
34.11 38.86 43.25 40.58 38.58 37.55 36.96 34.95 34.23 34.86 37.11 37.77 36.12 34.47 37.28 42.27 44.17 45.97 47.04 47.06 48.24 46.65 47.55 49.52 51.01 51.94 52.51 52.41 57.63 65.39 66.06 66.24 65.95 65.05 63.31 62.05 61.02 60.30 58.77 59.44 60.76 62.85 64.19 62.58
36.97 40.77 40.30 39.36 38.38 39.26 33.93 39.66 39.21 38.08 34.83 28.47 35.00 27.13 35.78 40.82 42.75 45.32 46.65 47.51 45.61 50.93 52.99 50.83 49.84 51.22 51.44 53.20 63.89 65.71 65.97 65.69 65.22 64.44 63.46 61.12 60.43 59.00 58.90 59.39 60.49 62.01 63.11 63.24
35.71 37.85 37.41 36.96 37.97 40.54 37.30 41.63 39.27 37.24 33.24 32.49 33.78 30.13 34.77 41.10 40.63 42.58 48.32 50.05 49.60 50.94 52.60 52.84 54.54 55.47 53.49 56.46 65.11 65.62 65.14 65.28 64.86 63.51 62.60 60.93 59.24 58.36 59.47 58.99 59.53 60.63 60.85 62.19
37.71 41.62 39.39 38.35 41.25 41.25 42.10 38.87 38.38 35.34 32.50 26.19 32.66 31.59 31.77 35.75 39.77 46.10 49.35 49.97 50.73 51.04 52.07 53.34 54.70 55.32 55.78 55.84 62.56 65.22 64.35 64.46 64.27 63.05 62.36 61.25 59.63 58.44 58.82 58.06 58.20 59.51 61.24 61.57
36.91 38.16 41.00 41.10 36.68 39.97 37.87 33.31 23.93 22.40 22.75 23.89 35.95 33.00 34.61 42.31 46.46 47.70 47.99 48.95 49.50 50.56 50.53 50.57 50.75 51.25 52.78 53.44 54.69 62.94 63.66 63.22 63.47 62.84 62.31 62.14 61.07 58.91 57.95 57.51 58.60 57.65 57.68 57.43
30.10 27.76 37.23 42.37 37.98 34.99 35.28 33.67 26.57 20.22 21.08 25.97 36.48 29.92 35.31 44.58 44.40 46.67 49.87 48.91 49.28 48.92 48.09 47.30 48.31 48.97 49.33 54.87 56.32 60.30 62.46 62.75 62.06 62.17 61.51 61.94 61.55 58.59 58.74 58.84 58.42 56.54 56.36 57.55
30.25 30.99 39.55 40.57 42.17 39.88 35.08 32.19 38.18 31.33 31.67 26.90 30.62 35.58 41.39 43.14 42.59 42.96 46.30 45.94 45.59 46.05 45.21 44.68 45.33 46.35 46.57 49.36 58.56 59.42 60.61 61.68 61.65 61.21 61.34 61.82 61.01 58.88 58.87 58.37 58.59 57.93 57.92 57.00
33.76 26.55 36.39 38.91 42.05 41.09 37.68 39.49 28.66 31.35 25.34 22.23 29.30 31.49 34.29 39.91 40.37 43.74 43.55 43.23 43.64 44.05 42.97 42.13 42.54 43.17 44.16 46.74 52.14 59.24 60.16 59.62 61.24 61.55 61.42 61.30 59.89 59.42 58.87 58.71 57.68 57.98 58.78 58.29
33.77 31.16 29.89 34.92 34.21 34.69 36.76 34.16 35.94 35.24 31.52 24.04 24.84 31.45 40.81 39.30 41.00 43.38 42.74 42.73 41.51 41.28 40.01 39.80 39.98 40.78 41.32 43.53 46.41 50.06 58.42 59.50 59.38 60.33 60.77 59.89 58.94 59.85 58.98 58.37 58.37 57.78 58.77 57.06
34.52 30.13 24.64 27.46 34.84 37.21 39.00 36.32 35.05 28.39 28.03 32.10 29.58 30.91 41.12 41.65 42.94 45.18 42.33 41.54 40.33 39.15 38.25 37.91 37.72 38.49 38.70 39.73 41.95 44.11 47.40 57.31 57.50 59.93 59.23 59.20 58.83 58.64 58.95 59.66 59.96 59.95 58.97 58.65
33.15 26.12 19.79 22.39 30.33 35.77 34.05 34.57 34.53 34.16 36.25 29.34 27.53 31.97 40.61 43.41 42.85 42.07 39.42 38.65 37.88 36.98 36.16 35.57 35.78 35.93 36.65 37.66 38.96 41.10 43.66 48.60 58.21 58.70 58.10 58.21 58.01 58.09 58.25 58.62 58.78 59.16 59.51 59.20
34.70 28.64 24.41 18.52 24.49 30.58 28.29 31.93 33.69 33.22 30.70 31.74 33.62 34.27 39.31 40.13 38.81 38.89 38.07 36.77 35.68 34.96 34.08 33.76 33.74 34.45 35.29 36.30 36.84 38.62 40.78 45.30 56.76 57.61 57.28 57.28 57.25 57.21 56.66 57.59 57.73 57.51 56.35 57.63
30.75 24.60 27.55 28.75 30.05 30.52 30.56 31.02 32.36 31.86 35.09 31.23 33.13 33.93 36.37 36.85 37.27 36.68 36.65 35.47 33.64 32.36 32.36 32.43 32.20 32.84 33.63 34.50 35.43 37.02 38.83 41.81 46.26 49.97 50.23 50.17 50.73 50.53 49.97 49.78 48.93 47.89 47.43 47.50
32.56 24.79 25.40 24.36 29.15 30.48 28.66 31.55 33.81 33.93 35.21 35.42 35.04 35.14 37.26 36.59 35.81 34.38 33.17 32.68 31.14 30.52 30.36 31.06 31.56 32.14 32.29 33.04 34.38 35.49 37.38 40.73 40.41 41.50 43.10 45.01 45.01 43.89 43.14 42.73 42.36 41.74 41.25 41.02
26.39 23.72 21.87 17.55 28.50 27.71 25.29 33.45 33.72 34.91 37.00 35.74 33.08 35.27 37.07 32.66 31.40 30.77 31.00 30.45 29.59 29.57 29.53 29.96 30.74 31.23 32.01 32.31 33.82 34.01 35.12 36.72 37.26 36.73 37.64 38.32 39.46 39.26 38.47 38.16 37.99 37.33 36.98 37.43
25.95 25.62 26.15 20.96 24.60 19.73 32.47 39.50 38.35 34.51 34.26 35.86 35.18 34.83 33.63 31.18 30.69 30.45 30.86 29.37 28.50 28.74 29.23 29.51 30.30 31.22 31.80 32.50 33.22 34.28 34.47 34.39 34.14 34.07 34.71 35.39 35.53 35.67 35.85 35.37 34.84 34.69 34.47 34.10
31.38 26.88 24.19 22.21 22.16 30.11 32.27 35.10 34.86 33.84 31.11 34.52 32.59 32.75 33.51 31.53 30.62 28.56 30.53 30.02 29.17 29.23 29.38 30.06 30.96 31.43 31.71 31.92 32.49 32.81 32.41 32.78 32.56 32.53 32.86 33.40 33.96 33.52 33.28 32.61 32.34 32.60 32.17 31.94
32.54 32.02 26.30 26.02 21.94 22.54 29.83 33.96 37.94 39.13 27.53 33.84 32.37 29.92 30.94 33.79 29.57 24.33 30.15 30.64 30.16 30.56 30.44 30.08 30.51 31.10 30.74 31.73 32.37 31.74 31.13 30.86 30.70 31.38 32.10 33.43 33.53 33.23 32.54 32.56 31.82 31.56 30.86 30.01
26.30 27.94 24.29 24.06 23.16 28.23 31.84 34.77 37.92 26.03 27.62 32.42 30.59 28.32 26.80 24.79 26.94 29.11 30.80 30.60 31.28 31.14 31.07 31.18 30.81 29.64 30.24 31.47 31.65 30.00 29.77 29.62 30.79 31.64 31.44 31.04 32.01 32.27 32.52 32.58 32.50 31.41 30.31 29.36
26.94 26.85 27.76 28.16 25.68 21.38 32.91 33.85 29.02 32.53 33.69 32.24 30.43 28.55 26.84 27.89 28.05 28.26 28.51 28.72 29.66 29.45 29.95 30.65 29.84 29.90 31.36 31.32 30.14 28.13 27.29 28.65 28.81 28.55 28.71 28.70 28.95 29.67 30.21 31.80 31.87 31.95 31.09 29.60
28.43 32.39 28.97 30.26 27.94 32.12 32.63 31.90 34.29 34.89 32.86 31.74 30.12 30.24 28.83 25.69 25.94 26.21 27.04 28.47 28.94 28.55 28.56 28.88 28.17 27.98 28.45 31.14 30.57 27.68 28.02 28.65 27.59 26.66 25.97 25.89 26.46 26.71 26.65 26.23 26.93 28.09 30.08 28.30
31.66 34.74 31.61 30.49 30.40 30.43 31.91 32.68 32.86 32.69 31.70 31.80 31.33 29.93 29.40 25.89 26.51 26.76 27.38 28.02 27.74 28.11 27.69 27.65 26.53 25.51 25.64 27.89 29.89 31.28 30.80 29.40 27.46 25.42 24.57 24.79 24.49 24.16 24.71 24.80 25.22 25.40 25.20 24.25
29.07 31.26 30.92 30.62 31.67 30.95 31.03 31.78 32.18 31.05 30.77 30.04 30.64 29.51 27.46 26.18 25.88 26.17 26.14 26.51 26.66 26.75 26.75 26.44 25.26 25.09 25.43 26.70 27.25 29.40 31.07 30.94 29.70 27.55 25.84 24.16 23.32 22.77 22.85 23.80 23.69 23.88 25.26 24.31
30.43 28.71 26.21 24.21 29.95 30.03 29.54 30.89 31.58 30.45 29.38 28.98 27.21 25.66 26.92 26.30 24.89 25.71 24.79 25.95 25.79 25.42 25.96 25.27 25.30 24.72 24.81 25.40 26.37 27.46 28.34 29.01 27.86 27.54 27.76 25.60 23.75 22.06 20.93 20.22 20.42 25.20 25.59 25.91

GFSCGP_sfc_wetblb_096.txt.gz
Wetbulb
38.04 31.40 28.80 31.05 32.76 34.84 34.12 33.09 31.49 34.07 37.18 36.18 35.88 35.83 37.76 38.38 38.68 38.24 40.65 41.27 41.54 43.35 46.19 46.07 47.35 48.45 48.97 49.45 50.07 64.42 66.25 66.59 66.28 65.03 63.89 63.27 63.05 63.01 62.95 63.19 63.01 62.45 63.50 63.19
35.34 30.10 36.09 37.52 36.77 34.99 33.81 31.69 31.24 35.45 38.10 36.76 35.17 35.13 38.53 39.61 38.86 41.37 41.97 42.94 43.64 45.14 46.43 47.36 46.48 46.87 48.51 49.76 50.84 61.42 65.62 65.99 65.99 65.93 65.48 63.97 63.74 62.99 63.05 62.80 62.95 62.71 62.51 62.95
33.42 37.15 41.48 38.45 36.61 35.05 34.49 32.20 32.81 33.24 35.81 34.87 33.45 33.34 36.37 40.40 41.35 42.29 43.53 44.24 45.91 46.14 46.63 47.98 48.07 46.89 47.55 49.14 51.12 61.16 65.01 65.69 66.10 66.37 64.95 63.12 60.65 59.57 59.41 61.35 62.74 63.22 63.10 62.69
34.34 39.01 37.62 36.62 36.01 37.60 32.14 37.91 37.17 36.07 32.34 28.50 34.34 25.98 35.29 38.77 39.77 42.27 43.81 44.71 47.56 48.96 50.55 52.17 52.21 52.74 52.42 51.78 51.19 60.18 64.81 65.50 66.02 65.68 63.73 62.10 61.92 60.54 59.93 61.01 59.43 62.07 63.55 62.78
34.11 35.81 35.16 34.19 35.41 37.93 35.04 39.48 37.76 36.23 31.50 29.31 32.78 26.91 33.34 37.44 37.51 40.39 43.06 48.39 48.70 49.36 50.87 50.77 51.66 52.43 53.45 53.95 55.20 63.02 64.85 65.61 65.64 64.11 63.87 62.36 61.31 59.65 59.59 59.03 58.81 58.81 61.83 62.78
35.90 39.35 37.54 35.98 38.78 38.39 39.55 37.17 35.00 33.70 30.68 25.09 31.93 28.24 30.17 32.96 37.19 42.13 46.75 48.84 49.64 49.11 48.52 48.39 49.09 50.31 50.64 51.47 54.55 61.64 64.67 65.09 64.50 63.87 62.71 62.07 59.71 58.71 58.92 58.62 58.39 58.71 58.54 60.48
33.18 34.07 37.41 40.44 35.50 37.52 35.79 31.35 23.81 21.82 20.52 23.06 32.70 29.35 32.21 38.35 42.90 43.11 43.86 46.98 47.12 46.07 45.60 45.56 44.78 45.39 47.47 48.08 50.88 56.41 63.33 63.34 63.56 63.45 61.96 61.33 59.60 59.30 58.93 58.36 58.13 58.49 59.64 59.93
28.03 26.45 34.65 38.77 35.92 33.11 32.79 34.00 26.64 20.52 20.69 23.34 32.69 26.66 32.75 43.51 45.29 46.01 45.09 46.11 45.06 43.65 43.39 42.32 43.71 44.05 44.55 46.53 49.63 55.37 62.30 63.01 62.40 61.94 61.30 60.75 59.88 59.32 59.22 59.05 58.58 59.05 59.55 59.47
27.88 28.67 36.28 38.39 38.06 38.28 34.18 29.19 34.83 29.44 30.23 26.68 28.06 32.39 39.51 43.06 42.98 43.82 43.06 44.00 41.81 40.49 39.99 40.02 41.77 42.03 42.36 44.21 46.67 51.96 60.23 61.48 61.82 61.52 60.64 60.12 60.10 58.46 58.10 58.20 58.86 57.54 56.53 55.80
31.98 24.80 34.08 35.80 36.52 37.46 37.73 38.14 27.94 28.27 21.79 20.34 26.29 28.51 31.23 37.46 38.88 41.74 42.34 40.14 39.10 38.67 37.85 38.39 39.27 40.08 41.49 43.33 44.60 48.15 54.94 60.10 60.65 60.13 60.46 60.23 59.09 59.11 59.22 58.56 57.29 56.97 56.61 56.41
31.53 29.06 28.28 32.38 30.26 28.72 29.79 30.85 34.04 33.94 30.43 23.45 22.37 27.10 38.88 39.03 40.45 40.64 41.37 38.73 37.04 35.90 35.39 36.03 36.92 38.48 39.33 41.23 42.81 44.53 46.28 54.65 57.29 57.52 60.03 59.36 58.71 59.31 59.27 58.21 57.47 57.25 57.39 57.53
32.77 27.92 24.05 25.92 32.59 34.14 31.51 30.32 34.72 28.76 27.41 29.47 26.96 28.47 41.08 40.02 41.87 41.29 37.87 37.13 36.51 34.85 34.30 33.79 35.26 36.27 37.01 37.79 38.79 41.30 42.76 47.03 53.82 56.94 59.56 58.77 58.92 58.95 58.68 58.22 57.81 57.05 56.81 57.60
31.57 24.53 19.32 21.78 26.46 32.65 29.87 31.66 33.24 33.27 32.47 28.22 24.91 28.81 39.54 40.18 36.97 36.49 35.66 34.20 34.20 34.00 33.53 33.18 32.94 33.90 34.64 36.11 37.28 38.43 40.19 43.73 48.10 57.71 57.93 57.45 58.50 58.40 58.37 58.29 58.23 59.05 58.45 57.54
33.92 27.46 23.67 18.13 21.91 27.35 25.45 28.79 31.20 31.16 25.70 28.23 29.89 33.25 37.43 35.80 36.71 36.31 35.23 34.23 33.12 32.26 32.14 32.23 31.84 32.64 33.52 34.72 35.81 37.08 38.60 41.78 46.23 56.99 56.81 56.73 56.55 56.49 56.35 55.50 54.80 55.04 57.75 57.74
29.40 22.70 25.87 27.48 27.89 27.60 26.50 26.55 27.75 27.89 30.24 28.68 32.19 33.22 33.24 34.96 34.38 33.75 34.11 33.21 31.55 30.46 30.49 30.91 30.86 31.33 32.19 32.99 34.26 35.87 37.73 40.03 42.31 44.90 48.92 51.06 51.14 50.91 50.18 48.82 47.67 47.51 47.15 46.85
31.66 19.25 25.11 22.91 26.81 27.19 26.11 28.83 30.04 30.51 34.08 34.00 35.93 32.71 35.14 34.86 34.32 32.14 31.23 30.82 29.11 28.57 29.33 29.91 30.16 30.55 31.11 31.96 32.87 34.40 35.63 37.86 39.53 40.26 40.18 43.71 43.42 43.61 43.28 42.75 42.22 41.94 41.19 40.94
26.03 22.03 20.78 16.52 25.19 25.64 20.00 26.83 30.12 33.55 34.56 35.41 30.97 33.79 34.28 30.96 29.37 28.82 29.18 28.74 27.59 28.25 28.82 29.28 29.32 29.99 30.99 31.44 32.57 32.67 34.24 36.10 36.96 36.27 37.87 38.33 38.69 37.60 37.56 38.33 37.91 37.05 36.95 37.19
24.47 20.67 21.32 18.96 23.59 15.10 30.64 37.91 35.92 32.48 32.78 33.61 33.43 32.62 32.00 29.10 28.80 28.65 29.32 27.72 27.08 27.58 28.08 28.84 29.60 29.90 30.87 31.85 32.32 32.93 33.27 33.55 34.46 33.72 33.95 34.47 34.80 33.76 33.98 33.87 33.52 33.91 34.27 34.03
29.07 23.99 20.59 19.34 19.94 24.43 28.56 33.24 32.18 32.12 28.51 31.97 30.62 31.28 31.11 29.51 28.98 27.22 29.89 29.31 28.11 28.27 28.84 28.94 29.89 30.47 31.00 31.25 31.76 32.00 31.27 31.64 31.41 32.11 31.96 32.53 33.22 31.95 32.06 31.22 31.03 31.61 31.63 31.52
28.94 28.94 23.61 23.46 19.73 18.52 27.74 30.73 34.52 36.30 25.04 30.64 29.27 27.35 31.75 31.05 26.95 23.46 29.10 30.13 29.44 29.44 29.30 28.91 29.82 29.61 29.17 30.14 30.64 28.84 28.48 28.56 29.06 29.95 30.92 32.44 32.91 31.99 30.84 30.47 30.01 30.59 30.25 29.84
24.49 25.37 21.50 21.84 21.78 27.06 29.89 31.82 35.45 25.13 25.04 29.57 28.12 26.95 26.88 25.20 26.71 28.69 30.26 29.48 29.80 29.48 29.18 28.48 28.27 28.80 28.85 29.11 29.49 27.47 27.10 26.28 27.68 29.10 29.37 29.48 30.47 31.72 31.94 31.70 31.38 30.33 29.43 28.88
26.21 25.18 25.00 25.17 22.83 20.18 31.31 31.87 28.29 31.39 31.48 29.78 28.32 27.70 26.29 25.72 25.47 25.15 27.29 26.86 27.66 27.01 26.75 27.15 26.42 26.50 28.74 29.25 27.94 26.22 25.41 27.12 27.63 27.51 26.76 26.57 26.97 28.13 29.44 30.31 30.62 29.67 28.37 26.82
25.51 29.00 26.17 27.59 23.83 30.63 32.05 30.96 33.99 33.53 30.52 30.17 29.44 28.67 27.18 25.91 24.06 25.57 26.37 27.16 26.62 25.42 25.44 25.60 25.45 25.73 27.19 29.33 29.22 26.30 26.83 26.97 26.21 25.37 25.12 25.15 25.44 25.68 26.29 26.28 26.90 26.56 26.96 25.88
29.47 31.89 28.92 27.97 29.03 29.91 30.86 31.24 31.39 31.49 30.22 31.14 30.53 28.54 28.31 25.53 25.25 25.29 25.75 25.74 25.51 25.38 24.59 25.28 24.89 24.81 25.34 27.54 28.63 29.99 30.17 28.38 26.12 24.27 23.55 23.86 24.37 24.12 24.54 25.23 25.13 24.03 23.62 23.27
27.55 29.72 28.99 27.19 29.47 29.97 30.21 31.29 30.38 30.01 30.26 29.45 28.95 27.73 25.60 25.30 24.49 24.53 24.09 24.09 24.36 24.50 24.76 24.52 23.73 23.59 24.09 25.90 26.73 28.02 29.62 30.33 26.76 24.94 23.93 22.86 22.55 22.61 23.34 24.27 24.35 23.77 24.45 23.91
28.78 27.55 25.91 23.13 29.23 28.81 28.20 30.02 31.84 29.32 28.08 27.48 25.79 24.83 24.70 24.17 23.28 23.43 23.18 23.66 23.72 23.22 23.51 22.81 23.01 22.42 22.55 23.21 23.63 24.72 26.72 27.83 27.62 27.11 25.07 23.10 21.32 20.54 20.71 21.00 21.74 26.52 26.82 26.58

GFSCGP_sfc_wetblb_099.txt.gz
Wetbulb
36.16 30.69 28.01 30.04 31.70 33.25 32.28 30.55 29.03 30.64 35.64 32.90 34.16 34.76 37.63 39.95 35.64 36.08 37.33 38.82 40.44 41.36 44.63 45.15 45.37 45.92 45.97 46.02 45.81 58.37 64.23 66.20 66.02 65.55 64.77 64.50 64.10 65.31 65.03 65.47 64.69 64.58 64.42 63.45
33.90 28.75 34.04 35.66 34.51 32.85 31.44 29.02 28.85 32.41 35.84 33.64 32.82 33.26 37.72 38.07 37.08 38.01 39.83 40.02 40.95 42.41 43.96 45.59 46.30 44.69 44.42 46.72 46.62 53.61 62.74 65.42 65.93 65.86 65.59 64.82 64.75 65.12 65.19 64.45 63.93 64.26 63.20 63.31
31.03 35.50 39.44 36.03 34.17 32.74 31.92 29.59 30.50 30.98 34.82 34.25 32.16 32.82 35.48 38.59 39.72 41.59 42.11 41.47 42.46 46.16 48.38 50.43 51.12 49.77 49.41 46.97 45.79 51.84 61.68 64.93 65.91 65.97 65.40 61.50 61.32 61.40 61.42 62.04 62.52 62.69 63.11 62.98
32.76 37.29 35.98 33.86 33.53 35.05 29.95 36.50 35.75 34.21 30.65 26.06 33.51 25.60 34.79 36.92 36.27 39.88 42.09 42.82 46.46 47.53 48.27 48.15 48.02 48.57 49.71 50.77 52.70 50.47 60.52 64.67 65.50 65.88 64.71 62.74 62.12 61.32 62.17 62.94 63.26 61.81 62.14 61.98
32.68 34.78 34.02 32.74 34.01 36.54 33.19 37.79 35.75 34.54 29.68 27.86 30.99 25.19 31.58 37.47 35.95 38.35 43.48 47.30 46.75 46.60 46.48 46.14 46.18 47.09 48.26 48.68 50.43 53.86 57.13 63.90 65.01 65.48 64.84 63.02 62.03 61.74 61.50 62.13 59.35 61.55 61.33 61.53
35.19 38.18 36.84 36.08 38.15 36.93 38.01 34.56 33.77 31.13 28.72 23.00 30.77 27.13 29.27 32.03 35.51 41.20 44.40 44.20 44.25 44.30 44.58 44.82 46.12 46.70 47.47 47.51 48.42 50.67 57.79 62.87 64.55 65.23 64.53 63.07 61.84 59.79 59.23 59.92 59.10 59.46 60.48 61.25
33.09 33.46 35.66 38.45 33.95 36.45 33.79 29.01 21.76 20.45 20.10 22.55 30.96 27.09 28.93 39.03 42.40 42.55 42.64 42.71 42.50 41.82 41.56 42.10 42.31 42.71 43.85 44.65 45.83 48.85 53.92 62.76 64.16 64.67 64.29 62.64 61.44 59.69 59.07 59.13 59.35 58.39 57.86 57.54
26.50 24.33 32.51 36.57 34.46 31.44 31.52 29.52 22.56 19.30 20.59 21.54 31.13 24.25 29.70 41.45 43.16 43.62 43.35 43.14 41.48 39.72 39.71 39.97 40.68 41.04 41.21 42.88 45.09 45.25 49.88 61.99 63.45 63.51 62.58 61.50 59.67 59.92 59.71 59.08 59.10 58.99 58.52 58.38
26.58 27.42 34.90 35.67 35.52 32.79 31.36 27.72 33.14 27.96 26.99 24.23 26.08 30.16 38.34 41.23 40.79 43.46 42.37 41.12 39.07 37.36 36.92 37.33 38.68 39.23 39.82 40.92 43.07 44.56 48.51 61.34 62.08 62.68 60.37 59.31 59.35 59.55 59.06 58.73 58.82 58.70 58.76 59.31
30.57 23.00 31.98 33.70 34.30 34.41 33.08 35.19 25.90 28.81 20.73 19.93 24.03 25.87 27.04 35.84 39.00 41.40 40.28 38.34 37.59 36.46 35.61 35.31 36.32 37.16 38.46 39.91 42.22 44.70 46.79 51.06 60.10 60.72 60.74 60.12 59.71 59.34 58.67 58.79 58.39 57.62 57.40 56.98
30.15 27.34 26.61 30.12 27.56 25.78 26.53 25.43 29.70 30.98 29.10 24.38 21.10 24.12 39.16 37.89 40.09 41.44 37.52 36.57 35.47 34.93 34.28 33.78 34.43 36.02 36.92 38.37 40.76 42.83 43.68 46.98 50.82 57.90 59.76 59.26 58.90 58.64 58.57 58.42 57.20 56.98 56.58 55.84
31.20 27.14 22.71 24.07 30.96 32.17 29.04 29.39 31.11 17.51 21.32 25.89 25.54 26.31 40.18 38.03 37.54 37.56 35.32 35.20 34.94 34.05 33.46 33.33 33.52 34.25 34.71 35.61 37.38 39.93 41.05 43.85 47.21 51.67 58.08 57.59 58.82 58.66 58.26 57.76 57.77 57.00 56.74 56.42
30.11 23.69 19.08 21.05 25.21 29.01 27.09 29.16 30.76 30.84 29.68 23.68 23.88 28.29 39.29 38.21 36.31 36.03 34.66 33.73 33.00 32.80 32.46 32.09 32.07 32.51 33.15 34.14 35.56 37.30 39.93 41.64 43.73 48.81 57.26 57.84 58.20 58.30 57.84 57.77 57.85 57.59 56.78 55.34
33.34 26.35 22.83 17.96 21.73 25.97 23.73 25.87 28.03 26.71 18.91 22.31 24.22 27.34 36.29 36.18 34.91 34.16 33.50 32.46 31.50 31.28 31.24 30.93 30.51 31.29 32.58 33.58 34.23 35.70 37.44 39.99 40.73 44.38 55.36 57.36 57.66 57.70 57.52 57.90 58.10 57.90 56.30 56.78
28.17 22.22 25.69 26.14 26.96 27.12 25.24 24.51 25.69 24.43 25.25 20.83 25.38 30.18 33.29 34.12 32.75 32.19 32.10 31.16 30.11 29.44 29.67 29.69 29.39 30.32 31.32 32.22 33.13 34.43 35.84 38.23 38.67 40.30 41.71 45.29 50.72 51.74 52.07 50.69 50.18 49.64 49.51 49.89
29.23 18.52 24.70 23.60 25.48 25.25 23.19 25.67 26.48 27.34 28.60 28.26 29.26 31.18 34.78 33.79 32.56 30.27 29.36 28.53 27.66 27.75 28.31 29.12 29.45 30.16 30.14 31.27 32.13 33.05 34.01 35.83 37.05 36.58 36.16 39.02 41.59 44.16 42.66 42.53 42.61 43.07 41.66 41.07
25.32 22.27 19.69 15.15 23.88 23.48 18.56 24.75 26.57 28.12 33.13 32.53 30.50 31.81 32.83 29.86 27.82 26.76 27.41 27.24 26.49 27.03 27.58 28.14 28.65 29.70 30.13 30.51 31.92 31.32 32.33 34.20 34.54 34.29 35.23 34.26 35.20 36.40 36.75 36.86 36.68 36.60 36.76 37.35
23.84 20.12 19.49 16.55 20.10 11.46 26.77 32.61 32.92 30.26 31.50 33.96 33.19 33.35 31.39 28.15 28.03 28.31 28.28 26.73 26.31 27.05 27.06 27.84 28.79 28.97 30.01 30.31 30.74 30.85 31.37 31.27 32.00 32.00 32.81 33.76 33.05 32.50 32.85 32.85 32.59 33.08 33.65 33.65
27.92 23.67 13.38 13.01 16.24 23.11 26.33 30.70 30.01 29.27 26.19 30.64 30.09 31.31 29.32 28.65 27.94 26.22 29.13 28.49 27.27 27.69 27.84 28.53 29.38 29.40 29.54 29.15 30.02 29.46 28.68 29.03 28.78 28.94 30.02 31.68 32.01 31.90 31.39 30.24 30.41 31.09 31.23 31.09
27.32 26.85 17.29 18.45 16.90 16.49 25.20 29.82 34.71 34.46 22.89 29.08 28.29 27.60 30.21 29.05 26.61 22.96 28.08 28.67 27.81 27.98 27.55 26.84 28.75 28.85 28.13 28.17 28.71 26.93 26.30 26.42 26.06 27.19 27.77 29.59 31.50 31.41 30.54 30.30 29.61 30.25 30.14 29.26
22.37 22.47 19.59 19.77 18.43 24.13 28.29 30.94 34.01 25.77 23.92 28.16 27.67 27.11 29.20 26.26 25.89 27.07 27.77 26.91 27.30 27.52 27.81 28.14 27.80 27.81 27.27 28.12 27.39 24.40 24.20 24.24 25.95 27.11 27.44 27.60 28.50 29.72 30.31 29.76 29.43 29.33 28.89 28.75
25.61 23.57 21.68 22.10 20.34 19.24 30.19 30.82 27.56 28.92 29.88 28.24 27.21 26.51 25.21 24.99 25.40 25.25 25.87 25.80 25.72 24.88 25.47 26.50 26.59 26.62 28.75 27.38 25.35 23.47 23.60 24.98 25.56 25.97 25.76 25.62 26.41 27.19 27.84 28.00 28.00 27.77 27.42 26.57
22.86 27.00 24.95 25.23 22.96 29.86 30.49 29.53 32.61 32.12 29.47 29.09 27.20 26.81 26.08 23.56 23.43 24.01 24.23 24.50 24.72 24.97 25.05 25.91 25.40 25.63 27.01 28.09 27.96 24.67 24.99 24.92 24.75 23.85 24.24 24.63 25.29 25.32 25.95 25.00 25.05 25.04 25.69 25.62
28.14 31.45 27.15 26.59 28.07 28.64 29.79 30.02 30.51 30.38 29.02 28.86 28.44 27.67 25.34 22.89 22.74 23.33 23.92 23.65 23.68 24.13 23.88 24.94 24.08 23.32 23.94 25.77 26.69 28.64 27.11 25.76 23.53 22.55 22.80 23.51 24.32 24.10 24.91 24.63 24.55 23.59 23.10 23.50
26.61 29.01 27.43 26.00 28.63 28.51 29.23 29.30 29.27 28.87 28.39 26.99 26.59 25.45 24.67 23.83 22.91 23.11 22.40 23.13 23.53 23.50 23.49 23.38 22.44 22.04 22.27 23.45 24.12 25.19 27.08 27.78 24.63 23.22 22.73 22.06 22.11 22.54 23.69 24.57 24.08 24.20 25.61 25.15
27.96 26.46 24.82 21.60 28.47 27.72 27.00 29.66 29.82 27.00 25.84 25.73 23.44 22.21 23.95 22.81 22.09 23.21 21.88 21.84 21.22 20.43 21.12 20.47 20.97 20.98 20.85 21.76 21.79 23.08 25.03 25.85 25.79 24.94 22.62 21.07 20.56 20.56 21.07 22.17 23.25 27.53 27.69 27.72

GFSCGP_sfc_wetblb_102.txt.gz
Wetbulb
34.78 29.74 27.64 31.11 30.85 31.67 31.29 29.02 27.46 28.72 33.87 31.10 32.01 32.99 33.97 35.89 35.46 35.34 36.51 36.98 37.97 39.48 42.02 43.79 49.22 50.36 46.88 43.17 43.40 44.96 49.81 62.77 66.20 66.63 65.21 64.57 63.88 64.62 65.05 64.99 64.58 64.15 64.56 64.10
32.91 27.61 33.37 34.18 32.89 31.52 30.36 27.86 27.07 30.80 34.09 31.84 30.79 32.19 36.18 36.13 36.48 36.88 37.57 37.71 38.02 42.01 47.96 49.94 49.40 49.26 49.71 50.13 49.23 46.31 49.27 59.12 65.47 65.82 66.09 65.87 65.27 65.53 65.43 65.22 64.49 64.11 64.15 64.04
29.76 34.40 38.13 34.47 32.44 30.82 29.67 27.50 28.39 29.35 32.46 31.99 30.36 30.57 32.33 36.86 36.89 38.81 40.26 41.29 46.64 46.31 45.90 47.09 47.48 47.46 47.61 47.94 48.17 50.18 51.49 55.97 64.40 65.40 65.93 62.71 63.85 62.88 63.45 64.33 64.22 64.36 64.40 64.02
30.75 35.51 34.93 32.95 31.97 32.65 27.41 33.76 33.65 31.90 28.69 23.32 30.68 23.56 31.52 34.16 35.00 37.35 44.58 44.62 43.50 43.55 44.60 45.16 45.09 45.47 45.92 47.31 47.86 48.86 50.58 53.06 62.42 64.85 64.78 63.59 62.48 61.46 62.57 63.31 63.88 64.59 64.38 63.82
30.78 33.26 32.66 31.48 33.05 34.91 31.03 35.83 33.80 32.28 28.13 25.47 26.99 24.79 28.86 35.30 33.23 40.11 41.90 42.35 41.55 41.30 41.35 41.70 42.47 43.46 44.60 45.41 47.24 47.95 48.53 51.67 57.14 64.37 64.43 63.42 62.19 62.39 62.27 63.52 62.94 63.04 63.28 63.36
33.53 36.64 36.03 34.67 36.50 35.56 36.75 33.22 32.38 30.49 28.52 22.01 27.98 26.68 27.83 29.08 35.16 39.95 42.46 42.49 41.56 40.21 39.32 40.26 41.51 41.86 42.07 43.24 44.37 46.73 47.82 49.42 54.28 64.04 64.25 63.25 62.18 61.51 61.12 62.05 61.90 62.00 62.03 61.88
32.03 32.48 34.65 37.22 34.16 36.26 33.30 28.75 22.91 20.32 20.19 21.43 29.64 25.62 30.18 36.02 40.74 41.76 41.62 40.40 39.11 38.21 37.13 37.20 37.64 38.41 39.74 40.43 42.04 44.51 46.12 47.23 50.58 62.72 64.02 63.81 62.34 61.33 60.92 61.37 61.35 61.15 61.07 60.71
25.90 23.68 32.24 36.25 33.30 29.33 29.82 29.16 23.07 18.18 19.48 20.50 28.57 22.49 27.55 40.30 41.28 41.67 41.67 39.99 38.31 36.47 36.34 36.47 36.91 36.85 37.70 39.00 40.51 42.17 44.11 45.97 49.49 61.96 63.90 64.39 63.21 60.54 60.27 61.13 60.92 60.50 60.23 60.43
27.02 27.26 34.84 34.93 34.77 31.54 29.11 27.11 31.86 26.77 26.75 23.08 24.50 28.09 36.32 40.58 40.10 42.19 40.66 38.67 36.57 35.05 35.24 35.49 35.98 36.12 36.61 37.41 38.67 40.56 42.87 44.79 50.00 63.53 63.18 62.36 60.88 59.34 58.88 59.69 60.24 59.67 59.44 58.13
30.30 22.82 30.95 32.80 32.90 32.65 29.93 31.10 22.25 24.70 18.31 18.59 22.58 24.35 25.53 34.80 37.15 39.98 37.47 35.90 35.09 34.90 34.11 33.98 34.53 34.95 36.09 36.92 37.94 39.88 42.53 44.39 48.36 54.09 61.57 60.62 60.41 60.17 58.86 58.82 58.52 58.78 58.34 58.56
28.93 25.62 25.64 28.59 26.62 23.54 25.40 23.53 26.14 28.54 25.29 18.93 20.07 23.93 37.65 36.34 37.65 37.07 35.98 35.29 34.32 32.96 32.89 32.62 32.99 34.10 35.00 36.12 36.77 37.82 40.82 43.82 46.37 48.92 56.44 59.53 59.01 58.85 58.92 58.56 58.15 58.62 58.18 58.28
29.92 26.45 21.06 23.17 29.10 30.46 27.85 27.89 28.59 14.71 16.64 22.85 20.92 22.91 38.99 37.92 36.62 36.50 34.88 34.29 32.87 32.60 32.36 32.13 32.20 32.73 33.40 34.10 35.16 35.98 38.42 40.80 42.81 46.22 52.33 58.53 58.23 58.25 58.01 57.81 57.75 57.77 57.14 57.48
29.25 23.06 18.43 19.83 24.47 28.01 25.43 26.96 28.90 27.67 26.98 20.74 14.58 21.10 38.62 38.50 36.98 36.07 33.82 32.24 31.63 31.41 31.32 30.83 30.99 31.35 31.94 32.83 33.86 34.86 36.99 39.10 40.83 43.13 51.11 56.72 57.39 57.97 57.49 57.59 57.38 57.62 57.18 56.90
32.55 25.28 21.76 16.61 20.90 24.93 23.25 25.07 25.95 23.44 12.21 19.12 21.64 23.91 29.91 34.67 33.29 32.11 31.42 31.88 30.98 29.97 29.84 29.90 29.95 30.49 31.09 32.17 32.89 33.58 35.11 37.78 40.33 39.82 40.62 42.54 49.72 56.96 56.86 57.64 57.62 57.14 57.04 56.14
27.83 21.81 24.71 25.32 25.22 26.17 25.24 24.73 24.73 22.64 23.16 18.62 21.61 22.50 27.93 32.86 31.06 30.26 30.31 30.34 28.86 28.23 28.35 28.85 28.76 29.49 30.11 30.35 31.54 32.41 33.64 35.80 37.72 37.46 37.14 37.09 39.44 43.91 49.85 52.40 55.14 55.14 54.15 53.37
28.03 17.14 24.05 22.08 25.46 25.33 22.59 23.44 24.04 24.40 24.85 24.74 25.55 24.72 34.55 32.03 30.46 28.69 28.03 28.13 26.78 26.78 27.09 28.14 28.45 28.71 29.03 29.23 29.93 30.71 31.62 33.31 35.80 35.83 35.53 36.58 35.05 36.56 37.91 41.27 43.25 42.39 41.22 41.04
24.30 21.31 19.29 13.18 22.40 22.04 16.68 22.50 24.06 26.17 29.60 26.88 21.53 27.91 31.44 28.14 26.35 25.69 25.96 26.28 25.74 26.10 26.71 27.39 27.49 28.16 28.58 28.64 29.76 29.26 30.05 31.54 32.26 33.30 34.32 34.97 34.79 33.01 33.29 34.60 36.26 35.91 35.86 36.10
24.23 19.37 18.76 16.16 19.29 8.54 19.83 32.23 31.24 29.18 29.23 31.09 33.61 33.17 30.83 27.18 27.13 26.83 26.97 25.74 25.68 25.90 26.02 26.98 27.58 27.71 28.11 28.68 28.40 29.36 29.57 29.65 29.43 29.64 31.52 32.80 33.58 32.78 32.29 32.10 31.72 32.23 32.75 32.36
26.68 22.93 13.49 11.58 11.81 18.64 24.51 27.99 27.71 27.38 24.63 28.64 30.48 28.82 27.79 26.77 26.43 25.30 28.17 27.56 26.69 26.34 26.52 26.85 28.36 27.92 27.75 27.40 27.88 27.48 27.11 27.37 27.46 27.31 28.43 29.81 31.27 31.60 31.22 30.05 30.15 30.63 30.28 30.28
26.16 27.13 15.92 13.07 11.44 12.81 22.47 28.71 32.27 33.37 22.24 28.33 28.65 29.92 27.95 28.24 24.92 21.67 26.61 27.13 26.67 27.44 27.16 26.87 27.67 27.99 26.86 26.65 27.20 25.67 24.72 24.88 24.57 25.79 27.05 28.90 29.22 28.92 28.78 29.24 28.85 29.89 30.03 29.65
21.96 22.36 17.63 17.13 17.08 20.99 26.50 28.17 33.31 23.56 20.96 27.39 26.88 27.91 30.76 23.69 24.42 25.02 26.52 25.75 25.93 25.77 26.61 27.42 26.91 26.36 27.78 26.83 26.40 23.31 23.35 22.70 24.87 26.30 26.52 26.67 27.58 27.70 28.35 28.11 28.49 28.47 28.32 28.32
23.13 20.35 19.64 21.27 18.12 16.99 28.82 29.34 24.96 27.03 28.46 26.85 25.96 26.07 24.46 23.84 23.75 23.95 24.35 24.50 24.66 24.32 24.72 25.43 25.19 25.09 26.73 27.93 25.61 23.73 22.63 24.51 24.75 24.99 24.55 24.92 25.63 26.27 26.83 26.74 26.85 27.41 27.88 27.31
21.64 26.21 23.81 24.45 22.20 28.60 29.58 28.41 30.93 31.10 27.95 26.83 26.07 26.10 25.14 23.03 22.10 22.49 21.99 23.03 23.51 23.11 23.48 24.33 23.73 23.83 24.56 25.34 26.77 24.10 24.06 23.06 23.05 22.33 23.33 24.07 24.47 24.39 24.76 24.11 24.70 25.02 25.70 25.95
27.35 30.66 26.00 26.21 26.89 27.73 28.68 29.13 29.61 29.45 27.66 28.01 27.53 26.04 24.61 21.74 22.06 21.08 21.89 21.85 21.63 21.69 21.65 22.86 21.93 21.72 22.20 23.83 24.78 25.71 26.36 24.22 22.71 21.33 21.18 22.10 24.29 23.67 23.70 24.53 24.98 24.31 23.53 24.10
26.51 28.60 26.96 25.89 27.77 27.41 27.84 27.96 28.18 27.37 27.03 25.64 25.68 24.83 23.30 22.55 21.74 21.45 20.63 20.88 21.04 20.70 21.26 21.70 21.06 20.79 20.69 21.53 21.96 22.89 24.66 26.25 23.20 21.73 21.80 20.84 21.39 23.03 24.60 24.76 25.53 25.23 26.65 26.62
28.09 25.69 23.97 20.39 27.93 26.60 25.67 28.25 28.04 25.90 24.75 24.81 23.62 22.28 22.98 21.97 19.83 19.10 18.07 19.38 19.72 19.84 20.52 19.66 19.67 19.80 19.51 20.07 20.10 21.69 23.65 24.49 23.98 21.89 20.02 19.35 19.44 19.04 19.64 20.43 20.43 25.66 27.57 27.88

GFSCGP_sfc_wetblb_108.txt.gz
Wetbulb
43.83 39.78 37.58 40.80 42.02 42.01 40.80 38.86 38.16 41.31 43.73 40.95 40.44 42.00 44.53 46.87 47.14 47.32 47.82 48.74 48.82 51.25 54.95 56.16 56.88 57.46 57.88 58.54 58.56 58.96 59.73 61.14 61.54 58.11 62.85 65.67 66.24 67.73 68.72 70.19 70.24 69.49 69.27 68.29
40.17 36.23 41.42 42.69 42.12 40.12 39.08 37.70 38.06 40.98 42.76 41.48 41.69 41.83 44.84 46.44 46.86 47.53 47.88 47.85 51.13 52.49 53.26 54.06 54.87 55.74 55.68 55.93 56.55 56.73 57.53 58.84 60.06 60.97 59.78 64.67 66.47 67.10 67.58 68.86 69.46 68.78 68.08 68.08
38.75 41.25 43.75 41.34 40.38 38.49 39.01 37.64 38.07 37.93 41.29 42.73 41.42 39.88 42.38 44.33 45.79 46.95 49.98 52.00 51.40 51.03 51.18 51.91 52.01 52.96 54.07 54.05 54.26 54.27 55.43 56.25 57.53 59.48 61.00 61.47 65.93 67.12 66.45 66.66 67.48 67.68 68.33 67.67
40.41 44.53 41.31 39.98 38.73 39.93 36.05 41.16 39.61 38.15 37.30 34.31 40.76 33.57 39.99 42.73 43.56 46.93 49.12 50.25 50.43 49.80 49.98 50.07 50.13 50.72 51.34 52.08 53.13 53.52 53.80 54.27 55.20 57.39 58.70 60.32 61.25 63.58 65.70 66.17 66.72 66.25 67.10 68.25
39.00 38.76 38.55 38.41 39.01 41.22 37.91 40.95 39.61 39.38 37.93 37.62 37.71 34.79 38.93 42.27 41.09 44.71 48.40 49.05 48.53 48.40 48.33 48.16 48.49 49.09 50.18 50.99 50.92 51.38 51.54 52.08 53.15 53.87 54.22 56.07 59.54 64.41 66.11 66.21 65.96 65.51 65.79 66.78
40.05 42.65 41.52 40.59 41.66 41.59 41.74 39.60 39.41 39.44 37.74 30.99 36.27 35.75 36.83 39.53 41.02 45.39 47.70 46.69 46.95 47.40 47.92 47.84 48.39 48.49 48.61 49.16 48.93 48.86 48.42 48.99 50.48 50.19 51.29 52.82 55.37 60.67 64.82 65.70 65.29 64.52 65.17 65.00
37.86 38.66 41.34 41.91 38.86 41.00 39.57 37.07 30.92 29.31 29.27 28.98 36.71 34.99 38.70 42.35 44.89 46.05 44.63 45.77 46.49 46.90 46.28 45.77 44.87 45.26 45.97 46.12 46.16 45.39 44.30 44.21 46.32 45.98 47.73 50.48 51.87 58.31 61.48 65.51 65.73 64.88 64.69 63.91
32.12 29.93 38.23 40.07 38.75 37.25 37.51 37.52 30.94 23.87 26.95 31.49 36.03 31.48 38.60 45.07 45.03 44.57 43.41 43.89 43.41 44.10 45.31 44.63 43.90 44.17 43.93 44.04 43.66 42.10 39.76 40.09 41.99 42.77 45.09 47.79 49.70 53.75 61.94 64.38 63.55 65.16 65.17 63.92
31.81 31.30 37.66 37.90 37.80 36.76 36.04 32.86 37.47 31.69 33.46 29.56 33.56 37.16 42.10 42.65 42.15 43.22 42.58 42.61 41.78 41.77 43.21 42.92 42.86 42.65 41.82 41.55 41.40 37.72 37.54 38.17 39.89 41.38 43.77 46.14 48.92 52.93 62.47 66.19 64.30 64.32 66.37 64.97
34.83 28.31 34.72 36.36 37.10 36.49 35.86 37.38 30.06 32.21 22.59 22.89 30.39 32.55 35.55 37.88 39.12 40.34 38.77 39.54 41.15 41.86 41.75 41.78 41.83 41.19 39.53 39.09 38.39 37.03 37.00 37.03 38.38 40.85 42.97 45.80 47.71 53.53 64.10 66.01 64.57 64.03 66.49 65.70
36.86 33.28 30.04 33.39 32.09 33.19 32.43 31.17 31.98 33.09 31.83 25.35 25.00 30.68 40.67 37.57 37.90 37.69 39.31 39.87 40.06 40.41 40.49 40.48 40.53 40.50 39.20 38.71 36.97 35.68 35.00 35.23 36.97 39.70 42.01 44.69 51.02 62.27 64.19 64.31 64.77 64.48 65.29 64.68
35.04 33.16 28.63 29.98 34.13 35.83 34.33 31.97 32.32 26.96 25.77 29.65 29.05 30.14 41.87 40.83 39.75 39.45 39.01 38.74 39.83 40.05 39.83 39.69 39.50 38.82 37.30 36.84 35.92 33.30 33.21 33.01 35.62 38.49 41.57 44.20 48.92 54.50 60.80 62.06 63.56 63.90 62.91 62.92
35.55 31.20 25.02 26.00 30.58 33.69 31.65 33.35 33.76 32.21 30.97 26.65 25.20 30.54 41.70 39.19 38.18 38.05 37.79 38.03 38.24 37.71 37.93 38.17 37.53 36.31 33.53 33.18 31.70 31.37 32.30 33.09 34.49 37.33 40.24 41.28 43.32 45.32 48.91 59.27 60.49 60.86 60.84 60.71
36.82 31.95 28.61 24.96 27.47 32.02 28.08 30.74 32.14 30.07 25.50 27.29 28.63 30.54 35.84 37.80 37.66 37.69 37.03 36.80 36.65 36.25 35.31 34.96 35.43 34.87 32.50 31.19 30.61 30.42 31.25 32.49 33.75 35.61 36.90 38.07 39.31 41.79 43.27 46.22 52.08 58.59 58.91 59.17
34.68 26.95 29.93 30.63 30.67 30.18 29.63 29.77 30.72 29.22 29.80 25.12 27.89 28.16 32.37 35.34 36.46 35.98 35.81 35.02 34.45 33.12 31.97 32.02 32.94 33.16 31.53 30.55 30.22 30.05 30.25 31.19 32.39 32.84 33.32 35.14 38.08 37.99 37.65 39.07 40.27 43.07 49.14 56.27
33.90 27.17 27.85 26.30 30.09 29.92 27.36 30.08 30.66 30.19 29.88 29.39 29.83 28.36 35.61 37.89 35.59 34.28 32.62 32.47 31.27 30.31 29.44 30.46 31.32 31.65 30.59 30.30 29.59 29.36 29.70 29.92 31.20 30.90 31.15 32.48 35.03 35.95 35.86 35.78 36.40 36.47 37.46 39.47
31.36 28.87 25.47 20.91 26.49 26.12 22.46 27.71 28.87 29.81 31.42 30.65 25.72 32.38 37.15 33.32 32.13 32.30 30.96 30.31 28.56 28.46 28.79 29.28 29.82 30.41 30.48 30.28 30.57 29.52 29.70 30.17 29.49 29.27 30.38 31.01 32.69 32.91 33.75 33.84 33.17 33.27 33.30 34.65
29.49 28.26 27.26 22.26 22.52 14.78 27.62 34.01 32.85 30.56 32.24 32.12 31.65 34.14 36.39 32.64 30.41 30.24 30.17 28.95 27.54 28.01 28.39 29.00 29.91 29.86 30.34 30.83 30.25 31.13 31.03 29.88 29.06 28.55 29.06 30.04 30.50 30.94 32.19 32.45 31.49 31.31 30.66 31.52
33.39 29.56 24.37 20.64 21.60 25.38 26.29 29.05 28.45 27.76 27.58 30.77 30.59 31.09 30.89 29.59 30.06 27.46 29.07 28.58 28.22 28.49 28.87 29.29 30.08 30.55 30.27 29.63 30.12 29.95 29.53 29.80 29.38 29.14 29.44 29.94 29.98 29.93 30.00 29.52 29.47 30.12 29.43 28.63
32.02 32.11 26.58 23.40 17.98 15.91 26.44 30.40 32.76 31.99 23.67 29.44 30.99 29.82 28.65 30.25 27.96 24.43 28.09 28.95 28.44 29.35 29.49 28.51 28.76 29.59 29.23 29.44 30.28 28.62 28.47 28.45 28.66 29.40 30.11 31.23 31.36 30.71 30.14 30.72 29.39 29.56 28.84 27.66
25.42 26.06 22.89 22.83 21.21 25.04 28.38 30.94 33.16 22.40 23.22 28.13 29.15 31.85 30.56 27.28 28.24 27.37 29.02 28.27 28.94 29.02 29.39 30.55 28.91 27.19 27.90 29.10 29.66 27.68 27.36 27.21 29.15 30.37 30.91 30.97 31.96 31.59 31.59 31.77 31.77 31.24 29.81 28.98
25.63 24.16 23.73 24.49 21.53 19.21 30.25 30.39 25.83 27.79 28.86 28.55 29.26 30.55 26.97 26.74 26.77 27.01 27.26 27.39 27.71 27.63 28.44 29.86 28.80 27.80 29.16 29.46 28.86 26.98 26.35 28.40 29.80 30.07 29.58 30.23 31.03 31.77 32.14 31.76 31.77 31.77 31.49 30.35
26.15 28.77 28.56 27.09 25.89 29.81 30.52 29.20 31.41 31.64 29.31 28.56 28.10 27.94 27.10 25.80 25.62 26.37 26.20 26.71 26.84 27.32 27.68 29.53 28.89 28.41 28.63 29.11 29.14 26.67 26.89 28.73 29.85 29.59 29.27 29.37 30.17 31.32 31.47 30.62 30.81 30.49 30.92 30.38
30.87 32.05 30.01 28.52 28.31 28.52 29.73 29.98 30.28 30.38 28.93 29.03 28.85 27.66 27.24 25.02 25.94 25.79 26.36 26.62 26.48 26.61 26.72 28.21 27.78 26.89 26.94 28.84 28.71 29.02 28.84 29.32 29.48 28.67 29.11 29.74 29.23 28.32 29.15 30.76 29.97 28.94 29.33 28.96
29.74 31.34 28.58 27.07 28.61 28.73 28.65 29.19 29.27 28.63 29.25 27.95 28.26 27.67 26.72 26.01 25.40 25.55 25.35 25.47 25.57 25.98 26.75 27.67 26.99 26.48 26.21 27.86 27.98 28.80 29.40 30.21 28.75 28.35 28.42 28.82 28.85 28.66 27.13 26.10 26.91 27.05 27.36 27.19
30.35 27.14 28.26 26.38 29.98 29.47 27.79 29.71 30.63 28.17 27.21 27.57 26.54 25.69 26.86 26.39 24.82 24.85 23.96 24.68 24.53 24.58 26.09 26.19 26.48 26.28 26.12 26.23 26.27 27.38 27.96 27.85 27.42 27.00 27.11 27.14 27.84 28.15 28.19 27.79 24.72 24.13 24.56 25.03

GFSCGP_sfc_wetblb_111.txt.gz
Wetbulb
47.04 42.42 40.50 43.95 45.61 45.09 44.15 42.99 42.56 44.88 47.38 45.33 44.68 44.51 45.76 48.08 48.87 48.69 48.76 49.76 50.61 51.74 54.57 56.99 58.10 58.83 59.39 60.01 59.89 59.86 59.89 60.88 61.67 61.72 61.38 60.42 65.46 67.73 69.64 70.63 72.37 73.09 72.11 71.66
43.66 40.01 44.78 46.46 45.84 44.09 43.37 41.32 41.08 43.89 45.36 44.62 43.59 43.13 46.34 47.94 48.48 49.44 49.43 50.07 50.70 52.02 54.58 55.37 56.00 56.88 57.36 57.30 57.70 57.60 58.23 59.12 59.69 60.28 61.56 62.31 62.48 65.22 67.11 69.50 70.46 71.93 72.60 71.63
41.93 43.16 45.86 44.18 43.17 41.47 41.51 40.24 40.54 40.51 43.88 45.25 43.34 41.32 43.33 46.58 48.08 48.94 50.07 50.88 53.34 52.99 52.71 53.26 53.44 54.65 55.46 55.35 55.46 55.61 56.42 57.14 57.80 58.78 59.60 61.28 62.67 62.94 65.25 67.13 67.46 69.82 71.84 71.90
42.87 47.15 44.19 43.40 41.79 43.00 38.34 43.85 42.44 41.00 39.69 35.61 43.22 35.09 42.97 44.73 44.82 46.27 49.35 51.89 52.44 51.73 52.24 52.38 52.65 53.17 53.62 54.15 54.94 54.69 55.06 55.11 55.69 56.99 56.94 57.59 57.97 59.47 61.84 66.32 67.12 68.57 70.16 70.32
41.88 43.37 42.40 41.19 41.37 43.86 40.05 43.91 41.62 40.99 39.32 38.76 39.07 36.86 40.83 45.04 43.29 45.90 49.52 51.09 50.69 51.01 51.22 51.43 51.79 51.91 52.57 53.27 53.03 53.35 53.00 53.12 53.59 53.70 54.94 54.73 55.36 57.65 61.07 63.72 67.13 68.23 68.89 69.56
44.39 46.74 44.97 42.74 43.46 43.58 44.15 41.15 40.02 40.05 38.02 31.75 37.65 37.69 38.69 41.46 43.06 46.21 49.23 49.34 49.58 50.11 50.86 51.11 51.14 51.19 51.33 51.94 51.46 51.37 50.46 50.02 50.82 50.46 50.64 50.18 50.41 52.69 55.96 59.82 62.74 67.40 67.80 68.62
40.74 41.06 44.63 43.79 39.55 40.95 40.40 37.21 30.10 28.50 29.03 29.40 39.27 37.39 39.47 44.14 47.98 48.87 48.20 48.54 48.53 49.22 49.54 49.52 49.09 48.92 49.03 48.71 49.09 48.90 47.97 46.54 47.42 47.20 47.46 47.08 47.65 49.77 51.53 55.64 60.71 63.41 66.23 67.17
32.63 30.90 39.65 42.48 40.35 37.90 37.92 35.93 29.20 22.43 26.14 30.66 38.44 33.56 38.31 47.08 48.18 48.01 48.14 47.27 47.05 47.25 48.11 47.91 47.66 47.73 47.54 46.87 47.06 46.24 44.85 43.55 44.04 44.32 44.26 43.98 44.13 46.66 49.62 53.77 58.10 62.46 65.97 67.09
33.00 32.54 41.78 40.87 41.25 39.54 37.44 33.88 39.28 32.80 34.69 31.13 35.32 38.91 44.27 44.78 44.74 45.15 44.40 44.75 45.42 45.90 46.63 46.61 46.88 46.80 46.19 45.59 45.07 43.74 41.88 41.05 41.55 41.52 41.67 41.47 43.09 44.71 46.99 50.52 55.83 60.66 65.67 66.82
38.47 31.47 38.80 39.55 40.07 39.97 37.67 39.06 32.07 33.76 24.21 23.97 31.19 32.67 34.41 39.57 39.87 42.03 41.60 42.48 43.53 44.71 45.34 45.68 45.75 45.35 45.01 44.38 43.84 42.61 40.88 39.44 39.38 39.84 38.70 39.71 41.53 44.09 46.49 48.71 52.11 59.61 65.81 66.72
41.12 37.37 34.74 37.34 35.59 34.64 34.54 32.81 33.69 34.10 31.83 25.05 24.47 30.78 42.49 40.19 41.37 41.15 41.82 41.96 42.72 43.53 44.08 44.29 44.30 44.15 43.64 42.18 41.46 39.89 37.44 37.57 36.64 36.51 36.77 38.80 41.84 44.70 47.91 53.61 55.77 62.14 65.15 66.01
38.98 35.64 29.82 32.95 38.16 38.06 37.34 34.93 34.86 29.21 26.99 31.34 30.06 29.91 44.04 42.96 42.76 41.66 40.90 41.18 42.23 42.99 43.51 43.48 43.04 42.55 41.01 38.85 38.34 36.54 35.31 34.71 33.96 34.65 35.51 38.19 41.38 43.08 46.49 50.23 59.86 62.74 64.10 65.35
37.26 31.89 27.22 29.55 33.89 36.10 33.22 34.55 34.67 34.38 33.50 28.25 27.38 30.76 42.88 41.91 41.63 42.09 40.76 41.44 41.71 41.65 41.38 41.42 41.23 40.07 38.14 37.11 36.41 34.80 33.92 32.57 32.39 32.54 34.64 36.33 38.91 39.86 41.25 45.06 49.32 51.83 62.39 63.51
39.82 34.52 31.41 27.32 29.68 33.81 29.88 32.94 34.91 33.70 28.22 28.88 30.24 32.35 38.43 39.82 39.51 40.24 41.20 40.91 40.50 39.77 38.16 38.26 38.64 38.26 36.68 36.07 34.97 33.42 32.25 32.08 31.80 32.46 33.63 33.59 34.83 37.32 38.92 41.32 42.84 45.77 48.93 58.66
37.03 30.07 33.03 33.41 34.23 32.90 32.33 32.40 33.10 31.62 32.23 27.81 30.60 30.96 35.02 37.51 38.70 39.32 39.10 39.22 38.52 36.47 35.78 35.28 35.05 34.60 35.36 34.01 32.96 33.34 32.02 31.24 31.43 31.31 31.87 31.55 33.80 35.37 36.79 37.40 38.00 39.10 41.15 42.23
36.78 30.09 30.65 29.04 32.74 32.56 29.86 32.21 32.56 32.58 32.51 32.55 32.95 31.50 38.24 39.18 40.42 38.20 36.70 36.14 34.68 33.18 33.12 32.80 32.57 32.68 31.93 31.42 31.71 32.52 32.63 31.17 31.72 30.65 30.67 31.53 32.50 32.86 33.77 34.87 34.80 34.44 35.40 35.98
33.86 31.23 27.76 23.72 29.51 28.82 24.81 29.68 31.53 32.75 34.30 33.66 28.21 33.78 38.59 37.29 36.42 35.21 33.97 33.29 30.79 30.78 30.62 30.57 30.58 30.90 30.63 31.00 31.93 31.42 32.62 32.89 31.54 30.84 30.93 31.17 31.58 31.07 31.29 33.01 32.20 31.92 31.98 33.10
32.66 30.88 29.74 24.59 25.07 17.03 30.07 36.13 34.89 32.59 33.73 35.41 34.85 36.09 35.59 35.50 33.64 32.19 32.04 30.81 29.43 29.15 29.11 29.36 29.63 30.31 30.96 31.72 31.54 32.26 32.47 32.45 32.07 31.03 31.03 31.11 31.39 30.77 30.38 29.74 29.50 30.55 30.37 29.34
35.52 31.89 26.61 22.62 23.59 27.50 29.21 30.73 29.45 27.91 28.77 31.39 32.55 32.28 32.87 32.42 32.14 27.99 30.28 30.30 29.48 29.37 29.27 29.23 30.20 30.39 30.88 30.76 31.74 31.18 30.96 31.31 31.45 30.72 31.47 31.81 31.64 31.22 30.84 29.54 28.98 28.76 27.93 27.95
34.44 34.09 29.07 26.14 19.98 18.26 28.51 32.19 34.69 32.16 24.63 31.21 32.58 32.88 31.48 32.28 29.66 26.87 29.37 29.89 29.36 30.12 30.23 28.85 29.62 30.23 29.42 30.41 31.48 30.50 29.80 29.99 29.63 30.53 31.16 31.89 32.43 32.19 31.54 31.81 31.23 30.94 29.88 28.09
27.86 28.29 24.88 24.86 22.92 27.51 29.80 32.32 33.93 23.17 24.72 30.45 31.10 33.11 32.46 30.05 28.20 28.29 29.66 29.08 30.07 30.15 30.81 31.73 30.27 28.95 29.42 30.89 30.58 29.42 29.48 28.89 30.27 30.98 31.24 31.52 31.89 31.89 32.07 32.25 32.25 32.25 31.89 31.38
27.72 26.41 26.30 27.23 24.52 21.78 31.65 31.94 26.75 29.27 30.33 30.11 32.26 33.16 28.80 27.80 28.15 28.12 28.58 28.49 29.03 29.40 30.26 30.84 30.20 29.74 30.83 30.92 29.70 27.67 27.89 30.68 31.48 30.96 30.19 29.99 30.69 31.10 31.26 31.58 32.07 31.86 31.89 31.02
27.81 30.91 29.79 28.01 27.10 30.92 31.26 30.33 32.05 33.03 30.54 29.74 29.67 30.14 29.10 27.78 27.62 27.83 27.26 27.76 28.40 28.19 29.18 30.90 30.29 29.80 30.26 30.57 30.63 28.65 29.36 31.18 31.48 31.29 30.68 29.80 29.30 29.93 30.87 29.75 29.64 29.59 29.79 28.77
32.04 34.55 32.40 29.94 29.62 29.83 30.64 31.40 31.59 31.48 30.25 30.30 30.69 29.68 28.71 26.74 27.33 27.24 27.69 27.89 27.08 28.40 29.08 30.33 29.59 28.58 28.38 30.04 29.85 30.57 31.69 31.91 31.15 30.67 31.21 31.80 30.66 28.07 27.38 29.38 28.75 27.06 26.19 27.92
32.92 33.96 31.49 28.66 29.89 30.16 30.29 30.80 30.57 29.79 30.09 29.45 29.74 29.35 28.16 27.55 27.07 27.38 26.95 26.88 27.43 28.47 29.20 29.45 28.43 27.65 27.48 29.01 29.00 29.89 30.51 32.00 30.39 29.76 29.61 30.18 30.75 30.45 28.06 25.27 25.04 26.19 26.04 25.15
31.98 29.93 29.86 28.92 32.13 31.09 29.47 31.04 31.33 29.26 28.38 28.72 27.69 27.60 28.76 27.94 26.64 26.96 25.76 26.51 27.00 27.04 28.28 28.17 28.23 27.51 26.90 27.02 27.11 27.81 29.17 29.08 28.79 28.56 28.72 28.69 29.13 29.20 29.10 29.28 27.03 24.47 24.18 24.28

GFSCGP_sfc_wetblb_114.txt.gz
Wetbulb
46.27 41.84 39.17 42.72 44.82 44.75 43.59 41.75 40.98 44.09 46.99 45.64 45.30 44.76 46.80 48.76 49.00 48.70 49.61 49.60 49.86 50.88 55.06 57.24 58.01 58.65 58.54 59.11 58.47 58.32 58.91 60.29 59.80 59.65 59.34 59.93 59.15 61.28 65.96 68.52 69.44 69.88 69.76 69.78
42.66 39.91 44.94 46.37 45.46 43.79 43.11 41.07 40.92 43.98 45.89 44.93 44.01 43.07 46.02 47.21 47.44 48.28 48.95 49.74 49.73 50.99 54.16 55.30 55.77 56.21 56.16 56.11 56.12 56.12 56.10 56.71 56.98 57.32 57.45 58.44 58.97 60.22 61.34 61.51 64.32 68.69 69.58 69.55
40.93 43.50 46.60 44.52 42.76 41.12 41.36 39.91 40.69 40.25 42.90 44.59 42.94 40.77 43.22 46.29 48.39 49.08 50.05 50.69 51.89 52.24 52.98 53.23 53.40 54.10 54.96 54.97 54.53 53.93 54.28 54.43 55.11 55.99 55.67 56.51 57.91 59.04 60.17 60.27 61.09 66.27 67.51 69.75
42.68 45.60 43.35 43.21 41.87 42.92 37.90 43.75 42.63 41.21 39.26 34.71 42.74 32.76 41.08 44.17 45.43 47.25 48.30 51.25 51.44 51.26 52.06 52.14 52.15 52.33 52.70 53.02 53.67 53.10 53.03 52.65 53.01 52.96 52.47 52.61 52.84 52.86 56.12 57.67 60.03 61.73 65.20 66.22
41.26 42.62 41.77 41.47 42.59 44.74 40.53 44.56 42.22 40.82 36.91 36.96 37.38 34.42 38.32 43.61 42.78 44.39 48.47 50.33 50.42 50.64 51.00 50.42 50.35 50.65 51.62 51.75 51.16 51.42 51.28 50.93 50.75 50.40 50.41 49.63 49.81 50.98 52.50 53.46 54.99 57.45 60.87 64.12
43.83 47.95 45.34 43.90 45.47 45.24 44.00 40.71 41.27 40.78 37.06 28.54 35.07 34.47 35.12 39.44 43.20 44.43 48.28 48.90 49.34 49.62 50.11 50.32 50.54 50.54 49.82 49.96 49.48 49.53 48.56 48.13 48.34 47.67 47.65 47.19 47.20 47.29 48.18 49.77 51.22 53.75 57.26 61.06
41.94 42.27 45.23 46.15 41.51 43.01 41.12 36.56 28.38 26.75 26.85 27.13 36.96 34.24 36.80 43.22 46.75 46.85 46.78 47.48 47.80 47.91 47.81 47.65 47.10 47.07 47.61 47.38 47.23 46.95 46.26 44.81 45.14 44.88 44.89 45.03 44.79 45.03 44.88 46.22 48.69 50.62 53.37 56.58
34.64 32.59 41.40 44.80 41.72 38.14 38.11 36.22 27.94 21.16 23.69 28.12 35.24 31.25 37.03 45.19 46.63 46.98 46.83 46.24 46.36 45.89 46.37 46.05 46.22 46.32 45.98 45.93 45.34 44.74 42.82 41.77 42.10 41.90 41.61 42.28 42.43 42.67 43.61 44.66 46.39 48.60 51.60 54.65
34.49 34.04 42.60 43.00 44.16 41.66 37.13 33.57 39.11 30.84 31.81 28.17 32.15 37.11 42.19 44.29 43.37 43.46 43.53 44.06 43.44 44.10 44.36 44.45 45.06 45.20 44.54 43.93 43.06 42.12 40.79 39.64 39.63 39.59 39.60 39.58 40.29 40.78 41.45 42.82 44.66 46.34 48.89 52.20
39.62 32.29 39.20 41.54 40.95 40.86 37.83 39.65 31.45 31.64 23.80 22.67 30.52 33.01 31.99 38.81 39.84 41.56 41.23 41.32 42.26 42.86 43.26 43.43 43.72 43.69 43.38 42.43 41.23 40.31 39.59 37.97 37.33 37.44 37.41 37.85 39.02 39.92 41.39 43.44 44.20 45.86 47.48 50.10
41.06 36.49 34.67 38.81 35.52 34.41 35.17 33.32 34.31 34.04 30.25 24.50 23.50 29.17 40.78 39.54 40.51 40.01 40.83 41.31 41.26 41.54 41.93 42.10 42.45 42.86 41.78 40.43 39.24 37.84 37.06 36.06 34.75 34.95 35.20 36.13 38.19 39.04 41.30 42.31 43.91 46.53 49.47 50.61
38.14 36.22 30.77 33.08 39.57 40.13 38.03 36.24 35.50 28.00 26.46 30.17 28.43 27.96 43.50 42.83 43.00 42.15 40.93 41.43 41.57 41.72 41.02 41.18 41.08 40.80 39.49 37.92 36.90 35.98 35.05 33.83 33.32 33.36 34.38 35.31 36.72 37.23 38.98 40.20 42.50 45.43 48.75 55.74
38.77 32.56 27.21 29.63 35.18 37.63 33.93 35.92 35.87 35.55 34.10 27.52 24.31 27.57 42.71 42.21 40.96 42.13 41.33 41.12 41.04 40.57 39.29 39.09 38.79 37.88 36.96 35.84 34.81 34.61 34.80 33.09 32.64 32.74 33.47 34.18 34.43 35.26 36.32 38.57 40.28 41.63 46.47 49.57
40.81 34.36 30.63 25.97 29.26 33.65 31.02 33.51 34.77 33.54 27.71 27.94 28.66 30.72 36.71 39.51 39.27 39.95 39.80 40.16 39.62 38.16 37.18 36.26 35.72 35.01 34.02 33.71 33.35 33.21 33.75 33.69 32.73 32.42 32.64 32.52 33.17 33.72 34.63 36.64 37.22 37.95 40.28 42.09
37.28 29.67 32.74 33.67 34.75 34.10 32.73 32.08 33.32 31.52 32.48 27.94 30.94 30.99 34.88 37.56 37.85 38.96 39.33 38.90 37.85 35.13 34.28 33.69 32.70 32.25 31.65 31.43 32.18 32.81 32.98 33.66 33.24 32.31 31.93 31.82 32.61 33.03 33.56 34.12 34.52 34.63 34.44 37.37
37.97 29.93 30.54 28.49 33.09 32.65 30.18 32.46 32.70 32.16 32.44 32.35 32.66 31.79 38.27 39.36 40.49 39.14 37.08 36.35 33.50 32.00 31.61 31.29 31.19 30.85 30.04 30.56 31.24 31.59 31.84 32.25 33.18 32.66 31.75 32.09 32.13 31.51 31.08 31.59 31.79 32.45 32.51 32.17
34.54 31.38 28.19 23.54 30.25 29.79 24.65 29.80 31.24 32.29 33.80 33.10 27.72 34.00 36.92 36.26 34.23 32.66 33.25 31.85 30.19 29.90 29.52 29.14 29.32 30.18 29.91 30.34 31.19 30.53 31.24 32.61 32.40 31.95 32.08 31.93 32.22 31.11 30.41 29.91 29.44 28.88 29.53 30.64
33.20 31.75 29.88 25.11 26.03 16.78 29.88 36.47 34.60 31.97 33.33 34.99 35.28 34.95 34.99 32.96 31.13 30.23 30.91 29.61 28.18 28.09 28.19 28.43 28.99 29.32 29.91 30.89 31.12 31.62 31.66 31.35 31.15 31.14 31.32 31.95 31.96 31.64 31.44 30.46 29.03 28.10 28.10 27.70
36.71 32.43 27.08 22.47 22.21 27.05 29.58 31.07 29.43 27.03 27.59 34.22 33.03 34.25 33.67 32.30 30.42 27.50 29.61 29.11 28.31 28.28 28.32 28.80 29.59 29.74 29.83 29.97 31.33 31.27 30.39 30.34 30.03 29.65 30.42 30.79 31.60 31.20 31.44 31.05 30.53 30.09 28.99 28.06
34.35 33.55 28.37 25.39 19.56 17.16 27.67 32.00 35.20 33.15 23.23 31.21 31.64 32.31 32.12 32.31 27.24 24.12 28.74 29.56 29.29 30.18 29.78 28.37 29.23 29.36 28.90 29.35 30.47 29.73 29.00 28.86 28.27 28.98 29.60 30.82 30.58 30.09 30.58 30.60 31.51 31.52 30.96 29.32
27.54 28.33 24.37 25.11 22.97 26.67 30.12 32.32 34.48 22.28 23.00 29.65 30.89 31.85 34.14 28.34 27.57 27.60 29.25 28.91 30.25 31.04 31.03 31.20 30.07 28.96 29.87 30.23 29.25 27.69 28.01 27.81 29.59 28.93 28.40 28.76 29.88 28.82 29.43 30.30 30.37 30.64 30.04 29.27
27.55 25.91 25.51 26.92 23.57 21.16 31.35 32.10 26.10 28.27 30.58 30.27 32.34 31.20 27.74 27.69 27.76 27.90 28.44 28.59 29.24 29.36 29.36 29.93 29.21 29.27 30.18 30.86 29.21 26.74 26.86 29.26 30.56 30.21 27.97 25.60 26.20 28.42 27.21 26.72 27.31 28.68 26.96 26.61
27.37 31.67 28.81 27.12 26.21 30.00 30.96 29.33 31.97 32.42 30.25 29.88 29.75 30.17 28.70 27.40 26.92 27.27 27.22 27.67 28.34 28.23 28.82 29.80 28.91 28.59 29.30 29.45 29.70 27.68 27.61 29.80 29.93 30.02 29.48 27.31 25.24 24.86 26.11 24.21 23.63 24.11 25.80 23.91
33.10 35.72 31.65 29.42 29.09 28.96 30.18 30.67 31.26 31.24 29.99 30.84 30.59 29.85 28.77 26.47 27.15 26.81 27.45 27.76 27.65 28.06 28.34 28.94 28.05 26.97 26.75 28.35 28.48 28.64 30.06 30.50 29.19 28.51 29.00 29.11 28.70 25.28 24.22 24.39 23.31 21.86 21.74 22.33
33.52 34.37 32.19 28.33 29.09 29.69 30.13 30.33 29.89 29.64 29.82 29.39 29.98 29.30 28.48 27.97 27.05 27.03 26.94 27.49 27.27 27.80 28.41 28.18 26.66 25.70 25.50 26.51 27.11 28.29 28.73 29.88 28.77 28.09 27.77 28.16 28.17 27.72 24.57 23.14 22.71 21.74 21.95 22.12
32.15 29.94 29.75 28.39 32.05 30.91 29.12 30.61 31.17 29.01 28.27 28.86 28.05 27.84 28.89 28.04 26.61 26.69 26.25 26.97 27.45 27.40 27.77 27.02 26.28 25.10 24.81 25.47 25.65 26.96 28.23 28.34 27.17 26.93 27.09 27.15 27.43 27.31 27.15 26.73 23.62 25.62 25.20 25.00

GFSCGP_sfc_wetblb_120.txt.gz
Wetbulb
40.89 34.53 30.83 36.18 36.35 37.91 36.94 35.37 34.53 37.34 40.82 39.10 38.51 38.64 41.07 42.27 40.58 40.77 42.20 41.69 43.59 49.74 51.68 50.57 50.33 49.40 49.46 49.15 49.06 49.03 48.75 48.93 48.85 48.67 48.21 48.96 48.63 50.58 52.48 55.23 56.85 57.69 60.15 61.84
36.59 32.22 37.75 39.85 39.26 37.96 37.02 35.32 35.19 39.14 41.90 40.22 37.45 35.77 38.27 40.20 40.93 41.56 42.67 42.99 47.18 49.87 48.44 48.72 47.92 47.18 46.86 46.97 47.32 47.29 47.09 46.52 46.46 46.94 46.82 47.22 46.93 49.75 50.73 52.10 51.07 54.02 52.59 54.38
34.05 37.47 41.68 39.69 38.36 37.13 37.29 35.54 35.89 35.96 39.31 37.98 36.01 35.34 36.54 42.31 43.50 44.89 45.76 45.19 49.12 48.29 46.53 45.82 45.13 44.43 44.59 44.30 44.61 44.85 44.52 44.51 44.09 44.44 44.81 44.54 45.79 46.32 46.82 46.38 47.52 48.83 49.99 51.81
37.75 42.15 40.24 39.58 38.18 39.06 33.77 39.25 39.11 37.47 33.10 27.86 36.17 27.45 35.39 39.75 40.20 41.98 43.90 45.04 45.52 45.40 44.80 43.97 42.77 42.07 42.47 42.18 42.88 42.97 43.00 42.15 42.65 42.41 41.49 40.74 40.90 40.81 42.82 43.82 45.24 45.77 47.35 47.83
36.38 37.98 37.76 37.23 38.74 41.06 37.40 42.07 39.90 36.95 32.33 29.37 33.09 27.81 32.93 37.90 37.21 40.36 41.93 42.64 42.25 42.70 42.17 41.99 42.23 41.24 40.90 41.08 40.09 40.60 41.04 40.21 40.24 39.69 39.90 39.07 38.12 39.18 40.56 41.78 41.71 42.59 44.57 46.44
39.55 43.61 41.19 40.36 42.36 41.98 43.18 39.34 36.02 33.48 30.64 24.20 31.21 29.33 28.70 34.23 38.46 39.96 41.49 41.55 41.98 41.33 41.92 41.94 42.62 40.86 39.23 39.29 38.68 38.43 37.93 37.65 37.97 37.56 37.58 37.05 36.62 37.05 37.37 38.05 39.01 41.05 42.42 43.59
37.62 38.22 40.19 42.71 37.89 40.60 38.79 33.58 27.10 22.61 21.74 22.02 32.92 28.95 31.02 38.02 38.97 39.34 38.19 38.86 40.65 41.15 40.25 39.80 38.80 38.34 38.06 36.85 35.17 36.58 35.56 34.97 35.49 35.26 34.76 34.88 35.38 35.77 36.46 38.27 38.95 39.73 40.31 41.40
28.38 26.11 36.41 40.84 37.79 35.40 35.99 34.99 27.22 20.35 20.98 22.16 31.80 24.64 31.44 39.06 39.39 40.87 41.12 40.16 40.40 39.62 39.54 39.22 38.08 37.22 36.52 35.50 34.49 34.13 33.84 33.47 33.57 33.39 33.19 33.79 34.19 34.86 35.77 37.75 38.52 39.33 39.90 40.45
28.69 29.82 38.67 39.41 39.94 39.44 34.26 28.99 35.15 29.58 28.20 24.28 25.74 31.31 37.33 40.20 38.09 37.97 38.16 38.71 38.64 39.43 38.97 37.52 36.76 35.54 35.01 34.06 33.95 33.39 33.09 32.87 32.79 32.79 32.89 33.05 33.83 34.50 35.26 36.44 38.11 38.79 39.70 40.99
35.12 28.89 36.65 38.86 38.16 37.07 36.22 37.08 27.01 28.64 22.21 20.19 24.27 25.42 28.49 35.89 34.67 38.04 36.93 36.77 37.31 38.10 37.50 36.45 35.60 34.80 34.29 33.68 32.59 32.37 32.64 32.54 32.38 32.79 33.05 33.51 33.98 35.04 35.88 36.07 36.05 37.86 38.93 40.25
36.44 32.95 31.45 36.06 32.54 30.43 30.70 29.12 30.03 32.18 29.34 21.59 20.12 22.51 36.49 37.10 38.03 37.84 37.21 36.90 35.10 34.55 34.03 33.77 33.38 33.31 32.65 31.82 31.42 31.26 31.61 31.83 31.70 32.35 32.85 33.14 33.68 34.93 35.71 35.82 36.45 37.15 38.11 38.83
37.07 31.64 26.80 30.90 37.24 36.83 33.74 31.30 32.42 25.98 23.54 25.31 22.58 22.87 40.26 39.06 40.16 39.39 34.68 34.16 33.26 32.97 32.12 31.81 31.54 30.98 30.44 30.10 30.46 30.26 30.85 30.92 32.41 33.05 33.32 32.86 33.68 34.00 33.64 33.85 34.54 35.62 35.77 37.66
36.12 29.84 24.07 26.25 31.17 34.57 32.39 34.07 34.59 33.64 30.93 25.38 20.94 22.95 40.40 40.15 39.34 36.61 33.92 33.96 32.79 31.98 30.59 29.61 29.28 29.08 29.41 29.94 29.66 29.76 30.24 30.52 32.21 32.62 33.08 33.04 33.31 33.33 32.47 32.32 32.94 33.47 33.76 35.18
39.29 31.42 27.35 24.08 27.49 31.21 27.70 31.77 33.63 31.57 26.30 25.51 25.91 27.96 33.10 36.01 35.02 33.15 33.05 31.74 30.71 30.01 29.78 29.41 28.42 28.62 29.12 29.30 29.09 29.25 30.34 31.05 31.78 31.15 31.31 31.58 32.34 33.28 33.11 32.60 32.17 32.40 32.62 32.79
33.29 26.93 29.65 31.66 33.38 34.16 32.05 31.65 32.05 29.33 29.95 25.68 27.68 27.57 30.46 32.60 32.08 31.61 31.65 31.18 29.66 28.78 28.58 28.19 27.78 27.86 28.13 28.45 28.78 29.56 30.25 30.17 30.81 30.53 30.10 30.34 32.26 32.51 32.89 32.32 31.76 31.73 31.58 31.84
33.78 26.91 26.47 25.54 31.32 31.33 29.34 30.83 30.42 29.69 30.30 30.34 30.40 27.26 31.80 31.65 31.02 30.07 29.76 29.13 27.77 27.72 27.50 27.42 27.23 27.30 27.32 27.86 28.43 28.85 28.70 29.33 30.14 29.15 29.20 29.41 29.71 31.15 30.62 31.34 30.72 29.89 29.28 29.94
29.68 27.62 23.97 21.06 27.35 25.94 22.04 26.13 28.47 29.94 31.51 30.14 22.49 29.74 30.15 28.20 29.38 28.26 26.13 26.75 26.83 26.37 26.12 25.53 25.47 26.40 26.80 27.30 28.41 27.98 28.27 28.84 28.04 27.62 27.77 28.31 27.57 27.58 29.06 29.18 29.17 28.27 27.79 27.81
29.31 27.86 26.64 23.34 23.81 15.47 26.27 32.33 31.89 29.15 28.37 30.72 30.66 29.91 28.90 28.55 27.42 27.80 27.81 26.38 25.71 25.22 24.36 24.31 24.82 25.25 26.53 27.51 28.45 29.41 28.66 26.50 25.19 25.09 25.38 26.71 25.75 25.30 26.75 27.54 26.67 27.02 27.07 26.33
34.05 27.64 22.02 18.51 18.67 23.25 27.17 27.21 23.63 22.91 24.09 28.17 30.56 27.06 26.58 26.25 25.51 25.35 27.58 26.84 23.93 22.46 23.41 23.65 23.74 22.95 25.40 27.33 28.41 28.40 29.14 28.53 25.54 23.35 23.16 24.15 24.11 22.95 23.89 24.20 24.27 25.39 25.34 25.31
32.18 30.47 22.28 19.70 15.81 6.57 17.08 29.46 32.58 28.86 16.76 27.21 27.72 29.60 26.73 24.58 17.86 21.00 27.50 26.12 24.28 21.52 21.89 22.95 25.49 28.05 28.73 28.84 29.06 28.00 27.40 27.57 25.37 24.71 23.54 23.65 23.01 21.16 20.80 21.66 23.10 23.30 24.03 23.66
23.91 23.50 20.56 18.41 15.21 21.11 28.06 29.21 32.60 18.35 17.10 26.56 27.50 26.73 30.38 26.24 22.28 25.00 26.05 26.80 25.29 23.04 26.77 28.85 27.70 26.32 26.75 28.10 28.20 25.80 25.98 25.02 25.83 25.44 24.77 23.29 23.17 22.26 20.84 21.02 21.39 21.36 21.99 22.66
23.09 21.96 17.34 16.73 12.14 13.59 28.08 28.91 24.67 24.97 25.77 27.02 24.51 27.22 26.70 25.01 24.82 24.65 25.72 27.19 27.54 27.55 28.74 28.06 26.40 25.79 26.87 27.10 26.25 24.68 24.20 25.91 26.28 25.37 23.80 23.28 22.80 22.91 22.58 21.10 21.24 20.91 20.52 21.02
20.76 23.73 19.95 22.60 18.28 25.30 27.99 24.55 30.18 31.99 29.07 28.34 24.60 26.08 26.52 25.15 24.66 25.23 25.65 26.19 26.98 27.49 27.30 26.77 25.45 24.98 25.92 26.67 26.35 23.96 24.38 25.63 25.92 25.73 24.48 22.00 23.00 22.92 22.06 21.11 21.19 21.24 20.97 20.03
29.27 32.05 22.96 24.61 25.37 26.90 28.99 29.97 30.25 27.40 26.92 27.25 27.74 27.20 26.37 23.81 24.58 24.91 25.81 26.41 26.55 27.00 26.14 25.55 24.45 23.31 23.09 24.55 25.19 25.42 26.65 26.30 25.27 25.14 25.18 25.25 24.77 22.38 23.11 22.56 21.57 21.00 21.68 21.04
27.54 30.56 26.87 25.71 27.91 28.80 29.02 29.04 28.63 27.98 27.15 27.98 28.00 26.72 24.90 24.80 24.20 25.58 25.78 26.17 26.42 25.86 25.17 24.60 23.37 22.55 22.24 23.37 23.54 24.16 25.43 26.44 25.31 24.78 24.71 24.62 24.35 24.14 21.98 22.58 21.11 20.58 22.42 23.61
26.12 28.57 23.27 19.67 27.39 26.44 26.12 29.46 28.68 27.21 26.55 27.31 26.39 26.08 26.98 26.31 25.31 25.98 25.28 26.18 25.50 23.79 23.64 22.48 21.86 21.40 21.35 21.79 21.64 22.60 24.52 24.92 24.43 24.03 23.60 22.82 22.94 22.34 22.60 21.58 20.40 24.02 24.05 25.19

GFSCGP_sfc_wetblb_123.txt.gz
Wetbulb
41.08 35.65 31.26 35.64 35.40 35.96 34.36 32.56 31.42 33.93 39.00 37.28 37.19 37.63 39.77 38.93 39.35 39.47 39.14 40.79 45.53 46.29 47.42 46.86 46.85 46.57 46.34 46.16 45.89 45.74 44.97 44.92 45.55 45.34 44.94 46.32 44.50 46.60 48.05 51.26 51.03 53.95 52.16 53.59
35.87 31.40 37.56 38.71 38.10 36.33 34.89 32.43 31.97 35.78 39.53 37.88 36.28 35.81 37.88 38.15 39.90 40.61 41.17 40.79 45.77 45.17 44.43 44.73 43.93 43.32 42.91 43.13 43.33 43.20 43.15 42.57 42.96 43.54 43.37 43.73 43.68 46.27 46.49 46.43 46.91 49.23 48.56 51.14
33.27 36.91 40.89 38.42 36.31 34.83 34.42 32.77 33.52 34.04 36.78 36.89 35.10 33.80 35.51 40.06 41.83 42.99 44.38 44.39 46.25 43.85 41.89 41.94 41.67 40.96 40.28 39.46 40.06 40.80 40.25 40.26 40.58 40.97 41.39 41.50 42.63 42.85 43.36 41.92 42.74 44.42 45.83 47.44
35.67 39.79 38.16 36.51 35.34 36.22 31.06 37.87 37.23 36.51 32.90 28.92 34.17 27.18 35.69 36.82 38.71 40.23 39.89 39.40 39.62 40.00 40.27 40.12 39.62 39.38 40.08 39.46 39.38 38.49 39.27 38.69 39.08 39.06 38.34 37.74 37.70 37.03 39.27 39.65 41.21 41.60 43.29 44.96
35.30 36.91 36.22 35.54 37.12 39.25 35.49 40.29 38.17 37.10 31.76 28.90 30.74 26.23 30.27 37.70 36.86 36.09 37.56 38.48 38.43 39.28 39.60 38.67 38.24 38.19 38.17 38.43 37.36 36.70 36.98 36.77 37.04 36.45 36.02 35.61 35.22 36.59 37.65 38.24 38.34 39.57 41.67 42.82
37.54 40.93 39.58 38.37 40.89 40.24 41.38 37.68 35.38 32.73 30.15 25.75 30.39 28.49 26.06 33.77 37.06 36.02 37.35 38.51 39.22 39.13 39.28 38.94 39.40 39.61 38.46 37.47 36.17 36.29 35.47 34.98 34.94 34.29 33.95 33.38 33.08 33.25 34.11 35.16 36.49 38.40 39.98 41.17
35.07 36.87 39.64 41.84 36.76 38.50 36.62 32.30 28.17 23.39 21.72 22.06 30.98 26.98 28.98 36.95 37.93 37.01 36.11 36.83 38.63 39.60 38.53 37.57 36.51 36.03 36.30 35.10 34.72 35.00 34.21 33.40 33.51 33.15 33.01 32.96 32.54 32.81 33.51 34.74 35.70 36.27 38.28 39.82
28.19 26.34 34.90 39.12 36.38 33.94 34.28 32.96 25.07 20.15 20.59 21.54 29.70 24.16 29.30 38.94 39.45 38.93 39.01 39.30 39.86 39.38 38.89 37.36 36.45 35.72 34.62 34.48 33.92 32.68 32.34 32.67 33.11 33.27 33.17 33.87 34.31 34.14 35.08 35.84 35.52 36.27 37.79 39.09
27.99 28.55 36.58 38.73 39.13 38.57 33.08 29.91 34.36 27.81 27.15 23.98 24.94 30.24 36.11 38.52 37.65 38.22 38.52 39.60 39.27 39.52 37.91 36.67 35.89 35.12 33.87 33.37 33.48 32.54 32.06 32.25 32.91 33.11 33.14 33.26 33.69 33.95 34.59 35.69 36.36 36.74 37.75 38.79
33.65 27.44 35.16 37.47 36.87 35.77 35.19 36.44 26.82 26.44 20.98 19.77 23.20 24.60 25.13 35.41 35.63 37.37 38.74 38.80 38.56 38.78 36.21 34.66 33.52 33.01 32.81 31.44 32.21 32.50 32.39 32.33 32.57 33.30 33.17 32.98 33.13 33.85 34.62 35.11 34.98 35.44 36.73 37.24
34.02 31.19 30.13 34.97 32.13 30.28 29.82 28.60 29.58 30.28 26.45 21.33 19.73 22.74 34.46 35.78 37.65 37.46 38.01 36.91 35.65 32.88 32.19 31.90 31.47 31.56 31.52 31.08 30.23 30.82 31.24 31.53 31.83 32.89 33.56 32.77 33.21 33.30 33.55 33.10 33.98 34.10 34.81 35.34
37.57 33.05 27.01 31.17 35.99 35.18 32.07 30.20 30.02 24.29 23.55 25.05 22.38 23.04 36.28 37.94 38.38 39.63 36.61 33.34 31.25 30.70 29.49 29.04 29.38 29.64 29.98 29.11 30.06 30.22 30.64 30.75 31.89 31.53 31.99 32.83 33.21 33.47 33.01 32.90 33.09 33.60 33.37 34.37
35.55 27.88 24.90 28.31 29.81 33.41 31.12 32.33 32.98 31.95 28.83 25.11 22.02 23.14 39.73 39.70 38.25 36.38 32.03 31.16 30.23 29.39 28.48 27.79 28.26 28.86 28.80 28.76 29.69 30.02 30.68 30.73 30.47 31.02 30.63 31.13 31.29 31.51 32.38 32.04 31.92 32.11 32.22 32.86
38.90 29.85 27.56 24.72 27.07 30.87 28.79 31.48 32.94 31.23 24.89 25.81 26.09 26.58 32.90 36.11 32.92 32.33 30.62 28.99 28.44 28.37 28.50 28.88 28.24 28.12 28.89 29.24 29.52 29.48 29.58 30.20 29.88 29.89 29.18 28.32 29.09 30.46 30.31 30.91 30.65 30.64 30.65 30.08
33.88 27.36 28.98 30.53 32.49 33.25 31.93 32.03 32.69 30.06 29.61 25.93 27.24 27.47 28.79 32.22 31.60 29.27 29.77 29.83 28.56 27.69 27.90 27.90 27.42 27.41 27.78 27.99 28.75 28.84 28.98 29.33 29.05 27.75 27.35 27.00 27.68 28.28 29.21 28.46 29.35 29.40 29.33 29.33
32.80 26.64 27.67 26.63 31.04 31.65 29.41 31.11 30.86 31.38 31.26 29.60 28.24 26.64 29.81 30.42 30.44 29.57 29.31 28.32 27.30 26.86 26.78 27.16 27.10 27.18 26.80 27.37 26.91 26.40 25.84 26.32 26.28 25.36 25.66 26.06 26.50 26.45 26.73 27.23 27.28 27.43 27.52 27.85
30.36 28.44 26.57 24.33 27.76 26.29 21.62 27.41 29.35 30.49 30.31 28.60 20.44 27.12 29.65 27.95 27.53 26.92 26.52 27.69 26.99 26.30 25.67 25.42 25.85 26.71 27.21 27.17 27.76 24.23 22.35 23.62 23.23 22.74 23.90 24.18 24.42 24.28 24.34 25.51 24.90 24.65 24.95 25.84
29.56 29.57 28.46 24.56 24.17 15.44 25.58 30.69 30.91 28.35 28.08 29.99 29.56 28.64 28.26 28.71 27.90 26.81 25.57 26.53 26.27 25.35 24.47 24.89 25.57 25.68 23.69 21.32 22.62 25.28 24.12 24.03 22.40 21.78 21.80 22.53 22.31 21.88 22.52 22.86 23.07 23.29 24.17 24.25
34.79 30.15 25.37 20.29 19.52 22.95 25.32 26.85 22.31 22.37 23.62 27.66 27.71 27.10 27.99 26.96 26.09 25.02 27.07 26.57 21.75 19.72 21.61 23.36 24.64 20.25 20.06 23.75 26.54 27.32 26.93 25.24 23.39 22.21 21.95 22.24 21.20 20.44 20.61 20.16 20.64 22.02 22.90 23.73
32.67 32.63 25.16 19.80 16.29 7.55 18.17 29.32 31.20 27.38 17.01 26.65 28.42 26.75 25.69 25.29 20.37 17.07 25.59 24.16 22.53 22.45 23.76 25.36 24.92 24.45 26.34 27.16 28.14 26.72 26.12 25.28 23.19 22.84 22.47 22.72 22.33 20.76 19.92 20.38 20.51 21.16 22.21 23.12
26.29 24.72 23.39 20.19 16.72 21.19 27.62 29.11 30.97 16.00 17.18 26.33 27.14 27.64 28.24 23.40 21.65 23.84 24.69 21.06 23.13 25.77 26.93 28.01 26.74 25.45 26.02 27.29 27.10 25.08 24.85 23.98 24.54 24.27 23.36 22.51 22.65 21.93 21.32 21.67 22.07 21.51 21.32 22.18
25.16 23.13 20.17 19.09 15.50 15.80 28.95 28.55 23.51 22.37 24.78 26.30 23.88 22.17 28.25 26.41 24.81 24.50 23.38 23.54 25.22 26.70 27.63 27.34 25.98 25.52 26.61 27.02 25.81 24.04 23.34 24.74 25.60 23.89 23.15 22.37 22.29 22.65 22.30 21.19 22.29 22.35 20.84 20.29
20.80 23.43 20.19 23.55 21.27 24.97 27.37 23.47 27.09 28.36 25.63 27.33 24.46 22.54 26.75 24.95 24.78 25.37 25.06 26.36 26.93 26.66 26.23 26.37 25.19 24.52 25.13 26.00 26.05 23.47 23.30 25.22 25.12 24.81 23.32 22.01 22.42 23.14 21.65 19.93 21.14 21.91 21.87 19.37
28.70 30.55 23.75 25.21 25.36 24.94 27.05 27.62 28.07 26.89 26.94 23.66 24.57 23.81 23.82 22.34 23.87 24.48 25.38 25.78 25.73 25.86 25.07 25.36 24.28 23.00 22.81 24.19 24.61 25.01 25.98 25.75 24.95 24.32 24.18 24.18 23.52 22.04 21.68 21.28 21.54 21.57 21.60 20.14
27.65 29.79 26.36 25.82 26.62 27.74 27.57 28.47 28.52 27.89 28.11 27.06 24.58 23.38 22.69 23.33 23.56 24.06 24.64 25.16 25.46 25.19 24.95 24.12 23.00 22.24 21.85 22.70 22.88 23.70 24.68 25.57 24.69 23.88 23.62 23.10 22.96 22.46 20.95 19.57 20.21 20.69 21.97 22.99
26.99 26.60 24.25 21.41 28.28 26.51 26.51 27.87 27.96 26.47 26.08 25.11 24.24 24.09 25.11 25.36 23.94 25.08 24.28 24.98 24.63 23.34 23.25 22.37 21.92 21.57 21.17 21.35 21.12 21.98 23.58 23.73 23.34 22.47 22.18 21.56 21.23 20.60 20.42 18.80 17.55 22.71 23.45 24.11

GFSCGP_sfc_wetblb_126.txt.gz
Wetbulb
40.83 35.76 32.46 37.46 34.92 35.52 34.08 31.75 30.46 32.67 37.28 34.72 35.24 35.61 37.13 38.97 38.40 38.53 39.64 39.06 42.76 41.77 42.41 42.10 41.35 40.86 40.63 40.94 40.45 39.96 40.31 39.93 40.53 41.16 41.21 43.77 42.67 46.01 47.31 46.17 48.49 47.80 47.85 49.72
35.40 31.41 37.96 38.39 37.62 35.27 33.82 30.79 30.17 33.99 37.80 36.49 34.60 34.84 37.33 37.90 38.12 39.58 40.98 42.00 40.95 39.96 39.41 39.85 39.56 39.11 38.22 37.68 38.27 38.86 38.38 38.47 38.20 38.71 39.37 40.37 41.33 43.69 44.74 42.88 43.93 44.71 45.05 47.03
33.36 37.19 40.15 37.83 35.68 34.19 33.23 31.30 31.40 31.91 35.48 35.23 33.97 31.75 33.45 38.12 39.35 39.52 39.04 38.95 38.52 37.67 37.06 37.50 37.54 36.52 36.78 36.60 36.26 37.20 37.10 36.74 36.92 36.91 37.30 37.71 40.00 40.29 41.02 39.39 40.23 41.30 43.15 44.44
34.65 39.12 37.52 35.42 34.70 35.27 29.32 36.20 35.57 34.04 32.02 27.25 32.78 25.15 31.31 35.75 35.31 36.28 36.36 36.40 36.65 37.51 38.56 38.40 37.72 37.10 36.07 35.11 36.66 36.22 37.08 36.02 36.17 35.85 34.54 33.76 34.15 34.09 36.85 37.36 38.34 39.25 41.48 43.08
34.74 36.66 35.17 33.61 35.34 36.95 33.66 38.99 36.56 35.34 31.49 27.17 28.87 25.09 27.91 36.75 32.57 33.71 34.95 36.05 37.08 38.22 38.09 37.74 38.01 38.09 37.75 37.06 36.13 35.62 35.33 35.46 34.94 34.78 34.03 32.82 32.28 33.19 34.87 35.63 35.90 37.57 39.61 41.11
36.28 38.87 38.42 37.61 39.54 39.13 39.89 36.66 34.45 31.07 29.48 24.94 29.85 27.93 24.75 31.29 34.10 34.02 35.93 37.36 38.14 38.83 38.60 38.32 38.60 38.18 36.78 36.62 35.54 35.06 34.29 34.27 34.65 34.29 34.19 33.74 32.98 33.18 33.48 34.85 35.69 37.03 38.04 39.01
33.91 35.98 38.38 40.51 36.01 38.13 36.39 31.54 24.87 21.61 21.45 23.15 29.14 26.08 29.79 35.45 37.26 35.95 35.95 37.15 39.09 39.51 39.43 38.85 37.91 37.11 36.41 35.12 34.36 33.92 33.29 33.04 33.99 33.96 34.04 33.94 33.93 33.77 33.67 34.30 34.99 35.24 36.32 37.31
26.81 26.05 34.51 38.02 36.86 33.44 32.57 31.80 25.80 20.23 20.06 21.14 28.29 23.66 27.10 38.03 38.65 39.00 39.18 39.43 38.85 37.67 39.10 37.96 36.43 35.05 33.51 33.03 33.16 32.68 32.33 32.29 33.06 33.43 33.34 34.09 34.14 33.93 34.22 34.33 34.33 35.52 36.25 37.21
27.68 28.04 35.64 38.15 38.02 37.92 32.53 29.58 33.25 27.20 26.65 24.20 24.84 27.80 35.05 38.45 37.60 37.79 38.29 39.13 38.86 39.07 37.72 35.15 34.35 33.10 31.60 30.90 31.18 30.79 31.16 31.40 31.88 32.79 33.11 34.02 33.98 33.83 33.43 33.69 34.67 35.24 35.89 36.62
33.40 26.95 34.09 35.95 35.64 34.69 34.02 35.51 26.31 25.73 20.75 19.39 22.45 23.52 25.09 33.11 35.23 37.60 37.44 37.86 39.67 39.40 35.42 32.67 31.77 31.50 31.61 30.75 31.11 31.98 32.01 31.72 32.14 32.82 32.48 33.55 33.73 34.01 33.70 33.88 33.14 33.68 34.19 34.92
34.23 31.85 30.22 34.24 31.48 29.46 29.98 29.36 29.54 29.98 26.74 21.27 19.02 22.89 31.76 34.61 36.28 36.46 37.41 38.92 38.41 34.67 29.69 28.97 29.20 29.49 29.84 30.06 30.98 30.86 31.36 31.26 31.60 31.79 31.30 32.16 32.69 32.79 33.80 33.18 32.48 32.85 33.53 33.83
35.67 30.79 25.59 29.58 36.14 35.02 32.65 32.37 32.85 26.81 23.45 25.65 22.81 24.08 35.26 36.23 37.78 38.95 38.16 32.37 31.13 28.81 27.62 27.68 27.99 28.31 28.42 29.55 30.26 30.15 30.54 30.30 30.80 31.05 31.05 30.91 31.40 31.86 31.28 31.22 31.46 31.97 31.36 32.24
35.50 30.13 26.77 27.02 28.58 32.37 30.31 31.38 32.36 31.43 28.13 25.23 22.66 24.28 38.48 38.56 38.13 38.84 30.79 30.36 28.59 28.01 27.13 26.82 26.98 28.46 28.85 29.35 29.68 29.89 29.97 29.89 30.40 30.39 29.00 29.11 28.53 29.55 28.53 29.65 30.18 30.47 30.46 30.62
38.95 30.56 28.25 24.74 26.75 29.54 28.39 30.73 31.69 30.28 21.85 25.05 26.12 27.42 33.65 36.43 35.05 31.91 29.52 28.71 28.09 27.62 27.90 27.28 27.28 28.02 28.76 28.87 29.10 28.16 27.74 29.12 28.93 28.81 28.74 27.47 27.27 27.77 28.46 28.26 28.65 28.73 29.04 29.18
34.75 28.02 29.34 29.55 31.55 31.39 29.80 30.51 31.46 29.43 29.45 26.07 28.30 27.83 30.50 33.54 33.42 30.31 28.42 28.33 27.73 27.49 27.83 27.77 26.95 26.87 27.36 27.45 25.28 25.61 25.05 25.22 25.73 26.10 25.46 25.05 26.94 27.17 27.16 27.07 27.00 27.36 26.93 27.83
32.31 28.61 27.59 26.68 30.36 30.78 28.54 29.87 30.95 31.41 31.46 30.14 29.76 28.63 30.34 29.74 29.05 28.22 29.15 29.01 27.82 27.20 27.16 27.01 25.76 25.74 25.93 25.91 26.47 27.11 25.08 23.53 24.09 22.87 22.34 24.06 24.61 25.28 24.76 24.92 25.32 25.72 25.96 26.83
29.23 28.22 28.17 25.60 27.51 27.49 24.06 27.50 29.75 31.24 30.25 28.27 21.99 27.28 28.04 27.58 28.41 27.19 27.66 28.55 27.77 26.50 25.89 25.50 24.25 24.16 24.00 23.82 26.42 25.66 25.39 25.03 23.33 21.70 22.97 22.49 22.73 22.51 22.37 23.15 23.25 23.14 24.51 25.86
30.93 29.04 29.23 26.07 24.63 16.54 25.83 29.53 30.43 29.18 28.29 28.88 28.46 28.00 28.02 27.75 27.04 26.14 26.68 27.09 26.59 26.06 24.98 23.36 21.62 21.90 22.10 22.80 24.87 27.10 26.39 24.67 22.95 22.15 22.16 22.56 21.49 21.09 21.81 21.51 21.33 21.29 23.27 23.92
34.84 31.09 26.85 22.93 20.36 23.37 24.41 26.30 24.59 24.05 23.81 28.32 27.31 27.51 26.98 26.67 26.47 25.07 27.90 27.33 26.20 23.03 17.68 20.95 22.81 22.24 22.57 25.06 27.17 27.54 26.37 24.63 23.49 21.41 21.38 21.52 21.46 20.89 21.22 20.82 20.43 21.30 21.90 22.89
35.51 33.79 28.84 21.92 18.26 9.88 17.76 28.53 30.96 27.10 16.90 27.47 28.09 28.15 26.32 26.04 21.85 14.31 23.87 23.26 20.83 20.46 22.22 23.85 24.95 25.80 26.64 26.41 27.92 26.37 25.55 23.46 21.88 22.00 21.89 22.11 22.40 20.88 20.29 21.10 21.32 21.36 21.56 22.35
27.99 27.85 24.79 22.16 18.76 21.20 26.50 29.76 30.36 16.94 17.33 26.93 27.77 27.67 26.81 23.02 21.27 18.06 22.39 20.00 19.79 23.39 25.24 26.89 26.36 25.30 26.08 27.09 26.90 24.72 24.25 23.48 24.07 23.47 23.05 22.51 22.66 21.86 20.79 21.67 22.43 21.11 20.28 20.46
26.34 24.63 23.44 22.33 19.71 16.89 29.46 28.62 24.05 22.81 25.59 26.54 24.87 22.27 26.43 24.01 24.18 23.51 22.93 22.54 24.01 24.87 25.96 26.69 25.93 25.58 26.63 26.64 25.40 23.58 23.00 24.55 25.22 24.30 22.71 22.35 22.00 21.72 21.73 21.40 22.12 21.05 19.45 18.14
22.04 27.06 23.19 26.48 23.65 26.53 27.89 25.10 27.78 28.06 25.67 26.47 23.69 21.91 23.92 23.12 23.70 23.12 22.97 23.17 25.40 24.98 25.34 26.58 25.43 24.83 25.44 26.01 25.79 23.21 23.85 25.37 25.28 24.18 23.40 22.51 21.77 21.43 21.49 20.61 20.71 20.99 19.64 18.26
29.27 30.33 25.61 25.21 24.89 26.10 27.82 27.90 27.56 26.34 27.47 23.26 23.42 22.53 26.67 24.43 24.43 24.19 24.82 24.47 23.87 24.21 24.51 25.30 24.68 23.56 22.87 24.12 24.85 25.06 25.89 25.66 24.40 23.35 22.86 23.12 21.70 19.51 19.49 20.68 20.51 20.11 19.44 17.74
29.21 30.01 26.73 25.55 26.29 27.52 27.75 27.25 26.28 27.59 26.76 23.48 21.65 20.95 20.46 22.89 22.88 23.88 23.30 23.67 24.26 24.18 24.74 24.45 22.99 22.27 22.02 22.70 22.80 23.36 24.40 24.86 23.17 22.30 22.29 21.66 21.39 19.94 18.32 17.35 19.71 19.87 20.62 21.00
27.34 26.99 24.70 23.38 28.77 27.38 26.73 26.61 27.60 26.73 26.23 24.62 22.89 21.79 22.84 24.10 22.44 23.64 22.59 23.79 23.79 23.39 23.64 22.39 22.15 21.61 21.34 21.14 21.28 22.20 23.13 23.20 22.42 21.15 20.65 20.31 19.94 19.05 18.39 16.95 15.98 21.88 22.51 23.05

GFSCGP_sfc_wetblb_129.txt.gz
Wetbulb
44.06 41.22 38.55 41.41 40.08 38.61 37.48 36.24 35.26 38.03 40.90 38.20 39.12 39.53 41.77 45.24 43.49 43.40 45.12 43.84 41.99 41.22 42.23 42.27 42.37 42.41 42.50 42.19 42.24 42.21 42.14 42.20 42.39 43.01 44.04 46.54 45.89 49.51 50.35 48.05 48.36 48.35 48.64 50.00
39.55 37.79 42.34 41.79 40.61 38.64 38.19 35.78 35.65 37.98 40.16 39.85 39.08 39.11 42.53 41.76 40.47 41.31 43.06 41.63 41.17 41.15 41.30 41.16 41.42 41.44 40.93 41.13 41.06 41.21 40.74 40.92 40.78 41.23 41.60 43.08 44.46 47.05 48.48 45.64 46.05 46.22 46.65 48.06
38.30 40.37 41.51 40.52 38.30 36.81 36.36 34.97 35.27 35.11 38.64 40.17 39.08 37.52 37.77 39.47 40.42 40.69 40.32 40.80 40.57 40.23 39.93 40.49 41.00 40.23 40.47 40.20 39.88 39.84 40.20 39.83 40.03 40.15 40.82 41.76 43.60 43.92 44.18 42.54 43.15 43.59 45.13 46.62
38.63 41.92 39.20 38.02 37.32 38.03 33.14 38.85 37.92 36.33 35.52 31.73 38.15 29.38 35.92 38.19 36.89 38.13 38.57 39.27 39.72 40.26 40.52 40.65 40.47 39.57 38.49 37.88 38.61 38.32 39.14 39.14 39.44 39.65 39.10 38.34 37.51 37.45 38.60 40.00 41.50 42.59 44.06 44.48
37.38 38.69 37.02 36.39 37.72 39.49 36.20 39.89 38.48 37.94 35.87 33.75 33.98 31.37 33.81 37.56 35.05 36.09 37.53 38.53 39.71 40.47 40.73 40.98 41.13 39.35 38.39 38.19 37.19 37.27 37.19 37.14 37.54 38.64 38.87 38.24 37.82 38.03 39.26 39.21 39.74 41.29 42.25 42.94
38.73 42.32 41.15 40.48 40.85 39.99 41.43 39.12 37.68 35.14 34.71 28.72 33.68 32.99 32.36 35.77 38.00 36.81 38.49 39.34 40.48 41.14 40.98 41.21 41.30 40.67 39.11 38.81 37.96 37.64 36.31 36.70 36.26 36.69 37.54 37.37 36.38 36.13 36.20 37.05 37.38 38.48 39.64 40.28
36.89 38.45 41.22 42.17 38.40 40.33 39.66 35.92 29.15 27.65 27.17 26.66 32.85 31.33 35.22 38.61 39.61 40.26 38.95 39.96 41.40 41.74 41.81 40.79 39.81 37.87 36.97 36.09 35.99 36.14 36.25 35.30 35.64 35.26 36.78 36.98 35.98 36.05 35.57 35.50 34.90 35.48 36.70 38.22
31.56 30.11 37.18 40.58 39.36 36.64 36.06 35.85 29.48 22.43 23.84 27.54 31.61 28.62 34.26 40.21 41.16 41.06 40.83 41.53 41.75 41.47 40.54 39.06 37.35 36.29 35.56 35.02 35.09 35.10 34.65 34.52 35.28 35.79 35.25 36.50 36.41 35.66 35.57 35.19 34.49 34.94 35.70 36.50
31.53 31.41 38.69 39.40 40.50 40.69 35.53 32.96 37.24 32.04 29.84 27.37 31.54 34.37 37.19 40.13 38.62 39.40 39.96 40.99 40.77 40.63 38.80 36.86 35.82 35.13 34.83 34.19 34.03 33.29 33.73 34.22 34.46 33.71 33.55 34.55 34.52 34.52 34.27 34.97 35.29 34.66 35.71 36.18
37.18 31.45 36.98 38.52 39.94 38.16 38.11 39.44 31.47 31.52 23.57 21.07 27.76 29.36 31.71 35.34 37.30 38.26 39.06 40.25 41.25 39.57 36.20 34.34 33.88 33.60 33.80 33.89 34.13 34.17 34.04 32.94 33.09 33.11 32.87 33.02 33.14 33.94 33.85 33.98 33.37 33.22 34.03 34.21
37.42 34.28 33.99 37.49 34.85 34.27 34.29 33.50 33.34 34.15 30.42 25.40 23.57 29.09 37.59 38.21 39.88 39.45 40.00 41.25 41.88 37.18 32.26 32.59 32.46 33.02 33.00 33.79 33.48 32.77 32.43 31.93 32.09 32.35 32.13 31.91 31.84 32.48 32.54 32.55 32.35 32.08 32.70 33.19
38.28 34.37 29.69 32.67 37.69 38.46 36.26 35.16 35.54 30.19 27.60 29.94 28.51 29.22 39.86 40.52 40.74 41.73 41.38 40.67 38.43 33.52 30.89 32.08 31.78 32.61 32.09 32.04 32.34 31.83 31.49 31.46 31.58 31.68 31.60 31.03 30.93 31.15 31.09 30.83 30.93 31.83 31.13 32.31
37.35 33.46 27.68 29.67 33.47 36.86 34.02 36.32 35.40 34.46 33.64 29.82 26.01 29.70 40.21 40.68 40.54 41.57 37.85 34.88 32.94 30.70 30.59 30.72 31.10 30.86 30.78 30.59 30.45 29.96 30.51 30.64 31.07 31.31 30.80 30.24 29.94 30.16 29.79 29.73 30.06 30.53 30.22 30.76
40.50 34.22 31.19 26.47 30.47 33.61 31.19 33.02 33.94 33.76 29.14 29.98 30.74 32.72 37.05 38.51 38.48 36.65 36.07 33.87 32.01 30.97 30.33 30.47 30.22 29.78 29.90 29.01 28.46 28.00 28.61 29.27 29.37 29.41 29.23 28.79 28.40 29.04 29.49 29.91 29.46 29.76 30.22 29.89
38.09 30.63 32.58 33.37 34.10 34.00 33.17 33.24 33.72 31.13 32.73 29.21 32.62 31.80 36.12 38.22 39.50 39.67 34.56 31.95 30.14 29.76 29.98 29.14 28.63 28.83 28.84 28.54 29.03 28.30 27.46 27.44 27.61 26.48 25.96 25.73 26.67 27.16 27.79 28.19 28.23 28.84 29.78 29.64
34.86 30.90 30.58 29.77 33.14 32.93 31.12 33.09 33.43 33.66 33.51 33.04 34.22 33.46 35.57 33.15 33.61 31.97 31.73 31.26 29.33 29.18 28.50 27.59 27.90 27.79 27.77 28.10 27.94 27.47 26.62 26.19 26.54 25.55 24.47 24.54 25.59 25.44 25.23 25.95 26.35 27.12 27.68 27.77
33.33 31.52 29.40 25.91 30.56 28.92 25.94 30.87 32.03 33.62 35.33 34.72 30.58 35.37 33.20 31.46 32.20 32.30 31.73 31.60 29.84 28.48 27.76 27.52 27.12 27.62 27.91 27.90 28.58 26.72 26.38 26.66 25.23 24.52 24.45 24.30 24.31 23.93 24.88 25.18 25.09 25.27 26.61 27.25
32.94 31.08 31.03 26.55 26.62 20.38 31.51 31.98 32.53 32.27 34.07 33.94 31.90 31.80 32.44 32.35 30.49 31.03 32.54 31.38 29.06 28.34 27.48 26.95 27.17 27.40 27.70 28.49 28.75 27.96 26.74 25.72 24.63 23.98 23.70 24.16 23.75 23.60 24.53 24.41 24.11 24.67 26.84 26.36
36.51 33.02 28.21 25.20 23.98 27.77 30.39 30.53 28.97 29.27 29.53 33.42 32.40 30.14 28.88 29.15 29.48 26.84 29.99 30.35 29.21 27.36 25.73 26.23 26.78 26.66 27.59 28.22 28.87 27.78 25.70 24.79 23.94 23.15 23.35 23.84 23.74 22.47 23.29 23.32 23.49 24.33 24.75 25.03
35.17 35.28 29.84 27.23 22.19 19.60 27.38 30.17 32.61 31.59 24.81 31.23 32.22 30.01 28.67 29.38 26.39 29.61 28.53 27.73 25.44 25.04 25.39 24.91 26.84 28.08 27.58 28.04 28.82 26.95 25.47 24.27 22.89 23.34 23.65 24.18 24.07 23.06 22.69 24.10 23.28 23.51 23.77 23.41
29.91 29.77 26.66 26.92 24.31 27.25 30.99 31.90 32.27 23.62 27.24 31.18 32.86 31.38 29.40 28.65 29.97 26.68 25.66 24.67 25.85 25.92 26.62 27.83 26.72 25.89 27.06 28.24 27.81 25.86 25.60 24.00 25.01 24.79 24.50 24.05 24.21 24.15 24.32 25.04 24.18 23.24 22.46 22.49
29.10 27.31 26.13 26.76 23.05 21.11 32.23 30.48 27.47 30.68 29.65 31.47 31.62 32.28 30.46 26.06 24.63 24.56 23.92 24.31 25.82 25.98 27.26 27.74 26.91 26.31 27.29 27.55 26.77 25.09 24.63 26.33 26.69 25.96 23.84 22.96 23.17 24.33 24.58 23.83 23.91 23.26 22.77 21.25
27.56 31.98 28.57 29.31 28.56 29.66 33.34 29.94 30.22 31.27 30.61 29.44 30.17 28.95 29.98 26.52 25.32 24.44 24.27 25.22 26.33 26.65 27.06 27.87 26.75 26.10 27.14 27.38 27.16 24.95 25.53 26.66 26.12 25.35 24.30 23.22 22.61 22.87 24.02 23.33 23.38 23.14 22.86 21.49
30.75 31.76 28.87 28.33 28.77 28.97 29.90 29.75 30.36 30.54 30.69 29.39 29.14 28.19 28.05 25.13 24.72 24.40 25.00 26.16 26.13 26.65 26.25 26.85 26.19 25.07 24.82 26.48 26.33 26.43 26.57 26.34 25.54 24.03 23.48 23.04 22.28 22.07 22.86 23.77 23.29 22.82 22.64 21.55
31.06 31.08 29.16 27.35 27.13 28.53 29.58 30.10 29.59 29.07 28.12 26.36 26.13 27.00 27.30 26.48 24.86 25.29 25.34 25.58 25.73 25.75 26.05 26.06 25.04 24.26 23.54 24.80 24.74 25.57 26.10 25.96 24.15 23.29 22.70 22.17 22.01 21.13 20.92 21.44 22.15 21.93 23.15 22.64
32.22 30.81 28.43 29.41 31.08 31.03 29.76 29.59 29.89 27.84 26.37 25.95 24.68 23.89 26.26 26.40 25.15 25.70 25.04 25.67 25.70 24.90 25.26 24.58 24.27 23.51 23.17 23.56 23.27 23.91 25.04 25.20 23.77 22.04 21.78 21.34 20.87 20.79 20.13 19.65 19.20 21.39 21.93 22.23

GFSCGP_sfc_wetblb_132.txt.gz
Wetbulb
48.68 44.17 42.06 44.12 45.37 44.57 42.86 41.80 41.34 43.94 45.78 43.04 43.01 44.01 46.06 48.43 49.13 48.54 49.59 48.29 47.05 46.03 46.99 47.36 47.70 48.73 49.23 48.91 48.40 48.04 47.99 48.40 48.77 49.31 49.47 51.17 50.41 53.80 54.58 52.88 52.71 52.59 52.99 54.03
44.49 41.75 46.09 46.61 45.74 43.61 43.25 41.48 41.06 43.29 43.81 43.12 43.54 43.29 46.48 46.93 47.09 47.29 48.64 47.60 47.42 46.90 46.53 46.47 47.49 48.55 48.28 47.69 47.34 47.63 47.33 47.70 47.41 47.98 48.24 48.78 49.59 51.47 51.61 50.89 51.19 51.03 51.12 52.28
41.65 43.22 45.40 45.03 43.45 42.01 42.31 40.11 40.22 39.65 42.73 44.50 43.40 42.05 43.39 44.51 45.88 45.72 46.27 47.16 47.28 47.07 46.84 46.89 47.07 46.79 46.00 44.81 45.26 45.37 45.27 45.77 46.24 46.79 47.96 48.48 49.69 49.59 49.16 48.27 48.67 49.11 49.78 50.49
42.39 44.86 43.00 42.07 40.76 42.11 38.17 42.98 41.48 40.14 39.21 36.94 42.70 34.24 41.40 44.24 43.96 44.54 44.99 46.02 46.21 46.32 46.15 46.62 46.64 45.83 45.90 45.64 45.92 45.96 45.53 45.11 44.89 45.71 45.39 44.85 45.26 44.69 46.07 46.80 47.31 47.95 48.56 48.19
39.25 41.33 40.94 40.33 41.27 42.59 39.28 42.56 41.11 41.08 39.94 39.46 39.51 35.74 40.52 43.66 42.00 43.77 45.18 46.08 46.71 47.00 46.87 46.24 46.44 46.70 46.42 45.75 45.31 45.03 44.85 44.04 43.67 44.22 44.48 44.41 43.55 44.10 45.07 45.70 45.24 46.49 46.89 47.43
41.78 45.68 44.42 43.02 43.73 43.77 44.18 42.18 42.07 41.75 39.86 32.69 38.02 37.03 39.05 40.54 42.90 45.09 45.82 46.12 46.85 46.94 47.01 47.23 46.42 45.93 44.95 44.78 44.45 44.50 44.02 43.25 43.48 43.36 43.14 42.77 42.03 41.76 42.01 42.24 42.09 43.11 43.99 45.30
40.22 41.32 44.17 45.21 41.48 43.91 42.89 39.18 33.10 31.54 32.05 31.32 37.73 35.91 39.05 43.69 44.79 45.31 45.41 46.05 47.22 47.82 47.36 46.03 44.92 44.06 42.98 42.95 43.23 43.01 42.75 41.87 42.47 41.68 41.17 41.61 40.45 40.77 40.09 38.81 39.56 39.56 40.64 41.44
35.69 33.71 41.78 45.10 42.97 40.16 41.01 39.81 33.54 24.99 28.32 32.43 37.28 32.72 39.28 44.22 46.58 46.92 47.34 47.93 47.84 47.42 45.43 44.72 43.60 42.82 42.06 41.89 41.89 41.75 41.11 40.53 40.53 39.92 39.37 39.43 38.21 38.03 38.32 37.67 37.28 37.61 37.26 38.11
36.26 35.40 42.75 43.72 44.55 44.20 39.83 36.64 41.99 35.33 36.31 31.86 35.38 39.02 42.23 44.34 43.56 44.59 45.36 46.06 46.46 46.14 43.42 43.80 42.42 41.66 41.27 41.09 40.47 40.27 39.43 39.23 38.59 38.14 37.78 37.50 37.31 37.02 36.19 36.62 36.85 36.23 36.46 36.47
39.84 33.09 39.74 42.09 43.82 43.83 41.78 43.50 34.85 36.03 25.89 25.52 32.96 34.88 36.05 40.29 41.98 43.21 43.99 45.04 46.48 44.95 42.08 41.73 41.26 39.94 40.30 40.44 40.46 40.40 39.11 38.02 37.56 37.39 37.00 36.35 36.33 36.24 35.93 35.75 34.71 34.77 34.97 35.56
41.24 38.03 36.56 40.71 38.95 37.78 38.92 37.57 38.21 37.96 34.86 27.85 27.35 33.25 42.80 41.31 43.32 44.37 45.29 46.30 47.18 45.45 42.58 39.42 39.99 39.30 39.42 39.67 39.18 38.20 37.28 36.63 36.82 37.12 37.37 36.75 35.72 36.18 35.80 34.80 34.35 34.01 34.47 34.15
38.92 36.19 32.66 35.67 42.09 43.05 41.24 38.96 39.07 31.83 30.25 32.67 32.71 33.32 44.20 44.18 44.96 45.69 46.37 46.34 47.69 45.12 40.98 38.14 37.42 38.56 38.32 37.84 37.82 37.57 37.26 36.11 35.52 36.14 36.18 36.12 35.40 34.77 34.20 33.60 33.54 33.68 33.13 33.85
40.14 34.81 29.39 31.59 37.44 41.35 38.15 39.49 38.92 36.22 34.39 31.15 28.40 33.05 44.64 44.48 44.31 45.66 45.93 46.33 45.55 41.74 39.18 36.70 36.64 37.20 36.94 36.45 35.84 36.18 36.54 36.06 36.10 35.34 35.18 35.36 34.16 32.90 32.02 32.17 32.86 32.75 32.62 33.06
42.17 37.20 33.13 28.47 32.39 37.25 34.21 36.98 38.58 36.45 30.97 32.28 33.03 35.25 40.46 42.55 43.13 44.72 45.28 44.23 42.73 40.39 37.60 37.81 37.47 36.47 35.54 34.99 34.88 34.05 33.38 33.81 34.08 34.12 33.22 32.38 32.31 32.03 31.88 31.88 31.81 31.92 32.19 31.45
39.24 32.21 35.00 35.84 36.65 36.74 35.90 35.73 36.55 34.83 36.23 31.88 35.18 35.11 39.47 42.21 43.34 44.76 45.26 43.55 40.66 37.76 36.73 36.43 33.97 35.00 34.68 34.48 33.64 33.13 32.41 32.29 32.24 30.97 29.82 29.45 30.93 31.16 31.23 31.14 30.97 31.53 31.71 30.81
39.49 31.86 34.47 32.11 35.75 36.07 33.74 35.95 36.56 36.39 36.88 36.87 37.61 36.88 43.32 43.43 43.20 42.52 42.43 40.04 37.76 35.95 34.61 32.29 32.32 33.61 32.71 31.79 31.63 30.91 30.03 30.15 30.69 29.55 27.81 28.04 29.00 28.96 28.55 29.24 29.36 30.89 31.06 30.59
36.01 33.30 30.19 26.89 33.81 33.16 28.79 34.10 36.02 37.33 38.78 38.03 33.66 39.72 43.66 41.15 39.66 40.47 39.80 38.45 36.57 33.56 31.57 31.33 31.93 32.17 31.70 31.20 30.84 29.33 28.85 29.84 28.87 27.79 27.72 27.38 27.28 27.28 27.39 28.11 28.40 28.92 29.14 29.50
34.49 32.97 32.17 28.00 30.30 22.25 34.58 38.73 37.74 37.22 39.03 40.35 40.71 41.59 40.25 39.63 38.74 38.58 39.82 38.31 34.76 33.11 32.25 31.57 31.34 30.98 30.86 31.47 30.30 29.43 28.87 27.98 27.77 27.28 26.87 27.03 26.14 25.94 27.24 26.66 26.80 27.91 29.63 28.34
38.38 34.80 29.14 25.54 25.96 30.87 33.84 37.43 34.57 33.12 34.96 39.79 38.12 40.04 37.19 35.87 35.72 31.70 35.54 36.63 33.84 32.29 31.80 30.34 30.73 30.50 30.09 30.00 30.14 28.29 27.55 27.46 26.97 26.03 26.29 26.54 25.88 25.65 26.28 25.24 26.11 27.50 27.72 27.53
37.40 36.62 30.93 28.13 22.84 20.60 33.79 36.42 38.16 37.16 29.26 39.64 38.44 38.48 34.26 34.79 32.87 36.17 33.59 33.39 30.89 29.86 29.58 29.12 29.79 30.22 30.02 29.99 30.74 28.39 26.72 25.75 24.83 25.50 26.07 26.95 26.74 26.28 25.52 26.36 26.22 27.41 27.95 26.92
30.90 30.67 27.05 28.82 26.22 30.25 38.37 37.23 38.20 27.61 32.18 37.14 38.68 37.90 35.25 34.14 34.67 32.55 31.82 29.87 29.68 28.83 28.82 30.29 29.64 29.01 28.92 30.54 30.20 27.23 26.27 24.69 25.68 26.21 25.91 25.80 27.21 26.88 27.31 27.29 27.61 27.07 26.77 26.66
29.90 28.22 28.84 29.96 26.74 25.26 38.02 34.87 30.80 34.79 36.08 37.41 38.27 37.55 35.90 30.96 28.87 28.63 28.12 27.45 27.80 28.02 29.13 30.28 29.54 28.55 29.38 29.72 28.86 27.13 26.17 27.56 27.72 26.00 25.23 25.38 26.02 27.48 27.87 27.26 27.82 27.28 26.55 25.73
29.26 34.45 32.43 32.63 33.06 35.71 38.17 35.90 37.36 37.49 36.62 37.00 37.83 37.06 36.24 29.83 28.27 27.77 27.54 27.50 28.28 29.23 29.18 30.42 29.59 28.45 29.35 30.10 29.16 26.69 27.35 28.19 27.45 26.77 25.11 24.71 25.54 26.97 27.23 26.49 26.49 27.02 26.56 24.96
36.56 38.81 34.21 33.30 36.76 33.57 36.28 35.41 35.78 36.50 36.87 36.31 36.74 36.15 33.72 29.89 28.68 27.89 27.97 28.35 28.59 28.48 28.18 29.24 28.68 28.04 28.08 29.52 29.31 29.16 28.59 28.19 27.22 25.80 25.09 25.41 24.73 24.96 26.16 27.45 26.68 25.08 24.87 24.49
36.82 35.97 34.38 34.11 33.37 31.14 33.24 36.49 36.29 34.62 34.35 32.83 33.01 33.85 32.01 31.08 28.60 28.49 28.19 28.32 28.38 28.55 28.46 29.11 28.87 28.68 28.50 28.97 28.75 29.17 28.73 28.31 26.50 25.22 24.95 25.15 25.02 24.69 24.12 23.80 24.39 24.20 23.38 23.02
36.74 34.30 31.37 32.46 36.10 35.99 36.74 37.14 35.53 32.80 31.66 31.89 30.78 30.36 31.97 31.34 28.59 29.38 28.11 28.67 28.17 27.66 28.45 28.20 28.46 28.05 27.77 27.83 27.15 27.99 28.78 28.07 26.09 24.46 24.42 24.25 24.77 24.56 24.21 23.80 22.57 21.45 21.20 20.95